<?xml version="1.0" encoding="UTF-8" standalone="no" ?>
<gpx xmlns="http://www.topografix.com/GPX/1/1" xmlns:xsi="http://www.w3.org/2001/XMLSchema-instance" xsi:schemaLocation="http://www.topografix.com/GPX/1/1 http://www.topografix.com/GPX/1/1/gpx.xsd" version="1.1" creator="VisuGPX - https://www.visugpx.com">
  <metadata>
    <name>La Guerche sur l'Aubois </name>
    <desc><![CDATA[Temps frais avec du soleil et du vent , excellent pour la rando , ]]></desc>
  </metadata>
  <trk>
    <name><![CDATA[La Guerche sur l'Aubois _1]]></name>
    <trkseg>
      <trkpt lat="46.95132" lon="2.94427">
        <ele>177.18090820312</ele>
        <time>2016-02-03T12:48:17.000Z</time>
      </trkpt>
      <trkpt lat="46.95131" lon="2.94429">
        <ele>177.2297668457</ele>
        <time>2016-02-03T12:49:33.000Z</time>
      </trkpt>
      <trkpt lat="46.95129" lon="2.94429">
        <ele>177.27203369141</ele>
        <time>2016-02-03T12:49:34.000Z</time>
      </trkpt>
      <trkpt lat="46.95128" lon="2.94429">
        <ele>177.29364013672</ele>
        <time>2016-02-03T12:49:34.000Z</time>
      </trkpt>
      <trkpt lat="46.95126" lon="2.94428">
        <ele>177.31173706055</ele>
        <time>2016-02-03T12:49:34.000Z</time>
      </trkpt>
      <trkpt lat="46.95124" lon="2.94426">
        <ele>177.34658813477</ele>
        <time>2016-02-03T12:49:34.000Z</time>
      </trkpt>
      <trkpt lat="46.95123" lon="2.94425">
        <ele>177.36416625977</ele>
        <time>2016-02-03T12:49:34.000Z</time>
      </trkpt>
      <trkpt lat="46.9512" lon="2.94423">
        <ele>177.36135864258</ele>
        <time>2016-02-03T12:49:35.000Z</time>
      </trkpt>
      <trkpt lat="46.95119" lon="2.94423">
        <ele>177.3663482666</ele>
        <time>2016-02-03T12:49:35.000Z</time>
      </trkpt>
      <trkpt lat="46.95117" lon="2.94422">
        <ele>177.37182617188</ele>
        <time>2016-02-03T12:49:35.000Z</time>
      </trkpt>
      <trkpt lat="46.95116" lon="2.94421">
        <ele>177.3802947998</ele>
        <time>2016-02-03T12:49:35.000Z</time>
      </trkpt>
      <trkpt lat="46.95114" lon="2.94421">
        <ele>177.39251708984</ele>
        <time>2016-02-03T12:49:35.000Z</time>
      </trkpt>
      <trkpt lat="46.95112" lon="2.9442">
        <ele>177.41494750977</ele>
        <time>2016-02-03T12:49:35.000Z</time>
      </trkpt>
      <trkpt lat="46.95111" lon="2.94419">
        <ele>177.42835998535</ele>
        <time>2016-02-03T12:49:36.000Z</time>
      </trkpt>
      <trkpt lat="46.95108" lon="2.94416">
        <ele>177.42581176758</ele>
        <time>2016-02-03T12:49:36.000Z</time>
      </trkpt>
      <trkpt lat="46.95106" lon="2.94413">
        <ele>177.43240356445</ele>
        <time>2016-02-03T12:49:36.000Z</time>
      </trkpt>
      <trkpt lat="46.95104" lon="2.9441">
        <ele>177.43838500977</ele>
        <time>2016-02-03T12:49:36.000Z</time>
      </trkpt>
      <trkpt lat="46.95101" lon="2.94406">
        <ele>177.44682312012</ele>
        <time>2016-02-03T12:49:36.000Z</time>
      </trkpt>
      <trkpt lat="46.951" lon="2.94404">
        <ele>177.46032714844</ele>
        <time>2016-02-03T12:49:36.000Z</time>
      </trkpt>
      <trkpt lat="46.95098" lon="2.94401">
        <ele>177.48710632324</ele>
        <time>2016-02-03T12:49:36.000Z</time>
      </trkpt>
      <trkpt lat="46.95096" lon="2.94397">
        <ele>177.50756835938</ele>
        <time>2016-02-03T12:49:37.000Z</time>
      </trkpt>
      <trkpt lat="46.95094" lon="2.94394">
        <ele>177.52365112305</ele>
        <time>2016-02-03T12:49:37.000Z</time>
      </trkpt>
      <trkpt lat="46.95093" lon="2.94393">
        <ele>177.53434753418</ele>
        <time>2016-02-03T12:49:38.000Z</time>
      </trkpt>
      <trkpt lat="46.9509" lon="2.9439">
        <ele>177.54437255859</ele>
        <time>2016-02-03T12:49:41.000Z</time>
      </trkpt>
      <trkpt lat="46.95089" lon="2.94388">
        <ele>177.55282592773</ele>
        <time>2016-02-03T12:49:43.000Z</time>
      </trkpt>
      <trkpt lat="46.95087" lon="2.94386">
        <ele>177.56198120117</ele>
        <time>2016-02-03T12:49:45.000Z</time>
      </trkpt>
      <trkpt lat="46.95085" lon="2.94383">
        <ele>177.56912231445</ele>
        <time>2016-02-03T12:49:48.000Z</time>
      </trkpt>
      <trkpt lat="46.95084" lon="2.9438">
        <ele>177.56893920898</ele>
        <time>2016-02-03T12:49:51.000Z</time>
      </trkpt>
      <trkpt lat="46.95083" lon="2.94379">
        <ele>177.56335449219</ele>
        <time>2016-02-03T12:50:00.000Z</time>
      </trkpt>
      <trkpt lat="46.95082" lon="2.94377">
        <ele>177.55136108398</ele>
        <time>2016-02-03T12:50:02.000Z</time>
      </trkpt>
      <trkpt lat="46.95081" lon="2.94373">
        <ele>177.52925109863</ele>
        <time>2016-02-03T12:50:05.000Z</time>
      </trkpt>
      <trkpt lat="46.9508" lon="2.94368">
        <ele>177.49380493164</ele>
        <time>2016-02-03T12:50:08.000Z</time>
      </trkpt>
      <trkpt lat="46.95079" lon="2.94361">
        <ele>177.44635009766</ele>
        <time>2016-02-03T12:50:11.000Z</time>
      </trkpt>
      <trkpt lat="46.95076" lon="2.94354">
        <ele>177.38481140137</ele>
        <time>2016-02-03T12:50:14.000Z</time>
      </trkpt>
      <trkpt lat="46.95073" lon="2.94348">
        <ele>177.31295776367</ele>
        <time>2016-02-03T12:50:17.000Z</time>
      </trkpt>
      <trkpt lat="46.95071" lon="2.94344">
        <ele>177.24203491211</ele>
        <time>2016-02-03T12:50:20.000Z</time>
      </trkpt>
      <trkpt lat="46.95068" lon="2.94341">
        <ele>177.17794799805</ele>
        <time>2016-02-03T12:50:22.000Z</time>
      </trkpt>
      <trkpt lat="46.95066" lon="2.9434">
        <ele>177.1282043457</ele>
        <time>2016-02-03T12:50:25.000Z</time>
      </trkpt>
      <trkpt lat="46.95063" lon="2.94338">
        <ele>177.08982849121</ele>
        <time>2016-02-03T12:50:28.000Z</time>
      </trkpt>
      <trkpt lat="46.95062" lon="2.94338">
        <ele>177.06674194336</ele>
        <time>2016-02-03T12:50:31.000Z</time>
      </trkpt>
      <trkpt lat="46.9506" lon="2.94338">
        <ele>177.05244445801</ele>
        <time>2016-02-03T12:50:34.000Z</time>
      </trkpt>
      <trkpt lat="46.95055" lon="2.94334">
        <ele>177.03779602051</ele>
        <time>2016-02-03T12:50:37.000Z</time>
      </trkpt>
      <trkpt lat="46.95053" lon="2.94331">
        <ele>177.03366088867</ele>
        <time>2016-02-03T12:50:39.000Z</time>
      </trkpt>
      <trkpt lat="46.95052" lon="2.94327">
        <ele>177.04484558105</ele>
        <time>2016-02-03T12:50:41.000Z</time>
      </trkpt>
      <trkpt lat="46.95051" lon="2.94325">
        <ele>177.06047058105</ele>
        <time>2016-02-03T12:50:43.000Z</time>
      </trkpt>
      <trkpt lat="46.95049" lon="2.94323">
        <ele>177.08067321777</ele>
        <time>2016-02-03T12:50:46.000Z</time>
      </trkpt>
      <trkpt lat="46.95047" lon="2.94323">
        <ele>177.1070098877</ele>
        <time>2016-02-03T12:50:50.000Z</time>
      </trkpt>
      <trkpt lat="46.95045" lon="2.94323">
        <ele>177.1257019043</ele>
        <time>2016-02-03T12:50:52.000Z</time>
      </trkpt>
      <trkpt lat="46.95041" lon="2.94321">
        <ele>177.13421630859</ele>
        <time>2016-02-03T12:50:55.000Z</time>
      </trkpt>
      <trkpt lat="46.95036" lon="2.94319">
        <ele>177.13961791992</ele>
        <time>2016-02-03T12:50:58.000Z</time>
      </trkpt>
      <trkpt lat="46.95036" lon="2.94319">
        <ele>177.14030456543</ele>
        <time>2016-02-03T12:51:01.000Z</time>
      </trkpt>
      <trkpt lat="46.95031" lon="2.94316">
        <ele>177.14450073242</ele>
        <time>2016-02-03T12:51:06.000Z</time>
      </trkpt>
      <trkpt lat="46.95031" lon="2.94314">
        <ele>177.15234375</ele>
        <time>2016-02-03T12:51:08.000Z</time>
      </trkpt>
      <trkpt lat="46.95032" lon="2.94311">
        <ele>177.16549682617</ele>
        <time>2016-02-03T12:51:11.000Z</time>
      </trkpt>
      <trkpt lat="46.95033" lon="2.94308">
        <ele>177.18530273438</ele>
        <time>2016-02-03T12:51:13.000Z</time>
      </trkpt>
      <trkpt lat="46.95035" lon="2.94306">
        <ele>177.21208190918</ele>
        <time>2016-02-03T12:51:15.000Z</time>
      </trkpt>
      <trkpt lat="46.95037" lon="2.94301">
        <ele>177.24923706055</ele>
        <time>2016-02-03T12:51:18.000Z</time>
      </trkpt>
      <trkpt lat="46.95036" lon="2.94297">
        <ele>177.29010009766</ele>
        <time>2016-02-03T12:51:21.000Z</time>
      </trkpt>
      <trkpt lat="46.95034" lon="2.94294">
        <ele>177.32516479492</ele>
        <time>2016-02-03T12:51:23.000Z</time>
      </trkpt>
      <trkpt lat="46.95032" lon="2.9429">
        <ele>177.35473632812</ele>
        <time>2016-02-03T12:51:27.000Z</time>
      </trkpt>
      <trkpt lat="46.9503" lon="2.94288">
        <ele>177.37704467773</ele>
        <time>2016-02-03T12:51:30.000Z</time>
      </trkpt>
      <trkpt lat="46.95026" lon="2.94285">
        <ele>177.38092041016</ele>
        <time>2016-02-03T12:51:33.000Z</time>
      </trkpt>
      <trkpt lat="46.95023" lon="2.9428">
        <ele>177.37573242188</ele>
        <time>2016-02-03T12:51:36.000Z</time>
      </trkpt>
      <trkpt lat="46.95021" lon="2.94277">
        <ele>177.36808776855</ele>
        <time>2016-02-03T12:51:39.000Z</time>
      </trkpt>
      <trkpt lat="46.95017" lon="2.94275">
        <ele>177.34706115723</ele>
        <time>2016-02-03T12:51:42.000Z</time>
      </trkpt>
      <trkpt lat="46.95013" lon="2.94272">
        <ele>177.31628417969</ele>
        <time>2016-02-03T12:51:45.000Z</time>
      </trkpt>
      <trkpt lat="46.95011" lon="2.94269">
        <ele>177.28491210938</ele>
        <time>2016-02-03T12:51:48.000Z</time>
      </trkpt>
      <trkpt lat="46.9501" lon="2.94265">
        <ele>177.25241088867</ele>
        <time>2016-02-03T12:51:51.000Z</time>
      </trkpt>
      <trkpt lat="46.95007" lon="2.94263">
        <ele>177.2137298584</ele>
        <time>2016-02-03T12:51:54.000Z</time>
      </trkpt>
      <trkpt lat="46.95007" lon="2.94261">
        <ele>177.18339538574</ele>
        <time>2016-02-03T12:51:56.000Z</time>
      </trkpt>
      <trkpt lat="46.95004" lon="2.94258">
        <ele>177.15170288086</ele>
        <time>2016-02-03T12:51:59.000Z</time>
      </trkpt>
      <trkpt lat="46.95001" lon="2.94257">
        <ele>177.11636352539</ele>
        <time>2016-02-03T12:52:01.000Z</time>
      </trkpt>
      <trkpt lat="46.95" lon="2.94256">
        <ele>177.07914733887</ele>
        <time>2016-02-03T12:52:03.000Z</time>
      </trkpt>
      <trkpt lat="46.94996" lon="2.94253">
        <ele>177.05941772461</ele>
        <time>2016-02-03T12:52:06.000Z</time>
      </trkpt>
      <trkpt lat="46.94993" lon="2.9425">
        <ele>177.05044555664</ele>
        <time>2016-02-03T12:52:09.000Z</time>
      </trkpt>
      <trkpt lat="46.94987" lon="2.94246">
        <ele>177.07243347168</ele>
        <time>2016-02-03T12:52:12.000Z</time>
      </trkpt>
      <trkpt lat="46.94985" lon="2.94244">
        <ele>177.11312866211</ele>
        <time>2016-02-03T12:52:14.000Z</time>
      </trkpt>
      <trkpt lat="46.94983" lon="2.94242">
        <ele>177.16793823242</ele>
        <time>2016-02-03T12:52:17.000Z</time>
      </trkpt>
      <trkpt lat="46.94979" lon="2.94239">
        <ele>177.22789001465</ele>
        <time>2016-02-03T12:52:20.000Z</time>
      </trkpt>
      <trkpt lat="46.94974" lon="2.94236">
        <ele>177.29504394531</ele>
        <time>2016-02-03T12:52:23.000Z</time>
      </trkpt>
      <trkpt lat="46.94969" lon="2.94233">
        <ele>177.35681152344</ele>
        <time>2016-02-03T12:52:26.000Z</time>
      </trkpt>
      <trkpt lat="46.94965" lon="2.94231">
        <ele>177.41984558105</ele>
        <time>2016-02-03T12:52:29.000Z</time>
      </trkpt>
      <trkpt lat="46.94964" lon="2.9423">
        <ele>177.47665405273</ele>
        <time>2016-02-03T12:52:32.000Z</time>
      </trkpt>
      <trkpt lat="46.94961" lon="2.94229">
        <ele>177.52697753906</ele>
        <time>2016-02-03T12:52:34.000Z</time>
      </trkpt>
      <trkpt lat="46.94955" lon="2.94226">
        <ele>177.57572937012</ele>
        <time>2016-02-03T12:52:43.000Z</time>
      </trkpt>
      <trkpt lat="46.94954" lon="2.94224">
        <ele>177.61380004883</ele>
        <time>2016-02-03T12:52:48.000Z</time>
      </trkpt>
      <trkpt lat="46.94954" lon="2.9422">
        <ele>177.64761352539</ele>
        <time>2016-02-03T12:52:50.000Z</time>
      </trkpt>
      <trkpt lat="46.94953" lon="2.94216">
        <ele>177.6837310791</ele>
        <time>2016-02-03T12:52:53.000Z</time>
      </trkpt>
      <trkpt lat="46.94948" lon="2.94212">
        <ele>177.72280883789</ele>
        <time>2016-02-03T12:52:56.000Z</time>
      </trkpt>
      <trkpt lat="46.94946" lon="2.94209">
        <ele>177.75299072266</ele>
        <time>2016-02-03T12:52:59.000Z</time>
      </trkpt>
      <trkpt lat="46.94944" lon="2.94207">
        <ele>177.78414916992</ele>
        <time>2016-02-03T12:53:02.000Z</time>
      </trkpt>
      <trkpt lat="46.94943" lon="2.94206">
        <ele>177.81135559082</ele>
        <time>2016-02-03T12:53:04.000Z</time>
      </trkpt>
      <trkpt lat="46.94943" lon="2.94203">
        <ele>177.8352355957</ele>
        <time>2016-02-03T12:53:07.000Z</time>
      </trkpt>
      <trkpt lat="46.94942" lon="2.94199">
        <ele>177.85176086426</ele>
        <time>2016-02-03T12:53:09.000Z</time>
      </trkpt>
      <trkpt lat="46.94939" lon="2.94196">
        <ele>177.86842346191</ele>
        <time>2016-02-03T12:53:12.000Z</time>
      </trkpt>
      <trkpt lat="46.94935" lon="2.94193">
        <ele>177.88566589355</ele>
        <time>2016-02-03T12:53:15.000Z</time>
      </trkpt>
      <trkpt lat="46.94933" lon="2.9419">
        <ele>177.904296875</ele>
        <time>2016-02-03T12:53:17.000Z</time>
      </trkpt>
      <trkpt lat="46.9493" lon="2.94188">
        <ele>177.92327880859</ele>
        <time>2016-02-03T12:53:19.000Z</time>
      </trkpt>
      <trkpt lat="46.94929" lon="2.94186">
        <ele>177.94067382812</ele>
        <time>2016-02-03T12:53:21.000Z</time>
      </trkpt>
      <trkpt lat="46.94926" lon="2.94183">
        <ele>177.95527648926</ele>
        <time>2016-02-03T12:53:24.000Z</time>
      </trkpt>
      <trkpt lat="46.94923" lon="2.94179">
        <ele>177.96682739258</ele>
        <time>2016-02-03T12:53:27.000Z</time>
      </trkpt>
      <trkpt lat="46.9492" lon="2.94177">
        <ele>177.97700500488</ele>
        <time>2016-02-03T12:53:30.000Z</time>
      </trkpt>
      <trkpt lat="46.94918" lon="2.94176">
        <ele>177.98497009277</ele>
        <time>2016-02-03T12:53:33.000Z</time>
      </trkpt>
      <trkpt lat="46.94915" lon="2.94174">
        <ele>177.98719787598</ele>
        <time>2016-02-03T12:53:36.000Z</time>
      </trkpt>
      <trkpt lat="46.94911" lon="2.94171">
        <ele>177.97808837891</ele>
        <time>2016-02-03T12:53:39.000Z</time>
      </trkpt>
      <trkpt lat="46.94907" lon="2.94169">
        <ele>177.95719909668</ele>
        <time>2016-02-03T12:53:42.000Z</time>
      </trkpt>
      <trkpt lat="46.94904" lon="2.94166">
        <ele>177.92535400391</ele>
        <time>2016-02-03T12:53:45.000Z</time>
      </trkpt>
      <trkpt lat="46.94901" lon="2.94163">
        <ele>177.87356567383</ele>
        <time>2016-02-03T12:53:48.000Z</time>
      </trkpt>
      <trkpt lat="46.94898" lon="2.94162">
        <ele>177.81216430664</ele>
        <time>2016-02-03T12:53:51.000Z</time>
      </trkpt>
      <trkpt lat="46.94894" lon="2.9416">
        <ele>177.74264526367</ele>
        <time>2016-02-03T12:53:54.000Z</time>
      </trkpt>
      <trkpt lat="46.94888" lon="2.94156">
        <ele>177.65641784668</ele>
        <time>2016-02-03T12:53:57.000Z</time>
      </trkpt>
      <trkpt lat="46.94886" lon="2.94154">
        <ele>177.56477355957</ele>
        <time>2016-02-03T12:53:59.000Z</time>
      </trkpt>
      <trkpt lat="46.94881" lon="2.94151">
        <ele>177.47300720215</ele>
        <time>2016-02-03T12:54:02.000Z</time>
      </trkpt>
      <trkpt lat="46.94878" lon="2.94149">
        <ele>177.3826751709</ele>
        <time>2016-02-03T12:54:04.000Z</time>
      </trkpt>
      <trkpt lat="46.94875" lon="2.94147">
        <ele>177.29598999023</ele>
        <time>2016-02-03T12:54:07.000Z</time>
      </trkpt>
      <trkpt lat="46.94874" lon="2.94145">
        <ele>177.22680664062</ele>
        <time>2016-02-03T12:54:09.000Z</time>
      </trkpt>
      <trkpt lat="46.94871" lon="2.94143">
        <ele>177.15896606445</ele>
        <time>2016-02-03T12:54:12.000Z</time>
      </trkpt>
      <trkpt lat="46.94869" lon="2.94142">
        <ele>177.10270690918</ele>
        <time>2016-02-03T12:54:14.000Z</time>
      </trkpt>
      <trkpt lat="46.94865" lon="2.94139">
        <ele>177.04354858398</ele>
        <time>2016-02-03T12:54:17.000Z</time>
      </trkpt>
      <trkpt lat="46.94863" lon="2.94136">
        <ele>176.98364257812</ele>
        <time>2016-02-03T12:54:20.000Z</time>
      </trkpt>
      <trkpt lat="46.94861" lon="2.94133">
        <ele>176.91986083984</ele>
        <time>2016-02-03T12:54:23.000Z</time>
      </trkpt>
      <trkpt lat="46.9486" lon="2.9413">
        <ele>176.86059570312</ele>
        <time>2016-02-03T12:54:25.000Z</time>
      </trkpt>
      <trkpt lat="46.94856" lon="2.94127">
        <ele>176.79438781738</ele>
        <time>2016-02-03T12:54:28.000Z</time>
      </trkpt>
      <trkpt lat="46.94854" lon="2.94125">
        <ele>176.73580932617</ele>
        <time>2016-02-03T12:54:30.000Z</time>
      </trkpt>
      <trkpt lat="46.94852" lon="2.94125">
        <ele>176.6865234375</ele>
        <time>2016-02-03T12:54:33.000Z</time>
      </trkpt>
      <trkpt lat="46.94848" lon="2.94122">
        <ele>176.63862609863</ele>
        <time>2016-02-03T12:54:36.000Z</time>
      </trkpt>
      <trkpt lat="46.94845" lon="2.9412">
        <ele>176.59106445312</ele>
        <time>2016-02-03T12:54:39.000Z</time>
      </trkpt>
      <trkpt lat="46.94839" lon="2.94118">
        <ele>176.54695129395</ele>
        <time>2016-02-03T12:54:42.000Z</time>
      </trkpt>
      <trkpt lat="46.94834" lon="2.94117">
        <ele>176.50357055664</ele>
        <time>2016-02-03T12:54:45.000Z</time>
      </trkpt>
      <trkpt lat="46.9483" lon="2.94117">
        <ele>176.46028137207</ele>
        <time>2016-02-03T12:54:48.000Z</time>
      </trkpt>
      <trkpt lat="46.94828" lon="2.94117">
        <ele>176.42489624023</ele>
        <time>2016-02-03T12:54:51.000Z</time>
      </trkpt>
      <trkpt lat="46.94825" lon="2.94116">
        <ele>176.39036560059</ele>
        <time>2016-02-03T12:54:54.000Z</time>
      </trkpt>
      <trkpt lat="46.94823" lon="2.94115">
        <ele>176.36038208008</ele>
        <time>2016-02-03T12:54:57.000Z</time>
      </trkpt>
      <trkpt lat="46.94821" lon="2.94114">
        <ele>176.33200073242</ele>
        <time>2016-02-03T12:54:59.000Z</time>
      </trkpt>
      <trkpt lat="46.94818" lon="2.94112">
        <ele>176.29702758789</ele>
        <time>2016-02-03T12:55:02.000Z</time>
      </trkpt>
      <trkpt lat="46.94815" lon="2.94111">
        <ele>176.25927734375</ele>
        <time>2016-02-03T12:55:04.000Z</time>
      </trkpt>
      <trkpt lat="46.94812" lon="2.9411">
        <ele>176.22354125977</ele>
        <time>2016-02-03T12:55:06.000Z</time>
      </trkpt>
      <trkpt lat="46.94808" lon="2.9411">
        <ele>176.18870544434</ele>
        <time>2016-02-03T12:55:09.000Z</time>
      </trkpt>
      <trkpt lat="46.94804" lon="2.94111">
        <ele>176.15286254883</ele>
        <time>2016-02-03T12:55:12.000Z</time>
      </trkpt>
      <trkpt lat="46.94802" lon="2.94111">
        <ele>176.12626647949</ele>
        <time>2016-02-03T12:55:15.000Z</time>
      </trkpt>
      <trkpt lat="46.94799" lon="2.94111">
        <ele>176.10171508789</ele>
        <time>2016-02-03T12:55:17.000Z</time>
      </trkpt>
      <trkpt lat="46.94797" lon="2.9411">
        <ele>176.07650756836</ele>
        <time>2016-02-03T12:55:20.000Z</time>
      </trkpt>
      <trkpt lat="46.94794" lon="2.9411">
        <ele>176.05227661133</ele>
        <time>2016-02-03T12:55:23.000Z</time>
      </trkpt>
      <trkpt lat="46.94791" lon="2.94109">
        <ele>176.02592468262</ele>
        <time>2016-02-03T12:55:26.000Z</time>
      </trkpt>
      <trkpt lat="46.94788" lon="2.94108">
        <ele>175.99421691895</ele>
        <time>2016-02-03T12:55:28.000Z</time>
      </trkpt>
      <trkpt lat="46.94782" lon="2.94109">
        <ele>175.9598236084</ele>
        <time>2016-02-03T12:55:31.000Z</time>
      </trkpt>
      <trkpt lat="46.94778" lon="2.9411">
        <ele>175.93099975586</ele>
        <time>2016-02-03T12:55:34.000Z</time>
      </trkpt>
      <trkpt lat="46.94776" lon="2.94111">
        <ele>175.9040222168</ele>
        <time>2016-02-03T12:55:36.000Z</time>
      </trkpt>
      <trkpt lat="46.94773" lon="2.94112">
        <ele>175.88523864746</ele>
        <time>2016-02-03T12:55:38.000Z</time>
      </trkpt>
      <trkpt lat="46.94768" lon="2.94114">
        <ele>175.87471008301</ele>
        <time>2016-02-03T12:55:41.000Z</time>
      </trkpt>
      <trkpt lat="46.94765" lon="2.94115">
        <ele>175.87239074707</ele>
        <time>2016-02-03T12:55:43.000Z</time>
      </trkpt>
      <trkpt lat="46.94761" lon="2.94116">
        <ele>175.86750793457</ele>
        <time>2016-02-03T12:55:46.000Z</time>
      </trkpt>
      <trkpt lat="46.94758" lon="2.94116">
        <ele>175.86471557617</ele>
        <time>2016-02-03T12:55:48.000Z</time>
      </trkpt>
      <trkpt lat="46.94755" lon="2.94118">
        <ele>175.86251831055</ele>
        <time>2016-02-03T12:55:50.000Z</time>
      </trkpt>
      <trkpt lat="46.94753" lon="2.94119">
        <ele>175.86222839355</ele>
        <time>2016-02-03T12:55:52.000Z</time>
      </trkpt>
      <trkpt lat="46.94748" lon="2.94121">
        <ele>175.87651062012</ele>
        <time>2016-02-03T12:55:55.000Z</time>
      </trkpt>
      <trkpt lat="46.94746" lon="2.94123">
        <ele>175.91879272461</ele>
        <time>2016-02-03T12:55:58.000Z</time>
      </trkpt>
      <trkpt lat="46.94743" lon="2.94124">
        <ele>175.98323059082</ele>
        <time>2016-02-03T12:56:00.000Z</time>
      </trkpt>
      <trkpt lat="46.94741" lon="2.94125">
        <ele>176.06620788574</ele>
        <time>2016-02-03T12:56:02.000Z</time>
      </trkpt>
      <trkpt lat="46.94737" lon="2.94127">
        <ele>176.18008422852</ele>
        <time>2016-02-03T12:56:05.000Z</time>
      </trkpt>
      <trkpt lat="46.94732" lon="2.94128">
        <ele>176.31900024414</ele>
        <time>2016-02-03T12:56:08.000Z</time>
      </trkpt>
      <trkpt lat="46.94728" lon="2.9413">
        <ele>176.46635437012</ele>
        <time>2016-02-03T12:56:11.000Z</time>
      </trkpt>
      <trkpt lat="46.94726" lon="2.9413">
        <ele>176.6061706543</ele>
        <time>2016-02-03T12:56:13.000Z</time>
      </trkpt>
      <trkpt lat="46.94721" lon="2.94131">
        <ele>176.76095581055</ele>
        <time>2016-02-03T12:56:16.000Z</time>
      </trkpt>
      <trkpt lat="46.94718" lon="2.94131">
        <ele>176.90498352051</ele>
        <time>2016-02-03T12:56:18.000Z</time>
      </trkpt>
      <trkpt lat="46.94714" lon="2.94133">
        <ele>177.03578186035</ele>
        <time>2016-02-03T12:56:21.000Z</time>
      </trkpt>
      <trkpt lat="46.94711" lon="2.94134">
        <ele>177.16288757324</ele>
        <time>2016-02-03T12:56:24.000Z</time>
      </trkpt>
      <trkpt lat="46.94708" lon="2.94135">
        <ele>177.30151367188</ele>
        <time>2016-02-03T12:56:27.000Z</time>
      </trkpt>
      <trkpt lat="46.94705" lon="2.94135">
        <ele>177.42250061035</ele>
        <time>2016-02-03T12:56:29.000Z</time>
      </trkpt>
      <trkpt lat="46.94703" lon="2.94135">
        <ele>177.5340423584</ele>
        <time>2016-02-03T12:56:31.000Z</time>
      </trkpt>
      <trkpt lat="46.94701" lon="2.94136">
        <ele>177.63928222656</ele>
        <time>2016-02-03T12:56:33.000Z</time>
      </trkpt>
      <trkpt lat="46.94699" lon="2.94137">
        <ele>177.73570251465</ele>
        <time>2016-02-03T12:56:35.000Z</time>
      </trkpt>
      <trkpt lat="46.94695" lon="2.94139">
        <ele>177.84573364258</ele>
        <time>2016-02-03T12:56:38.000Z</time>
      </trkpt>
      <trkpt lat="46.94691" lon="2.9414">
        <ele>177.96858215332</ele>
        <time>2016-02-03T12:56:41.000Z</time>
      </trkpt>
      <trkpt lat="46.94688" lon="2.94142">
        <ele>178.10702514648</ele>
        <time>2016-02-03T12:56:43.000Z</time>
      </trkpt>
      <trkpt lat="46.94684" lon="2.94144">
        <ele>178.27001953125</ele>
        <time>2016-02-03T12:56:46.000Z</time>
      </trkpt>
      <trkpt lat="46.94682" lon="2.94144">
        <ele>178.41938781738</ele>
        <time>2016-02-03T12:56:49.000Z</time>
      </trkpt>
      <trkpt lat="46.94681" lon="2.94144">
        <ele>178.54132080078</ele>
        <time>2016-02-03T12:56:51.000Z</time>
      </trkpt>
      <trkpt lat="46.94678" lon="2.94145">
        <ele>178.66157531738</ele>
        <time>2016-02-03T12:56:53.000Z</time>
      </trkpt>
      <trkpt lat="46.94675" lon="2.94145">
        <ele>178.7679901123</ele>
        <time>2016-02-03T12:56:56.000Z</time>
      </trkpt>
      <trkpt lat="46.94672" lon="2.94146">
        <ele>178.85562133789</ele>
        <time>2016-02-03T12:56:59.000Z</time>
      </trkpt>
      <trkpt lat="46.9467" lon="2.94146">
        <ele>178.95533752441</ele>
        <time>2016-02-03T12:57:01.000Z</time>
      </trkpt>
      <trkpt lat="46.94666" lon="2.94148">
        <ele>179.07720947266</ele>
        <time>2016-02-03T12:57:04.000Z</time>
      </trkpt>
      <trkpt lat="46.94662" lon="2.94151">
        <ele>179.18594360352</ele>
        <time>2016-02-03T12:57:07.000Z</time>
      </trkpt>
      <trkpt lat="46.9466" lon="2.94152">
        <ele>179.28421020508</ele>
        <time>2016-02-03T12:57:09.000Z</time>
      </trkpt>
      <trkpt lat="46.94657" lon="2.94153">
        <ele>179.35209655762</ele>
        <time>2016-02-03T12:57:11.000Z</time>
      </trkpt>
      <trkpt lat="46.94653" lon="2.94153">
        <ele>179.39730834961</ele>
        <time>2016-02-03T12:57:14.000Z</time>
      </trkpt>
      <trkpt lat="46.9465" lon="2.94153">
        <ele>179.40324401855</ele>
        <time>2016-02-03T12:57:16.000Z</time>
      </trkpt>
      <trkpt lat="46.94647" lon="2.94153">
        <ele>179.3941192627</ele>
        <time>2016-02-03T12:57:19.000Z</time>
      </trkpt>
      <trkpt lat="46.94645" lon="2.94154">
        <ele>179.37948608398</ele>
        <time>2016-02-03T12:57:21.000Z</time>
      </trkpt>
      <trkpt lat="46.94643" lon="2.94154">
        <ele>179.36824035645</ele>
        <time>2016-02-03T12:57:24.000Z</time>
      </trkpt>
      <trkpt lat="46.9464" lon="2.94156">
        <ele>179.36212158203</ele>
        <time>2016-02-03T12:57:27.000Z</time>
      </trkpt>
      <trkpt lat="46.94635" lon="2.94159">
        <ele>179.36885070801</ele>
        <time>2016-02-03T12:57:30.000Z</time>
      </trkpt>
      <trkpt lat="46.94632" lon="2.9416">
        <ele>179.37847900391</ele>
        <time>2016-02-03T12:57:32.000Z</time>
      </trkpt>
      <trkpt lat="46.94627" lon="2.94162">
        <ele>179.38772583008</ele>
        <time>2016-02-03T12:57:35.000Z</time>
      </trkpt>
      <trkpt lat="46.94625" lon="2.94163">
        <ele>179.39633178711</ele>
        <time>2016-02-03T12:57:37.000Z</time>
      </trkpt>
      <trkpt lat="46.94622" lon="2.94164">
        <ele>179.40426635742</ele>
        <time>2016-02-03T12:57:40.000Z</time>
      </trkpt>
      <trkpt lat="46.94618" lon="2.94166">
        <ele>179.40646362305</ele>
        <time>2016-02-03T12:57:43.000Z</time>
      </trkpt>
      <trkpt lat="46.94616" lon="2.94168">
        <ele>179.40194702148</ele>
        <time>2016-02-03T12:57:45.000Z</time>
      </trkpt>
      <trkpt lat="46.94613" lon="2.94169">
        <ele>179.39199829102</ele>
        <time>2016-02-03T12:57:47.000Z</time>
      </trkpt>
      <trkpt lat="46.9461" lon="2.9417">
        <ele>179.3755645752</ele>
        <time>2016-02-03T12:57:50.000Z</time>
      </trkpt>
      <trkpt lat="46.94607" lon="2.94171">
        <ele>179.35383605957</ele>
        <time>2016-02-03T12:57:53.000Z</time>
      </trkpt>
      <trkpt lat="46.94605" lon="2.94172">
        <ele>179.32723999023</ele>
        <time>2016-02-03T12:57:56.000Z</time>
      </trkpt>
      <trkpt lat="46.94604" lon="2.94174">
        <ele>179.30435180664</ele>
        <time>2016-02-03T12:57:59.000Z</time>
      </trkpt>
      <trkpt lat="46.94604" lon="2.94174">
        <ele>179.30435180664</ele>
        <time>2016-02-03T12:58:19.000Z</time>
      </trkpt>
      <trkpt lat="46.94602" lon="2.94173">
        <ele>179.28315734863</ele>
        <time>2016-02-03T12:58:44.000Z</time>
      </trkpt>
      <trkpt lat="46.94601" lon="2.94173">
        <ele>179.26705932617</ele>
        <time>2016-02-03T12:58:47.000Z</time>
      </trkpt>
      <trkpt lat="46.946" lon="2.94174">
        <ele>179.25434875488</ele>
        <time>2016-02-03T12:58:49.000Z</time>
      </trkpt>
      <trkpt lat="46.94598" lon="2.94175">
        <ele>179.24325561523</ele>
        <time>2016-02-03T12:58:52.000Z</time>
      </trkpt>
      <trkpt lat="46.94596" lon="2.94175">
        <ele>179.2299041748</ele>
        <time>2016-02-03T12:58:55.000Z</time>
      </trkpt>
      <trkpt lat="46.94594" lon="2.94176">
        <ele>179.22067260742</ele>
        <time>2016-02-03T12:58:58.000Z</time>
      </trkpt>
      <trkpt lat="46.94593" lon="2.94177">
        <ele>179.21253967285</ele>
        <time>2016-02-03T12:59:00.000Z</time>
      </trkpt>
      <trkpt lat="46.9459" lon="2.94177">
        <ele>179.20153808594</ele>
        <time>2016-02-03T12:59:03.000Z</time>
      </trkpt>
      <trkpt lat="46.94588" lon="2.94179">
        <ele>179.19314575195</ele>
        <time>2016-02-03T12:59:05.000Z</time>
      </trkpt>
      <trkpt lat="46.94586" lon="2.94181">
        <ele>179.1897277832</ele>
        <time>2016-02-03T12:59:07.000Z</time>
      </trkpt>
      <trkpt lat="46.94585" lon="2.94182">
        <ele>179.18887329102</ele>
        <time>2016-02-03T12:59:09.000Z</time>
      </trkpt>
      <trkpt lat="46.94584" lon="2.94184">
        <ele>179.1897277832</ele>
        <time>2016-02-03T12:59:11.000Z</time>
      </trkpt>
      <trkpt lat="46.94582" lon="2.94184">
        <ele>179.1967010498</ele>
        <time>2016-02-03T12:59:14.000Z</time>
      </trkpt>
      <trkpt lat="46.94577" lon="2.94186">
        <ele>179.20606994629</ele>
        <time>2016-02-03T12:59:17.000Z</time>
      </trkpt>
      <trkpt lat="46.94574" lon="2.94188">
        <ele>179.2204284668</ele>
        <time>2016-02-03T12:59:20.000Z</time>
      </trkpt>
      <trkpt lat="46.94571" lon="2.9419">
        <ele>179.236328125</ele>
        <time>2016-02-03T12:59:22.000Z</time>
      </trkpt>
      <trkpt lat="46.94568" lon="2.94191">
        <ele>179.25433349609</ele>
        <time>2016-02-03T12:59:25.000Z</time>
      </trkpt>
      <trkpt lat="46.94565" lon="2.94191">
        <ele>179.2705078125</ele>
        <time>2016-02-03T12:59:28.000Z</time>
      </trkpt>
      <trkpt lat="46.94563" lon="2.94191">
        <ele>179.28295898438</ele>
        <time>2016-02-03T12:59:30.000Z</time>
      </trkpt>
      <trkpt lat="46.9456" lon="2.9419">
        <ele>179.28643798828</ele>
        <time>2016-02-03T12:59:33.000Z</time>
      </trkpt>
      <trkpt lat="46.94557" lon="2.9419">
        <ele>179.28753662109</ele>
        <time>2016-02-03T12:59:36.000Z</time>
      </trkpt>
      <trkpt lat="46.94554" lon="2.94191">
        <ele>179.28802490234</ele>
        <time>2016-02-03T12:59:39.000Z</time>
      </trkpt>
      <trkpt lat="46.94551" lon="2.94193">
        <ele>179.29168701172</ele>
        <time>2016-02-03T12:59:42.000Z</time>
      </trkpt>
      <trkpt lat="46.94549" lon="2.94193">
        <ele>179.29681396484</ele>
        <time>2016-02-03T12:59:44.000Z</time>
      </trkpt>
      <trkpt lat="46.94545" lon="2.94194">
        <ele>179.3056640625</ele>
        <time>2016-02-03T12:59:47.000Z</time>
      </trkpt>
      <trkpt lat="46.94543" lon="2.94194">
        <ele>179.31579589844</ele>
        <time>2016-02-03T12:59:49.000Z</time>
      </trkpt>
      <trkpt lat="46.94542" lon="2.94195">
        <ele>179.32507324219</ele>
        <time>2016-02-03T12:59:51.000Z</time>
      </trkpt>
      <trkpt lat="46.94541" lon="2.94196">
        <ele>179.33422851562</ele>
        <time>2016-02-03T12:59:53.000Z</time>
      </trkpt>
      <trkpt lat="46.94538" lon="2.94198">
        <ele>179.34521484375</ele>
        <time>2016-02-03T12:59:56.000Z</time>
      </trkpt>
      <trkpt lat="46.94537" lon="2.94198">
        <ele>179.35668945312</ele>
        <time>2016-02-03T12:59:58.000Z</time>
      </trkpt>
      <trkpt lat="46.94535" lon="2.94199">
        <ele>179.36865234375</ele>
        <time>2016-02-03T13:00:00.000Z</time>
      </trkpt>
      <trkpt lat="46.94534" lon="2.942">
        <ele>179.380859375</ele>
        <time>2016-02-03T13:00:02.000Z</time>
      </trkpt>
      <trkpt lat="46.94531" lon="2.94201">
        <ele>179.39129638672</ele>
        <time>2016-02-03T13:00:05.000Z</time>
      </trkpt>
      <trkpt lat="46.94529" lon="2.94201">
        <ele>179.40002441406</ele>
        <time>2016-02-03T13:00:07.000Z</time>
      </trkpt>
      <trkpt lat="46.94525" lon="2.94201">
        <ele>179.40740966797</ele>
        <time>2016-02-03T13:00:10.000Z</time>
      </trkpt>
      <trkpt lat="46.94522" lon="2.94201">
        <ele>179.41217041016</ele>
        <time>2016-02-03T13:00:12.000Z</time>
      </trkpt>
      <trkpt lat="46.9452" lon="2.94201">
        <ele>179.41400146484</ele>
        <time>2016-02-03T13:00:15.000Z</time>
      </trkpt>
      <trkpt lat="46.94518" lon="2.94202">
        <ele>179.41595458984</ele>
        <time>2016-02-03T13:00:17.000Z</time>
      </trkpt>
      <trkpt lat="46.94514" lon="2.94203">
        <ele>179.41961669922</ele>
        <time>2016-02-03T13:00:20.000Z</time>
      </trkpt>
      <trkpt lat="46.94511" lon="2.94205">
        <ele>179.42712402344</ele>
        <time>2016-02-03T13:00:23.000Z</time>
      </trkpt>
      <trkpt lat="46.94506" lon="2.94206">
        <ele>179.43914794922</ele>
        <time>2016-02-03T13:00:26.000Z</time>
      </trkpt>
      <trkpt lat="46.94501" lon="2.9421">
        <ele>179.46032714844</ele>
        <time>2016-02-03T13:00:29.000Z</time>
      </trkpt>
      <trkpt lat="46.94497" lon="2.94213">
        <ele>179.48258972168</ele>
        <time>2016-02-03T13:00:32.000Z</time>
      </trkpt>
      <trkpt lat="46.94495" lon="2.94215">
        <ele>179.49954223633</ele>
        <time>2016-02-03T13:00:34.000Z</time>
      </trkpt>
      <trkpt lat="46.94492" lon="2.94216">
        <ele>179.50930786133</ele>
        <time>2016-02-03T13:00:36.000Z</time>
      </trkpt>
      <trkpt lat="46.9449" lon="2.94218">
        <ele>179.51454162598</ele>
        <time>2016-02-03T13:00:38.000Z</time>
      </trkpt>
      <trkpt lat="46.94486" lon="2.9422">
        <ele>179.50634765625</ele>
        <time>2016-02-03T13:00:41.000Z</time>
      </trkpt>
      <trkpt lat="46.94482" lon="2.94224">
        <ele>179.49279785156</ele>
        <time>2016-02-03T13:00:44.000Z</time>
      </trkpt>
      <trkpt lat="46.94479" lon="2.94226">
        <ele>179.47967529297</ele>
        <time>2016-02-03T13:00:47.000Z</time>
      </trkpt>
      <trkpt lat="46.94475" lon="2.94226">
        <ele>179.46240234375</ele>
        <time>2016-02-03T13:00:49.000Z</time>
      </trkpt>
      <trkpt lat="46.94473" lon="2.94228">
        <ele>179.44287109375</ele>
        <time>2016-02-03T13:00:51.000Z</time>
      </trkpt>
      <trkpt lat="46.9447" lon="2.94229">
        <ele>179.42486572266</ele>
        <time>2016-02-03T13:00:53.000Z</time>
      </trkpt>
      <trkpt lat="46.94467" lon="2.9423">
        <ele>179.40454101562</ele>
        <time>2016-02-03T13:00:56.000Z</time>
      </trkpt>
      <trkpt lat="46.94464" lon="2.94231">
        <ele>179.38092041016</ele>
        <time>2016-02-03T13:00:59.000Z</time>
      </trkpt>
      <trkpt lat="46.94462" lon="2.94231">
        <ele>179.36193847656</ele>
        <time>2016-02-03T13:01:01.000Z</time>
      </trkpt>
      <trkpt lat="46.94461" lon="2.94233">
        <ele>179.34600830078</ele>
        <time>2016-02-03T13:01:03.000Z</time>
      </trkpt>
      <trkpt lat="46.94458" lon="2.94234">
        <ele>179.32983398438</ele>
        <time>2016-02-03T13:01:06.000Z</time>
      </trkpt>
      <trkpt lat="46.94454" lon="2.94235">
        <ele>179.31030273438</ele>
        <time>2016-02-03T13:01:09.000Z</time>
      </trkpt>
      <trkpt lat="46.9445" lon="2.94235">
        <ele>179.28643798828</ele>
        <time>2016-02-03T13:01:12.000Z</time>
      </trkpt>
      <trkpt lat="46.94447" lon="2.94235">
        <ele>179.25744628906</ele>
        <time>2016-02-03T13:01:15.000Z</time>
      </trkpt>
      <trkpt lat="46.94445" lon="2.94234">
        <ele>179.22277832031</ele>
        <time>2016-02-03T13:01:17.000Z</time>
      </trkpt>
      <trkpt lat="46.94441" lon="2.94235">
        <ele>179.18304443359</ele>
        <time>2016-02-03T13:01:20.000Z</time>
      </trkpt>
      <trkpt lat="46.94436" lon="2.94236">
        <ele>179.14331054688</ele>
        <time>2016-02-03T13:01:23.000Z</time>
      </trkpt>
      <trkpt lat="46.94432" lon="2.94236">
        <ele>179.10406494141</ele>
        <time>2016-02-03T13:01:26.000Z</time>
      </trkpt>
      <trkpt lat="46.94427" lon="2.94236">
        <ele>179.06036376953</ele>
        <time>2016-02-03T13:01:29.000Z</time>
      </trkpt>
      <trkpt lat="46.94425" lon="2.94236">
        <ele>179.01672363281</ele>
        <time>2016-02-03T13:01:31.000Z</time>
      </trkpt>
      <trkpt lat="46.94422" lon="2.94236">
        <ele>178.97607421875</ele>
        <time>2016-02-03T13:01:34.000Z</time>
      </trkpt>
      <trkpt lat="46.94419" lon="2.94237">
        <ele>178.93811035156</ele>
        <time>2016-02-03T13:01:37.000Z</time>
      </trkpt>
      <trkpt lat="46.94417" lon="2.94238">
        <ele>178.90606689453</ele>
        <time>2016-02-03T13:01:39.000Z</time>
      </trkpt>
      <trkpt lat="46.94414" lon="2.94238">
        <ele>178.88455200195</ele>
        <time>2016-02-03T13:01:41.000Z</time>
      </trkpt>
      <trkpt lat="46.94412" lon="2.94238">
        <ele>178.86808776855</ele>
        <time>2016-02-03T13:01:43.000Z</time>
      </trkpt>
      <trkpt lat="46.94408" lon="2.94237">
        <ele>178.85731506348</ele>
        <time>2016-02-03T13:01:46.000Z</time>
      </trkpt>
      <trkpt lat="46.94406" lon="2.94236">
        <ele>178.84994506836</ele>
        <time>2016-02-03T13:01:48.000Z</time>
      </trkpt>
      <trkpt lat="46.94402" lon="2.94236">
        <ele>178.84436035156</ele>
        <time>2016-02-03T13:01:51.000Z</time>
      </trkpt>
      <trkpt lat="46.94399" lon="2.94235">
        <ele>178.83856201172</ele>
        <time>2016-02-03T13:01:53.000Z</time>
      </trkpt>
      <trkpt lat="46.94395" lon="2.94234">
        <ele>178.83062744141</ele>
        <time>2016-02-03T13:01:56.000Z</time>
      </trkpt>
      <trkpt lat="46.94392" lon="2.94233">
        <ele>178.8203125</ele>
        <time>2016-02-03T13:01:58.000Z</time>
      </trkpt>
      <trkpt lat="46.94389" lon="2.94232">
        <ele>178.80963134766</ele>
        <time>2016-02-03T13:02:01.000Z</time>
      </trkpt>
      <trkpt lat="46.94385" lon="2.9423">
        <ele>178.7958984375</ele>
        <time>2016-02-03T13:02:04.000Z</time>
      </trkpt>
      <trkpt lat="46.94383" lon="2.94229">
        <ele>178.78161621094</ele>
        <time>2016-02-03T13:02:06.000Z</time>
      </trkpt>
      <trkpt lat="46.94382" lon="2.94228">
        <ele>178.76733398438</ele>
        <time>2016-02-03T13:02:08.000Z</time>
      </trkpt>
      <trkpt lat="46.9438" lon="2.94227">
        <ele>178.75238037109</ele>
        <time>2016-02-03T13:02:10.000Z</time>
      </trkpt>
      <trkpt lat="46.94378" lon="2.94225">
        <ele>178.73504638672</ele>
        <time>2016-02-03T13:02:13.000Z</time>
      </trkpt>
      <trkpt lat="46.94376" lon="2.94223">
        <ele>178.71759033203</ele>
        <time>2016-02-03T13:02:15.000Z</time>
      </trkpt>
      <trkpt lat="46.94375" lon="2.94221">
        <ele>178.69677734375</ele>
        <time>2016-02-03T13:02:17.000Z</time>
      </trkpt>
      <trkpt lat="46.94374" lon="2.94219">
        <ele>178.673828125</ele>
        <time>2016-02-03T13:02:20.000Z</time>
      </trkpt>
      <trkpt lat="46.94372" lon="2.94217">
        <ele>178.64978027344</ele>
        <time>2016-02-03T13:02:23.000Z</time>
      </trkpt>
      <trkpt lat="46.94372" lon="2.94215">
        <ele>178.62683105469</ele>
        <time>2016-02-03T13:02:25.000Z</time>
      </trkpt>
      <trkpt lat="46.9437" lon="2.94213">
        <ele>178.60382080078</ele>
        <time>2016-02-03T13:02:27.000Z</time>
      </trkpt>
      <trkpt lat="46.94369" lon="2.94211">
        <ele>178.58142089844</ele>
        <time>2016-02-03T13:02:29.000Z</time>
      </trkpt>
      <trkpt lat="46.94366" lon="2.94209">
        <ele>178.55676269531</ele>
        <time>2016-02-03T13:02:32.000Z</time>
      </trkpt>
      <trkpt lat="46.94364" lon="2.94207">
        <ele>178.53186035156</ele>
        <time>2016-02-03T13:02:34.000Z</time>
      </trkpt>
      <trkpt lat="46.94363" lon="2.94205">
        <ele>178.50640869141</ele>
        <time>2016-02-03T13:02:37.000Z</time>
      </trkpt>
      <trkpt lat="46.94361" lon="2.94202">
        <ele>178.47973632812</ele>
        <time>2016-02-03T13:02:40.000Z</time>
      </trkpt>
      <trkpt lat="46.94358" lon="2.942">
        <ele>178.45153808594</ele>
        <time>2016-02-03T13:02:42.000Z</time>
      </trkpt>
      <trkpt lat="46.94354" lon="2.94197">
        <ele>178.42291259766</ele>
        <time>2016-02-03T13:02:45.000Z</time>
      </trkpt>
      <trkpt lat="46.94352" lon="2.94194">
        <ele>178.39294433594</ele>
        <time>2016-02-03T13:02:48.000Z</time>
      </trkpt>
      <trkpt lat="46.9435" lon="2.94193">
        <ele>178.36468505859</ele>
        <time>2016-02-03T13:02:50.000Z</time>
      </trkpt>
      <trkpt lat="46.94349" lon="2.94191">
        <ele>178.33831787109</ele>
        <time>2016-02-03T13:02:53.000Z</time>
      </trkpt>
      <trkpt lat="46.94345" lon="2.94187">
        <ele>178.30920410156</ele>
        <time>2016-02-03T13:02:56.000Z</time>
      </trkpt>
      <trkpt lat="46.94341" lon="2.94184">
        <ele>178.27935791016</ele>
        <time>2016-02-03T13:02:59.000Z</time>
      </trkpt>
      <trkpt lat="46.94339" lon="2.94183">
        <ele>178.25177001953</ele>
        <time>2016-02-03T13:03:01.000Z</time>
      </trkpt>
      <trkpt lat="46.94337" lon="2.94181">
        <ele>178.22290039062</ele>
        <time>2016-02-03T13:03:04.000Z</time>
      </trkpt>
      <trkpt lat="46.94334" lon="2.94178">
        <ele>178.19189453125</ele>
        <time>2016-02-03T13:03:07.000Z</time>
      </trkpt>
      <trkpt lat="46.94333" lon="2.94176">
        <ele>178.17123413086</ele>
        <time>2016-02-03T13:03:09.000Z</time>
      </trkpt>
      <trkpt lat="46.9433" lon="2.94172">
        <ele>178.17581176758</ele>
        <time>2016-02-03T13:03:12.000Z</time>
      </trkpt>
      <trkpt lat="46.94329" lon="2.9417">
        <ele>178.18762207031</ele>
        <time>2016-02-03T13:03:15.000Z</time>
      </trkpt>
      <trkpt lat="46.94326" lon="2.94168">
        <ele>178.22137451172</ele>
        <time>2016-02-03T13:03:18.000Z</time>
      </trkpt>
      <trkpt lat="46.94322" lon="2.94165">
        <ele>178.29602050781</ele>
        <time>2016-02-03T13:03:21.000Z</time>
      </trkpt>
      <trkpt lat="46.9432" lon="2.94164">
        <ele>178.38079833984</ele>
        <time>2016-02-03T13:03:24.000Z</time>
      </trkpt>
      <trkpt lat="46.94319" lon="2.94161">
        <ele>178.45300292969</ele>
        <time>2016-02-03T13:03:27.000Z</time>
      </trkpt>
      <trkpt lat="46.94317" lon="2.94158">
        <ele>178.52934265137</ele>
        <time>2016-02-03T13:03:29.000Z</time>
      </trkpt>
      <trkpt lat="46.94315" lon="2.94156">
        <ele>178.59646606445</ele>
        <time>2016-02-03T13:03:31.000Z</time>
      </trkpt>
      <trkpt lat="46.9431" lon="2.94154">
        <ele>178.65827941895</ele>
        <time>2016-02-03T13:03:34.000Z</time>
      </trkpt>
      <trkpt lat="46.94308" lon="2.94152">
        <ele>178.71826171875</ele>
        <time>2016-02-03T13:03:36.000Z</time>
      </trkpt>
      <trkpt lat="46.94306" lon="2.94149">
        <ele>178.77633666992</ele>
        <time>2016-02-03T13:03:39.000Z</time>
      </trkpt>
      <trkpt lat="46.94305" lon="2.94147">
        <ele>178.82704162598</ele>
        <time>2016-02-03T13:03:42.000Z</time>
      </trkpt>
      <trkpt lat="46.94303" lon="2.94144">
        <ele>178.86862182617</ele>
        <time>2016-02-03T13:03:45.000Z</time>
      </trkpt>
      <trkpt lat="46.94302" lon="2.94142">
        <ele>178.88174438477</ele>
        <time>2016-02-03T13:03:47.000Z</time>
      </trkpt>
      <trkpt lat="46.943" lon="2.94139">
        <ele>178.88635253906</ele>
        <time>2016-02-03T13:03:50.000Z</time>
      </trkpt>
      <trkpt lat="46.94297" lon="2.94135">
        <ele>178.88203430176</ele>
        <time>2016-02-03T13:03:53.000Z</time>
      </trkpt>
      <trkpt lat="46.94295" lon="2.94132">
        <ele>178.87243652344</ele>
        <time>2016-02-03T13:03:55.000Z</time>
      </trkpt>
      <trkpt lat="46.94292" lon="2.94127">
        <ele>178.85655212402</ele>
        <time>2016-02-03T13:03:58.000Z</time>
      </trkpt>
      <trkpt lat="46.94289" lon="2.94126">
        <ele>178.85089111328</ele>
        <time>2016-02-03T13:04:01.000Z</time>
      </trkpt>
      <trkpt lat="46.94283" lon="2.94123">
        <ele>178.86254882812</ele>
        <time>2016-02-03T13:04:04.000Z</time>
      </trkpt>
      <trkpt lat="46.94281" lon="2.94121">
        <ele>178.87850952148</ele>
        <time>2016-02-03T13:04:06.000Z</time>
      </trkpt>
      <trkpt lat="46.94277" lon="2.94117">
        <ele>178.89106750488</ele>
        <time>2016-02-03T13:04:09.000Z</time>
      </trkpt>
      <trkpt lat="46.94276" lon="2.94115">
        <ele>178.90084838867</ele>
        <time>2016-02-03T13:04:11.000Z</time>
      </trkpt>
      <trkpt lat="46.94273" lon="2.94112">
        <ele>178.89025878906</ele>
        <time>2016-02-03T13:04:13.000Z</time>
      </trkpt>
      <trkpt lat="46.9427" lon="2.94109">
        <ele>178.84992980957</ele>
        <time>2016-02-03T13:04:16.000Z</time>
      </trkpt>
      <trkpt lat="46.94268" lon="2.94106">
        <ele>178.79748535156</ele>
        <time>2016-02-03T13:04:18.000Z</time>
      </trkpt>
      <trkpt lat="46.94267" lon="2.94103">
        <ele>178.73989868164</ele>
        <time>2016-02-03T13:04:20.000Z</time>
      </trkpt>
      <trkpt lat="46.94261" lon="2.94098">
        <ele>178.6739654541</ele>
        <time>2016-02-03T13:04:23.000Z</time>
      </trkpt>
      <trkpt lat="46.94259" lon="2.94097">
        <ele>178.60684204102</ele>
        <time>2016-02-03T13:04:25.000Z</time>
      </trkpt>
      <trkpt lat="46.94258" lon="2.94094">
        <ele>178.53221130371</ele>
        <time>2016-02-03T13:04:27.000Z</time>
      </trkpt>
      <trkpt lat="46.94255" lon="2.94091">
        <ele>178.44877624512</ele>
        <time>2016-02-03T13:04:30.000Z</time>
      </trkpt>
      <trkpt lat="46.94252" lon="2.94087">
        <ele>178.35122680664</ele>
        <time>2016-02-03T13:04:33.000Z</time>
      </trkpt>
      <trkpt lat="46.9425" lon="2.94084">
        <ele>178.25532531738</ele>
        <time>2016-02-03T13:04:35.000Z</time>
      </trkpt>
      <trkpt lat="46.94249" lon="2.94082">
        <ele>178.16300964355</ele>
        <time>2016-02-03T13:04:37.000Z</time>
      </trkpt>
      <trkpt lat="46.94247" lon="2.94079">
        <ele>178.08450317383</ele>
        <time>2016-02-03T13:04:41.000Z</time>
      </trkpt>
      <trkpt lat="46.94246" lon="2.94077">
        <ele>178.02651977539</ele>
        <time>2016-02-03T13:04:43.000Z</time>
      </trkpt>
      <trkpt lat="46.94243" lon="2.94074">
        <ele>177.99237060547</ele>
        <time>2016-02-03T13:04:46.000Z</time>
      </trkpt>
      <trkpt lat="46.94238" lon="2.94071">
        <ele>177.97445678711</ele>
        <time>2016-02-03T13:04:49.000Z</time>
      </trkpt>
      <trkpt lat="46.94234" lon="2.94069">
        <ele>177.96343994141</ele>
        <time>2016-02-03T13:04:52.000Z</time>
      </trkpt>
      <trkpt lat="46.94231" lon="2.94066">
        <ele>177.95150756836</ele>
        <time>2016-02-03T13:04:54.000Z</time>
      </trkpt>
      <trkpt lat="46.94229" lon="2.94063">
        <ele>177.93505859375</ele>
        <time>2016-02-03T13:04:56.000Z</time>
      </trkpt>
      <trkpt lat="46.94226" lon="2.9406">
        <ele>177.91400146484</ele>
        <time>2016-02-03T13:04:59.000Z</time>
      </trkpt>
      <trkpt lat="46.94225" lon="2.94058">
        <ele>177.88537597656</ele>
        <time>2016-02-03T13:05:01.000Z</time>
      </trkpt>
      <trkpt lat="46.94224" lon="2.94056">
        <ele>177.85070800781</ele>
        <time>2016-02-03T13:05:03.000Z</time>
      </trkpt>
      <trkpt lat="46.9422" lon="2.94051">
        <ele>177.80368041992</ele>
        <time>2016-02-03T13:05:06.000Z</time>
      </trkpt>
      <trkpt lat="46.94218" lon="2.94048">
        <ele>177.75294494629</ele>
        <time>2016-02-03T13:05:08.000Z</time>
      </trkpt>
      <trkpt lat="46.94217" lon="2.94046">
        <ele>177.69984436035</ele>
        <time>2016-02-03T13:05:11.000Z</time>
      </trkpt>
      <trkpt lat="46.94215" lon="2.94043">
        <ele>177.64541625977</ele>
        <time>2016-02-03T13:05:13.000Z</time>
      </trkpt>
      <trkpt lat="46.94212" lon="2.94039">
        <ele>177.57705688477</ele>
        <time>2016-02-03T13:05:16.000Z</time>
      </trkpt>
      <trkpt lat="46.94209" lon="2.94036">
        <ele>177.5100402832</ele>
        <time>2016-02-03T13:05:19.000Z</time>
      </trkpt>
      <trkpt lat="46.94207" lon="2.94033">
        <ele>177.44067382812</ele>
        <time>2016-02-03T13:05:22.000Z</time>
      </trkpt>
      <trkpt lat="46.94204" lon="2.94031">
        <ele>177.3715057373</ele>
        <time>2016-02-03T13:05:24.000Z</time>
      </trkpt>
      <trkpt lat="46.94201" lon="2.94029">
        <ele>177.2963104248</ele>
        <time>2016-02-03T13:05:26.000Z</time>
      </trkpt>
      <trkpt lat="46.94198" lon="2.94026">
        <ele>177.22192382812</ele>
        <time>2016-02-03T13:05:29.000Z</time>
      </trkpt>
      <trkpt lat="46.94195" lon="2.94023">
        <ele>177.14999389648</ele>
        <time>2016-02-03T13:05:31.000Z</time>
      </trkpt>
      <trkpt lat="46.94191" lon="2.94021">
        <ele>177.0740814209</ele>
        <time>2016-02-03T13:05:34.000Z</time>
      </trkpt>
      <trkpt lat="46.94186" lon="2.94017">
        <ele>176.97821044922</ele>
        <time>2016-02-03T13:05:37.000Z</time>
      </trkpt>
      <trkpt lat="46.94182" lon="2.94013">
        <ele>176.86666870117</ele>
        <time>2016-02-03T13:05:40.000Z</time>
      </trkpt>
      <trkpt lat="46.94178" lon="2.94009">
        <ele>176.7399597168</ele>
        <time>2016-02-03T13:05:43.000Z</time>
      </trkpt>
      <trkpt lat="46.94173" lon="2.94005">
        <ele>176.58952331543</ele>
        <time>2016-02-03T13:05:46.000Z</time>
      </trkpt>
      <trkpt lat="46.94168" lon="2.94001">
        <ele>176.41679382324</ele>
        <time>2016-02-03T13:05:49.000Z</time>
      </trkpt>
      <trkpt lat="46.94166" lon="2.93999">
        <ele>176.2691192627</ele>
        <time>2016-02-03T13:05:51.000Z</time>
      </trkpt>
      <trkpt lat="46.94164" lon="2.93997">
        <ele>176.17892456055</ele>
        <time>2016-02-03T13:05:54.000Z</time>
      </trkpt>
      <trkpt lat="46.94162" lon="2.93995">
        <ele>176.1379699707</ele>
        <time>2016-02-03T13:05:56.000Z</time>
      </trkpt>
      <trkpt lat="46.94159" lon="2.93993">
        <ele>176.15678405762</ele>
        <time>2016-02-03T13:05:59.000Z</time>
      </trkpt>
      <trkpt lat="46.94158" lon="2.9399">
        <ele>176.22799682617</ele>
        <time>2016-02-03T13:06:01.000Z</time>
      </trkpt>
      <trkpt lat="46.94155" lon="2.93986">
        <ele>176.32760620117</ele>
        <time>2016-02-03T13:06:04.000Z</time>
      </trkpt>
      <trkpt lat="46.94152" lon="2.93983">
        <ele>176.42324829102</ele>
        <time>2016-02-03T13:06:06.000Z</time>
      </trkpt>
      <trkpt lat="46.9415" lon="2.9398">
        <ele>176.52261352539</ele>
        <time>2016-02-03T13:06:08.000Z</time>
      </trkpt>
      <trkpt lat="46.94147" lon="2.93978">
        <ele>176.61450195312</ele>
        <time>2016-02-03T13:06:10.000Z</time>
      </trkpt>
      <trkpt lat="46.94144" lon="2.93974">
        <ele>176.71479797363</ele>
        <time>2016-02-03T13:06:13.000Z</time>
      </trkpt>
      <trkpt lat="46.94142" lon="2.93971">
        <ele>176.80508422852</ele>
        <time>2016-02-03T13:06:16.000Z</time>
      </trkpt>
      <trkpt lat="46.9414" lon="2.93969">
        <ele>176.8860168457</ele>
        <time>2016-02-03T13:06:18.000Z</time>
      </trkpt>
      <trkpt lat="46.94137" lon="2.93966">
        <ele>176.96527099609</ele>
        <time>2016-02-03T13:06:21.000Z</time>
      </trkpt>
      <trkpt lat="46.94135" lon="2.93964">
        <ele>177.0415802002</ele>
        <time>2016-02-03T13:06:23.000Z</time>
      </trkpt>
      <trkpt lat="46.94133" lon="2.93959">
        <ele>177.10859680176</ele>
        <time>2016-02-03T13:06:26.000Z</time>
      </trkpt>
      <trkpt lat="46.9413" lon="2.93957">
        <ele>177.177734375</ele>
        <time>2016-02-03T13:06:29.000Z</time>
      </trkpt>
      <trkpt lat="46.94128" lon="2.93955">
        <ele>177.24388122559</ele>
        <time>2016-02-03T13:06:31.000Z</time>
      </trkpt>
      <trkpt lat="46.94124" lon="2.93952">
        <ele>177.30810546875</ele>
        <time>2016-02-03T13:06:34.000Z</time>
      </trkpt>
      <trkpt lat="46.94122" lon="2.93949">
        <ele>177.3706817627</ele>
        <time>2016-02-03T13:06:36.000Z</time>
      </trkpt>
      <trkpt lat="46.94119" lon="2.93947">
        <ele>177.4328918457</ele>
        <time>2016-02-03T13:06:39.000Z</time>
      </trkpt>
      <trkpt lat="46.94117" lon="2.93944">
        <ele>177.49000549316</ele>
        <time>2016-02-03T13:06:41.000Z</time>
      </trkpt>
      <trkpt lat="46.94114" lon="2.93942">
        <ele>177.55146789551</ele>
        <time>2016-02-03T13:06:44.000Z</time>
      </trkpt>
      <trkpt lat="46.94111" lon="2.93941">
        <ele>177.60566711426</ele>
        <time>2016-02-03T13:06:47.000Z</time>
      </trkpt>
      <trkpt lat="46.94108" lon="2.93938">
        <ele>177.66177368164</ele>
        <time>2016-02-03T13:06:50.000Z</time>
      </trkpt>
      <trkpt lat="46.94106" lon="2.93935">
        <ele>177.70562744141</ele>
        <time>2016-02-03T13:06:52.000Z</time>
      </trkpt>
      <trkpt lat="46.94104" lon="2.93933">
        <ele>177.74490356445</ele>
        <time>2016-02-03T13:06:54.000Z</time>
      </trkpt>
      <trkpt lat="46.94102" lon="2.93931">
        <ele>177.77523803711</ele>
        <time>2016-02-03T13:06:56.000Z</time>
      </trkpt>
      <trkpt lat="46.94099" lon="2.93927">
        <ele>177.79884338379</ele>
        <time>2016-02-03T13:06:59.000Z</time>
      </trkpt>
      <trkpt lat="46.94096" lon="2.93924">
        <ele>177.81307983398</ele>
        <time>2016-02-03T13:07:02.000Z</time>
      </trkpt>
      <trkpt lat="46.94094" lon="2.93921">
        <ele>177.82440185547</ele>
        <time>2016-02-03T13:07:04.000Z</time>
      </trkpt>
      <trkpt lat="46.94092" lon="2.93918">
        <ele>177.82881164551</ele>
        <time>2016-02-03T13:07:07.000Z</time>
      </trkpt>
      <trkpt lat="46.94089" lon="2.93913">
        <ele>177.82942199707</ele>
        <time>2016-02-03T13:07:10.000Z</time>
      </trkpt>
      <trkpt lat="46.94086" lon="2.93909">
        <ele>177.83203125</ele>
        <time>2016-02-03T13:07:13.000Z</time>
      </trkpt>
      <trkpt lat="46.94086" lon="2.93909">
        <ele>177.83404541016</ele>
        <time>2016-02-03T13:07:15.000Z</time>
      </trkpt>
      <trkpt lat="46.94081" lon="2.93903">
        <ele>177.84231567383</ele>
        <time>2016-02-03T13:07:18.000Z</time>
      </trkpt>
      <trkpt lat="46.94079" lon="2.939">
        <ele>177.85719299316</ele>
        <time>2016-02-03T13:07:21.000Z</time>
      </trkpt>
      <trkpt lat="46.94077" lon="2.93898">
        <ele>177.87532043457</ele>
        <time>2016-02-03T13:07:23.000Z</time>
      </trkpt>
      <trkpt lat="46.94075" lon="2.93897">
        <ele>177.89497375488</ele>
        <time>2016-02-03T13:07:25.000Z</time>
      </trkpt>
      <trkpt lat="46.94072" lon="2.93895">
        <ele>177.91995239258</ele>
        <time>2016-02-03T13:07:28.000Z</time>
      </trkpt>
      <trkpt lat="46.94069" lon="2.93892">
        <ele>177.94418334961</ele>
        <time>2016-02-03T13:07:30.000Z</time>
      </trkpt>
      <trkpt lat="46.94067" lon="2.9389">
        <ele>177.96810913086</ele>
        <time>2016-02-03T13:07:32.000Z</time>
      </trkpt>
      <trkpt lat="46.94064" lon="2.93888">
        <ele>177.99034118652</ele>
        <time>2016-02-03T13:07:35.000Z</time>
      </trkpt>
      <trkpt lat="46.94061" lon="2.93883">
        <ele>178.00668334961</ele>
        <time>2016-02-03T13:07:38.000Z</time>
      </trkpt>
      <trkpt lat="46.94059" lon="2.93881">
        <ele>178.01702880859</ele>
        <time>2016-02-03T13:07:40.000Z</time>
      </trkpt>
      <trkpt lat="46.94057" lon="2.93878">
        <ele>178.02226257324</ele>
        <time>2016-02-03T13:07:43.000Z</time>
      </trkpt>
      <trkpt lat="46.94056" lon="2.93877">
        <ele>178.0242767334</ele>
        <time>2016-02-03T13:07:46.000Z</time>
      </trkpt>
      <trkpt lat="46.94053" lon="2.93874">
        <ele>178.02459716797</ele>
        <time>2016-02-03T13:07:48.000Z</time>
      </trkpt>
      <trkpt lat="46.9405" lon="2.93872">
        <ele>178.02809143066</ele>
        <time>2016-02-03T13:07:51.000Z</time>
      </trkpt>
      <trkpt lat="46.94048" lon="2.9387">
        <ele>178.03141784668</ele>
        <time>2016-02-03T13:07:53.000Z</time>
      </trkpt>
      <trkpt lat="46.94046" lon="2.93867">
        <ele>178.0348815918</ele>
        <time>2016-02-03T13:07:56.000Z</time>
      </trkpt>
      <trkpt lat="46.94042" lon="2.93861">
        <ele>178.03129577637</ele>
        <time>2016-02-03T13:07:59.000Z</time>
      </trkpt>
      <trkpt lat="46.94038" lon="2.93857">
        <ele>178.02253723145</ele>
        <time>2016-02-03T13:08:02.000Z</time>
      </trkpt>
      <trkpt lat="46.94036" lon="2.93855">
        <ele>178.00997924805</ele>
        <time>2016-02-03T13:08:04.000Z</time>
      </trkpt>
      <trkpt lat="46.94033" lon="2.93852">
        <ele>177.99458312988</ele>
        <time>2016-02-03T13:08:07.000Z</time>
      </trkpt>
      <trkpt lat="46.9403" lon="2.9385">
        <ele>177.98239135742</ele>
        <time>2016-02-03T13:08:09.000Z</time>
      </trkpt>
      <trkpt lat="46.94027" lon="2.93849">
        <ele>177.97673034668</ele>
        <time>2016-02-03T13:08:12.000Z</time>
      </trkpt>
      <trkpt lat="46.94026" lon="2.93846">
        <ele>177.96839904785</ele>
        <time>2016-02-03T13:08:14.000Z</time>
      </trkpt>
      <trkpt lat="46.94022" lon="2.93842">
        <ele>177.95510864258</ele>
        <time>2016-02-03T13:08:17.000Z</time>
      </trkpt>
      <trkpt lat="46.94021" lon="2.93841">
        <ele>177.94018554688</ele>
        <time>2016-02-03T13:08:19.000Z</time>
      </trkpt>
      <trkpt lat="46.94018" lon="2.93835">
        <ele>177.91094970703</ele>
        <time>2016-02-03T13:08:22.000Z</time>
      </trkpt>
      <trkpt lat="46.94016" lon="2.93833">
        <ele>177.87742614746</ele>
        <time>2016-02-03T13:08:24.000Z</time>
      </trkpt>
      <trkpt lat="46.94014" lon="2.93831">
        <ele>177.84088134766</ele>
        <time>2016-02-03T13:08:27.000Z</time>
      </trkpt>
      <trkpt lat="46.94011" lon="2.93828">
        <ele>177.79800415039</ele>
        <time>2016-02-03T13:08:29.000Z</time>
      </trkpt>
      <trkpt lat="46.94008" lon="2.93823">
        <ele>177.72961425781</ele>
        <time>2016-02-03T13:08:32.000Z</time>
      </trkpt>
      <trkpt lat="46.94004" lon="2.93818">
        <ele>177.65132141113</ele>
        <time>2016-02-03T13:08:35.000Z</time>
      </trkpt>
      <trkpt lat="46.94003" lon="2.93816">
        <ele>177.56230163574</ele>
        <time>2016-02-03T13:08:37.000Z</time>
      </trkpt>
      <trkpt lat="46.94002" lon="2.93814">
        <ele>177.47219848633</ele>
        <time>2016-02-03T13:08:39.000Z</time>
      </trkpt>
      <trkpt lat="46.94001" lon="2.93813">
        <ele>177.38310241699</ele>
        <time>2016-02-03T13:08:41.000Z</time>
      </trkpt>
      <trkpt lat="46.93999" lon="2.9381">
        <ele>177.31756591797</ele>
        <time>2016-02-03T13:08:43.000Z</time>
      </trkpt>
      <trkpt lat="46.93995" lon="2.93806">
        <ele>177.27963256836</ele>
        <time>2016-02-03T13:08:46.000Z</time>
      </trkpt>
      <trkpt lat="46.93991" lon="2.93802">
        <ele>177.27262878418</ele>
        <time>2016-02-03T13:08:49.000Z</time>
      </trkpt>
      <trkpt lat="46.93989" lon="2.938">
        <ele>177.28524780273</ele>
        <time>2016-02-03T13:08:51.000Z</time>
      </trkpt>
      <trkpt lat="46.93986" lon="2.93797">
        <ele>177.328125</ele>
        <time>2016-02-03T13:08:54.000Z</time>
      </trkpt>
      <trkpt lat="46.93984" lon="2.93795">
        <ele>177.37544250488</ele>
        <time>2016-02-03T13:08:57.000Z</time>
      </trkpt>
      <trkpt lat="46.93982" lon="2.93792">
        <ele>177.43092346191</ele>
        <time>2016-02-03T13:09:00.000Z</time>
      </trkpt>
      <trkpt lat="46.9398" lon="2.9379">
        <ele>177.47653198242</ele>
        <time>2016-02-03T13:09:02.000Z</time>
      </trkpt>
      <trkpt lat="46.93977" lon="2.93786">
        <ele>177.51651000977</ele>
        <time>2016-02-03T13:09:05.000Z</time>
      </trkpt>
      <trkpt lat="46.93975" lon="2.93784">
        <ele>177.54818725586</ele>
        <time>2016-02-03T13:09:07.000Z</time>
      </trkpt>
      <trkpt lat="46.93974" lon="2.93782">
        <ele>177.58311462402</ele>
        <time>2016-02-03T13:09:10.000Z</time>
      </trkpt>
      <trkpt lat="46.93971" lon="2.9378">
        <ele>177.61494445801</ele>
        <time>2016-02-03T13:09:12.000Z</time>
      </trkpt>
      <trkpt lat="46.93968" lon="2.93778">
        <ele>177.66198730469</ele>
        <time>2016-02-03T13:09:15.000Z</time>
      </trkpt>
      <trkpt lat="46.93966" lon="2.93774">
        <ele>177.6974029541</ele>
        <time>2016-02-03T13:09:18.000Z</time>
      </trkpt>
      <trkpt lat="46.93964" lon="2.93769">
        <ele>177.72723388672</ele>
        <time>2016-02-03T13:09:21.000Z</time>
      </trkpt>
      <trkpt lat="46.93962" lon="2.93767">
        <ele>177.76210021973</ele>
        <time>2016-02-03T13:09:23.000Z</time>
      </trkpt>
      <trkpt lat="46.93959" lon="2.93763">
        <ele>177.79167175293</ele>
        <time>2016-02-03T13:09:25.000Z</time>
      </trkpt>
      <trkpt lat="46.93959" lon="2.93763">
        <ele>177.80471801758</ele>
        <time>2016-02-03T13:09:27.000Z</time>
      </trkpt>
      <trkpt lat="46.93955" lon="2.9376">
        <ele>177.8508605957</ele>
        <time>2016-02-03T13:09:29.000Z</time>
      </trkpt>
      <trkpt lat="46.93951" lon="2.93756">
        <ele>177.91387939453</ele>
        <time>2016-02-03T13:09:32.000Z</time>
      </trkpt>
      <trkpt lat="46.93947" lon="2.93751">
        <ele>177.99125671387</ele>
        <time>2016-02-03T13:09:35.000Z</time>
      </trkpt>
      <trkpt lat="46.93945" lon="2.93749">
        <ele>178.08836364746</ele>
        <time>2016-02-03T13:09:38.000Z</time>
      </trkpt>
      <trkpt lat="46.93943" lon="2.93747">
        <ele>178.20175170898</ele>
        <time>2016-02-03T13:09:41.000Z</time>
      </trkpt>
      <trkpt lat="46.93941" lon="2.93746">
        <ele>178.310546875</ele>
        <time>2016-02-03T13:09:43.000Z</time>
      </trkpt>
      <trkpt lat="46.93939" lon="2.93744">
        <ele>178.43026733398</ele>
        <time>2016-02-03T13:09:45.000Z</time>
      </trkpt>
      <trkpt lat="46.93937" lon="2.93741">
        <ele>178.55572509766</ele>
        <time>2016-02-03T13:09:48.000Z</time>
      </trkpt>
      <trkpt lat="46.93935" lon="2.93737">
        <ele>178.68453979492</ele>
        <time>2016-02-03T13:09:50.000Z</time>
      </trkpt>
      <trkpt lat="46.93932" lon="2.93732">
        <ele>178.82870483398</ele>
        <time>2016-02-03T13:09:53.000Z</time>
      </trkpt>
      <trkpt lat="46.9393" lon="2.93729">
        <ele>178.98101806641</ele>
        <time>2016-02-03T13:09:56.000Z</time>
      </trkpt>
      <trkpt lat="46.93929" lon="2.93727">
        <ele>179.11605834961</ele>
        <time>2016-02-03T13:09:59.000Z</time>
      </trkpt>
      <trkpt lat="46.93927" lon="2.93724">
        <ele>179.23880004883</ele>
        <time>2016-02-03T13:10:02.000Z</time>
      </trkpt>
      <trkpt lat="46.93926" lon="2.93723">
        <ele>179.34770202637</ele>
        <time>2016-02-03T13:10:04.000Z</time>
      </trkpt>
      <trkpt lat="46.93924" lon="2.93719">
        <ele>179.44223022461</ele>
        <time>2016-02-03T13:10:07.000Z</time>
      </trkpt>
      <trkpt lat="46.93922" lon="2.93716">
        <ele>179.5334777832</ele>
        <time>2016-02-03T13:10:10.000Z</time>
      </trkpt>
      <trkpt lat="46.93919" lon="2.93714">
        <ele>179.6390838623</ele>
        <time>2016-02-03T13:10:13.000Z</time>
      </trkpt>
      <trkpt lat="46.93918" lon="2.93712">
        <ele>179.74212646484</ele>
        <time>2016-02-03T13:10:15.000Z</time>
      </trkpt>
      <trkpt lat="46.93916" lon="2.93707">
        <ele>179.84643554688</ele>
        <time>2016-02-03T13:10:18.000Z</time>
      </trkpt>
      <trkpt lat="46.93914" lon="2.93705">
        <ele>179.93389892578</ele>
        <time>2016-02-03T13:10:20.000Z</time>
      </trkpt>
      <trkpt lat="46.93912" lon="2.93701">
        <ele>180.00729370117</ele>
        <time>2016-02-03T13:10:23.000Z</time>
      </trkpt>
      <trkpt lat="46.93909" lon="2.93697">
        <ele>180.0673828125</ele>
        <time>2016-02-03T13:10:26.000Z</time>
      </trkpt>
      <trkpt lat="46.93906" lon="2.93694">
        <ele>180.126953125</ele>
        <time>2016-02-03T13:10:29.000Z</time>
      </trkpt>
      <trkpt lat="46.93904" lon="2.93692">
        <ele>180.1796875</ele>
        <time>2016-02-03T13:10:32.000Z</time>
      </trkpt>
      <trkpt lat="46.93903" lon="2.9369">
        <ele>180.236328125</ele>
        <time>2016-02-03T13:10:34.000Z</time>
      </trkpt>
      <trkpt lat="46.93897" lon="2.93685">
        <ele>180.306640625</ele>
        <time>2016-02-03T13:10:37.000Z</time>
      </trkpt>
      <trkpt lat="46.93895" lon="2.93683">
        <ele>180.373046875</ele>
        <time>2016-02-03T13:10:39.000Z</time>
      </trkpt>
      <trkpt lat="46.93892" lon="2.93681">
        <ele>180.439453125</ele>
        <time>2016-02-03T13:10:42.000Z</time>
      </trkpt>
      <trkpt lat="46.93888" lon="2.93677">
        <ele>180.51953125</ele>
        <time>2016-02-03T13:10:45.000Z</time>
      </trkpt>
      <trkpt lat="46.93886" lon="2.93676">
        <ele>180.599609375</ele>
        <time>2016-02-03T13:10:47.000Z</time>
      </trkpt>
      <trkpt lat="46.93882" lon="2.93673">
        <ele>180.671875</ele>
        <time>2016-02-03T13:10:50.000Z</time>
      </trkpt>
      <trkpt lat="46.9388" lon="2.93671">
        <ele>180.7421875</ele>
        <time>2016-02-03T13:10:53.000Z</time>
      </trkpt>
      <trkpt lat="46.93877" lon="2.93669">
        <ele>180.814453125</ele>
        <time>2016-02-03T13:10:56.000Z</time>
      </trkpt>
      <trkpt lat="46.93876" lon="2.93668">
        <ele>180.875</ele>
        <time>2016-02-03T13:10:58.000Z</time>
      </trkpt>
      <trkpt lat="46.93872" lon="2.93666">
        <ele>180.93574523926</ele>
        <time>2016-02-03T13:11:01.000Z</time>
      </trkpt>
      <trkpt lat="46.9387" lon="2.93664">
        <ele>180.9733581543</ele>
        <time>2016-02-03T13:11:04.000Z</time>
      </trkpt>
      <trkpt lat="46.93868" lon="2.93661">
        <ele>180.98466491699</ele>
        <time>2016-02-03T13:11:06.000Z</time>
      </trkpt>
      <trkpt lat="46.93865" lon="2.93657">
        <ele>180.96810913086</ele>
        <time>2016-02-03T13:11:09.000Z</time>
      </trkpt>
      <trkpt lat="46.93862" lon="2.93654">
        <ele>180.92953491211</ele>
        <time>2016-02-03T13:11:11.000Z</time>
      </trkpt>
      <trkpt lat="46.93859" lon="2.9365">
        <ele>180.86212158203</ele>
        <time>2016-02-03T13:11:14.000Z</time>
      </trkpt>
      <trkpt lat="46.93856" lon="2.93647">
        <ele>180.78660583496</ele>
        <time>2016-02-03T13:11:16.000Z</time>
      </trkpt>
      <trkpt lat="46.93854" lon="2.93645">
        <ele>180.71569824219</ele>
        <time>2016-02-03T13:11:18.000Z</time>
      </trkpt>
      <trkpt lat="46.93851" lon="2.93643">
        <ele>180.65141296387</ele>
        <time>2016-02-03T13:11:21.000Z</time>
      </trkpt>
      <trkpt lat="46.93848" lon="2.9364">
        <ele>180.58198547363</ele>
        <time>2016-02-03T13:11:23.000Z</time>
      </trkpt>
      <trkpt lat="46.93847" lon="2.93637">
        <ele>180.51620483398</ele>
        <time>2016-02-03T13:11:25.000Z</time>
      </trkpt>
      <trkpt lat="46.93842" lon="2.93634">
        <ele>180.44551086426</ele>
        <time>2016-02-03T13:11:28.000Z</time>
      </trkpt>
      <trkpt lat="46.93839" lon="2.93631">
        <ele>180.37469482422</ele>
        <time>2016-02-03T13:11:31.000Z</time>
      </trkpt>
      <trkpt lat="46.93836" lon="2.93629">
        <ele>180.2932434082</ele>
        <time>2016-02-03T13:11:34.000Z</time>
      </trkpt>
      <trkpt lat="46.93834" lon="2.93628">
        <ele>180.2283782959</ele>
        <time>2016-02-03T13:11:36.000Z</time>
      </trkpt>
      <trkpt lat="46.93831" lon="2.93626">
        <ele>180.18118286133</ele>
        <time>2016-02-03T13:11:39.000Z</time>
      </trkpt>
      <trkpt lat="46.93829" lon="2.93625">
        <ele>180.14926147461</ele>
        <time>2016-02-03T13:11:41.000Z</time>
      </trkpt>
      <trkpt lat="46.93827" lon="2.93623">
        <ele>180.12002563477</ele>
        <time>2016-02-03T13:11:43.000Z</time>
      </trkpt>
      <trkpt lat="46.93826" lon="2.93619">
        <ele>180.08714294434</ele>
        <time>2016-02-03T13:11:46.000Z</time>
      </trkpt>
      <trkpt lat="46.93822" lon="2.93616">
        <ele>180.04692077637</ele>
        <time>2016-02-03T13:11:49.000Z</time>
      </trkpt>
      <trkpt lat="46.93815" lon="2.93612">
        <ele>180.00668334961</ele>
        <time>2016-02-03T13:11:52.000Z</time>
      </trkpt>
      <trkpt lat="46.93813" lon="2.93611">
        <ele>179.98052978516</ele>
        <time>2016-02-03T13:11:54.000Z</time>
      </trkpt>
      <trkpt lat="46.9381" lon="2.9361">
        <ele>179.97030639648</ele>
        <time>2016-02-03T13:11:56.000Z</time>
      </trkpt>
      <trkpt lat="46.93808" lon="2.93609">
        <ele>179.98414611816</ele>
        <time>2016-02-03T13:11:59.000Z</time>
      </trkpt>
      <trkpt lat="46.93805" lon="2.93607">
        <ele>180.01065063477</ele>
        <time>2016-02-03T13:12:01.000Z</time>
      </trkpt>
      <trkpt lat="46.93802" lon="2.93605">
        <ele>180.03295898438</ele>
        <time>2016-02-03T13:12:03.000Z</time>
      </trkpt>
      <trkpt lat="46.93799" lon="2.93603">
        <ele>180.04818725586</ele>
        <time>2016-02-03T13:12:05.000Z</time>
      </trkpt>
      <trkpt lat="46.93794" lon="2.936">
        <ele>180.06701660156</ele>
        <time>2016-02-03T13:12:08.000Z</time>
      </trkpt>
      <trkpt lat="46.93789" lon="2.93599">
        <ele>180.10223388672</ele>
        <time>2016-02-03T13:12:11.000Z</time>
      </trkpt>
      <trkpt lat="46.93787" lon="2.93599">
        <ele>180.14685058594</ele>
        <time>2016-02-03T13:12:13.000Z</time>
      </trkpt>
      <trkpt lat="46.93784" lon="2.93598">
        <ele>180.21047973633</ele>
        <time>2016-02-03T13:12:16.000Z</time>
      </trkpt>
      <trkpt lat="46.93781" lon="2.93596">
        <ele>180.27783203125</ele>
        <time>2016-02-03T13:12:19.000Z</time>
      </trkpt>
      <trkpt lat="46.93779" lon="2.93595">
        <ele>180.33930969238</ele>
        <time>2016-02-03T13:12:22.000Z</time>
      </trkpt>
      <trkpt lat="46.93775" lon="2.93594">
        <ele>180.40090942383</ele>
        <time>2016-02-03T13:12:25.000Z</time>
      </trkpt>
      <trkpt lat="46.93771" lon="2.93592">
        <ele>180.4619140625</ele>
        <time>2016-02-03T13:12:28.000Z</time>
      </trkpt>
      <trkpt lat="46.93766" lon="2.9359">
        <ele>180.53103637695</ele>
        <time>2016-02-03T13:12:31.000Z</time>
      </trkpt>
      <trkpt lat="46.93761" lon="2.93589">
        <ele>180.6100769043</ele>
        <time>2016-02-03T13:12:34.000Z</time>
      </trkpt>
      <trkpt lat="46.93759" lon="2.93587">
        <ele>180.68876647949</ele>
        <time>2016-02-03T13:12:36.000Z</time>
      </trkpt>
      <trkpt lat="46.93755" lon="2.93586">
        <ele>180.76751708984</ele>
        <time>2016-02-03T13:12:38.000Z</time>
      </trkpt>
      <trkpt lat="46.93752" lon="2.93584">
        <ele>180.8430480957</ele>
        <time>2016-02-03T13:12:41.000Z</time>
      </trkpt>
      <trkpt lat="46.9375" lon="2.93583">
        <ele>180.89912414551</ele>
        <time>2016-02-03T13:12:43.000Z</time>
      </trkpt>
      <trkpt lat="46.93748" lon="2.93582">
        <ele>180.93380737305</ele>
        <time>2016-02-03T13:12:45.000Z</time>
      </trkpt>
      <trkpt lat="46.93746" lon="2.93582">
        <ele>180.96688842773</ele>
        <time>2016-02-03T13:12:48.000Z</time>
      </trkpt>
      <trkpt lat="46.93743" lon="2.93582">
        <ele>180.98374938965</ele>
        <time>2016-02-03T13:12:51.000Z</time>
      </trkpt>
      <trkpt lat="46.93742" lon="2.9358">
        <ele>180.97595214844</ele>
        <time>2016-02-03T13:12:55.000Z</time>
      </trkpt>
      <trkpt lat="46.93742" lon="2.93578">
        <ele>180.94790649414</ele>
        <time>2016-02-03T13:12:57.000Z</time>
      </trkpt>
      <trkpt lat="46.93739" lon="2.93579">
        <ele>180.9303894043</ele>
        <time>2016-02-03T13:13:00.000Z</time>
      </trkpt>
      <trkpt lat="46.93736" lon="2.93578">
        <ele>180.91055297852</ele>
        <time>2016-02-03T13:13:03.000Z</time>
      </trkpt>
      <trkpt lat="46.93731" lon="2.93576">
        <ele>180.87551879883</ele>
        <time>2016-02-03T13:13:06.000Z</time>
      </trkpt>
      <trkpt lat="46.93729" lon="2.93575">
        <ele>180.85041809082</ele>
        <time>2016-02-03T13:13:08.000Z</time>
      </trkpt>
      <trkpt lat="46.93723" lon="2.93573">
        <ele>180.82852172852</ele>
        <time>2016-02-03T13:13:11.000Z</time>
      </trkpt>
      <trkpt lat="46.93719" lon="2.93572">
        <ele>180.80097961426</ele>
        <time>2016-02-03T13:13:14.000Z</time>
      </trkpt>
      <trkpt lat="46.93711" lon="2.93571">
        <ele>180.77560424805</ele>
        <time>2016-02-03T13:13:17.000Z</time>
      </trkpt>
      <trkpt lat="46.93708" lon="2.93571">
        <ele>180.76171875</ele>
        <time>2016-02-03T13:13:19.000Z</time>
      </trkpt>
      <trkpt lat="46.93705" lon="2.93571">
        <ele>180.75871276855</ele>
        <time>2016-02-03T13:13:21.000Z</time>
      </trkpt>
      <trkpt lat="46.93703" lon="2.93572">
        <ele>180.78132629395</ele>
        <time>2016-02-03T13:13:23.000Z</time>
      </trkpt>
      <trkpt lat="46.93698" lon="2.93572">
        <ele>180.8189239502</ele>
        <time>2016-02-03T13:13:26.000Z</time>
      </trkpt>
      <trkpt lat="46.93695" lon="2.93572">
        <ele>180.85282897949</ele>
        <time>2016-02-03T13:13:28.000Z</time>
      </trkpt>
      <trkpt lat="46.93694" lon="2.93572">
        <ele>180.88975524902</ele>
        <time>2016-02-03T13:13:30.000Z</time>
      </trkpt>
      <trkpt lat="46.9369" lon="2.9357">
        <ele>180.90716552734</ele>
        <time>2016-02-03T13:13:33.000Z</time>
      </trkpt>
      <trkpt lat="46.93688" lon="2.9357">
        <ele>180.90751647949</ele>
        <time>2016-02-03T13:13:35.000Z</time>
      </trkpt>
      <trkpt lat="46.93687" lon="2.93569">
        <ele>180.88522338867</ele>
        <time>2016-02-03T13:13:37.000Z</time>
      </trkpt>
      <trkpt lat="46.93682" lon="2.93568">
        <ele>180.85922241211</ele>
        <time>2016-02-03T13:13:40.000Z</time>
      </trkpt>
      <trkpt lat="46.93678" lon="2.93568">
        <ele>180.83544921875</ele>
        <time>2016-02-03T13:13:43.000Z</time>
      </trkpt>
      <trkpt lat="46.93675" lon="2.93568">
        <ele>180.82344055176</ele>
        <time>2016-02-03T13:13:46.000Z</time>
      </trkpt>
      <trkpt lat="46.93674" lon="2.93567">
        <ele>180.80310058594</ele>
        <time>2016-02-03T13:13:49.000Z</time>
      </trkpt>
      <trkpt lat="46.93669" lon="2.93566">
        <ele>180.7797088623</ele>
        <time>2016-02-03T13:13:52.000Z</time>
      </trkpt>
      <trkpt lat="46.93666" lon="2.93565">
        <ele>180.75241088867</ele>
        <time>2016-02-03T13:13:54.000Z</time>
      </trkpt>
      <trkpt lat="46.93661" lon="2.93563">
        <ele>180.70843505859</ele>
        <time>2016-02-03T13:13:57.000Z</time>
      </trkpt>
      <trkpt lat="46.93659" lon="2.93563">
        <ele>180.66760253906</ele>
        <time>2016-02-03T13:14:00.000Z</time>
      </trkpt>
      <trkpt lat="46.93657" lon="2.93563">
        <ele>180.63996887207</ele>
        <time>2016-02-03T13:14:02.000Z</time>
      </trkpt>
      <trkpt lat="46.93653" lon="2.93563">
        <ele>180.61856079102</ele>
        <time>2016-02-03T13:14:05.000Z</time>
      </trkpt>
      <trkpt lat="46.9365" lon="2.93562">
        <ele>180.59829711914</ele>
        <time>2016-02-03T13:14:07.000Z</time>
      </trkpt>
      <trkpt lat="46.93644" lon="2.9356">
        <ele>180.5725402832</ele>
        <time>2016-02-03T13:14:10.000Z</time>
      </trkpt>
      <trkpt lat="46.93642" lon="2.93559">
        <ele>180.5380859375</ele>
        <time>2016-02-03T13:14:12.000Z</time>
      </trkpt>
      <trkpt lat="46.93639" lon="2.93559">
        <ele>180.50025939941</ele>
        <time>2016-02-03T13:14:14.000Z</time>
      </trkpt>
      <trkpt lat="46.93635" lon="2.93558">
        <ele>180.46374511719</ele>
        <time>2016-02-03T13:14:17.000Z</time>
      </trkpt>
      <trkpt lat="46.9363" lon="2.93557">
        <ele>180.4328918457</ele>
        <time>2016-02-03T13:14:20.000Z</time>
      </trkpt>
      <trkpt lat="46.93628" lon="2.93556">
        <ele>180.40992736816</ele>
        <time>2016-02-03T13:14:23.000Z</time>
      </trkpt>
      <trkpt lat="46.93624" lon="2.93556">
        <ele>180.39405822754</ele>
        <time>2016-02-03T13:14:25.000Z</time>
      </trkpt>
      <trkpt lat="46.93622" lon="2.93555">
        <ele>180.373046875</ele>
        <time>2016-02-03T13:14:28.000Z</time>
      </trkpt>
      <trkpt lat="46.93618" lon="2.93556">
        <ele>180.37239074707</ele>
        <time>2016-02-03T13:14:31.000Z</time>
      </trkpt>
      <trkpt lat="46.93615" lon="2.93557">
        <ele>180.39225769043</ele>
        <time>2016-02-03T13:14:34.000Z</time>
      </trkpt>
      <trkpt lat="46.93612" lon="2.93558">
        <ele>180.43499755859</ele>
        <time>2016-02-03T13:14:36.000Z</time>
      </trkpt>
      <trkpt lat="46.93608" lon="2.93557">
        <ele>180.47793579102</ele>
        <time>2016-02-03T13:14:39.000Z</time>
      </trkpt>
      <trkpt lat="46.93605" lon="2.93556">
        <ele>180.52182006836</ele>
        <time>2016-02-03T13:14:42.000Z</time>
      </trkpt>
      <trkpt lat="46.93604" lon="2.93556">
        <ele>180.54078674316</ele>
        <time>2016-02-03T13:14:45.000Z</time>
      </trkpt>
      <trkpt lat="46.93602" lon="2.93554">
        <ele>180.52861022949</ele>
        <time>2016-02-03T13:14:48.000Z</time>
      </trkpt>
      <trkpt lat="46.936" lon="2.93554">
        <ele>180.50634765625</ele>
        <time>2016-02-03T13:14:51.000Z</time>
      </trkpt>
      <trkpt lat="46.93599" lon="2.93554">
        <ele>180.48425292969</ele>
        <time>2016-02-03T13:14:54.000Z</time>
      </trkpt>
      <trkpt lat="46.93594" lon="2.93554">
        <ele>180.47538757324</ele>
        <time>2016-02-03T13:14:56.000Z</time>
      </trkpt>
      <trkpt lat="46.9359" lon="2.93555">
        <ele>180.4873046875</ele>
        <time>2016-02-03T13:14:59.000Z</time>
      </trkpt>
      <trkpt lat="46.93586" lon="2.93555">
        <ele>180.52453613281</ele>
        <time>2016-02-03T13:15:01.000Z</time>
      </trkpt>
      <trkpt lat="46.93582" lon="2.93554">
        <ele>180.55526733398</ele>
        <time>2016-02-03T13:15:03.000Z</time>
      </trkpt>
      <trkpt lat="46.93576" lon="2.93555">
        <ele>180.6067199707</ele>
        <time>2016-02-03T13:15:06.000Z</time>
      </trkpt>
      <trkpt lat="46.93572" lon="2.93555">
        <ele>180.65545654297</ele>
        <time>2016-02-03T13:15:09.000Z</time>
      </trkpt>
      <trkpt lat="46.9357" lon="2.93555">
        <ele>180.69088745117</ele>
        <time>2016-02-03T13:15:11.000Z</time>
      </trkpt>
      <trkpt lat="46.93567" lon="2.93556">
        <ele>180.72647094727</ele>
        <time>2016-02-03T13:15:14.000Z</time>
      </trkpt>
      <trkpt lat="46.93563" lon="2.93556">
        <ele>180.77099609375</ele>
        <time>2016-02-03T13:15:17.000Z</time>
      </trkpt>
      <trkpt lat="46.93562" lon="2.93556">
        <ele>180.79875183105</ele>
        <time>2016-02-03T13:15:21.000Z</time>
      </trkpt>
      <trkpt lat="46.93557" lon="2.93556">
        <ele>180.83274841309</ele>
        <time>2016-02-03T13:15:23.000Z</time>
      </trkpt>
      <trkpt lat="46.93551" lon="2.93558">
        <ele>180.88481140137</ele>
        <time>2016-02-03T13:15:26.000Z</time>
      </trkpt>
      <trkpt lat="46.93548" lon="2.93558">
        <ele>180.93200683594</ele>
        <time>2016-02-03T13:15:28.000Z</time>
      </trkpt>
      <trkpt lat="46.93544" lon="2.93559">
        <ele>180.98519897461</ele>
        <time>2016-02-03T13:15:31.000Z</time>
      </trkpt>
      <trkpt lat="46.9354" lon="2.93561">
        <ele>181.0524597168</ele>
        <time>2016-02-03T13:15:34.000Z</time>
      </trkpt>
      <trkpt lat="46.93538" lon="2.93562">
        <ele>181.12327575684</ele>
        <time>2016-02-03T13:15:36.000Z</time>
      </trkpt>
      <trkpt lat="46.93536" lon="2.93563">
        <ele>181.1848449707</ele>
        <time>2016-02-03T13:15:38.000Z</time>
      </trkpt>
      <trkpt lat="46.93531" lon="2.93569">
        <ele>181.28335571289</ele>
        <time>2016-02-03T13:15:41.000Z</time>
      </trkpt>
      <trkpt lat="46.93527" lon="2.93575">
        <ele>181.40898132324</ele>
        <time>2016-02-03T13:15:44.000Z</time>
      </trkpt>
      <trkpt lat="46.93524" lon="2.93578">
        <ele>181.53948974609</ele>
        <time>2016-02-03T13:15:46.000Z</time>
      </trkpt>
      <trkpt lat="46.93521" lon="2.93583">
        <ele>181.68304443359</ele>
        <time>2016-02-03T13:15:49.000Z</time>
      </trkpt>
      <trkpt lat="46.93517" lon="2.93589">
        <ele>181.78460693359</ele>
        <time>2016-02-03T13:15:52.000Z</time>
      </trkpt>
      <trkpt lat="46.93513" lon="2.93593">
        <ele>181.81265258789</ele>
        <time>2016-02-03T13:15:55.000Z</time>
      </trkpt>
      <trkpt lat="46.9351" lon="2.93596">
        <ele>181.77763366699</ele>
        <time>2016-02-03T13:15:58.000Z</time>
      </trkpt>
      <trkpt lat="46.93508" lon="2.93597">
        <ele>181.71112060547</ele>
        <time>2016-02-03T13:16:00.000Z</time>
      </trkpt>
      <trkpt lat="46.93504" lon="2.936">
        <ele>181.59663391113</ele>
        <time>2016-02-03T13:16:03.000Z</time>
      </trkpt>
      <trkpt lat="46.93504" lon="2.93601">
        <ele>181.50888061523</ele>
        <time>2016-02-03T13:16:05.000Z</time>
      </trkpt>
      <trkpt lat="46.93501" lon="2.93604">
        <ele>181.42683410645</ele>
        <time>2016-02-03T13:16:07.000Z</time>
      </trkpt>
      <trkpt lat="46.93497" lon="2.93605">
        <ele>181.38095092773</ele>
        <time>2016-02-03T13:16:10.000Z</time>
      </trkpt>
      <trkpt lat="46.93496" lon="2.93605">
        <ele>181.35153198242</ele>
        <time>2016-02-03T13:16:12.000Z</time>
      </trkpt>
      <trkpt lat="46.93493" lon="2.93607">
        <ele>181.35025024414</ele>
        <time>2016-02-03T13:16:14.000Z</time>
      </trkpt>
      <trkpt lat="46.93491" lon="2.93608">
        <ele>181.36904907227</ele>
        <time>2016-02-03T13:16:17.000Z</time>
      </trkpt>
      <trkpt lat="46.93488" lon="2.9361">
        <ele>181.4211730957</ele>
        <time>2016-02-03T13:16:19.000Z</time>
      </trkpt>
      <trkpt lat="46.93484" lon="2.93612">
        <ele>181.48281860352</ele>
        <time>2016-02-03T13:16:22.000Z</time>
      </trkpt>
      <trkpt lat="46.93481" lon="2.93613">
        <ele>181.5499420166</ele>
        <time>2016-02-03T13:16:25.000Z</time>
      </trkpt>
      <trkpt lat="46.93477" lon="2.93617">
        <ele>181.62683105469</ele>
        <time>2016-02-03T13:16:28.000Z</time>
      </trkpt>
      <trkpt lat="46.93474" lon="2.9362">
        <ele>181.70277404785</ele>
        <time>2016-02-03T13:16:31.000Z</time>
      </trkpt>
      <trkpt lat="46.93471" lon="2.93624">
        <ele>181.77722167969</ele>
        <time>2016-02-03T13:16:34.000Z</time>
      </trkpt>
      <trkpt lat="46.93468" lon="2.93628">
        <ele>181.84399414062</ele>
        <time>2016-02-03T13:16:37.000Z</time>
      </trkpt>
      <trkpt lat="46.93464" lon="2.93631">
        <ele>181.92567443848</ele>
        <time>2016-02-03T13:16:40.000Z</time>
      </trkpt>
      <trkpt lat="46.93463" lon="2.93633">
        <ele>181.99789428711</ele>
        <time>2016-02-03T13:16:42.000Z</time>
      </trkpt>
      <trkpt lat="46.9346" lon="2.93636">
        <ele>182.08248901367</ele>
        <time>2016-02-03T13:16:45.000Z</time>
      </trkpt>
      <trkpt lat="46.93458" lon="2.93638">
        <ele>182.17111206055</ele>
        <time>2016-02-03T13:16:47.000Z</time>
      </trkpt>
      <trkpt lat="46.93456" lon="2.93641">
        <ele>182.26852416992</ele>
        <time>2016-02-03T13:16:49.000Z</time>
      </trkpt>
      <trkpt lat="46.93454" lon="2.93645">
        <ele>182.35343933105</ele>
        <time>2016-02-03T13:16:52.000Z</time>
      </trkpt>
      <trkpt lat="46.9345" lon="2.93651">
        <ele>182.46955871582</ele>
        <time>2016-02-03T13:16:55.000Z</time>
      </trkpt>
      <trkpt lat="46.93448" lon="2.93653">
        <ele>182.57723999023</ele>
        <time>2016-02-03T13:16:57.000Z</time>
      </trkpt>
      <trkpt lat="46.93447" lon="2.93656">
        <ele>182.68466186523</ele>
        <time>2016-02-03T13:17:00.000Z</time>
      </trkpt>
      <trkpt lat="46.93445" lon="2.93658">
        <ele>182.79005432129</ele>
        <time>2016-02-03T13:17:02.000Z</time>
      </trkpt>
      <trkpt lat="46.93442" lon="2.93662">
        <ele>182.92097473145</ele>
        <time>2016-02-03T13:17:05.000Z</time>
      </trkpt>
      <trkpt lat="46.9344" lon="2.93666">
        <ele>183.03930664062</ele>
        <time>2016-02-03T13:17:08.000Z</time>
      </trkpt>
      <trkpt lat="46.93437" lon="2.93669">
        <ele>183.17297363281</ele>
        <time>2016-02-03T13:17:11.000Z</time>
      </trkpt>
      <trkpt lat="46.93434" lon="2.93672">
        <ele>183.31295776367</ele>
        <time>2016-02-03T13:17:13.000Z</time>
      </trkpt>
      <trkpt lat="46.93432" lon="2.93673">
        <ele>183.44345092773</ele>
        <time>2016-02-03T13:17:15.000Z</time>
      </trkpt>
      <trkpt lat="46.9343" lon="2.93675">
        <ele>183.54345703125</ele>
        <time>2016-02-03T13:17:18.000Z</time>
      </trkpt>
      <trkpt lat="46.93429" lon="2.93679">
        <ele>183.60676574707</ele>
        <time>2016-02-03T13:17:20.000Z</time>
      </trkpt>
      <trkpt lat="46.93426" lon="2.93683">
        <ele>183.63963317871</ele>
        <time>2016-02-03T13:17:23.000Z</time>
      </trkpt>
      <trkpt lat="46.93424" lon="2.93686">
        <ele>183.65481567383</ele>
        <time>2016-02-03T13:17:25.000Z</time>
      </trkpt>
      <trkpt lat="46.93422" lon="2.93689">
        <ele>183.65589904785</ele>
        <time>2016-02-03T13:17:28.000Z</time>
      </trkpt>
      <trkpt lat="46.93419" lon="2.93693">
        <ele>183.64018249512</ele>
        <time>2016-02-03T13:17:30.000Z</time>
      </trkpt>
      <trkpt lat="46.93418" lon="2.93696">
        <ele>183.62156677246</ele>
        <time>2016-02-03T13:17:32.000Z</time>
      </trkpt>
      <trkpt lat="46.93415" lon="2.937">
        <ele>183.57345581055</ele>
        <time>2016-02-03T13:17:35.000Z</time>
      </trkpt>
      <trkpt lat="46.93413" lon="2.93702">
        <ele>183.49728393555</ele>
        <time>2016-02-03T13:17:38.000Z</time>
      </trkpt>
      <trkpt lat="46.9341" lon="2.93705">
        <ele>183.39814758301</ele>
        <time>2016-02-03T13:17:41.000Z</time>
      </trkpt>
      <trkpt lat="46.93407" lon="2.93709">
        <ele>183.26823425293</ele>
        <time>2016-02-03T13:17:44.000Z</time>
      </trkpt>
      <trkpt lat="46.93404" lon="2.93712">
        <ele>183.12812805176</ele>
        <time>2016-02-03T13:17:46.000Z</time>
      </trkpt>
      <trkpt lat="46.93402" lon="2.93715">
        <ele>182.98750305176</ele>
        <time>2016-02-03T13:17:49.000Z</time>
      </trkpt>
      <trkpt lat="46.934" lon="2.93717">
        <ele>182.85511779785</ele>
        <time>2016-02-03T13:17:51.000Z</time>
      </trkpt>
      <trkpt lat="46.93398" lon="2.93719">
        <ele>182.73544311523</ele>
        <time>2016-02-03T13:17:53.000Z</time>
      </trkpt>
      <trkpt lat="46.93394" lon="2.93723">
        <ele>182.62197875977</ele>
        <time>2016-02-03T13:17:56.000Z</time>
      </trkpt>
      <trkpt lat="46.93394" lon="2.93725">
        <ele>182.51655578613</ele>
        <time>2016-02-03T13:17:58.000Z</time>
      </trkpt>
      <trkpt lat="46.93394" lon="2.93727">
        <ele>182.41748046875</ele>
        <time>2016-02-03T13:18:08.000Z</time>
      </trkpt>
      <trkpt lat="46.93391" lon="2.93729">
        <ele>182.32443237305</ele>
        <time>2016-02-03T13:18:11.000Z</time>
      </trkpt>
      <trkpt lat="46.93388" lon="2.93732">
        <ele>182.23147583008</ele>
        <time>2016-02-03T13:18:14.000Z</time>
      </trkpt>
      <trkpt lat="46.93386" lon="2.93733">
        <ele>182.1587677002</ele>
        <time>2016-02-03T13:18:16.000Z</time>
      </trkpt>
      <trkpt lat="46.93386" lon="2.93734">
        <ele>182.09536743164</ele>
        <time>2016-02-03T13:18:18.000Z</time>
      </trkpt>
      <trkpt lat="46.93385" lon="2.93736">
        <ele>182.0399017334</ele>
        <time>2016-02-03T13:18:21.000Z</time>
      </trkpt>
      <trkpt lat="46.93383" lon="2.93736">
        <ele>181.99850463867</ele>
        <time>2016-02-03T13:18:27.000Z</time>
      </trkpt>
      <trkpt lat="46.9338" lon="2.93736">
        <ele>181.97506713867</ele>
        <time>2016-02-03T13:18:30.000Z</time>
      </trkpt>
      <trkpt lat="46.93379" lon="2.93736">
        <ele>181.96206665039</ele>
        <time>2016-02-03T13:18:32.000Z</time>
      </trkpt>
      <trkpt lat="46.93378" lon="2.93737">
        <ele>181.95175170898</ele>
        <time>2016-02-03T13:18:36.000Z</time>
      </trkpt>
      <trkpt lat="46.93377" lon="2.93738">
        <ele>181.95164489746</ele>
        <time>2016-02-03T13:18:40.000Z</time>
      </trkpt>
      <trkpt lat="46.93375" lon="2.93739">
        <ele>181.94400024414</ele>
        <time>2016-02-03T13:18:43.000Z</time>
      </trkpt>
      <trkpt lat="46.93371" lon="2.9374">
        <ele>181.92855834961</ele>
        <time>2016-02-03T13:18:45.000Z</time>
      </trkpt>
      <trkpt lat="46.93365" lon="2.93742">
        <ele>181.90866088867</ele>
        <time>2016-02-03T13:18:48.000Z</time>
      </trkpt>
      <trkpt lat="46.93363" lon="2.93745">
        <ele>181.88020324707</ele>
        <time>2016-02-03T13:18:50.000Z</time>
      </trkpt>
      <trkpt lat="46.9336" lon="2.93748">
        <ele>181.84451293945</ele>
        <time>2016-02-03T13:18:53.000Z</time>
      </trkpt>
      <trkpt lat="46.93356" lon="2.9375">
        <ele>181.80879211426</ele>
        <time>2016-02-03T13:18:56.000Z</time>
      </trkpt>
      <trkpt lat="46.93352" lon="2.93752">
        <ele>181.77108764648</ele>
        <time>2016-02-03T13:18:59.000Z</time>
      </trkpt>
      <trkpt lat="46.93349" lon="2.93754">
        <ele>181.73391723633</ele>
        <time>2016-02-03T13:19:02.000Z</time>
      </trkpt>
      <trkpt lat="46.93347" lon="2.93754">
        <ele>181.71041870117</ele>
        <time>2016-02-03T13:19:04.000Z</time>
      </trkpt>
      <trkpt lat="46.93344" lon="2.93756">
        <ele>181.69088745117</ele>
        <time>2016-02-03T13:19:07.000Z</time>
      </trkpt>
      <trkpt lat="46.9334" lon="2.93757">
        <ele>181.6817779541</ele>
        <time>2016-02-03T13:19:10.000Z</time>
      </trkpt>
      <trkpt lat="46.93336" lon="2.93759">
        <ele>181.67373657227</ele>
        <time>2016-02-03T13:19:13.000Z</time>
      </trkpt>
      <trkpt lat="46.93334" lon="2.93759">
        <ele>181.67272949219</ele>
        <time>2016-02-03T13:19:15.000Z</time>
      </trkpt>
      <trkpt lat="46.9333" lon="2.93758">
        <ele>181.68315124512</ele>
        <time>2016-02-03T13:19:18.000Z</time>
      </trkpt>
      <trkpt lat="46.93328" lon="2.93758">
        <ele>181.70755004883</ele>
        <time>2016-02-03T13:19:21.000Z</time>
      </trkpt>
      <trkpt lat="46.93326" lon="2.93758">
        <ele>181.73362731934</ele>
        <time>2016-02-03T13:19:23.000Z</time>
      </trkpt>
      <trkpt lat="46.93321" lon="2.93758">
        <ele>181.77381896973</ele>
        <time>2016-02-03T13:19:26.000Z</time>
      </trkpt>
      <trkpt lat="46.93319" lon="2.93759">
        <ele>181.80776977539</ele>
        <time>2016-02-03T13:19:28.000Z</time>
      </trkpt>
      <trkpt lat="46.93316" lon="2.93761">
        <ele>181.8264465332</ele>
        <time>2016-02-03T13:19:31.000Z</time>
      </trkpt>
      <trkpt lat="46.93312" lon="2.93762">
        <ele>181.84365844727</ele>
        <time>2016-02-03T13:19:34.000Z</time>
      </trkpt>
      <trkpt lat="46.9331" lon="2.93762">
        <ele>181.85874938965</ele>
        <time>2016-02-03T13:19:36.000Z</time>
      </trkpt>
      <trkpt lat="46.93306" lon="2.93761">
        <ele>181.87802124023</ele>
        <time>2016-02-03T13:19:39.000Z</time>
      </trkpt>
      <trkpt lat="46.93302" lon="2.93761">
        <ele>181.91610717773</ele>
        <time>2016-02-03T13:19:42.000Z</time>
      </trkpt>
      <trkpt lat="46.93296" lon="2.93761">
        <ele>181.96896362305</ele>
        <time>2016-02-03T13:19:45.000Z</time>
      </trkpt>
      <trkpt lat="46.93292" lon="2.93761">
        <ele>182.02833557129</ele>
        <time>2016-02-03T13:19:48.000Z</time>
      </trkpt>
      <trkpt lat="46.9329" lon="2.9376">
        <ele>182.09573364258</ele>
        <time>2016-02-03T13:19:51.000Z</time>
      </trkpt>
      <trkpt lat="46.93288" lon="2.9376">
        <ele>182.1566619873</ele>
        <time>2016-02-03T13:19:53.000Z</time>
      </trkpt>
      <trkpt lat="46.93286" lon="2.93759">
        <ele>182.21220397949</ele>
        <time>2016-02-03T13:19:56.000Z</time>
      </trkpt>
      <trkpt lat="46.93283" lon="2.93757">
        <ele>182.26962280273</ele>
        <time>2016-02-03T13:19:58.000Z</time>
      </trkpt>
      <trkpt lat="46.93281" lon="2.93755">
        <ele>182.33265686035</ele>
        <time>2016-02-03T13:20:01.000Z</time>
      </trkpt>
      <trkpt lat="46.93278" lon="2.93754">
        <ele>182.39619445801</ele>
        <time>2016-02-03T13:20:04.000Z</time>
      </trkpt>
      <trkpt lat="46.93275" lon="2.93754">
        <ele>182.46101379395</ele>
        <time>2016-02-03T13:20:07.000Z</time>
      </trkpt>
      <trkpt lat="46.93273" lon="2.93754">
        <ele>182.52165222168</ele>
        <time>2016-02-03T13:20:10.000Z</time>
      </trkpt>
      <trkpt lat="46.93271" lon="2.93754">
        <ele>182.57051086426</ele>
        <time>2016-02-03T13:20:12.000Z</time>
      </trkpt>
      <trkpt lat="46.93267" lon="2.93754">
        <ele>182.60935974121</ele>
        <time>2016-02-03T13:20:14.000Z</time>
      </trkpt>
      <trkpt lat="46.93265" lon="2.93754">
        <ele>182.64241027832</ele>
        <time>2016-02-03T13:20:16.000Z</time>
      </trkpt>
      <trkpt lat="46.93259" lon="2.93753">
        <ele>182.69032287598</ele>
        <time>2016-02-03T13:20:19.000Z</time>
      </trkpt>
      <trkpt lat="46.93255" lon="2.93752">
        <ele>182.7458190918</ele>
        <time>2016-02-03T13:20:21.000Z</time>
      </trkpt>
      <trkpt lat="46.93251" lon="2.9375">
        <ele>182.81625366211</ele>
        <time>2016-02-03T13:20:24.000Z</time>
      </trkpt>
      <trkpt lat="46.93248" lon="2.93749">
        <ele>182.8669128418</ele>
        <time>2016-02-03T13:20:26.000Z</time>
      </trkpt>
      <trkpt lat="46.93245" lon="2.93747">
        <ele>182.88859558105</ele>
        <time>2016-02-03T13:20:29.000Z</time>
      </trkpt>
      <trkpt lat="46.93242" lon="2.93746">
        <ele>182.87475585938</ele>
        <time>2016-02-03T13:20:31.000Z</time>
      </trkpt>
      <trkpt lat="46.93239" lon="2.93745">
        <ele>182.83142089844</ele>
        <time>2016-02-03T13:20:33.000Z</time>
      </trkpt>
      <trkpt lat="46.93237" lon="2.93744">
        <ele>182.75424194336</ele>
        <time>2016-02-03T13:20:36.000Z</time>
      </trkpt>
      <trkpt lat="46.93234" lon="2.93743">
        <ele>182.67543029785</ele>
        <time>2016-02-03T13:20:39.000Z</time>
      </trkpt>
      <trkpt lat="46.93232" lon="2.93743">
        <ele>182.61552429199</ele>
        <time>2016-02-03T13:20:42.000Z</time>
      </trkpt>
      <trkpt lat="46.9323" lon="2.93743">
        <ele>182.56607055664</ele>
        <time>2016-02-03T13:20:44.000Z</time>
      </trkpt>
      <trkpt lat="46.9323" lon="2.93743">
        <ele>182.56607055664</ele>
        <time>2016-02-03T13:21:04.000Z</time>
      </trkpt>
      <trkpt lat="46.9323" lon="2.93746">
        <ele>182.54833984375</ele>
        <time>2016-02-03T13:21:12.000Z</time>
      </trkpt>
      <trkpt lat="46.9323" lon="2.93746">
        <ele>182.54833984375</ele>
        <time>2016-02-03T13:21:32.000Z</time>
      </trkpt>
      <trkpt lat="46.93232" lon="2.93745">
        <ele>182.5456237793</ele>
        <time>2016-02-03T13:21:36.000Z</time>
      </trkpt>
      <trkpt lat="46.93235" lon="2.93747">
        <ele>182.58114624023</ele>
        <time>2016-02-03T13:21:43.000Z</time>
      </trkpt>
      <trkpt lat="46.93234" lon="2.93748">
        <ele>182.62275695801</ele>
        <time>2016-02-03T13:21:46.000Z</time>
      </trkpt>
      <trkpt lat="46.93234" lon="2.9375">
        <ele>182.68139648438</ele>
        <time>2016-02-03T13:21:52.000Z</time>
      </trkpt>
      <trkpt lat="46.93234" lon="2.9375">
        <ele>182.68139648438</ele>
        <time>2016-02-03T13:22:12.000Z</time>
      </trkpt>
      <trkpt lat="46.93234" lon="2.93753">
        <ele>182.71630859375</ele>
        <time>2016-02-03T13:23:05.000Z</time>
      </trkpt>
      <trkpt lat="46.93234" lon="2.93753">
        <ele>182.71630859375</ele>
        <time>2016-02-03T13:23:25.000Z</time>
      </trkpt>
      <trkpt lat="46.93235" lon="2.93751">
        <ele>182.75689697266</ele>
        <time>2016-02-03T13:23:27.000Z</time>
      </trkpt>
      <trkpt lat="46.93235" lon="2.9375">
        <ele>182.77792358398</ele>
        <time>2016-02-03T13:23:28.000Z</time>
      </trkpt>
      <trkpt lat="46.93233" lon="2.93749">
        <ele>182.78764343262</ele>
        <time>2016-02-03T13:23:36.000Z</time>
      </trkpt>
      <trkpt lat="46.93231" lon="2.93753">
        <ele>182.77412414551</ele>
        <time>2016-02-03T13:23:39.000Z</time>
      </trkpt>
      <trkpt lat="46.93229" lon="2.93754">
        <ele>182.75772094727</ele>
        <time>2016-02-03T13:23:41.000Z</time>
      </trkpt>
      <trkpt lat="46.93226" lon="2.93756">
        <ele>182.72583007812</ele>
        <time>2016-02-03T13:23:43.000Z</time>
      </trkpt>
      <trkpt lat="46.93224" lon="2.93758">
        <ele>182.67980957031</ele>
        <time>2016-02-03T13:23:48.000Z</time>
      </trkpt>
      <trkpt lat="46.93221" lon="2.93758">
        <ele>182.63705444336</ele>
        <time>2016-02-03T13:23:49.000Z</time>
      </trkpt>
      <trkpt lat="46.93219" lon="2.93759">
        <ele>182.59701538086</ele>
        <time>2016-02-03T13:23:52.000Z</time>
      </trkpt>
      <trkpt lat="46.93216" lon="2.9376">
        <ele>182.55952453613</ele>
        <time>2016-02-03T13:23:54.000Z</time>
      </trkpt>
      <trkpt lat="46.93214" lon="2.93761">
        <ele>182.52960205078</ele>
        <time>2016-02-03T13:23:57.000Z</time>
      </trkpt>
      <trkpt lat="46.93212" lon="2.93761">
        <ele>182.50537109375</ele>
        <time>2016-02-03T13:23:59.000Z</time>
      </trkpt>
      <trkpt lat="46.93211" lon="2.93761">
        <ele>182.48371887207</ele>
        <time>2016-02-03T13:24:01.000Z</time>
      </trkpt>
      <trkpt lat="46.93208" lon="2.93762">
        <ele>182.46313476562</ele>
        <time>2016-02-03T13:24:03.000Z</time>
      </trkpt>
      <trkpt lat="46.93204" lon="2.93762">
        <ele>182.44383239746</ele>
        <time>2016-02-03T13:24:06.000Z</time>
      </trkpt>
      <trkpt lat="46.93201" lon="2.93765">
        <ele>182.4221496582</ele>
        <time>2016-02-03T13:24:08.000Z</time>
      </trkpt>
      <trkpt lat="46.93198" lon="2.93767">
        <ele>182.39875793457</ele>
        <time>2016-02-03T13:24:10.000Z</time>
      </trkpt>
      <trkpt lat="46.93193" lon="2.9377">
        <ele>182.37454223633</ele>
        <time>2016-02-03T13:24:12.000Z</time>
      </trkpt>
      <trkpt lat="46.9319" lon="2.93773">
        <ele>182.35360717773</ele>
        <time>2016-02-03T13:24:15.000Z</time>
      </trkpt>
      <trkpt lat="46.93187" lon="2.93776">
        <ele>182.3395690918</ele>
        <time>2016-02-03T13:24:18.000Z</time>
      </trkpt>
      <trkpt lat="46.93183" lon="2.93779">
        <ele>182.33335876465</ele>
        <time>2016-02-03T13:24:21.000Z</time>
      </trkpt>
      <trkpt lat="46.9318" lon="2.93782">
        <ele>182.33602905273</ele>
        <time>2016-02-03T13:24:24.000Z</time>
      </trkpt>
      <trkpt lat="46.93176" lon="2.93784">
        <ele>182.34680175781</ele>
        <time>2016-02-03T13:24:27.000Z</time>
      </trkpt>
      <trkpt lat="46.93172" lon="2.93785">
        <ele>182.36328125</ele>
        <time>2016-02-03T13:24:30.000Z</time>
      </trkpt>
      <trkpt lat="46.93168" lon="2.9379">
        <ele>182.3911895752</ele>
        <time>2016-02-03T13:24:33.000Z</time>
      </trkpt>
      <trkpt lat="46.93166" lon="2.93792">
        <ele>182.42127990723</ele>
        <time>2016-02-03T13:24:35.000Z</time>
      </trkpt>
      <trkpt lat="46.93164" lon="2.93795">
        <ele>182.4419708252</ele>
        <time>2016-02-03T13:24:38.000Z</time>
      </trkpt>
      <trkpt lat="46.93163" lon="2.93797">
        <ele>182.45245361328</ele>
        <time>2016-02-03T13:24:40.000Z</time>
      </trkpt>
      <trkpt lat="46.9316" lon="2.938">
        <ele>182.4504699707</ele>
        <time>2016-02-03T13:24:43.000Z</time>
      </trkpt>
      <trkpt lat="46.93158" lon="2.93805">
        <ele>182.43571472168</ele>
        <time>2016-02-03T13:24:46.000Z</time>
      </trkpt>
      <trkpt lat="46.93157" lon="2.93808">
        <ele>182.41244506836</ele>
        <time>2016-02-03T13:24:48.000Z</time>
      </trkpt>
      <trkpt lat="46.93155" lon="2.93812">
        <ele>182.3913269043</ele>
        <time>2016-02-03T13:24:50.000Z</time>
      </trkpt>
      <trkpt lat="46.93154" lon="2.93815">
        <ele>182.3752746582</ele>
        <time>2016-02-03T13:24:53.000Z</time>
      </trkpt>
      <trkpt lat="46.93151" lon="2.93819">
        <ele>182.35556030273</ele>
        <time>2016-02-03T13:24:56.000Z</time>
      </trkpt>
      <trkpt lat="46.9315" lon="2.93822">
        <ele>182.33451843262</ele>
        <time>2016-02-03T13:24:58.000Z</time>
      </trkpt>
      <trkpt lat="46.93147" lon="2.93826">
        <ele>182.30685424805</ele>
        <time>2016-02-03T13:25:01.000Z</time>
      </trkpt>
      <trkpt lat="46.93145" lon="2.93828">
        <ele>182.26838684082</ele>
        <time>2016-02-03T13:25:03.000Z</time>
      </trkpt>
      <trkpt lat="46.93143" lon="2.93831">
        <ele>182.22482299805</ele>
        <time>2016-02-03T13:25:05.000Z</time>
      </trkpt>
      <trkpt lat="46.93142" lon="2.93834">
        <ele>182.18508911133</ele>
        <time>2016-02-03T13:25:08.000Z</time>
      </trkpt>
      <trkpt lat="46.9314" lon="2.93835">
        <ele>182.13459777832</ele>
        <time>2016-02-03T13:25:10.000Z</time>
      </trkpt>
      <trkpt lat="46.93138" lon="2.93837">
        <ele>182.07553100586</ele>
        <time>2016-02-03T13:25:13.000Z</time>
      </trkpt>
      <trkpt lat="46.93135" lon="2.93838">
        <ele>182.01257324219</ele>
        <time>2016-02-03T13:25:15.000Z</time>
      </trkpt>
      <trkpt lat="46.93132" lon="2.9384">
        <ele>181.93226623535</ele>
        <time>2016-02-03T13:25:18.000Z</time>
      </trkpt>
      <trkpt lat="46.93131" lon="2.93844">
        <ele>181.85015869141</ele>
        <time>2016-02-03T13:25:20.000Z</time>
      </trkpt>
      <trkpt lat="46.9313" lon="2.93846">
        <ele>181.77471923828</ele>
        <time>2016-02-03T13:25:23.000Z</time>
      </trkpt>
      <trkpt lat="46.9313" lon="2.93848">
        <ele>181.71762084961</ele>
        <time>2016-02-03T13:25:25.000Z</time>
      </trkpt>
      <trkpt lat="46.93131" lon="2.93853">
        <ele>181.68440246582</ele>
        <time>2016-02-03T13:25:28.000Z</time>
      </trkpt>
      <trkpt lat="46.93131" lon="2.93857">
        <ele>181.67077636719</ele>
        <time>2016-02-03T13:25:31.000Z</time>
      </trkpt>
      <trkpt lat="46.93132" lon="2.9386">
        <ele>181.66995239258</ele>
        <time>2016-02-03T13:25:34.000Z</time>
      </trkpt>
      <trkpt lat="46.93132" lon="2.93862">
        <ele>181.67666625977</ele>
        <time>2016-02-03T13:25:37.000Z</time>
      </trkpt>
      <trkpt lat="46.93133" lon="2.93863">
        <ele>181.69053649902</ele>
        <time>2016-02-03T13:25:49.000Z</time>
      </trkpt>
      <trkpt lat="46.93134" lon="2.93864">
        <ele>181.70185852051</ele>
        <time>2016-02-03T13:25:57.000Z</time>
      </trkpt>
      <trkpt lat="46.93137" lon="2.93869">
        <ele>181.72891235352</ele>
        <time>2016-02-03T13:26:00.000Z</time>
      </trkpt>
      <trkpt lat="46.93138" lon="2.93872">
        <ele>181.75708007812</ele>
        <time>2016-02-03T13:26:02.000Z</time>
      </trkpt>
      <trkpt lat="46.93137" lon="2.93875">
        <ele>181.77517700195</ele>
        <time>2016-02-03T13:26:05.000Z</time>
      </trkpt>
      <trkpt lat="46.93135" lon="2.93878">
        <ele>181.77548217773</ele>
        <time>2016-02-03T13:26:08.000Z</time>
      </trkpt>
      <trkpt lat="46.93133" lon="2.9388">
        <ele>181.76376342773</ele>
        <time>2016-02-03T13:26:10.000Z</time>
      </trkpt>
      <trkpt lat="46.9313" lon="2.93882">
        <ele>181.72836303711</ele>
        <time>2016-02-03T13:26:12.000Z</time>
      </trkpt>
      <trkpt lat="46.93126" lon="2.93883">
        <ele>181.66690063477</ele>
        <time>2016-02-03T13:26:15.000Z</time>
      </trkpt>
      <trkpt lat="46.93125" lon="2.93884">
        <ele>181.60871887207</ele>
        <time>2016-02-03T13:26:17.000Z</time>
      </trkpt>
      <trkpt lat="46.93122" lon="2.93886">
        <ele>181.54998779297</ele>
        <time>2016-02-03T13:26:20.000Z</time>
      </trkpt>
      <trkpt lat="46.93121" lon="2.93887">
        <ele>181.49662780762</ele>
        <time>2016-02-03T13:26:23.000Z</time>
      </trkpt>
      <trkpt lat="46.93125" lon="2.93887">
        <ele>181.47160339355</ele>
        <time>2016-02-03T13:26:35.000Z</time>
      </trkpt>
      <trkpt lat="46.93124" lon="2.93893">
        <ele>181.46501159668</ele>
        <time>2016-02-03T13:26:37.000Z</time>
      </trkpt>
      <trkpt lat="46.93124" lon="2.93895">
        <ele>181.46229553223</ele>
        <time>2016-02-03T13:26:50.000Z</time>
      </trkpt>
      <trkpt lat="46.93121" lon="2.93897">
        <ele>181.46287536621</ele>
        <time>2016-02-03T13:26:52.000Z</time>
      </trkpt>
      <trkpt lat="46.93121" lon="2.93901">
        <ele>181.46469116211</ele>
        <time>2016-02-03T13:26:55.000Z</time>
      </trkpt>
      <trkpt lat="46.93118" lon="2.93902">
        <ele>181.44369506836</ele>
        <time>2016-02-03T13:26:58.000Z</time>
      </trkpt>
      <trkpt lat="46.93117" lon="2.93904">
        <ele>181.4211730957</ele>
        <time>2016-02-03T13:27:01.000Z</time>
      </trkpt>
      <trkpt lat="46.93116" lon="2.93905">
        <ele>181.39685058594</ele>
        <time>2016-02-03T13:27:03.000Z</time>
      </trkpt>
      <trkpt lat="46.93114" lon="2.93908">
        <ele>181.37794494629</ele>
        <time>2016-02-03T13:27:06.000Z</time>
      </trkpt>
      <trkpt lat="46.93111" lon="2.93913">
        <ele>181.35539245605</ele>
        <time>2016-02-03T13:27:09.000Z</time>
      </trkpt>
      <trkpt lat="46.9311" lon="2.93914">
        <ele>181.33908081055</ele>
        <time>2016-02-03T13:27:11.000Z</time>
      </trkpt>
      <trkpt lat="46.93109" lon="2.93919">
        <ele>181.33390808105</ele>
        <time>2016-02-03T13:27:14.000Z</time>
      </trkpt>
      <trkpt lat="46.93106" lon="2.93923">
        <ele>181.33769226074</ele>
        <time>2016-02-03T13:27:17.000Z</time>
      </trkpt>
      <trkpt lat="46.93103" lon="2.93926">
        <ele>181.35200500488</ele>
        <time>2016-02-03T13:27:20.000Z</time>
      </trkpt>
      <trkpt lat="46.93102" lon="2.93928">
        <ele>181.3772277832</ele>
        <time>2016-02-03T13:27:22.000Z</time>
      </trkpt>
      <trkpt lat="46.93098" lon="2.93934">
        <ele>181.42074584961</ele>
        <time>2016-02-03T13:27:25.000Z</time>
      </trkpt>
      <trkpt lat="46.93096" lon="2.93938">
        <ele>181.46908569336</ele>
        <time>2016-02-03T13:27:27.000Z</time>
      </trkpt>
      <trkpt lat="46.93095" lon="2.93941">
        <ele>181.52210998535</ele>
        <time>2016-02-03T13:27:30.000Z</time>
      </trkpt>
      <trkpt lat="46.93093" lon="2.93943">
        <ele>181.57327270508</ele>
        <time>2016-02-03T13:27:32.000Z</time>
      </trkpt>
      <trkpt lat="46.93092" lon="2.93944">
        <ele>181.62496948242</ele>
        <time>2016-02-03T13:27:34.000Z</time>
      </trkpt>
      <trkpt lat="46.9309" lon="2.93947">
        <ele>181.66955566406</ele>
        <time>2016-02-03T13:27:36.000Z</time>
      </trkpt>
      <trkpt lat="46.93088" lon="2.93951">
        <ele>181.71946716309</ele>
        <time>2016-02-03T13:27:39.000Z</time>
      </trkpt>
      <trkpt lat="46.93085" lon="2.93957">
        <ele>181.78401184082</ele>
        <time>2016-02-03T13:27:42.000Z</time>
      </trkpt>
      <trkpt lat="46.93084" lon="2.93961">
        <ele>181.86276245117</ele>
        <time>2016-02-03T13:27:45.000Z</time>
      </trkpt>
      <trkpt lat="46.93081" lon="2.93964">
        <ele>181.94192504883</ele>
        <time>2016-02-03T13:27:48.000Z</time>
      </trkpt>
      <trkpt lat="46.93079" lon="2.93967">
        <ele>182.01135253906</ele>
        <time>2016-02-03T13:27:50.000Z</time>
      </trkpt>
      <trkpt lat="46.93075" lon="2.93974">
        <ele>182.07827758789</ele>
        <time>2016-02-03T13:27:53.000Z</time>
      </trkpt>
      <trkpt lat="46.93073" lon="2.93978">
        <ele>182.13121032715</ele>
        <time>2016-02-03T13:27:55.000Z</time>
      </trkpt>
      <trkpt lat="46.93072" lon="2.9398">
        <ele>182.1689453125</ele>
        <time>2016-02-03T13:27:57.000Z</time>
      </trkpt>
      <trkpt lat="46.93069" lon="2.93984">
        <ele>182.20593261719</ele>
        <time>2016-02-03T13:28:00.000Z</time>
      </trkpt>
      <trkpt lat="46.93067" lon="2.93988">
        <ele>182.248046875</ele>
        <time>2016-02-03T13:28:03.000Z</time>
      </trkpt>
      <trkpt lat="46.93065" lon="2.93991">
        <ele>182.28271484375</ele>
        <time>2016-02-03T13:28:05.000Z</time>
      </trkpt>
      <trkpt lat="46.93062" lon="2.93997">
        <ele>182.32409667969</ele>
        <time>2016-02-03T13:28:08.000Z</time>
      </trkpt>
      <trkpt lat="46.93061" lon="2.93999">
        <ele>182.36389160156</ele>
        <time>2016-02-03T13:28:10.000Z</time>
      </trkpt>
      <trkpt lat="46.93058" lon="2.94004">
        <ele>182.40921020508</ele>
        <time>2016-02-03T13:28:13.000Z</time>
      </trkpt>
      <trkpt lat="46.93056" lon="2.94006">
        <ele>182.45463562012</ele>
        <time>2016-02-03T13:28:15.000Z</time>
      </trkpt>
      <trkpt lat="46.93055" lon="2.94008">
        <ele>182.50106811523</ele>
        <time>2016-02-03T13:28:17.000Z</time>
      </trkpt>
      <trkpt lat="46.93054" lon="2.9401">
        <ele>182.53625488281</ele>
        <time>2016-02-03T13:28:20.000Z</time>
      </trkpt>
      <trkpt lat="46.93052" lon="2.94011">
        <ele>182.56689453125</ele>
        <time>2016-02-03T13:28:22.000Z</time>
      </trkpt>
      <trkpt lat="46.9305" lon="2.94014">
        <ele>182.58958435059</ele>
        <time>2016-02-03T13:28:25.000Z</time>
      </trkpt>
      <trkpt lat="46.93048" lon="2.94014">
        <ele>182.59970092773</ele>
        <time>2016-02-03T13:28:27.000Z</time>
      </trkpt>
      <trkpt lat="46.93043" lon="2.94022">
        <ele>182.62187194824</ele>
        <time>2016-02-03T13:28:30.000Z</time>
      </trkpt>
      <trkpt lat="46.93041" lon="2.94026">
        <ele>182.65316772461</ele>
        <time>2016-02-03T13:28:33.000Z</time>
      </trkpt>
      <trkpt lat="46.93039" lon="2.94029">
        <ele>182.69081115723</ele>
        <time>2016-02-03T13:28:35.000Z</time>
      </trkpt>
      <trkpt lat="46.93036" lon="2.94033">
        <ele>182.73037719727</ele>
        <time>2016-02-03T13:28:38.000Z</time>
      </trkpt>
      <trkpt lat="46.93035" lon="2.94034">
        <ele>182.77868652344</ele>
        <time>2016-02-03T13:28:40.000Z</time>
      </trkpt>
      <trkpt lat="46.93032" lon="2.94037">
        <ele>182.80993652344</ele>
        <time>2016-02-03T13:28:43.000Z</time>
      </trkpt>
      <trkpt lat="46.9303" lon="2.94041">
        <ele>182.8328704834</ele>
        <time>2016-02-03T13:28:45.000Z</time>
      </trkpt>
      <trkpt lat="46.93026" lon="2.94046">
        <ele>182.8546295166</ele>
        <time>2016-02-03T13:28:47.000Z</time>
      </trkpt>
      <trkpt lat="46.93022" lon="2.94051">
        <ele>182.87455749512</ele>
        <time>2016-02-03T13:28:50.000Z</time>
      </trkpt>
      <trkpt lat="46.93018" lon="2.94055">
        <ele>182.88557434082</ele>
        <time>2016-02-03T13:28:53.000Z</time>
      </trkpt>
      <trkpt lat="46.93015" lon="2.94058">
        <ele>182.88818359375</ele>
        <time>2016-02-03T13:28:56.000Z</time>
      </trkpt>
      <trkpt lat="46.93013" lon="2.94059">
        <ele>182.88137817383</ele>
        <time>2016-02-03T13:28:59.000Z</time>
      </trkpt>
      <trkpt lat="46.9301" lon="2.94062">
        <ele>182.86616516113</ele>
        <time>2016-02-03T13:29:02.000Z</time>
      </trkpt>
      <trkpt lat="46.93009" lon="2.94063">
        <ele>182.84346008301</ele>
        <time>2016-02-03T13:29:04.000Z</time>
      </trkpt>
      <trkpt lat="46.93007" lon="2.94064">
        <ele>182.81883239746</ele>
        <time>2016-02-03T13:29:06.000Z</time>
      </trkpt>
      <trkpt lat="46.93005" lon="2.94065">
        <ele>182.79341125488</ele>
        <time>2016-02-03T13:29:08.000Z</time>
      </trkpt>
      <trkpt lat="46.93003" lon="2.94066">
        <ele>182.76376342773</ele>
        <time>2016-02-03T13:29:11.000Z</time>
      </trkpt>
      <trkpt lat="46.93" lon="2.94068">
        <ele>182.72598266602</ele>
        <time>2016-02-03T13:29:14.000Z</time>
      </trkpt>
      <trkpt lat="46.92997" lon="2.9407">
        <ele>182.70626831055</ele>
        <time>2016-02-03T13:29:17.000Z</time>
      </trkpt>
      <trkpt lat="46.92996" lon="2.94071">
        <ele>182.70199584961</ele>
        <time>2016-02-03T13:29:19.000Z</time>
      </trkpt>
      <trkpt lat="46.92995" lon="2.94072">
        <ele>182.70962524414</ele>
        <time>2016-02-03T13:29:21.000Z</time>
      </trkpt>
      <trkpt lat="46.92991" lon="2.94075">
        <ele>182.74771118164</ele>
        <time>2016-02-03T13:29:24.000Z</time>
      </trkpt>
      <trkpt lat="46.9299" lon="2.94077">
        <ele>182.80828857422</ele>
        <time>2016-02-03T13:29:26.000Z</time>
      </trkpt>
      <trkpt lat="46.92989" lon="2.94078">
        <ele>182.86465454102</ele>
        <time>2016-02-03T13:29:29.000Z</time>
      </trkpt>
      <trkpt lat="46.92987" lon="2.94079">
        <ele>182.92245483398</ele>
        <time>2016-02-03T13:29:31.000Z</time>
      </trkpt>
      <trkpt lat="46.92986" lon="2.94079">
        <ele>182.97959899902</ele>
        <time>2016-02-03T13:29:34.000Z</time>
      </trkpt>
      <trkpt lat="46.92981" lon="2.94082">
        <ele>183.04037475586</ele>
        <time>2016-02-03T13:29:37.000Z</time>
      </trkpt>
      <trkpt lat="46.92977" lon="2.94083">
        <ele>183.10440063477</ele>
        <time>2016-02-03T13:29:40.000Z</time>
      </trkpt>
      <trkpt lat="46.92973" lon="2.94085">
        <ele>183.17306518555</ele>
        <time>2016-02-03T13:29:43.000Z</time>
      </trkpt>
      <trkpt lat="46.92971" lon="2.94086">
        <ele>183.23739624023</ele>
        <time>2016-02-03T13:29:46.000Z</time>
      </trkpt>
      <trkpt lat="46.92968" lon="2.94087">
        <ele>183.30633544922</ele>
        <time>2016-02-03T13:29:48.000Z</time>
      </trkpt>
      <trkpt lat="46.92963" lon="2.94088">
        <ele>183.35678100586</ele>
        <time>2016-02-03T13:29:51.000Z</time>
      </trkpt>
      <trkpt lat="46.9296" lon="2.9409">
        <ele>183.40145874023</ele>
        <time>2016-02-03T13:29:54.000Z</time>
      </trkpt>
      <trkpt lat="46.92958" lon="2.94091">
        <ele>183.43673706055</ele>
        <time>2016-02-03T13:29:56.000Z</time>
      </trkpt>
      <trkpt lat="46.92955" lon="2.9409">
        <ele>183.4723815918</ele>
        <time>2016-02-03T13:29:59.000Z</time>
      </trkpt>
      <trkpt lat="46.92952" lon="2.9409">
        <ele>183.50616455078</ele>
        <time>2016-02-03T13:30:01.000Z</time>
      </trkpt>
      <trkpt lat="46.92948" lon="2.9409">
        <ele>183.5386505127</ele>
        <time>2016-02-03T13:30:04.000Z</time>
      </trkpt>
      <trkpt lat="46.92945" lon="2.94091">
        <ele>183.5680847168</ele>
        <time>2016-02-03T13:30:06.000Z</time>
      </trkpt>
      <trkpt lat="46.92943" lon="2.94092">
        <ele>183.59672546387</ele>
        <time>2016-02-03T13:30:08.000Z</time>
      </trkpt>
      <trkpt lat="46.92941" lon="2.94092">
        <ele>183.62341308594</ele>
        <time>2016-02-03T13:30:11.000Z</time>
      </trkpt>
      <trkpt lat="46.92939" lon="2.94093">
        <ele>183.64559936523</ele>
        <time>2016-02-03T13:30:13.000Z</time>
      </trkpt>
      <trkpt lat="46.92935" lon="2.94093">
        <ele>183.66732788086</ele>
        <time>2016-02-03T13:30:15.000Z</time>
      </trkpt>
      <trkpt lat="46.92931" lon="2.94093">
        <ele>183.69213867188</ele>
        <time>2016-02-03T13:30:18.000Z</time>
      </trkpt>
      <trkpt lat="46.92927" lon="2.94092">
        <ele>183.72233581543</ele>
        <time>2016-02-03T13:30:21.000Z</time>
      </trkpt>
      <trkpt lat="46.92924" lon="2.94092">
        <ele>183.75485229492</ele>
        <time>2016-02-03T13:30:23.000Z</time>
      </trkpt>
      <trkpt lat="46.92921" lon="2.9409">
        <ele>183.79389953613</ele>
        <time>2016-02-03T13:30:26.000Z</time>
      </trkpt>
      <trkpt lat="46.92918" lon="2.94089">
        <ele>183.83282470703</ele>
        <time>2016-02-03T13:30:28.000Z</time>
      </trkpt>
      <trkpt lat="46.92917" lon="2.94087">
        <ele>183.87252807617</ele>
        <time>2016-02-03T13:30:30.000Z</time>
      </trkpt>
      <trkpt lat="46.92914" lon="2.94085">
        <ele>183.90151977539</ele>
        <time>2016-02-03T13:30:33.000Z</time>
      </trkpt>
      <trkpt lat="46.92912" lon="2.94084">
        <ele>183.92301940918</ele>
        <time>2016-02-03T13:30:35.000Z</time>
      </trkpt>
      <trkpt lat="46.9291" lon="2.94083">
        <ele>183.92568969727</ele>
        <time>2016-02-03T13:30:38.000Z</time>
      </trkpt>
      <trkpt lat="46.92907" lon="2.94082">
        <ele>183.90505981445</ele>
        <time>2016-02-03T13:30:41.000Z</time>
      </trkpt>
      <trkpt lat="46.92904" lon="2.9408">
        <ele>183.85989379883</ele>
        <time>2016-02-03T13:30:43.000Z</time>
      </trkpt>
      <trkpt lat="46.92902" lon="2.9408">
        <ele>183.80618286133</ele>
        <time>2016-02-03T13:30:45.000Z</time>
      </trkpt>
      <trkpt lat="46.92897" lon="2.94078">
        <ele>183.73417663574</ele>
        <time>2016-02-03T13:30:48.000Z</time>
      </trkpt>
      <trkpt lat="46.92896" lon="2.94077">
        <ele>183.65864562988</ele>
        <time>2016-02-03T13:30:50.000Z</time>
      </trkpt>
      <trkpt lat="46.92893" lon="2.94075">
        <ele>183.58065795898</ele>
        <time>2016-02-03T13:30:53.000Z</time>
      </trkpt>
      <trkpt lat="46.9289" lon="2.94073">
        <ele>183.50595092773</ele>
        <time>2016-02-03T13:30:56.000Z</time>
      </trkpt>
      <trkpt lat="46.92888" lon="2.94072">
        <ele>183.43034362793</ele>
        <time>2016-02-03T13:30:58.000Z</time>
      </trkpt>
      <trkpt lat="46.92883" lon="2.94069">
        <ele>183.35336303711</ele>
        <time>2016-02-03T13:31:01.000Z</time>
      </trkpt>
      <trkpt lat="46.92879" lon="2.94066">
        <ele>183.27233886719</ele>
        <time>2016-02-03T13:31:04.000Z</time>
      </trkpt>
      <trkpt lat="46.92876" lon="2.94065">
        <ele>183.19967651367</ele>
        <time>2016-02-03T13:31:06.000Z</time>
      </trkpt>
      <trkpt lat="46.92873" lon="2.94062">
        <ele>183.12576293945</ele>
        <time>2016-02-03T13:31:09.000Z</time>
      </trkpt>
      <trkpt lat="46.92871" lon="2.94059">
        <ele>183.04940795898</ele>
        <time>2016-02-03T13:31:12.000Z</time>
      </trkpt>
      <trkpt lat="46.92869" lon="2.94054">
        <ele>182.97665405273</ele>
        <time>2016-02-03T13:31:14.000Z</time>
      </trkpt>
      <trkpt lat="46.92866" lon="2.94049">
        <ele>182.9059753418</ele>
        <time>2016-02-03T13:31:17.000Z</time>
      </trkpt>
      <trkpt lat="46.92864" lon="2.94047">
        <ele>182.84027099609</ele>
        <time>2016-02-03T13:31:20.000Z</time>
      </trkpt>
      <trkpt lat="46.92862" lon="2.94046">
        <ele>182.78828430176</ele>
        <time>2016-02-03T13:31:22.000Z</time>
      </trkpt>
      <trkpt lat="46.92859" lon="2.94044">
        <ele>182.74826049805</ele>
        <time>2016-02-03T13:31:25.000Z</time>
      </trkpt>
      <trkpt lat="46.92856" lon="2.9404">
        <ele>182.72470092773</ele>
        <time>2016-02-03T13:31:28.000Z</time>
      </trkpt>
      <trkpt lat="46.92854" lon="2.94037">
        <ele>182.71197509766</ele>
        <time>2016-02-03T13:31:30.000Z</time>
      </trkpt>
      <trkpt lat="46.92852" lon="2.94034">
        <ele>182.7036895752</ele>
        <time>2016-02-03T13:31:32.000Z</time>
      </trkpt>
      <trkpt lat="46.92852" lon="2.94031">
        <ele>182.69404602051</ele>
        <time>2016-02-03T13:31:34.000Z</time>
      </trkpt>
      <trkpt lat="46.92849" lon="2.94028">
        <ele>182.68881225586</ele>
        <time>2016-02-03T13:31:37.000Z</time>
      </trkpt>
      <trkpt lat="46.92847" lon="2.94027">
        <ele>182.69094848633</ele>
        <time>2016-02-03T13:31:39.000Z</time>
      </trkpt>
      <trkpt lat="46.92846" lon="2.94024">
        <ele>182.70010375977</ele>
        <time>2016-02-03T13:31:41.000Z</time>
      </trkpt>
      <trkpt lat="46.92842" lon="2.94019">
        <ele>182.71611022949</ele>
        <time>2016-02-03T13:31:44.000Z</time>
      </trkpt>
      <trkpt lat="46.9284" lon="2.94014">
        <ele>182.74502563477</ele>
        <time>2016-02-03T13:31:47.000Z</time>
      </trkpt>
      <trkpt lat="46.92838" lon="2.94009">
        <ele>182.77966308594</ele>
        <time>2016-02-03T13:31:50.000Z</time>
      </trkpt>
      <trkpt lat="46.92836" lon="2.94006">
        <ele>182.81539916992</ele>
        <time>2016-02-03T13:31:52.000Z</time>
      </trkpt>
      <trkpt lat="46.92835" lon="2.94004">
        <ele>182.85542297363</ele>
        <time>2016-02-03T13:31:54.000Z</time>
      </trkpt>
      <trkpt lat="46.92831" lon="2.93998">
        <ele>182.87948608398</ele>
        <time>2016-02-03T13:31:57.000Z</time>
      </trkpt>
      <trkpt lat="46.92829" lon="2.93993">
        <ele>182.84858703613</ele>
        <time>2016-02-03T13:31:59.000Z</time>
      </trkpt>
      <trkpt lat="46.92827" lon="2.93988">
        <ele>182.76870727539</ele>
        <time>2016-02-03T13:32:01.000Z</time>
      </trkpt>
      <trkpt lat="46.92824" lon="2.93982">
        <ele>182.63818359375</ele>
        <time>2016-02-03T13:32:04.000Z</time>
      </trkpt>
      <trkpt lat="46.92822" lon="2.93978">
        <ele>182.46536254883</ele>
        <time>2016-02-03T13:32:07.000Z</time>
      </trkpt>
      <trkpt lat="46.92821" lon="2.93975">
        <ele>182.28335571289</ele>
        <time>2016-02-03T13:32:09.000Z</time>
      </trkpt>
      <trkpt lat="46.9282" lon="2.9397">
        <ele>182.11419677734</ele>
        <time>2016-02-03T13:32:12.000Z</time>
      </trkpt>
      <trkpt lat="46.92818" lon="2.93964">
        <ele>181.95071411133</ele>
        <time>2016-02-03T13:32:15.000Z</time>
      </trkpt>
      <trkpt lat="46.92817" lon="2.93961">
        <ele>181.814453125</ele>
        <time>2016-02-03T13:32:17.000Z</time>
      </trkpt>
      <trkpt lat="46.92815" lon="2.93958">
        <ele>181.70120239258</ele>
        <time>2016-02-03T13:32:19.000Z</time>
      </trkpt>
      <trkpt lat="46.92813" lon="2.93953">
        <ele>181.58102416992</ele>
        <time>2016-02-03T13:32:22.000Z</time>
      </trkpt>
      <trkpt lat="46.92812" lon="2.93949">
        <ele>181.47294616699</ele>
        <time>2016-02-03T13:32:24.000Z</time>
      </trkpt>
      <trkpt lat="46.9281" lon="2.93945">
        <ele>181.38534545898</ele>
        <time>2016-02-03T13:32:26.000Z</time>
      </trkpt>
      <trkpt lat="46.92807" lon="2.9394">
        <ele>181.29573059082</ele>
        <time>2016-02-03T13:32:29.000Z</time>
      </trkpt>
      <trkpt lat="46.92806" lon="2.93937">
        <ele>181.20878601074</ele>
        <time>2016-02-03T13:32:31.000Z</time>
      </trkpt>
      <trkpt lat="46.92804" lon="2.93934">
        <ele>181.14056396484</ele>
        <time>2016-02-03T13:32:33.000Z</time>
      </trkpt>
      <trkpt lat="46.92802" lon="2.93929">
        <ele>181.0795135498</ele>
        <time>2016-02-03T13:32:36.000Z</time>
      </trkpt>
      <trkpt lat="46.928" lon="2.93926">
        <ele>181.02969360352</ele>
        <time>2016-02-03T13:32:38.000Z</time>
      </trkpt>
      <trkpt lat="46.92797" lon="2.93923">
        <ele>180.9992980957</ele>
        <time>2016-02-03T13:32:41.000Z</time>
      </trkpt>
      <trkpt lat="46.92795" lon="2.93919">
        <ele>180.97691345215</ele>
        <time>2016-02-03T13:32:44.000Z</time>
      </trkpt>
      <trkpt lat="46.92793" lon="2.93915">
        <ele>180.95822143555</ele>
        <time>2016-02-03T13:32:47.000Z</time>
      </trkpt>
      <trkpt lat="46.92791" lon="2.93912">
        <ele>180.94766235352</ele>
        <time>2016-02-03T13:32:49.000Z</time>
      </trkpt>
      <trkpt lat="46.92789" lon="2.93907">
        <ele>180.93473815918</ele>
        <time>2016-02-03T13:32:52.000Z</time>
      </trkpt>
      <trkpt lat="46.92787" lon="2.93904">
        <ele>180.91844177246</ele>
        <time>2016-02-03T13:32:55.000Z</time>
      </trkpt>
      <trkpt lat="46.92783" lon="2.939">
        <ele>180.91026306152</ele>
        <time>2016-02-03T13:32:58.000Z</time>
      </trkpt>
      <trkpt lat="46.9278" lon="2.93896">
        <ele>180.90980529785</ele>
        <time>2016-02-03T13:33:01.000Z</time>
      </trkpt>
      <trkpt lat="46.92778" lon="2.93893">
        <ele>180.91494750977</ele>
        <time>2016-02-03T13:33:04.000Z</time>
      </trkpt>
      <trkpt lat="46.92776" lon="2.93891">
        <ele>180.92976379395</ele>
        <time>2016-02-03T13:33:06.000Z</time>
      </trkpt>
      <trkpt lat="46.92773" lon="2.93887">
        <ele>180.9506072998</ele>
        <time>2016-02-03T13:33:09.000Z</time>
      </trkpt>
      <trkpt lat="46.92771" lon="2.93884">
        <ele>180.96878051758</ele>
        <time>2016-02-03T13:33:11.000Z</time>
      </trkpt>
      <trkpt lat="46.9277" lon="2.93882">
        <ele>180.98068237305</ele>
        <time>2016-02-03T13:33:13.000Z</time>
      </trkpt>
      <trkpt lat="46.92767" lon="2.9388">
        <ele>181.00308227539</ele>
        <time>2016-02-03T13:33:16.000Z</time>
      </trkpt>
      <trkpt lat="46.92765" lon="2.93879">
        <ele>181.02967834473</ele>
        <time>2016-02-03T13:33:18.000Z</time>
      </trkpt>
      <trkpt lat="46.92762" lon="2.93877">
        <ele>181.06762695312</ele>
        <time>2016-02-03T13:33:21.000Z</time>
      </trkpt>
      <trkpt lat="46.92759" lon="2.93874">
        <ele>181.1121673584</ele>
        <time>2016-02-03T13:33:23.000Z</time>
      </trkpt>
      <trkpt lat="46.92757" lon="2.93872">
        <ele>181.16513061523</ele>
        <time>2016-02-03T13:33:26.000Z</time>
      </trkpt>
      <trkpt lat="46.92755" lon="2.9387">
        <ele>181.21325683594</ele>
        <time>2016-02-03T13:33:29.000Z</time>
      </trkpt>
      <trkpt lat="46.92754" lon="2.93869">
        <ele>181.2572479248</ele>
        <time>2016-02-03T13:33:32.000Z</time>
      </trkpt>
      <trkpt lat="46.92752" lon="2.93869">
        <ele>181.29330444336</ele>
        <time>2016-02-03T13:33:34.000Z</time>
      </trkpt>
      <trkpt lat="46.92747" lon="2.93867">
        <ele>181.33012390137</ele>
        <time>2016-02-03T13:33:37.000Z</time>
      </trkpt>
      <trkpt lat="46.92743" lon="2.93865">
        <ele>181.3576965332</ele>
        <time>2016-02-03T13:33:40.000Z</time>
      </trkpt>
      <trkpt lat="46.92741" lon="2.93864">
        <ele>181.37832641602</ele>
        <time>2016-02-03T13:33:42.000Z</time>
      </trkpt>
      <trkpt lat="46.92738" lon="2.93863">
        <ele>181.3939666748</ele>
        <time>2016-02-03T13:33:45.000Z</time>
      </trkpt>
      <trkpt lat="46.92735" lon="2.93862">
        <ele>181.4027557373</ele>
        <time>2016-02-03T13:33:47.000Z</time>
      </trkpt>
      <trkpt lat="46.9273" lon="2.93861">
        <ele>181.40316772461</ele>
        <time>2016-02-03T13:33:50.000Z</time>
      </trkpt>
      <trkpt lat="46.92728" lon="2.93861">
        <ele>181.40693664551</ele>
        <time>2016-02-03T13:33:52.000Z</time>
      </trkpt>
      <trkpt lat="46.92726" lon="2.93859">
        <ele>181.41084289551</ele>
        <time>2016-02-03T13:33:54.000Z</time>
      </trkpt>
      <trkpt lat="46.92723" lon="2.93858">
        <ele>181.41667175293</ele>
        <time>2016-02-03T13:33:57.000Z</time>
      </trkpt>
      <trkpt lat="46.92719" lon="2.93857">
        <ele>181.42643737793</ele>
        <time>2016-02-03T13:34:00.000Z</time>
      </trkpt>
      <trkpt lat="46.92713" lon="2.93856">
        <ele>181.43852233887</ele>
        <time>2016-02-03T13:34:03.000Z</time>
      </trkpt>
      <trkpt lat="46.92707" lon="2.93856">
        <ele>181.45654296875</ele>
        <time>2016-02-03T13:34:06.000Z</time>
      </trkpt>
      <trkpt lat="46.92703" lon="2.93856">
        <ele>181.47814941406</ele>
        <time>2016-02-03T13:34:08.000Z</time>
      </trkpt>
      <trkpt lat="46.92695" lon="2.93855">
        <ele>181.50799560547</ele>
        <time>2016-02-03T13:34:11.000Z</time>
      </trkpt>
      <trkpt lat="46.92692" lon="2.93854">
        <ele>181.53807067871</ele>
        <time>2016-02-03T13:34:13.000Z</time>
      </trkpt>
      <trkpt lat="46.92687" lon="2.93854">
        <ele>181.56864929199</ele>
        <time>2016-02-03T13:34:16.000Z</time>
      </trkpt>
      <trkpt lat="46.92686" lon="2.93854">
        <ele>181.59391784668</ele>
        <time>2016-02-03T13:34:18.000Z</time>
      </trkpt>
      <trkpt lat="46.92683" lon="2.93854">
        <ele>181.61825561523</ele>
        <time>2016-02-03T13:34:20.000Z</time>
      </trkpt>
      <trkpt lat="46.92681" lon="2.93853">
        <ele>181.63677978516</ele>
        <time>2016-02-03T13:34:23.000Z</time>
      </trkpt>
      <trkpt lat="46.9268" lon="2.93853">
        <ele>181.65335083008</ele>
        <time>2016-02-03T13:34:25.000Z</time>
      </trkpt>
      <trkpt lat="46.92675" lon="2.93854">
        <ele>181.66860961914</ele>
        <time>2016-02-03T13:34:28.000Z</time>
      </trkpt>
      <trkpt lat="46.9267" lon="2.93853">
        <ele>181.68946838379</ele>
        <time>2016-02-03T13:34:31.000Z</time>
      </trkpt>
      <trkpt lat="46.92667" lon="2.93853">
        <ele>181.71244812012</ele>
        <time>2016-02-03T13:34:33.000Z</time>
      </trkpt>
      <trkpt lat="46.92664" lon="2.93853">
        <ele>181.73620605469</ele>
        <time>2016-02-03T13:34:35.000Z</time>
      </trkpt>
      <trkpt lat="46.9266" lon="2.93853">
        <ele>181.76545715332</ele>
        <time>2016-02-03T13:34:38.000Z</time>
      </trkpt>
      <trkpt lat="46.92657" lon="2.93852">
        <ele>181.79592895508</ele>
        <time>2016-02-03T13:34:40.000Z</time>
      </trkpt>
      <trkpt lat="46.92654" lon="2.93851">
        <ele>181.82765197754</ele>
        <time>2016-02-03T13:34:43.000Z</time>
      </trkpt>
      <trkpt lat="46.92652" lon="2.93852">
        <ele>181.85820007324</ele>
        <time>2016-02-03T13:34:46.000Z</time>
      </trkpt>
      <trkpt lat="46.92648" lon="2.93852">
        <ele>181.89144897461</ele>
        <time>2016-02-03T13:34:49.000Z</time>
      </trkpt>
      <trkpt lat="46.92646" lon="2.93852">
        <ele>181.91879272461</ele>
        <time>2016-02-03T13:34:51.000Z</time>
      </trkpt>
      <trkpt lat="46.92643" lon="2.93852">
        <ele>181.94760131836</ele>
        <time>2016-02-03T13:34:54.000Z</time>
      </trkpt>
      <trkpt lat="46.92639" lon="2.93851">
        <ele>181.97763061523</ele>
        <time>2016-02-03T13:34:57.000Z</time>
      </trkpt>
      <trkpt lat="46.92635" lon="2.93851">
        <ele>182.00956726074</ele>
        <time>2016-02-03T13:35:00.000Z</time>
      </trkpt>
      <trkpt lat="46.92633" lon="2.93851">
        <ele>182.03970336914</ele>
        <time>2016-02-03T13:35:02.000Z</time>
      </trkpt>
      <trkpt lat="46.9263" lon="2.93851">
        <ele>182.07562255859</ele>
        <time>2016-02-03T13:35:04.000Z</time>
      </trkpt>
      <trkpt lat="46.92626" lon="2.93851">
        <ele>182.11013793945</ele>
        <time>2016-02-03T13:35:06.000Z</time>
      </trkpt>
      <trkpt lat="46.9262" lon="2.93851">
        <ele>182.1477355957</ele>
        <time>2016-02-03T13:35:09.000Z</time>
      </trkpt>
      <trkpt lat="46.92618" lon="2.9385">
        <ele>182.18511962891</ele>
        <time>2016-02-03T13:35:11.000Z</time>
      </trkpt>
      <trkpt lat="46.92615" lon="2.9385">
        <ele>182.22323608398</ele>
        <time>2016-02-03T13:35:13.000Z</time>
      </trkpt>
      <trkpt lat="46.92611" lon="2.9385">
        <ele>182.26168823242</ele>
        <time>2016-02-03T13:35:16.000Z</time>
      </trkpt>
      <trkpt lat="46.92608" lon="2.93851">
        <ele>182.29702758789</ele>
        <time>2016-02-03T13:35:18.000Z</time>
      </trkpt>
      <trkpt lat="46.92605" lon="2.93852">
        <ele>182.32122802734</ele>
        <time>2016-02-03T13:35:21.000Z</time>
      </trkpt>
      <trkpt lat="46.92602" lon="2.93851">
        <ele>182.34741210938</ele>
        <time>2016-02-03T13:35:23.000Z</time>
      </trkpt>
      <trkpt lat="46.92597" lon="2.93852">
        <ele>182.37423706055</ele>
        <time>2016-02-03T13:35:26.000Z</time>
      </trkpt>
      <trkpt lat="46.92595" lon="2.93852">
        <ele>182.39895629883</ele>
        <time>2016-02-03T13:35:29.000Z</time>
      </trkpt>
      <trkpt lat="46.92591" lon="2.93851">
        <ele>182.42861938477</ele>
        <time>2016-02-03T13:35:32.000Z</time>
      </trkpt>
      <trkpt lat="46.9259" lon="2.93851">
        <ele>182.46003723145</ele>
        <time>2016-02-03T13:35:34.000Z</time>
      </trkpt>
      <trkpt lat="46.92587" lon="2.93851">
        <ele>182.48921203613</ele>
        <time>2016-02-03T13:35:37.000Z</time>
      </trkpt>
      <trkpt lat="46.92585" lon="2.93851">
        <ele>182.51431274414</ele>
        <time>2016-02-03T13:35:40.000Z</time>
      </trkpt>
      <trkpt lat="46.9258" lon="2.93851">
        <ele>182.52891540527</ele>
        <time>2016-02-03T13:35:42.000Z</time>
      </trkpt>
      <trkpt lat="46.92576" lon="2.9385">
        <ele>182.5330657959</ele>
        <time>2016-02-03T13:35:45.000Z</time>
      </trkpt>
      <trkpt lat="46.9257" lon="2.9385">
        <ele>182.51795959473</ele>
        <time>2016-02-03T13:35:48.000Z</time>
      </trkpt>
      <trkpt lat="46.92567" lon="2.9385">
        <ele>182.48965454102</ele>
        <time>2016-02-03T13:35:51.000Z</time>
      </trkpt>
      <trkpt lat="46.92564" lon="2.93849">
        <ele>182.45458984375</ele>
        <time>2016-02-03T13:35:54.000Z</time>
      </trkpt>
      <trkpt lat="46.9256" lon="2.93849">
        <ele>182.41821289062</ele>
        <time>2016-02-03T13:35:56.000Z</time>
      </trkpt>
      <trkpt lat="46.92554" lon="2.93848">
        <ele>182.37158203125</ele>
        <time>2016-02-03T13:35:59.000Z</time>
      </trkpt>
      <trkpt lat="46.92552" lon="2.93848">
        <ele>182.33544921875</ele>
        <time>2016-02-03T13:36:01.000Z</time>
      </trkpt>
      <trkpt lat="46.92548" lon="2.93847">
        <ele>182.30383300781</ele>
        <time>2016-02-03T13:36:03.000Z</time>
      </trkpt>
      <trkpt lat="46.92546" lon="2.93847">
        <ele>182.27075195312</ele>
        <time>2016-02-03T13:36:05.000Z</time>
      </trkpt>
      <trkpt lat="46.92543" lon="2.93846">
        <ele>182.23999023438</ele>
        <time>2016-02-03T13:36:08.000Z</time>
      </trkpt>
      <trkpt lat="46.9254" lon="2.93846">
        <ele>182.21887207031</ele>
        <time>2016-02-03T13:36:11.000Z</time>
      </trkpt>
      <trkpt lat="46.92537" lon="2.93845">
        <ele>182.19799804688</ele>
        <time>2016-02-03T13:36:15.000Z</time>
      </trkpt>
      <trkpt lat="46.92533" lon="2.93845">
        <ele>182.17260742188</ele>
        <time>2016-02-03T13:36:18.000Z</time>
      </trkpt>
      <trkpt lat="46.92529" lon="2.93845">
        <ele>182.14208984375</ele>
        <time>2016-02-03T13:36:21.000Z</time>
      </trkpt>
      <trkpt lat="46.92525" lon="2.93846">
        <ele>182.10534667969</ele>
        <time>2016-02-03T13:36:24.000Z</time>
      </trkpt>
      <trkpt lat="46.92523" lon="2.93846">
        <ele>182.06469726562</ele>
        <time>2016-02-03T13:36:26.000Z</time>
      </trkpt>
      <trkpt lat="46.9252" lon="2.93846">
        <ele>182.02319335938</ele>
        <time>2016-02-03T13:36:29.000Z</time>
      </trkpt>
      <trkpt lat="46.92518" lon="2.93845">
        <ele>181.9873046875</ele>
        <time>2016-02-03T13:36:31.000Z</time>
      </trkpt>
      <trkpt lat="46.92513" lon="2.93847">
        <ele>181.94360351562</ele>
        <time>2016-02-03T13:36:34.000Z</time>
      </trkpt>
      <trkpt lat="46.92511" lon="2.93847">
        <ele>181.89978027344</ele>
        <time>2016-02-03T13:36:36.000Z</time>
      </trkpt>
      <trkpt lat="46.92508" lon="2.93848">
        <ele>181.85229492188</ele>
        <time>2016-02-03T13:36:38.000Z</time>
      </trkpt>
      <trkpt lat="46.92505" lon="2.93848">
        <ele>181.80310058594</ele>
        <time>2016-02-03T13:36:41.000Z</time>
      </trkpt>
      <trkpt lat="46.925" lon="2.93848">
        <ele>181.74792480469</ele>
        <time>2016-02-03T13:36:44.000Z</time>
      </trkpt>
      <trkpt lat="46.92493" lon="2.93848">
        <ele>181.75550842285</ele>
        <time>2016-02-03T13:36:47.000Z</time>
      </trkpt>
      <trkpt lat="46.92488" lon="2.93847">
        <ele>181.81300354004</ele>
        <time>2016-02-03T13:36:50.000Z</time>
      </trkpt>
      <trkpt lat="46.92483" lon="2.93847">
        <ele>181.9134979248</ele>
        <time>2016-02-03T13:36:53.000Z</time>
      </trkpt>
      <trkpt lat="46.9248" lon="2.93847">
        <ele>182.04609680176</ele>
        <time>2016-02-03T13:36:56.000Z</time>
      </trkpt>
      <trkpt lat="46.92478" lon="2.93848">
        <ele>182.19338989258</ele>
        <time>2016-02-03T13:36:58.000Z</time>
      </trkpt>
      <trkpt lat="46.92476" lon="2.93849">
        <ele>182.30722045898</ele>
        <time>2016-02-03T13:37:01.000Z</time>
      </trkpt>
      <trkpt lat="46.92471" lon="2.93849">
        <ele>182.40989685059</ele>
        <time>2016-02-03T13:37:04.000Z</time>
      </trkpt>
      <trkpt lat="46.92465" lon="2.93848">
        <ele>182.52534484863</ele>
        <time>2016-02-03T13:37:07.000Z</time>
      </trkpt>
      <trkpt lat="46.92461" lon="2.93848">
        <ele>182.64791870117</ele>
        <time>2016-02-03T13:37:09.000Z</time>
      </trkpt>
      <trkpt lat="46.92457" lon="2.93849">
        <ele>182.78373718262</ele>
        <time>2016-02-03T13:37:12.000Z</time>
      </trkpt>
      <trkpt lat="46.92454" lon="2.9385">
        <ele>182.92323303223</ele>
        <time>2016-02-03T13:37:14.000Z</time>
      </trkpt>
      <trkpt lat="46.9245" lon="2.93852">
        <ele>183.05123901367</ele>
        <time>2016-02-03T13:37:17.000Z</time>
      </trkpt>
      <trkpt lat="46.92446" lon="2.93855">
        <ele>183.1369934082</ele>
        <time>2016-02-03T13:37:20.000Z</time>
      </trkpt>
      <trkpt lat="46.92444" lon="2.93856">
        <ele>183.19900512695</ele>
        <time>2016-02-03T13:37:22.000Z</time>
      </trkpt>
      <trkpt lat="46.92442" lon="2.93858">
        <ele>183.24569702148</ele>
        <time>2016-02-03T13:37:24.000Z</time>
      </trkpt>
      <trkpt lat="46.92439" lon="2.9386">
        <ele>183.28265380859</ele>
        <time>2016-02-03T13:37:27.000Z</time>
      </trkpt>
      <trkpt lat="46.92437" lon="2.93861">
        <ele>183.31176757812</ele>
        <time>2016-02-03T13:37:29.000Z</time>
      </trkpt>
      <trkpt lat="46.92434" lon="2.93862">
        <ele>183.34492492676</ele>
        <time>2016-02-03T13:37:32.000Z</time>
      </trkpt>
      <trkpt lat="46.92431" lon="2.93864">
        <ele>183.37428283691</ele>
        <time>2016-02-03T13:37:34.000Z</time>
      </trkpt>
      <trkpt lat="46.92427" lon="2.93866">
        <ele>183.40592956543</ele>
        <time>2016-02-03T13:37:37.000Z</time>
      </trkpt>
      <trkpt lat="46.92425" lon="2.93868">
        <ele>183.44184875488</ele>
        <time>2016-02-03T13:37:39.000Z</time>
      </trkpt>
      <trkpt lat="46.92421" lon="2.93869">
        <ele>183.47897338867</ele>
        <time>2016-02-03T13:37:42.000Z</time>
      </trkpt>
      <trkpt lat="46.92417" lon="2.93872">
        <ele>183.51348876953</ele>
        <time>2016-02-03T13:37:45.000Z</time>
      </trkpt>
      <trkpt lat="46.92413" lon="2.93876">
        <ele>183.52919006348</ele>
        <time>2016-02-03T13:37:48.000Z</time>
      </trkpt>
      <trkpt lat="46.92411" lon="2.93879">
        <ele>183.52813720703</ele>
        <time>2016-02-03T13:37:50.000Z</time>
      </trkpt>
      <trkpt lat="46.92407" lon="2.93885">
        <ele>183.49159240723</ele>
        <time>2016-02-03T13:37:53.000Z</time>
      </trkpt>
      <trkpt lat="46.92403" lon="2.93888">
        <ele>183.43826293945</ele>
        <time>2016-02-03T13:37:56.000Z</time>
      </trkpt>
      <trkpt lat="46.92401" lon="2.9389">
        <ele>183.37547302246</ele>
        <time>2016-02-03T13:37:58.000Z</time>
      </trkpt>
      <trkpt lat="46.92398" lon="2.93893">
        <ele>183.31932067871</ele>
        <time>2016-02-03T13:38:01.000Z</time>
      </trkpt>
      <trkpt lat="46.92396" lon="2.93896">
        <ele>183.26164245605</ele>
        <time>2016-02-03T13:38:04.000Z</time>
      </trkpt>
      <trkpt lat="46.92393" lon="2.93901">
        <ele>183.2099609375</ele>
        <time>2016-02-03T13:38:07.000Z</time>
      </trkpt>
      <trkpt lat="46.9239" lon="2.93904">
        <ele>183.15963745117</ele>
        <time>2016-02-03T13:38:09.000Z</time>
      </trkpt>
      <trkpt lat="46.92387" lon="2.93907">
        <ele>183.11003112793</ele>
        <time>2016-02-03T13:38:12.000Z</time>
      </trkpt>
      <trkpt lat="46.92385" lon="2.93911">
        <ele>183.05223083496</ele>
        <time>2016-02-03T13:38:14.000Z</time>
      </trkpt>
      <trkpt lat="46.92383" lon="2.93915">
        <ele>182.99230957031</ele>
        <time>2016-02-03T13:38:17.000Z</time>
      </trkpt>
      <trkpt lat="46.92381" lon="2.93917">
        <ele>182.94821166992</ele>
        <time>2016-02-03T13:38:19.000Z</time>
      </trkpt>
      <trkpt lat="46.92379" lon="2.9392">
        <ele>182.90783691406</ele>
        <time>2016-02-03T13:38:22.000Z</time>
      </trkpt>
      <trkpt lat="46.92377" lon="2.93925">
        <ele>182.86280822754</ele>
        <time>2016-02-03T13:38:25.000Z</time>
      </trkpt>
      <trkpt lat="46.92375" lon="2.93931">
        <ele>182.8253326416</ele>
        <time>2016-02-03T13:38:28.000Z</time>
      </trkpt>
      <trkpt lat="46.92373" lon="2.93933">
        <ele>182.79943847656</ele>
        <time>2016-02-03T13:38:30.000Z</time>
      </trkpt>
      <trkpt lat="46.92371" lon="2.93936">
        <ele>182.77767944336</ele>
        <time>2016-02-03T13:38:32.000Z</time>
      </trkpt>
      <trkpt lat="46.92369" lon="2.93938">
        <ele>182.75601196289</ele>
        <time>2016-02-03T13:38:35.000Z</time>
      </trkpt>
      <trkpt lat="46.92366" lon="2.93942">
        <ele>182.74272155762</ele>
        <time>2016-02-03T13:38:38.000Z</time>
      </trkpt>
      <trkpt lat="46.92363" lon="2.93944">
        <ele>182.73942565918</ele>
        <time>2016-02-03T13:38:40.000Z</time>
      </trkpt>
      <trkpt lat="46.92362" lon="2.93948">
        <ele>182.7310333252</ele>
        <time>2016-02-03T13:38:43.000Z</time>
      </trkpt>
      <trkpt lat="46.92358" lon="2.93951">
        <ele>182.72026062012</ele>
        <time>2016-02-03T13:38:46.000Z</time>
      </trkpt>
      <trkpt lat="46.92355" lon="2.93955">
        <ele>182.7082824707</ele>
        <time>2016-02-03T13:38:49.000Z</time>
      </trkpt>
      <trkpt lat="46.92353" lon="2.93957">
        <ele>182.6955871582</ele>
        <time>2016-02-03T13:38:52.000Z</time>
      </trkpt>
      <trkpt lat="46.92352" lon="2.93958">
        <ele>182.68246459961</ele>
        <time>2016-02-03T13:38:54.000Z</time>
      </trkpt>
      <trkpt lat="46.9235" lon="2.93959">
        <ele>182.67785644531</ele>
        <time>2016-02-03T13:38:57.000Z</time>
      </trkpt>
      <trkpt lat="46.9235" lon="2.93959">
        <ele>182.67691040039</ele>
        <time>2016-02-03T13:39:12.000Z</time>
      </trkpt>
      <trkpt lat="46.9235" lon="2.93959">
        <ele>182.67691040039</ele>
        <time>2016-02-03T13:39:32.000Z</time>
      </trkpt>
      <trkpt lat="46.92349" lon="2.93961">
        <ele>182.67294311523</ele>
        <time>2016-02-03T13:39:33.000Z</time>
      </trkpt>
      <trkpt lat="46.92349" lon="2.93961">
        <ele>182.67294311523</ele>
        <time>2016-02-03T13:39:53.000Z</time>
      </trkpt>
      <trkpt lat="46.92348" lon="2.93963">
        <ele>182.66581726074</ele>
        <time>2016-02-03T13:39:54.000Z</time>
      </trkpt>
      <trkpt lat="46.92348" lon="2.93963">
        <ele>182.66581726074</ele>
        <time>2016-02-03T13:40:14.000Z</time>
      </trkpt>
      <trkpt lat="46.92347" lon="2.93963">
        <ele>182.6616973877</ele>
        <time>2016-02-03T13:40:50.000Z</time>
      </trkpt>
      <trkpt lat="46.92347" lon="2.93963">
        <ele>182.6616973877</ele>
        <time>2016-02-03T13:41:10.000Z</time>
      </trkpt>
      <trkpt lat="46.92346" lon="2.93966">
        <ele>182.64855957031</ele>
        <time>2016-02-03T13:42:03.000Z</time>
      </trkpt>
      <trkpt lat="46.92345" lon="2.93965">
        <ele>182.6416015625</ele>
        <time>2016-02-03T13:42:09.000Z</time>
      </trkpt>
      <trkpt lat="46.92342" lon="2.93962">
        <ele>182.65994262695</ele>
        <time>2016-02-03T13:42:18.000Z</time>
      </trkpt>
      <trkpt lat="46.92342" lon="2.93962">
        <ele>182.65994262695</ele>
        <time>2016-02-03T13:42:38.000Z</time>
      </trkpt>
      <trkpt lat="46.92345" lon="2.93962">
        <ele>182.67700195312</ele>
        <time>2016-02-03T13:43:22.000Z</time>
      </trkpt>
      <trkpt lat="46.92345" lon="2.93962">
        <ele>182.67700195312</ele>
        <time>2016-02-03T13:43:42.000Z</time>
      </trkpt>
      <trkpt lat="46.92345" lon="2.93964">
        <ele>182.67935180664</ele>
        <time>2016-02-03T13:44:16.000Z</time>
      </trkpt>
      <trkpt lat="46.92344" lon="2.93966">
        <ele>182.68452453613</ele>
        <time>2016-02-03T13:44:19.000Z</time>
      </trkpt>
      <trkpt lat="46.92344" lon="2.93967">
        <ele>182.67575073242</ele>
        <time>2016-02-03T13:44:23.000Z</time>
      </trkpt>
      <trkpt lat="46.92344" lon="2.9397">
        <ele>182.63792419434</ele>
        <time>2016-02-03T13:44:26.000Z</time>
      </trkpt>
      <trkpt lat="46.92344" lon="2.93972">
        <ele>182.5915222168</ele>
        <time>2016-02-03T13:44:28.000Z</time>
      </trkpt>
      <trkpt lat="46.92346" lon="2.9398">
        <ele>182.51722717285</ele>
        <time>2016-02-03T13:44:31.000Z</time>
      </trkpt>
      <trkpt lat="46.92347" lon="2.93983">
        <ele>182.43412780762</ele>
        <time>2016-02-03T13:44:33.000Z</time>
      </trkpt>
      <trkpt lat="46.92349" lon="2.93986">
        <ele>182.33554077148</ele>
        <time>2016-02-03T13:44:36.000Z</time>
      </trkpt>
      <trkpt lat="46.92351" lon="2.93989">
        <ele>182.22842407227</ele>
        <time>2016-02-03T13:44:39.000Z</time>
      </trkpt>
      <trkpt lat="46.92352" lon="2.93993">
        <ele>182.11653137207</ele>
        <time>2016-02-03T13:44:42.000Z</time>
      </trkpt>
      <trkpt lat="46.92354" lon="2.93997">
        <ele>182.01933288574</ele>
        <time>2016-02-03T13:44:44.000Z</time>
      </trkpt>
      <trkpt lat="46.92356" lon="2.94001">
        <ele>181.91816711426</ele>
        <time>2016-02-03T13:44:47.000Z</time>
      </trkpt>
      <trkpt lat="46.92357" lon="2.94005">
        <ele>181.82911682129</ele>
        <time>2016-02-03T13:44:50.000Z</time>
      </trkpt>
      <trkpt lat="46.92357" lon="2.94007">
        <ele>181.7561340332</ele>
        <time>2016-02-03T13:44:52.000Z</time>
      </trkpt>
      <trkpt lat="46.92358" lon="2.94011">
        <ele>181.69320678711</ele>
        <time>2016-02-03T13:44:55.000Z</time>
      </trkpt>
      <trkpt lat="46.92359" lon="2.94014">
        <ele>181.64701843262</ele>
        <time>2016-02-03T13:44:58.000Z</time>
      </trkpt>
      <trkpt lat="46.9236" lon="2.94019">
        <ele>181.60868835449</ele>
        <time>2016-02-03T13:45:01.000Z</time>
      </trkpt>
      <trkpt lat="46.9236" lon="2.94024">
        <ele>181.57258605957</ele>
        <time>2016-02-03T13:45:04.000Z</time>
      </trkpt>
      <trkpt lat="46.92361" lon="2.94027">
        <ele>181.53182983398</ele>
        <time>2016-02-03T13:45:07.000Z</time>
      </trkpt>
      <trkpt lat="46.92362" lon="2.94031">
        <ele>181.49238586426</ele>
        <time>2016-02-03T13:45:10.000Z</time>
      </trkpt>
      <trkpt lat="46.92363" lon="2.94035">
        <ele>181.45266723633</ele>
        <time>2016-02-03T13:45:13.000Z</time>
      </trkpt>
      <trkpt lat="46.92365" lon="2.94038">
        <ele>181.41491699219</ele>
        <time>2016-02-03T13:45:16.000Z</time>
      </trkpt>
      <trkpt lat="46.92366" lon="2.94043">
        <ele>181.37542724609</ele>
        <time>2016-02-03T13:45:19.000Z</time>
      </trkpt>
      <trkpt lat="46.92367" lon="2.94046">
        <ele>181.33792114258</ele>
        <time>2016-02-03T13:45:21.000Z</time>
      </trkpt>
      <trkpt lat="46.92368" lon="2.9405">
        <ele>181.30221557617</ele>
        <time>2016-02-03T13:45:24.000Z</time>
      </trkpt>
      <trkpt lat="46.92368" lon="2.94051">
        <ele>181.2723236084</ele>
        <time>2016-02-03T13:45:27.000Z</time>
      </trkpt>
      <trkpt lat="46.92368" lon="2.94054">
        <ele>181.24537658691</ele>
        <time>2016-02-03T13:45:29.000Z</time>
      </trkpt>
      <trkpt lat="46.9237" lon="2.9406">
        <ele>181.21896362305</ele>
        <time>2016-02-03T13:45:32.000Z</time>
      </trkpt>
      <trkpt lat="46.92371" lon="2.94064">
        <ele>181.18984985352</ele>
        <time>2016-02-03T13:45:35.000Z</time>
      </trkpt>
      <trkpt lat="46.92372" lon="2.94068">
        <ele>181.16270446777</ele>
        <time>2016-02-03T13:45:37.000Z</time>
      </trkpt>
      <trkpt lat="46.92373" lon="2.94071">
        <ele>181.13275146484</ele>
        <time>2016-02-03T13:45:40.000Z</time>
      </trkpt>
      <trkpt lat="46.92373" lon="2.94075">
        <ele>181.10237121582</ele>
        <time>2016-02-03T13:45:43.000Z</time>
      </trkpt>
      <trkpt lat="46.92374" lon="2.94082">
        <ele>181.07202148438</ele>
        <time>2016-02-03T13:45:46.000Z</time>
      </trkpt>
      <trkpt lat="46.92375" lon="2.94086">
        <ele>181.04402160645</ele>
        <time>2016-02-03T13:45:49.000Z</time>
      </trkpt>
      <trkpt lat="46.92376" lon="2.94089">
        <ele>181.01737976074</ele>
        <time>2016-02-03T13:45:51.000Z</time>
      </trkpt>
      <trkpt lat="46.92378" lon="2.94094">
        <ele>180.99003601074</ele>
        <time>2016-02-03T13:45:54.000Z</time>
      </trkpt>
      <trkpt lat="46.92378" lon="2.94098">
        <ele>180.96328735352</ele>
        <time>2016-02-03T13:45:57.000Z</time>
      </trkpt>
      <trkpt lat="46.92379" lon="2.94101">
        <ele>180.94247436523</ele>
        <time>2016-02-03T13:45:59.000Z</time>
      </trkpt>
      <trkpt lat="46.92379" lon="2.94106">
        <ele>180.92195129395</ele>
        <time>2016-02-03T13:46:02.000Z</time>
      </trkpt>
      <trkpt lat="46.92381" lon="2.94111">
        <ele>180.89910888672</ele>
        <time>2016-02-03T13:46:05.000Z</time>
      </trkpt>
      <trkpt lat="46.92382" lon="2.94116">
        <ele>180.87803649902</ele>
        <time>2016-02-03T13:46:07.000Z</time>
      </trkpt>
      <trkpt lat="46.92383" lon="2.94121">
        <ele>180.85792541504</ele>
        <time>2016-02-03T13:46:10.000Z</time>
      </trkpt>
      <trkpt lat="46.92383" lon="2.94124">
        <ele>180.83877563477</ele>
        <time>2016-02-03T13:46:12.000Z</time>
      </trkpt>
      <trkpt lat="46.92384" lon="2.94127">
        <ele>180.82168579102</ele>
        <time>2016-02-03T13:46:15.000Z</time>
      </trkpt>
      <trkpt lat="46.92385" lon="2.94132">
        <ele>180.80630493164</ele>
        <time>2016-02-03T13:46:18.000Z</time>
      </trkpt>
      <trkpt lat="46.92385" lon="2.94135">
        <ele>180.79307556152</ele>
        <time>2016-02-03T13:46:20.000Z</time>
      </trkpt>
      <trkpt lat="46.92386" lon="2.94138">
        <ele>180.78169250488</ele>
        <time>2016-02-03T13:46:22.000Z</time>
      </trkpt>
      <trkpt lat="46.92388" lon="2.94143">
        <ele>180.77053833008</ele>
        <time>2016-02-03T13:46:25.000Z</time>
      </trkpt>
      <trkpt lat="46.92389" lon="2.94146">
        <ele>180.76040649414</ele>
        <time>2016-02-03T13:46:27.000Z</time>
      </trkpt>
      <trkpt lat="46.9239" lon="2.94151">
        <ele>180.75216674805</ele>
        <time>2016-02-03T13:46:30.000Z</time>
      </trkpt>
      <trkpt lat="46.9239" lon="2.94154">
        <ele>180.74537658691</ele>
        <time>2016-02-03T13:46:32.000Z</time>
      </trkpt>
      <trkpt lat="46.92392" lon="2.94159">
        <ele>180.73941040039</ele>
        <time>2016-02-03T13:46:35.000Z</time>
      </trkpt>
      <trkpt lat="46.92393" lon="2.94163">
        <ele>180.73463439941</ele>
        <time>2016-02-03T13:46:38.000Z</time>
      </trkpt>
      <trkpt lat="46.92395" lon="2.94169">
        <ele>180.74015808105</ele>
        <time>2016-02-03T13:46:41.000Z</time>
      </trkpt>
      <trkpt lat="46.92396" lon="2.94175">
        <ele>180.76260375977</ele>
        <time>2016-02-03T13:46:44.000Z</time>
      </trkpt>
      <trkpt lat="46.92397" lon="2.94178">
        <ele>180.79570007324</ele>
        <time>2016-02-03T13:46:47.000Z</time>
      </trkpt>
      <trkpt lat="46.92398" lon="2.94182">
        <ele>180.84141540527</ele>
        <time>2016-02-03T13:46:49.000Z</time>
      </trkpt>
      <trkpt lat="46.92398" lon="2.94186">
        <ele>180.89764404297</ele>
        <time>2016-02-03T13:46:52.000Z</time>
      </trkpt>
      <trkpt lat="46.924" lon="2.94191">
        <ele>180.95947265625</ele>
        <time>2016-02-03T13:46:55.000Z</time>
      </trkpt>
      <trkpt lat="46.92401" lon="2.94196">
        <ele>181.02136230469</ele>
        <time>2016-02-03T13:46:58.000Z</time>
      </trkpt>
      <trkpt lat="46.92402" lon="2.942">
        <ele>181.08721923828</ele>
        <time>2016-02-03T13:47:01.000Z</time>
      </trkpt>
      <trkpt lat="46.92403" lon="2.94205">
        <ele>181.15521240234</ele>
        <time>2016-02-03T13:47:04.000Z</time>
      </trkpt>
      <trkpt lat="46.92404" lon="2.94208">
        <ele>181.22351074219</ele>
        <time>2016-02-03T13:47:06.000Z</time>
      </trkpt>
      <trkpt lat="46.92404" lon="2.94212">
        <ele>181.28607177734</ele>
        <time>2016-02-03T13:47:09.000Z</time>
      </trkpt>
      <trkpt lat="46.92406" lon="2.94217">
        <ele>181.34838867188</ele>
        <time>2016-02-03T13:47:12.000Z</time>
      </trkpt>
      <trkpt lat="46.92407" lon="2.9422">
        <ele>181.40679931641</ele>
        <time>2016-02-03T13:47:15.000Z</time>
      </trkpt>
      <trkpt lat="46.92408" lon="2.94225">
        <ele>181.46710205078</ele>
        <time>2016-02-03T13:47:18.000Z</time>
      </trkpt>
      <trkpt lat="46.92409" lon="2.94229">
        <ele>181.52795410156</ele>
        <time>2016-02-03T13:47:20.000Z</time>
      </trkpt>
      <trkpt lat="46.9241" lon="2.94234">
        <ele>181.59509277344</ele>
        <time>2016-02-03T13:47:23.000Z</time>
      </trkpt>
      <trkpt lat="46.92411" lon="2.94238">
        <ele>181.65991210938</ele>
        <time>2016-02-03T13:47:26.000Z</time>
      </trkpt>
      <trkpt lat="46.92412" lon="2.94242">
        <ele>181.72381591797</ele>
        <time>2016-02-03T13:47:29.000Z</time>
      </trkpt>
      <trkpt lat="46.92413" lon="2.94246">
        <ele>181.78497314453</ele>
        <time>2016-02-03T13:47:32.000Z</time>
      </trkpt>
      <trkpt lat="46.92414" lon="2.94251">
        <ele>181.84735107422</ele>
        <time>2016-02-03T13:47:34.000Z</time>
      </trkpt>
      <trkpt lat="46.92415" lon="2.94256">
        <ele>181.89790344238</ele>
        <time>2016-02-03T13:47:37.000Z</time>
      </trkpt>
      <trkpt lat="46.92416" lon="2.94259">
        <ele>181.93740844727</ele>
        <time>2016-02-03T13:47:39.000Z</time>
      </trkpt>
      <trkpt lat="46.92418" lon="2.94263">
        <ele>181.97462463379</ele>
        <time>2016-02-03T13:47:42.000Z</time>
      </trkpt>
      <trkpt lat="46.92418" lon="2.94266">
        <ele>182.0008392334</ele>
        <time>2016-02-03T13:47:44.000Z</time>
      </trkpt>
      <trkpt lat="46.92418" lon="2.94271">
        <ele>182.01321411133</ele>
        <time>2016-02-03T13:47:47.000Z</time>
      </trkpt>
      <trkpt lat="46.92418" lon="2.94275">
        <ele>182.02214050293</ele>
        <time>2016-02-03T13:47:50.000Z</time>
      </trkpt>
      <trkpt lat="46.92418" lon="2.94278">
        <ele>182.03125</ele>
        <time>2016-02-03T13:47:52.000Z</time>
      </trkpt>
      <trkpt lat="46.92419" lon="2.94281">
        <ele>182.03515625</ele>
        <time>2016-02-03T13:47:54.000Z</time>
      </trkpt>
      <trkpt lat="46.92418" lon="2.94285">
        <ele>182.03515625</ele>
        <time>2016-02-03T13:47:57.000Z</time>
      </trkpt>
      <trkpt lat="46.92418" lon="2.9429">
        <ele>182.037109375</ele>
        <time>2016-02-03T13:48:00.000Z</time>
      </trkpt>
      <trkpt lat="46.92418" lon="2.94295">
        <ele>182.037109375</ele>
        <time>2016-02-03T13:48:03.000Z</time>
      </trkpt>
      <trkpt lat="46.92418" lon="2.94299">
        <ele>182.03515625</ele>
        <time>2016-02-03T13:48:05.000Z</time>
      </trkpt>
      <trkpt lat="46.92419" lon="2.94305">
        <ele>182.037109375</ele>
        <time>2016-02-03T13:48:08.000Z</time>
      </trkpt>
      <trkpt lat="46.9242" lon="2.94309">
        <ele>182.046875</ele>
        <time>2016-02-03T13:48:10.000Z</time>
      </trkpt>
      <trkpt lat="46.9242" lon="2.94311">
        <ele>182.056640625</ele>
        <time>2016-02-03T13:48:12.000Z</time>
      </trkpt>
      <trkpt lat="46.92422" lon="2.94316">
        <ele>182.076171875</ele>
        <time>2016-02-03T13:48:15.000Z</time>
      </trkpt>
      <trkpt lat="46.92423" lon="2.9432">
        <ele>182.099609375</ele>
        <time>2016-02-03T13:48:18.000Z</time>
      </trkpt>
      <trkpt lat="46.92424" lon="2.94324">
        <ele>182.123046875</ele>
        <time>2016-02-03T13:48:20.000Z</time>
      </trkpt>
      <trkpt lat="46.92425" lon="2.94327">
        <ele>182.14453125</ele>
        <time>2016-02-03T13:48:22.000Z</time>
      </trkpt>
      <trkpt lat="46.92426" lon="2.94332">
        <ele>182.169921875</ele>
        <time>2016-02-03T13:48:25.000Z</time>
      </trkpt>
      <trkpt lat="46.92426" lon="2.94337">
        <ele>182.19888305664</ele>
        <time>2016-02-03T13:48:28.000Z</time>
      </trkpt>
      <trkpt lat="46.92427" lon="2.94341">
        <ele>182.2347869873</ele>
        <time>2016-02-03T13:48:31.000Z</time>
      </trkpt>
      <trkpt lat="46.92427" lon="2.94347">
        <ele>182.27772521973</ele>
        <time>2016-02-03T13:48:34.000Z</time>
      </trkpt>
      <trkpt lat="46.92426" lon="2.94351">
        <ele>182.32363891602</ele>
        <time>2016-02-03T13:48:37.000Z</time>
      </trkpt>
      <trkpt lat="46.92427" lon="2.94356">
        <ele>182.37796020508</ele>
        <time>2016-02-03T13:48:40.000Z</time>
      </trkpt>
      <trkpt lat="46.92427" lon="2.94361">
        <ele>182.43417358398</ele>
        <time>2016-02-03T13:48:43.000Z</time>
      </trkpt>
      <trkpt lat="46.92429" lon="2.94367">
        <ele>182.49757385254</ele>
        <time>2016-02-03T13:48:46.000Z</time>
      </trkpt>
      <trkpt lat="46.9243" lon="2.94369">
        <ele>182.55537414551</ele>
        <time>2016-02-03T13:48:48.000Z</time>
      </trkpt>
      <trkpt lat="46.92431" lon="2.94374">
        <ele>182.62112426758</ele>
        <time>2016-02-03T13:48:51.000Z</time>
      </trkpt>
      <trkpt lat="46.92432" lon="2.94378">
        <ele>182.68566894531</ele>
        <time>2016-02-03T13:48:53.000Z</time>
      </trkpt>
      <trkpt lat="46.92433" lon="2.94382">
        <ele>182.74945068359</ele>
        <time>2016-02-03T13:48:56.000Z</time>
      </trkpt>
      <trkpt lat="46.92434" lon="2.94386">
        <ele>182.80461120605</ele>
        <time>2016-02-03T13:48:58.000Z</time>
      </trkpt>
      <trkpt lat="46.92435" lon="2.94392">
        <ele>182.86663818359</ele>
        <time>2016-02-03T13:49:01.000Z</time>
      </trkpt>
      <trkpt lat="46.92437" lon="2.94398">
        <ele>182.93020629883</ele>
        <time>2016-02-03T13:49:04.000Z</time>
      </trkpt>
      <trkpt lat="46.92437" lon="2.94402">
        <ele>182.99130249023</ele>
        <time>2016-02-03T13:49:06.000Z</time>
      </trkpt>
      <trkpt lat="46.92438" lon="2.94405">
        <ele>183.04794311523</ele>
        <time>2016-02-03T13:49:08.000Z</time>
      </trkpt>
      <trkpt lat="46.92439" lon="2.94411">
        <ele>183.10635375977</ele>
        <time>2016-02-03T13:49:11.000Z</time>
      </trkpt>
      <trkpt lat="46.92439" lon="2.94415">
        <ele>183.16024780273</ele>
        <time>2016-02-03T13:49:13.000Z</time>
      </trkpt>
      <trkpt lat="46.9244" lon="2.94419">
        <ele>183.19703674316</ele>
        <time>2016-02-03T13:49:16.000Z</time>
      </trkpt>
      <trkpt lat="46.92442" lon="2.94425">
        <ele>183.21340942383</ele>
        <time>2016-02-03T13:49:19.000Z</time>
      </trkpt>
      <trkpt lat="46.92443" lon="2.94429">
        <ele>183.21626281738</ele>
        <time>2016-02-03T13:49:21.000Z</time>
      </trkpt>
      <trkpt lat="46.92445" lon="2.94433">
        <ele>183.20252990723</ele>
        <time>2016-02-03T13:49:24.000Z</time>
      </trkpt>
      <trkpt lat="46.92447" lon="2.94437">
        <ele>183.17657470703</ele>
        <time>2016-02-03T13:49:26.000Z</time>
      </trkpt>
      <trkpt lat="46.92451" lon="2.94442">
        <ele>183.14758300781</ele>
        <time>2016-02-03T13:49:29.000Z</time>
      </trkpt>
      <trkpt lat="46.92454" lon="2.94445">
        <ele>183.13037109375</ele>
        <time>2016-02-03T13:49:32.000Z</time>
      </trkpt>
      <trkpt lat="46.92456" lon="2.94447">
        <ele>183.12060546875</ele>
        <time>2016-02-03T13:49:34.000Z</time>
      </trkpt>
      <trkpt lat="46.92458" lon="2.94449">
        <ele>183.115234375</ele>
        <time>2016-02-03T13:49:36.000Z</time>
      </trkpt>
      <trkpt lat="46.92461" lon="2.94453">
        <ele>183.11096191406</ele>
        <time>2016-02-03T13:49:39.000Z</time>
      </trkpt>
      <trkpt lat="46.92464" lon="2.94456">
        <ele>183.10821533203</ele>
        <time>2016-02-03T13:49:42.000Z</time>
      </trkpt>
      <trkpt lat="46.92467" lon="2.94459">
        <ele>183.1064453125</ele>
        <time>2016-02-03T13:49:45.000Z</time>
      </trkpt>
      <trkpt lat="46.92469" lon="2.94463">
        <ele>183.09826660156</ele>
        <time>2016-02-03T13:49:48.000Z</time>
      </trkpt>
      <trkpt lat="46.92471" lon="2.94464">
        <ele>183.09301757812</ele>
        <time>2016-02-03T13:49:50.000Z</time>
      </trkpt>
      <trkpt lat="46.92475" lon="2.94466">
        <ele>183.09246826172</ele>
        <time>2016-02-03T13:49:53.000Z</time>
      </trkpt>
      <trkpt lat="46.92478" lon="2.94469">
        <ele>183.0947265625</ele>
        <time>2016-02-03T13:49:56.000Z</time>
      </trkpt>
      <trkpt lat="46.92481" lon="2.94471">
        <ele>183.09844970703</ele>
        <time>2016-02-03T13:49:59.000Z</time>
      </trkpt>
      <trkpt lat="46.92483" lon="2.94473">
        <ele>183.10852050781</ele>
        <time>2016-02-03T13:50:01.000Z</time>
      </trkpt>
      <trkpt lat="46.92487" lon="2.94477">
        <ele>183.11602783203</ele>
        <time>2016-02-03T13:50:04.000Z</time>
      </trkpt>
      <trkpt lat="46.92492" lon="2.94479">
        <ele>183.12438964844</ele>
        <time>2016-02-03T13:50:07.000Z</time>
      </trkpt>
      <trkpt lat="46.92494" lon="2.9448">
        <ele>183.13665771484</ele>
        <time>2016-02-03T13:50:09.000Z</time>
      </trkpt>
      <trkpt lat="46.92498" lon="2.94483">
        <ele>183.14892578125</ele>
        <time>2016-02-03T13:50:12.000Z</time>
      </trkpt>
      <trkpt lat="46.925" lon="2.94484">
        <ele>183.16088867188</ele>
        <time>2016-02-03T13:50:14.000Z</time>
      </trkpt>
      <trkpt lat="46.92503" lon="2.94486">
        <ele>183.17964172363</ele>
        <time>2016-02-03T13:50:17.000Z</time>
      </trkpt>
      <trkpt lat="46.92506" lon="2.94488">
        <ele>183.20385742188</ele>
        <time>2016-02-03T13:50:20.000Z</time>
      </trkpt>
      <trkpt lat="46.92509" lon="2.94491">
        <ele>183.23527526855</ele>
        <time>2016-02-03T13:50:23.000Z</time>
      </trkpt>
      <trkpt lat="46.92512" lon="2.94492">
        <ele>183.27215576172</ele>
        <time>2016-02-03T13:50:25.000Z</time>
      </trkpt>
      <trkpt lat="46.92516" lon="2.94494">
        <ele>183.32432556152</ele>
        <time>2016-02-03T13:50:28.000Z</time>
      </trkpt>
      <trkpt lat="46.92519" lon="2.94495">
        <ele>183.38325500488</ele>
        <time>2016-02-03T13:50:30.000Z</time>
      </trkpt>
      <trkpt lat="46.92521" lon="2.94496">
        <ele>183.43742370605</ele>
        <time>2016-02-03T13:50:32.000Z</time>
      </trkpt>
      <trkpt lat="46.92525" lon="2.94497">
        <ele>183.49859619141</ele>
        <time>2016-02-03T13:50:35.000Z</time>
      </trkpt>
      <trkpt lat="46.92527" lon="2.94498">
        <ele>183.55966186523</ele>
        <time>2016-02-03T13:50:37.000Z</time>
      </trkpt>
      <trkpt lat="46.92531" lon="2.94499">
        <ele>183.61923217773</ele>
        <time>2016-02-03T13:50:40.000Z</time>
      </trkpt>
      <trkpt lat="46.92533" lon="2.94501">
        <ele>183.67660522461</ele>
        <time>2016-02-03T13:50:42.000Z</time>
      </trkpt>
      <trkpt lat="46.92538" lon="2.94501">
        <ele>183.75588989258</ele>
        <time>2016-02-03T13:50:45.000Z</time>
      </trkpt>
      <trkpt lat="46.92542" lon="2.94501">
        <ele>183.83265686035</ele>
        <time>2016-02-03T13:50:48.000Z</time>
      </trkpt>
      <trkpt lat="46.92545" lon="2.94501">
        <ele>183.91902160645</ele>
        <time>2016-02-03T13:50:51.000Z</time>
      </trkpt>
      <trkpt lat="46.92548" lon="2.94501">
        <ele>184.00561523438</ele>
        <time>2016-02-03T13:50:53.000Z</time>
      </trkpt>
      <trkpt lat="46.92551" lon="2.94502">
        <ele>184.09417724609</ele>
        <time>2016-02-03T13:50:55.000Z</time>
      </trkpt>
      <trkpt lat="46.92553" lon="2.94502">
        <ele>184.16796875</ele>
        <time>2016-02-03T13:50:57.000Z</time>
      </trkpt>
      <trkpt lat="46.92556" lon="2.94502">
        <ele>184.23779296875</ele>
        <time>2016-02-03T13:50:59.000Z</time>
      </trkpt>
      <trkpt lat="46.92559" lon="2.94503">
        <ele>184.3056640625</ele>
        <time>2016-02-03T13:51:02.000Z</time>
      </trkpt>
      <trkpt lat="46.92561" lon="2.94503">
        <ele>184.36987304688</ele>
        <time>2016-02-03T13:51:04.000Z</time>
      </trkpt>
      <trkpt lat="46.92564" lon="2.94504">
        <ele>184.43902587891</ele>
        <time>2016-02-03T13:51:07.000Z</time>
      </trkpt>
      <trkpt lat="46.92567" lon="2.94504">
        <ele>184.51019287109</ele>
        <time>2016-02-03T13:51:09.000Z</time>
      </trkpt>
      <trkpt lat="46.92569" lon="2.94505">
        <ele>184.58062744141</ele>
        <time>2016-02-03T13:51:11.000Z</time>
      </trkpt>
      <trkpt lat="46.92572" lon="2.94505">
        <ele>184.65093994141</ele>
        <time>2016-02-03T13:51:14.000Z</time>
      </trkpt>
      <trkpt lat="46.92574" lon="2.94505">
        <ele>184.72143554688</ele>
        <time>2016-02-03T13:51:16.000Z</time>
      </trkpt>
      <trkpt lat="46.92578" lon="2.94506">
        <ele>184.79187011719</ele>
        <time>2016-02-03T13:51:18.000Z</time>
      </trkpt>
      <trkpt lat="46.9258" lon="2.94507">
        <ele>184.86480712891</ele>
        <time>2016-02-03T13:51:20.000Z</time>
      </trkpt>
      <trkpt lat="46.92585" lon="2.94509">
        <ele>184.94271850586</ele>
        <time>2016-02-03T13:51:23.000Z</time>
      </trkpt>
      <trkpt lat="46.92587" lon="2.9451">
        <ele>185.0074005127</ele>
        <time>2016-02-03T13:51:25.000Z</time>
      </trkpt>
      <trkpt lat="46.9259" lon="2.94512">
        <ele>185.0648651123</ele>
        <time>2016-02-03T13:51:28.000Z</time>
      </trkpt>
      <trkpt lat="46.92594" lon="2.94515">
        <ele>185.11343383789</ele>
        <time>2016-02-03T13:51:31.000Z</time>
      </trkpt>
      <trkpt lat="46.92596" lon="2.94519">
        <ele>185.154296875</ele>
        <time>2016-02-03T13:51:34.000Z</time>
      </trkpt>
      <trkpt lat="46.92597" lon="2.94522">
        <ele>185.185546875</ele>
        <time>2016-02-03T13:51:36.000Z</time>
      </trkpt>
      <trkpt lat="46.92598" lon="2.94528">
        <ele>185.22955322266</ele>
        <time>2016-02-03T13:51:39.000Z</time>
      </trkpt>
      <trkpt lat="46.92598" lon="2.94531">
        <ele>185.27697753906</ele>
        <time>2016-02-03T13:51:41.000Z</time>
      </trkpt>
      <trkpt lat="46.92599" lon="2.94537">
        <ele>185.32818603516</ele>
        <time>2016-02-03T13:51:44.000Z</time>
      </trkpt>
      <trkpt lat="46.92599" lon="2.94538">
        <ele>185.37475585938</ele>
        <time>2016-02-03T13:51:48.000Z</time>
      </trkpt>
      <trkpt lat="46.92599" lon="2.94542">
        <ele>185.42248535156</ele>
        <time>2016-02-03T13:51:50.000Z</time>
      </trkpt>
      <trkpt lat="46.92599" lon="2.94547">
        <ele>185.46710205078</ele>
        <time>2016-02-03T13:51:53.000Z</time>
      </trkpt>
      <trkpt lat="46.92599" lon="2.94551">
        <ele>185.51519775391</ele>
        <time>2016-02-03T13:51:56.000Z</time>
      </trkpt>
      <trkpt lat="46.92599" lon="2.94556">
        <ele>185.56109619141</ele>
        <time>2016-02-03T13:51:59.000Z</time>
      </trkpt>
      <trkpt lat="46.92599" lon="2.94559">
        <ele>185.61157226562</ele>
        <time>2016-02-03T13:52:02.000Z</time>
      </trkpt>
      <trkpt lat="46.92599" lon="2.94563">
        <ele>185.66217041016</ele>
        <time>2016-02-03T13:52:05.000Z</time>
      </trkpt>
      <trkpt lat="46.926" lon="2.94566">
        <ele>185.70831298828</ele>
        <time>2016-02-03T13:52:07.000Z</time>
      </trkpt>
      <trkpt lat="46.92601" lon="2.94568">
        <ele>185.7490234375</ele>
        <time>2016-02-03T13:52:09.000Z</time>
      </trkpt>
      <trkpt lat="46.92602" lon="2.94573">
        <ele>185.79156494141</ele>
        <time>2016-02-03T13:52:12.000Z</time>
      </trkpt>
      <trkpt lat="46.92603" lon="2.9458">
        <ele>185.84045410156</ele>
        <time>2016-02-03T13:52:15.000Z</time>
      </trkpt>
      <trkpt lat="46.92603" lon="2.94583">
        <ele>185.88800048828</ele>
        <time>2016-02-03T13:52:17.000Z</time>
      </trkpt>
      <trkpt lat="46.92604" lon="2.94586">
        <ele>185.93782043457</ele>
        <time>2016-02-03T13:52:20.000Z</time>
      </trkpt>
      <trkpt lat="46.92605" lon="2.94589">
        <ele>185.99142456055</ele>
        <time>2016-02-03T13:52:23.000Z</time>
      </trkpt>
      <trkpt lat="46.92606" lon="2.94594">
        <ele>186.04666137695</ele>
        <time>2016-02-03T13:52:26.000Z</time>
      </trkpt>
      <trkpt lat="46.92606" lon="2.94597">
        <ele>186.09750366211</ele>
        <time>2016-02-03T13:52:28.000Z</time>
      </trkpt>
      <trkpt lat="46.92608" lon="2.94601">
        <ele>186.15396118164</ele>
        <time>2016-02-03T13:52:31.000Z</time>
      </trkpt>
      <trkpt lat="46.9261" lon="2.94607">
        <ele>186.22006225586</ele>
        <time>2016-02-03T13:52:34.000Z</time>
      </trkpt>
      <trkpt lat="46.92611" lon="2.94611">
        <ele>186.2897644043</ele>
        <time>2016-02-03T13:52:37.000Z</time>
      </trkpt>
      <trkpt lat="46.92612" lon="2.94615">
        <ele>186.35874938965</ele>
        <time>2016-02-03T13:52:39.000Z</time>
      </trkpt>
      <trkpt lat="46.92613" lon="2.94618">
        <ele>186.42977905273</ele>
        <time>2016-02-03T13:52:41.000Z</time>
      </trkpt>
      <trkpt lat="46.92614" lon="2.94624">
        <ele>186.50698852539</ele>
        <time>2016-02-03T13:52:44.000Z</time>
      </trkpt>
      <trkpt lat="46.92615" lon="2.94629">
        <ele>186.58493041992</ele>
        <time>2016-02-03T13:52:47.000Z</time>
      </trkpt>
      <trkpt lat="46.92616" lon="2.94634">
        <ele>186.6650390625</ele>
        <time>2016-02-03T13:52:49.000Z</time>
      </trkpt>
      <trkpt lat="46.92617" lon="2.94639">
        <ele>186.7540435791</ele>
        <time>2016-02-03T13:52:52.000Z</time>
      </trkpt>
      <trkpt lat="46.92619" lon="2.94646">
        <ele>186.85598754883</ele>
        <time>2016-02-03T13:52:55.000Z</time>
      </trkpt>
      <trkpt lat="46.9262" lon="2.94651">
        <ele>186.95718383789</ele>
        <time>2016-02-03T13:52:58.000Z</time>
      </trkpt>
      <trkpt lat="46.92622" lon="2.94656">
        <ele>187.05949401855</ele>
        <time>2016-02-03T13:53:01.000Z</time>
      </trkpt>
      <trkpt lat="46.92623" lon="2.94662">
        <ele>187.16860961914</ele>
        <time>2016-02-03T13:53:04.000Z</time>
      </trkpt>
      <trkpt lat="46.92623" lon="2.94665">
        <ele>187.27066040039</ele>
        <time>2016-02-03T13:53:06.000Z</time>
      </trkpt>
      <trkpt lat="46.92624" lon="2.94671">
        <ele>187.35330200195</ele>
        <time>2016-02-03T13:53:09.000Z</time>
      </trkpt>
      <trkpt lat="46.92625" lon="2.94676">
        <ele>187.42111206055</ele>
        <time>2016-02-03T13:53:12.000Z</time>
      </trkpt>
      <trkpt lat="46.92627" lon="2.94679">
        <ele>187.47175598145</ele>
        <time>2016-02-03T13:53:14.000Z</time>
      </trkpt>
      <trkpt lat="46.92628" lon="2.94683">
        <ele>187.5034942627</ele>
        <time>2016-02-03T13:53:16.000Z</time>
      </trkpt>
      <trkpt lat="46.9263" lon="2.94688">
        <ele>187.5244140625</ele>
        <time>2016-02-03T13:53:19.000Z</time>
      </trkpt>
      <trkpt lat="46.92633" lon="2.94694">
        <ele>187.544921875</ele>
        <time>2016-02-03T13:53:22.000Z</time>
      </trkpt>
      <trkpt lat="46.92634" lon="2.94698">
        <ele>187.5654296875</ele>
        <time>2016-02-03T13:53:24.000Z</time>
      </trkpt>
      <trkpt lat="46.92636" lon="2.94702">
        <ele>187.5869140625</ele>
        <time>2016-02-03T13:53:27.000Z</time>
      </trkpt>
      <trkpt lat="46.92638" lon="2.94707">
        <ele>187.6083984375</ele>
        <time>2016-02-03T13:53:30.000Z</time>
      </trkpt>
      <trkpt lat="46.92639" lon="2.94712">
        <ele>187.62890625</ele>
        <time>2016-02-03T13:53:33.000Z</time>
      </trkpt>
      <trkpt lat="46.9264" lon="2.94716">
        <ele>187.6455078125</ele>
        <time>2016-02-03T13:53:35.000Z</time>
      </trkpt>
      <trkpt lat="46.92641" lon="2.94721">
        <ele>187.6630859375</ele>
        <time>2016-02-03T13:53:38.000Z</time>
      </trkpt>
      <trkpt lat="46.92643" lon="2.94725">
        <ele>187.6787109375</ele>
        <time>2016-02-03T13:53:40.000Z</time>
      </trkpt>
      <trkpt lat="46.92643" lon="2.9473">
        <ele>187.6923828125</ele>
        <time>2016-02-03T13:53:43.000Z</time>
      </trkpt>
      <trkpt lat="46.92645" lon="2.94733">
        <ele>187.70703125</ele>
        <time>2016-02-03T13:53:45.000Z</time>
      </trkpt>
      <trkpt lat="46.92646" lon="2.94737">
        <ele>187.7216796875</ele>
        <time>2016-02-03T13:53:47.000Z</time>
      </trkpt>
      <trkpt lat="46.92646" lon="2.94743">
        <ele>187.734375</ele>
        <time>2016-02-03T13:53:50.000Z</time>
      </trkpt>
      <trkpt lat="46.92647" lon="2.94749">
        <ele>187.74609375</ele>
        <time>2016-02-03T13:53:53.000Z</time>
      </trkpt>
      <trkpt lat="46.92648" lon="2.94755">
        <ele>187.7906036377</ele>
        <time>2016-02-03T13:53:56.000Z</time>
      </trkpt>
      <trkpt lat="46.92649" lon="2.94758">
        <ele>187.85346984863</ele>
        <time>2016-02-03T13:53:58.000Z</time>
      </trkpt>
      <trkpt lat="46.92649" lon="2.94763">
        <ele>187.94860839844</ele>
        <time>2016-02-03T13:54:01.000Z</time>
      </trkpt>
      <trkpt lat="46.92649" lon="2.9477">
        <ele>188.08654785156</ele>
        <time>2016-02-03T13:54:04.000Z</time>
      </trkpt>
      <trkpt lat="46.92649" lon="2.94775">
        <ele>188.2565612793</ele>
        <time>2016-02-03T13:54:07.000Z</time>
      </trkpt>
      <trkpt lat="46.92649" lon="2.94779">
        <ele>188.4234161377</ele>
        <time>2016-02-03T13:54:10.000Z</time>
      </trkpt>
      <trkpt lat="46.9265" lon="2.94783">
        <ele>188.59527587891</ele>
        <time>2016-02-03T13:54:13.000Z</time>
      </trkpt>
      <trkpt lat="46.92651" lon="2.94787">
        <ele>188.76168823242</ele>
        <time>2016-02-03T13:54:15.000Z</time>
      </trkpt>
      <trkpt lat="46.92651" lon="2.94791">
        <ele>188.91159057617</ele>
        <time>2016-02-03T13:54:17.000Z</time>
      </trkpt>
      <trkpt lat="46.92652" lon="2.94796">
        <ele>189.06442260742</ele>
        <time>2016-02-03T13:54:20.000Z</time>
      </trkpt>
      <trkpt lat="46.92653" lon="2.94802">
        <ele>189.23118591309</ele>
        <time>2016-02-03T13:54:23.000Z</time>
      </trkpt>
      <trkpt lat="46.92653" lon="2.94806">
        <ele>189.39762878418</ele>
        <time>2016-02-03T13:54:25.000Z</time>
      </trkpt>
      <trkpt lat="46.92654" lon="2.9481">
        <ele>189.56726074219</ele>
        <time>2016-02-03T13:54:27.000Z</time>
      </trkpt>
      <trkpt lat="46.92654" lon="2.94815">
        <ele>189.74728393555</ele>
        <time>2016-02-03T13:54:30.000Z</time>
      </trkpt>
      <trkpt lat="46.92656" lon="2.94819">
        <ele>189.91850280762</ele>
        <time>2016-02-03T13:54:32.000Z</time>
      </trkpt>
      <trkpt lat="46.92657" lon="2.94824">
        <ele>190.08169555664</ele>
        <time>2016-02-03T13:54:35.000Z</time>
      </trkpt>
      <trkpt lat="46.92659" lon="2.9483">
        <ele>190.27160644531</ele>
        <time>2016-02-03T13:54:38.000Z</time>
      </trkpt>
      <trkpt lat="46.92661" lon="2.94835">
        <ele>190.47724914551</ele>
        <time>2016-02-03T13:54:41.000Z</time>
      </trkpt>
      <trkpt lat="46.92663" lon="2.94842">
        <ele>190.69909667969</ele>
        <time>2016-02-03T13:54:44.000Z</time>
      </trkpt>
      <trkpt lat="46.92664" lon="2.94846">
        <ele>190.93231201172</ele>
        <time>2016-02-03T13:54:47.000Z</time>
      </trkpt>
      <trkpt lat="46.92666" lon="2.94848">
        <ele>191.15013122559</ele>
        <time>2016-02-03T13:54:49.000Z</time>
      </trkpt>
      <trkpt lat="46.92666" lon="2.94853">
        <ele>191.34843444824</ele>
        <time>2016-02-03T13:54:52.000Z</time>
      </trkpt>
      <trkpt lat="46.92667" lon="2.94855">
        <ele>191.52151489258</ele>
        <time>2016-02-03T13:54:54.000Z</time>
      </trkpt>
      <trkpt lat="46.92668" lon="2.9486">
        <ele>191.67651367188</ele>
        <time>2016-02-03T13:54:57.000Z</time>
      </trkpt>
      <trkpt lat="46.92669" lon="2.94862">
        <ele>191.80392456055</ele>
        <time>2016-02-03T13:55:00.000Z</time>
      </trkpt>
      <trkpt lat="46.92669" lon="2.94863">
        <ele>191.91885375977</ele>
        <time>2016-02-03T13:55:02.000Z</time>
      </trkpt>
      <trkpt lat="46.92669" lon="2.94867">
        <ele>192.03132629395</ele>
        <time>2016-02-03T13:55:05.000Z</time>
      </trkpt>
      <trkpt lat="46.92671" lon="2.94872">
        <ele>192.15855407715</ele>
        <time>2016-02-03T13:55:08.000Z</time>
      </trkpt>
      <trkpt lat="46.92672" lon="2.94877">
        <ele>192.28157043457</ele>
        <time>2016-02-03T13:55:10.000Z</time>
      </trkpt>
      <trkpt lat="46.92673" lon="2.94882">
        <ele>192.42892456055</ele>
        <time>2016-02-03T13:55:13.000Z</time>
      </trkpt>
      <trkpt lat="46.92673" lon="2.94887">
        <ele>192.6057434082</ele>
        <time>2016-02-03T13:55:16.000Z</time>
      </trkpt>
      <trkpt lat="46.92674" lon="2.94893">
        <ele>192.78903198242</ele>
        <time>2016-02-03T13:55:19.000Z</time>
      </trkpt>
      <trkpt lat="46.92675" lon="2.94898">
        <ele>192.97006225586</ele>
        <time>2016-02-03T13:55:22.000Z</time>
      </trkpt>
      <trkpt lat="46.92676" lon="2.94901">
        <ele>193.14065551758</ele>
        <time>2016-02-03T13:55:24.000Z</time>
      </trkpt>
      <trkpt lat="46.92678" lon="2.94907">
        <ele>193.31628417969</ele>
        <time>2016-02-03T13:55:27.000Z</time>
      </trkpt>
      <trkpt lat="46.92681" lon="2.94913">
        <ele>193.49342346191</ele>
        <time>2016-02-03T13:55:30.000Z</time>
      </trkpt>
      <trkpt lat="46.92682" lon="2.94919">
        <ele>193.66442871094</ele>
        <time>2016-02-03T13:55:33.000Z</time>
      </trkpt>
      <trkpt lat="46.92683" lon="2.94922">
        <ele>193.80697631836</ele>
        <time>2016-02-03T13:55:35.000Z</time>
      </trkpt>
      <trkpt lat="46.92685" lon="2.94928">
        <ele>193.9388885498</ele>
        <time>2016-02-03T13:55:38.000Z</time>
      </trkpt>
      <trkpt lat="46.92686" lon="2.94934">
        <ele>194.03988647461</ele>
        <time>2016-02-03T13:55:41.000Z</time>
      </trkpt>
      <trkpt lat="46.92688" lon="2.94938">
        <ele>194.10623168945</ele>
        <time>2016-02-03T13:55:43.000Z</time>
      </trkpt>
      <trkpt lat="46.92689" lon="2.94941">
        <ele>194.14497375488</ele>
        <time>2016-02-03T13:55:45.000Z</time>
      </trkpt>
      <trkpt lat="46.92691" lon="2.94947">
        <ele>194.18571472168</ele>
        <time>2016-02-03T13:55:48.000Z</time>
      </trkpt>
      <trkpt lat="46.92693" lon="2.94953">
        <ele>194.22268676758</ele>
        <time>2016-02-03T13:55:51.000Z</time>
      </trkpt>
      <trkpt lat="46.92694" lon="2.94957">
        <ele>194.25595092773</ele>
        <time>2016-02-03T13:55:53.000Z</time>
      </trkpt>
      <trkpt lat="46.92694" lon="2.94961">
        <ele>194.28903198242</ele>
        <time>2016-02-03T13:55:55.000Z</time>
      </trkpt>
      <trkpt lat="46.92695" lon="2.94964">
        <ele>194.32186889648</ele>
        <time>2016-02-03T13:55:58.000Z</time>
      </trkpt>
      <trkpt lat="46.92696" lon="2.94969">
        <ele>194.35321044922</ele>
        <time>2016-02-03T13:56:01.000Z</time>
      </trkpt>
      <trkpt lat="46.92698" lon="2.94974">
        <ele>194.38101196289</ele>
        <time>2016-02-03T13:56:04.000Z</time>
      </trkpt>
      <trkpt lat="46.92699" lon="2.94978">
        <ele>194.40469360352</ele>
        <time>2016-02-03T13:56:07.000Z</time>
      </trkpt>
      <trkpt lat="46.927" lon="2.94981">
        <ele>194.42532348633</ele>
        <time>2016-02-03T13:56:09.000Z</time>
      </trkpt>
      <trkpt lat="46.92702" lon="2.94986">
        <ele>194.44552612305</ele>
        <time>2016-02-03T13:56:12.000Z</time>
      </trkpt>
      <trkpt lat="46.92702" lon="2.94989">
        <ele>194.46186828613</ele>
        <time>2016-02-03T13:56:14.000Z</time>
      </trkpt>
      <trkpt lat="46.92703" lon="2.94992">
        <ele>194.47691345215</ele>
        <time>2016-02-03T13:56:16.000Z</time>
      </trkpt>
      <trkpt lat="46.92705" lon="2.94995">
        <ele>194.49028015137</ele>
        <time>2016-02-03T13:56:18.000Z</time>
      </trkpt>
      <trkpt lat="46.92706" lon="2.94996">
        <ele>194.50054931641</ele>
        <time>2016-02-03T13:56:21.000Z</time>
      </trkpt>
      <trkpt lat="46.92706" lon="2.94996">
        <ele>194.50451660156</ele>
        <time>2016-02-03T13:56:29.000Z</time>
      </trkpt>
      <trkpt lat="46.92706" lon="2.94996">
        <ele>194.50451660156</ele>
        <time>2016-02-03T13:56:49.000Z</time>
      </trkpt>
      <trkpt lat="46.92707" lon="2.94997">
        <ele>194.50514221191</ele>
        <time>2016-02-03T13:58:39.000Z</time>
      </trkpt>
      <trkpt lat="46.92709" lon="2.95001">
        <ele>194.50630187988</ele>
        <time>2016-02-03T13:58:40.000Z</time>
      </trkpt>
      <trkpt lat="46.9271" lon="2.95003">
        <ele>194.52133178711</ele>
        <time>2016-02-03T13:58:41.000Z</time>
      </trkpt>
      <trkpt lat="46.9271" lon="2.95005">
        <ele>194.54684448242</ele>
        <time>2016-02-03T13:58:44.000Z</time>
      </trkpt>
      <trkpt lat="46.92711" lon="2.95009">
        <ele>194.59407043457</ele>
        <time>2016-02-03T13:58:45.000Z</time>
      </trkpt>
      <trkpt lat="46.92712" lon="2.95012">
        <ele>194.65924072266</ele>
        <time>2016-02-03T13:58:48.000Z</time>
      </trkpt>
      <trkpt lat="46.92712" lon="2.95014">
        <ele>194.73635864258</ele>
        <time>2016-02-03T13:58:50.000Z</time>
      </trkpt>
      <trkpt lat="46.92712" lon="2.95019">
        <ele>194.8244934082</ele>
        <time>2016-02-03T13:58:53.000Z</time>
      </trkpt>
      <trkpt lat="46.92712" lon="2.95023">
        <ele>194.92672729492</ele>
        <time>2016-02-03T13:58:56.000Z</time>
      </trkpt>
      <trkpt lat="46.92712" lon="2.95026">
        <ele>195.02798461914</ele>
        <time>2016-02-03T13:58:58.000Z</time>
      </trkpt>
      <trkpt lat="46.92713" lon="2.95029">
        <ele>195.1297454834</ele>
        <time>2016-02-03T13:59:01.000Z</time>
      </trkpt>
      <trkpt lat="46.92713" lon="2.95031">
        <ele>195.22848510742</ele>
        <time>2016-02-03T13:59:03.000Z</time>
      </trkpt>
      <trkpt lat="46.92714" lon="2.95037">
        <ele>195.33572387695</ele>
        <time>2016-02-03T13:59:06.000Z</time>
      </trkpt>
      <trkpt lat="46.92714" lon="2.95039">
        <ele>195.43356323242</ele>
        <time>2016-02-03T13:59:09.000Z</time>
      </trkpt>
      <trkpt lat="46.92715" lon="2.95041">
        <ele>195.52626037598</ele>
        <time>2016-02-03T13:59:11.000Z</time>
      </trkpt>
      <trkpt lat="46.92715" lon="2.95046">
        <ele>195.62826538086</ele>
        <time>2016-02-03T13:59:14.000Z</time>
      </trkpt>
      <trkpt lat="46.92716" lon="2.95051">
        <ele>195.74755859375</ele>
        <time>2016-02-03T13:59:17.000Z</time>
      </trkpt>
      <trkpt lat="46.92716" lon="2.95054">
        <ele>195.85070800781</ele>
        <time>2016-02-03T13:59:19.000Z</time>
      </trkpt>
      <trkpt lat="46.92717" lon="2.95059">
        <ele>195.9690246582</ele>
        <time>2016-02-03T13:59:22.000Z</time>
      </trkpt>
      <trkpt lat="46.92717" lon="2.95061">
        <ele>196.09127807617</ele>
        <time>2016-02-03T13:59:24.000Z</time>
      </trkpt>
      <trkpt lat="46.92718" lon="2.95065">
        <ele>196.20581054688</ele>
        <time>2016-02-03T13:59:27.000Z</time>
      </trkpt>
      <trkpt lat="46.92718" lon="2.95068">
        <ele>196.30996704102</ele>
        <time>2016-02-03T13:59:29.000Z</time>
      </trkpt>
      <trkpt lat="46.92719" lon="2.95074">
        <ele>196.43655395508</ele>
        <time>2016-02-03T13:59:32.000Z</time>
      </trkpt>
      <trkpt lat="46.92719" lon="2.95077">
        <ele>196.55307006836</ele>
        <time>2016-02-03T13:59:34.000Z</time>
      </trkpt>
      <trkpt lat="46.92719" lon="2.9508">
        <ele>196.67012023926</ele>
        <time>2016-02-03T13:59:36.000Z</time>
      </trkpt>
      <trkpt lat="46.92719" lon="2.95085">
        <ele>196.79965209961</ele>
        <time>2016-02-03T13:59:39.000Z</time>
      </trkpt>
      <trkpt lat="46.92719" lon="2.95088">
        <ele>196.92626953125</ele>
        <time>2016-02-03T13:59:41.000Z</time>
      </trkpt>
      <trkpt lat="46.92719" lon="2.95091">
        <ele>197.03189086914</ele>
        <time>2016-02-03T13:59:43.000Z</time>
      </trkpt>
      <trkpt lat="46.92719" lon="2.95096">
        <ele>197.15014648438</ele>
        <time>2016-02-03T13:59:46.000Z</time>
      </trkpt>
      <trkpt lat="46.92719" lon="2.95099">
        <ele>197.26863098145</ele>
        <time>2016-02-03T13:59:48.000Z</time>
      </trkpt>
      <trkpt lat="46.92719" lon="2.95104">
        <ele>197.38662719727</ele>
        <time>2016-02-03T13:59:51.000Z</time>
      </trkpt>
      <trkpt lat="46.92719" lon="2.95107">
        <ele>197.50895690918</ele>
        <time>2016-02-03T13:59:53.000Z</time>
      </trkpt>
      <trkpt lat="46.92719" lon="2.9511">
        <ele>197.63200378418</ele>
        <time>2016-02-03T13:59:55.000Z</time>
      </trkpt>
      <trkpt lat="46.92719" lon="2.95117">
        <ele>197.76092529297</ele>
        <time>2016-02-03T13:59:58.000Z</time>
      </trkpt>
      <trkpt lat="46.92718" lon="2.95122">
        <ele>197.90469360352</ele>
        <time>2016-02-03T14:00:01.000Z</time>
      </trkpt>
      <trkpt lat="46.92717" lon="2.95127">
        <ele>198.04455566406</ele>
        <time>2016-02-03T14:00:04.000Z</time>
      </trkpt>
      <trkpt lat="46.92717" lon="2.9513">
        <ele>198.18293762207</ele>
        <time>2016-02-03T14:00:06.000Z</time>
      </trkpt>
      <trkpt lat="46.92716" lon="2.95135">
        <ele>198.33471679688</ele>
        <time>2016-02-03T14:00:09.000Z</time>
      </trkpt>
      <trkpt lat="46.92715" lon="2.95139">
        <ele>198.46926879883</ele>
        <time>2016-02-03T14:00:11.000Z</time>
      </trkpt>
      <trkpt lat="46.92714" lon="2.95142">
        <ele>198.58671569824</ele>
        <time>2016-02-03T14:00:13.000Z</time>
      </trkpt>
      <trkpt lat="46.92713" lon="2.95146">
        <ele>198.69879150391</ele>
        <time>2016-02-03T14:00:16.000Z</time>
      </trkpt>
      <trkpt lat="46.92711" lon="2.95151">
        <ele>198.81802368164</ele>
        <time>2016-02-03T14:00:19.000Z</time>
      </trkpt>
      <trkpt lat="46.9271" lon="2.95155">
        <ele>198.92874145508</ele>
        <time>2016-02-03T14:00:22.000Z</time>
      </trkpt>
      <trkpt lat="46.92709" lon="2.95158">
        <ele>199.03663635254</ele>
        <time>2016-02-03T14:00:24.000Z</time>
      </trkpt>
      <trkpt lat="46.92708" lon="2.95163">
        <ele>199.15785217285</ele>
        <time>2016-02-03T14:00:27.000Z</time>
      </trkpt>
      <trkpt lat="46.92707" lon="2.95168">
        <ele>199.27160644531</ele>
        <time>2016-02-03T14:00:30.000Z</time>
      </trkpt>
      <trkpt lat="46.92706" lon="2.9517">
        <ele>199.35609436035</ele>
        <time>2016-02-03T14:00:32.000Z</time>
      </trkpt>
      <trkpt lat="46.92704" lon="2.95175">
        <ele>199.41256713867</ele>
        <time>2016-02-03T14:00:35.000Z</time>
      </trkpt>
      <trkpt lat="46.92702" lon="2.95178">
        <ele>199.44567871094</ele>
        <time>2016-02-03T14:00:38.000Z</time>
      </trkpt>
      <trkpt lat="46.92701" lon="2.9518">
        <ele>199.4482421875</ele>
        <time>2016-02-03T14:00:40.000Z</time>
      </trkpt>
      <trkpt lat="46.927" lon="2.95184">
        <ele>199.431640625</ele>
        <time>2016-02-03T14:00:43.000Z</time>
      </trkpt>
      <trkpt lat="46.92698" lon="2.95189">
        <ele>199.412109375</ele>
        <time>2016-02-03T14:00:46.000Z</time>
      </trkpt>
      <trkpt lat="46.92694" lon="2.95194">
        <ele>199.388671875</ele>
        <time>2016-02-03T14:00:49.000Z</time>
      </trkpt>
      <trkpt lat="46.92692" lon="2.95198">
        <ele>199.36328125</ele>
        <time>2016-02-03T14:00:52.000Z</time>
      </trkpt>
      <trkpt lat="46.9269" lon="2.95203">
        <ele>199.3349609375</ele>
        <time>2016-02-03T14:00:54.000Z</time>
      </trkpt>
      <trkpt lat="46.92686" lon="2.95208">
        <ele>199.302734375</ele>
        <time>2016-02-03T14:00:57.000Z</time>
      </trkpt>
      <trkpt lat="46.92685" lon="2.95211">
        <ele>199.2724609375</ele>
        <time>2016-02-03T14:00:59.000Z</time>
      </trkpt>
      <trkpt lat="46.92682" lon="2.95215">
        <ele>199.2431640625</ele>
        <time>2016-02-03T14:01:02.000Z</time>
      </trkpt>
      <trkpt lat="46.9268" lon="2.95218">
        <ele>199.2158203125</ele>
        <time>2016-02-03T14:01:04.000Z</time>
      </trkpt>
      <trkpt lat="46.92679" lon="2.95222">
        <ele>199.1904296875</ele>
        <time>2016-02-03T14:01:07.000Z</time>
      </trkpt>
      <trkpt lat="46.92678" lon="2.95227">
        <ele>199.1708984375</ele>
        <time>2016-02-03T14:01:10.000Z</time>
      </trkpt>
      <trkpt lat="46.92678" lon="2.95229">
        <ele>199.154296875</ele>
        <time>2016-02-03T14:01:12.000Z</time>
      </trkpt>
      <trkpt lat="46.92676" lon="2.95232">
        <ele>199.138671875</ele>
        <time>2016-02-03T14:01:14.000Z</time>
      </trkpt>
      <trkpt lat="46.92672" lon="2.95237">
        <ele>199.1201171875</ele>
        <time>2016-02-03T14:01:17.000Z</time>
      </trkpt>
      <trkpt lat="46.9267" lon="2.9524">
        <ele>199.099609375</ele>
        <time>2016-02-03T14:01:19.000Z</time>
      </trkpt>
      <trkpt lat="46.92669" lon="2.95245">
        <ele>199.076171875</ele>
        <time>2016-02-03T14:01:22.000Z</time>
      </trkpt>
      <trkpt lat="46.92666" lon="2.9525">
        <ele>199.04943847656</ele>
        <time>2016-02-03T14:01:25.000Z</time>
      </trkpt>
      <trkpt lat="46.92665" lon="2.95253">
        <ele>199.02914428711</ele>
        <time>2016-02-03T14:01:27.000Z</time>
      </trkpt>
      <trkpt lat="46.92664" lon="2.95258">
        <ele>199.02105712891</ele>
        <time>2016-02-03T14:01:30.000Z</time>
      </trkpt>
      <trkpt lat="46.92662" lon="2.95261">
        <ele>199.02011108398</ele>
        <time>2016-02-03T14:01:32.000Z</time>
      </trkpt>
      <trkpt lat="46.92662" lon="2.95265">
        <ele>199.0302734375</ele>
        <time>2016-02-03T14:01:34.000Z</time>
      </trkpt>
      <trkpt lat="46.92661" lon="2.95269">
        <ele>199.04843139648</ele>
        <time>2016-02-03T14:01:37.000Z</time>
      </trkpt>
      <trkpt lat="46.9266" lon="2.95272">
        <ele>199.07055664062</ele>
        <time>2016-02-03T14:01:39.000Z</time>
      </trkpt>
      <trkpt lat="46.92658" lon="2.95277">
        <ele>199.09359741211</ele>
        <time>2016-02-03T14:01:42.000Z</time>
      </trkpt>
      <trkpt lat="46.92656" lon="2.9528">
        <ele>199.1175994873</ele>
        <time>2016-02-03T14:01:44.000Z</time>
      </trkpt>
      <trkpt lat="46.92654" lon="2.95286">
        <ele>199.14205932617</ele>
        <time>2016-02-03T14:01:47.000Z</time>
      </trkpt>
      <trkpt lat="46.92653" lon="2.95289">
        <ele>199.16600036621</ele>
        <time>2016-02-03T14:01:49.000Z</time>
      </trkpt>
      <trkpt lat="46.92651" lon="2.95292">
        <ele>199.18685913086</ele>
        <time>2016-02-03T14:01:52.000Z</time>
      </trkpt>
      <trkpt lat="46.92649" lon="2.95295">
        <ele>199.2046661377</ele>
        <time>2016-02-03T14:01:54.000Z</time>
      </trkpt>
      <trkpt lat="46.92648" lon="2.953">
        <ele>199.22988891602</ele>
        <time>2016-02-03T14:01:57.000Z</time>
      </trkpt>
      <trkpt lat="46.92644" lon="2.95307">
        <ele>199.25485229492</ele>
        <time>2016-02-03T14:02:00.000Z</time>
      </trkpt>
      <trkpt lat="46.92643" lon="2.95312">
        <ele>199.28829956055</ele>
        <time>2016-02-03T14:02:02.000Z</time>
      </trkpt>
      <trkpt lat="46.92641" lon="2.95316">
        <ele>199.32870483398</ele>
        <time>2016-02-03T14:02:05.000Z</time>
      </trkpt>
      <trkpt lat="46.92641" lon="2.95319">
        <ele>199.37333679199</ele>
        <time>2016-02-03T14:02:07.000Z</time>
      </trkpt>
      <trkpt lat="46.92639" lon="2.95324">
        <ele>199.41987609863</ele>
        <time>2016-02-03T14:02:10.000Z</time>
      </trkpt>
      <trkpt lat="46.92638" lon="2.95327">
        <ele>199.46604919434</ele>
        <time>2016-02-03T14:02:12.000Z</time>
      </trkpt>
      <trkpt lat="46.92635" lon="2.95332">
        <ele>199.51257324219</ele>
        <time>2016-02-03T14:02:15.000Z</time>
      </trkpt>
      <trkpt lat="46.92634" lon="2.95336">
        <ele>199.55599975586</ele>
        <time>2016-02-03T14:02:17.000Z</time>
      </trkpt>
      <trkpt lat="46.92632" lon="2.95339">
        <ele>199.59452819824</ele>
        <time>2016-02-03T14:02:19.000Z</time>
      </trkpt>
      <trkpt lat="46.92628" lon="2.95343">
        <ele>199.62121582031</ele>
        <time>2016-02-03T14:02:22.000Z</time>
      </trkpt>
      <trkpt lat="46.92626" lon="2.95347">
        <ele>199.64642333984</ele>
        <time>2016-02-03T14:02:25.000Z</time>
      </trkpt>
      <trkpt lat="46.92625" lon="2.95349">
        <ele>199.66131591797</ele>
        <time>2016-02-03T14:02:27.000Z</time>
      </trkpt>
      <trkpt lat="46.92622" lon="2.95354">
        <ele>199.67449951172</ele>
        <time>2016-02-03T14:02:30.000Z</time>
      </trkpt>
      <trkpt lat="46.92619" lon="2.95358">
        <ele>199.69049072266</ele>
        <time>2016-02-03T14:02:33.000Z</time>
      </trkpt>
      <trkpt lat="46.92618" lon="2.95362">
        <ele>199.7109375</ele>
        <time>2016-02-03T14:02:35.000Z</time>
      </trkpt>
      <trkpt lat="46.92617" lon="2.95365">
        <ele>199.73193359375</ele>
        <time>2016-02-03T14:02:37.000Z</time>
      </trkpt>
      <trkpt lat="46.92616" lon="2.95368">
        <ele>199.75537109375</ele>
        <time>2016-02-03T14:02:39.000Z</time>
      </trkpt>
      <trkpt lat="46.92613" lon="2.95373">
        <ele>199.78009033203</ele>
        <time>2016-02-03T14:02:42.000Z</time>
      </trkpt>
      <trkpt lat="46.92611" lon="2.95378">
        <ele>199.80682373047</ele>
        <time>2016-02-03T14:02:45.000Z</time>
      </trkpt>
      <trkpt lat="46.92609" lon="2.95384">
        <ele>199.8369140625</ele>
        <time>2016-02-03T14:02:48.000Z</time>
      </trkpt>
      <trkpt lat="46.92607" lon="2.95389">
        <ele>199.87115478516</ele>
        <time>2016-02-03T14:02:51.000Z</time>
      </trkpt>
      <trkpt lat="46.92606" lon="2.95395">
        <ele>199.91271972656</ele>
        <time>2016-02-03T14:02:54.000Z</time>
      </trkpt>
      <trkpt lat="46.92605" lon="2.95398">
        <ele>199.95440673828</ele>
        <time>2016-02-03T14:02:56.000Z</time>
      </trkpt>
      <trkpt lat="46.92604" lon="2.95403">
        <ele>199.99792480469</ele>
        <time>2016-02-03T14:02:59.000Z</time>
      </trkpt>
      <trkpt lat="46.92602" lon="2.95406">
        <ele>200.03503417969</ele>
        <time>2016-02-03T14:03:01.000Z</time>
      </trkpt>
      <trkpt lat="46.926" lon="2.9541">
        <ele>200.06890869141</ele>
        <time>2016-02-03T14:03:04.000Z</time>
      </trkpt>
      <trkpt lat="46.92599" lon="2.95413">
        <ele>200.09533691406</ele>
        <time>2016-02-03T14:03:06.000Z</time>
      </trkpt>
      <trkpt lat="46.92599" lon="2.95415">
        <ele>200.11950683594</ele>
        <time>2016-02-03T14:03:08.000Z</time>
      </trkpt>
      <trkpt lat="46.92598" lon="2.9542">
        <ele>200.13861083984</ele>
        <time>2016-02-03T14:03:11.000Z</time>
      </trkpt>
      <trkpt lat="46.92598" lon="2.95423">
        <ele>200.15466308594</ele>
        <time>2016-02-03T14:03:13.000Z</time>
      </trkpt>
      <trkpt lat="46.92596" lon="2.95426">
        <ele>200.16174316406</ele>
        <time>2016-02-03T14:03:16.000Z</time>
      </trkpt>
      <trkpt lat="46.92595" lon="2.95431">
        <ele>200.16088867188</ele>
        <time>2016-02-03T14:03:19.000Z</time>
      </trkpt>
      <trkpt lat="46.92593" lon="2.95434">
        <ele>200.1533203125</ele>
        <time>2016-02-03T14:03:22.000Z</time>
      </trkpt>
      <trkpt lat="46.92593" lon="2.95438">
        <ele>200.1416015625</ele>
        <time>2016-02-03T14:03:24.000Z</time>
      </trkpt>
      <trkpt lat="46.92594" lon="2.95443">
        <ele>200.1328125</ele>
        <time>2016-02-03T14:03:27.000Z</time>
      </trkpt>
      <trkpt lat="46.92599" lon="2.95449">
        <ele>200.1396484375</ele>
        <time>2016-02-03T14:03:30.000Z</time>
      </trkpt>
      <trkpt lat="46.92602" lon="2.95453">
        <ele>200.15625</ele>
        <time>2016-02-03T14:03:32.000Z</time>
      </trkpt>
      <trkpt lat="46.92605" lon="2.95456">
        <ele>200.1845703125</ele>
        <time>2016-02-03T14:03:35.000Z</time>
      </trkpt>
      <trkpt lat="46.92609" lon="2.95462">
        <ele>200.2236328125</ele>
        <time>2016-02-03T14:03:38.000Z</time>
      </trkpt>
      <trkpt lat="46.92613" lon="2.95464">
        <ele>200.2685546875</ele>
        <time>2016-02-03T14:03:41.000Z</time>
      </trkpt>
      <trkpt lat="46.92614" lon="2.95466">
        <ele>200.3046875</ele>
        <time>2016-02-03T14:03:43.000Z</time>
      </trkpt>
      <trkpt lat="46.92618" lon="2.9547">
        <ele>200.34375</ele>
        <time>2016-02-03T14:03:46.000Z</time>
      </trkpt>
      <trkpt lat="46.9262" lon="2.95472">
        <ele>200.37890625</ele>
        <time>2016-02-03T14:03:48.000Z</time>
      </trkpt>
      <trkpt lat="46.92622" lon="2.95473">
        <ele>200.4091796875</ele>
        <time>2016-02-03T14:03:50.000Z</time>
      </trkpt>
      <trkpt lat="46.92623" lon="2.95474">
        <ele>200.4345703125</ele>
        <time>2016-02-03T14:03:52.000Z</time>
      </trkpt>
      <trkpt lat="46.92625" lon="2.95474">
        <ele>200.4599609375</ele>
        <time>2016-02-03T14:03:54.000Z</time>
      </trkpt>
      <trkpt lat="46.92628" lon="2.95476">
        <ele>200.4833984375</ele>
        <time>2016-02-03T14:03:57.000Z</time>
      </trkpt>
      <trkpt lat="46.9263" lon="2.95479">
        <ele>200.5078125</ele>
        <time>2016-02-03T14:04:00.000Z</time>
      </trkpt>
      <trkpt lat="46.92633" lon="2.95483">
        <ele>200.53515625</ele>
        <time>2016-02-03T14:04:03.000Z</time>
      </trkpt>
      <trkpt lat="46.92637" lon="2.95487">
        <ele>200.5673828125</ele>
        <time>2016-02-03T14:04:06.000Z</time>
      </trkpt>
      <trkpt lat="46.92639" lon="2.95489">
        <ele>200.6015625</ele>
        <time>2016-02-03T14:04:08.000Z</time>
      </trkpt>
      <trkpt lat="46.92644" lon="2.95492">
        <ele>200.6396484375</ele>
        <time>2016-02-03T14:04:11.000Z</time>
      </trkpt>
      <trkpt lat="46.92646" lon="2.95494">
        <ele>200.6787109375</ele>
        <time>2016-02-03T14:04:13.000Z</time>
      </trkpt>
      <trkpt lat="46.92648" lon="2.95496">
        <ele>200.7138671875</ele>
        <time>2016-02-03T14:04:15.000Z</time>
      </trkpt>
      <trkpt lat="46.92651" lon="2.95498">
        <ele>200.7470703125</ele>
        <time>2016-02-03T14:04:18.000Z</time>
      </trkpt>
      <trkpt lat="46.92652" lon="2.955">
        <ele>200.77847290039</ele>
        <time>2016-02-03T14:04:21.000Z</time>
      </trkpt>
      <trkpt lat="46.92653" lon="2.95502">
        <ele>200.80876159668</ele>
        <time>2016-02-03T14:04:23.000Z</time>
      </trkpt>
      <trkpt lat="46.92655" lon="2.95504">
        <ele>200.84834289551</ele>
        <time>2016-02-03T14:04:26.000Z</time>
      </trkpt>
      <trkpt lat="46.92656" lon="2.95506">
        <ele>200.8942565918</ele>
        <time>2016-02-03T14:04:29.000Z</time>
      </trkpt>
      <trkpt lat="46.92657" lon="2.95509">
        <ele>200.95166015625</ele>
        <time>2016-02-03T14:04:31.000Z</time>
      </trkpt>
      <trkpt lat="46.9266" lon="2.95512">
        <ele>201.02856445312</ele>
        <time>2016-02-03T14:04:33.000Z</time>
      </trkpt>
      <trkpt lat="46.92664" lon="2.95515">
        <ele>201.11975097656</ele>
        <time>2016-02-03T14:04:35.000Z</time>
      </trkpt>
      <trkpt lat="46.92666" lon="2.95518">
        <ele>201.21411132812</ele>
        <time>2016-02-03T14:04:38.000Z</time>
      </trkpt>
      <trkpt lat="46.92669" lon="2.9552">
        <ele>201.326171875</ele>
        <time>2016-02-03T14:04:40.000Z</time>
      </trkpt>
      <trkpt lat="46.9267" lon="2.95521">
        <ele>201.44882202148</ele>
        <time>2016-02-03T14:04:42.000Z</time>
      </trkpt>
      <trkpt lat="46.92674" lon="2.95525">
        <ele>201.60612487793</ele>
        <time>2016-02-03T14:04:45.000Z</time>
      </trkpt>
      <trkpt lat="46.92677" lon="2.95528">
        <ele>201.7878112793</ele>
        <time>2016-02-03T14:04:48.000Z</time>
      </trkpt>
      <trkpt lat="46.92681" lon="2.9553">
        <ele>201.99140930176</ele>
        <time>2016-02-03T14:04:51.000Z</time>
      </trkpt>
      <trkpt lat="46.92683" lon="2.95531">
        <ele>202.19741821289</ele>
        <time>2016-02-03T14:04:53.000Z</time>
      </trkpt>
      <trkpt lat="46.92685" lon="2.95534">
        <ele>202.41052246094</ele>
        <time>2016-02-03T14:04:56.000Z</time>
      </trkpt>
      <trkpt lat="46.92686" lon="2.95537">
        <ele>202.59631347656</ele>
        <time>2016-02-03T14:04:58.000Z</time>
      </trkpt>
      <trkpt lat="46.92688" lon="2.9554">
        <ele>202.76791381836</ele>
        <time>2016-02-03T14:05:01.000Z</time>
      </trkpt>
      <trkpt lat="46.92689" lon="2.95542">
        <ele>202.91883850098</ele>
        <time>2016-02-03T14:05:03.000Z</time>
      </trkpt>
      <trkpt lat="46.9269" lon="2.95544">
        <ele>203.06784057617</ele>
        <time>2016-02-03T14:05:05.000Z</time>
      </trkpt>
      <trkpt lat="46.92694" lon="2.95548">
        <ele>203.23774719238</ele>
        <time>2016-02-03T14:05:08.000Z</time>
      </trkpt>
      <trkpt lat="46.92697" lon="2.95553">
        <ele>203.44174194336</ele>
        <time>2016-02-03T14:05:11.000Z</time>
      </trkpt>
      <trkpt lat="46.92699" lon="2.95556">
        <ele>203.65950012207</ele>
        <time>2016-02-03T14:05:13.000Z</time>
      </trkpt>
      <trkpt lat="46.92703" lon="2.95562">
        <ele>203.93446350098</ele>
        <time>2016-02-03T14:05:17.000Z</time>
      </trkpt>
      <trkpt lat="46.92707" lon="2.95565">
        <ele>204.24339294434</ele>
        <time>2016-02-03T14:05:19.000Z</time>
      </trkpt>
      <trkpt lat="46.92709" lon="2.95567">
        <ele>204.53153991699</ele>
        <time>2016-02-03T14:05:21.000Z</time>
      </trkpt>
      <trkpt lat="46.92713" lon="2.95571">
        <ele>204.82112121582</ele>
        <time>2016-02-03T14:05:24.000Z</time>
      </trkpt>
      <trkpt lat="46.92715" lon="2.95575">
        <ele>205.12002563477</ele>
        <time>2016-02-03T14:05:27.000Z</time>
      </trkpt>
      <trkpt lat="46.92717" lon="2.95579">
        <ele>205.37748718262</ele>
        <time>2016-02-03T14:05:30.000Z</time>
      </trkpt>
      <trkpt lat="46.92719" lon="2.95582">
        <ele>205.61685180664</ele>
        <time>2016-02-03T14:05:32.000Z</time>
      </trkpt>
      <trkpt lat="46.92722" lon="2.95587">
        <ele>205.86344909668</ele>
        <time>2016-02-03T14:05:35.000Z</time>
      </trkpt>
      <trkpt lat="46.92723" lon="2.95589">
        <ele>206.05947875977</ele>
        <time>2016-02-03T14:05:37.000Z</time>
      </trkpt>
      <trkpt lat="46.92725" lon="2.95591">
        <ele>206.22431945801</ele>
        <time>2016-02-03T14:05:39.000Z</time>
      </trkpt>
      <trkpt lat="46.92726" lon="2.95594">
        <ele>206.37393188477</ele>
        <time>2016-02-03T14:05:42.000Z</time>
      </trkpt>
      <trkpt lat="46.92728" lon="2.95595">
        <ele>206.49894714355</ele>
        <time>2016-02-03T14:05:44.000Z</time>
      </trkpt>
      <trkpt lat="46.92731" lon="2.95598">
        <ele>206.62126159668</ele>
        <time>2016-02-03T14:05:47.000Z</time>
      </trkpt>
      <trkpt lat="46.92733" lon="2.95601">
        <ele>206.75273132324</ele>
        <time>2016-02-03T14:05:49.000Z</time>
      </trkpt>
      <trkpt lat="46.92736" lon="2.95606">
        <ele>206.8974609375</ele>
        <time>2016-02-03T14:05:52.000Z</time>
      </trkpt>
      <trkpt lat="46.92739" lon="2.95608">
        <ele>207.0495300293</ele>
        <time>2016-02-03T14:05:54.000Z</time>
      </trkpt>
      <trkpt lat="46.92741" lon="2.95611">
        <ele>207.21028137207</ele>
        <time>2016-02-03T14:05:57.000Z</time>
      </trkpt>
      <trkpt lat="46.92743" lon="2.95613">
        <ele>207.34545898438</ele>
        <time>2016-02-03T14:05:59.000Z</time>
      </trkpt>
      <trkpt lat="46.92744" lon="2.95615">
        <ele>207.47409057617</ele>
        <time>2016-02-03T14:06:01.000Z</time>
      </trkpt>
      <trkpt lat="46.92747" lon="2.95619">
        <ele>207.59091186523</ele>
        <time>2016-02-03T14:06:04.000Z</time>
      </trkpt>
      <trkpt lat="46.92748" lon="2.95622">
        <ele>207.69731140137</ele>
        <time>2016-02-03T14:06:06.000Z</time>
      </trkpt>
      <trkpt lat="46.9275" lon="2.95626">
        <ele>207.79597473145</ele>
        <time>2016-02-03T14:06:09.000Z</time>
      </trkpt>
      <trkpt lat="46.92752" lon="2.95629">
        <ele>207.89025878906</ele>
        <time>2016-02-03T14:06:11.000Z</time>
      </trkpt>
      <trkpt lat="46.92754" lon="2.95631">
        <ele>207.97192382812</ele>
        <time>2016-02-03T14:06:13.000Z</time>
      </trkpt>
      <trkpt lat="46.92757" lon="2.95635">
        <ele>208.04183959961</ele>
        <time>2016-02-03T14:06:16.000Z</time>
      </trkpt>
      <trkpt lat="46.92759" lon="2.95641">
        <ele>208.10546875</ele>
        <time>2016-02-03T14:06:19.000Z</time>
      </trkpt>
      <trkpt lat="46.92761" lon="2.95644">
        <ele>208.158203125</ele>
        <time>2016-02-03T14:06:21.000Z</time>
      </trkpt>
      <trkpt lat="46.92763" lon="2.95646">
        <ele>208.208984375</ele>
        <time>2016-02-03T14:06:23.000Z</time>
      </trkpt>
      <trkpt lat="46.92765" lon="2.9565">
        <ele>208.265625</ele>
        <time>2016-02-03T14:06:26.000Z</time>
      </trkpt>
      <trkpt lat="46.92768" lon="2.95654">
        <ele>208.3203125</ele>
        <time>2016-02-03T14:06:29.000Z</time>
      </trkpt>
      <trkpt lat="46.92771" lon="2.95657">
        <ele>208.376953125</ele>
        <time>2016-02-03T14:06:32.000Z</time>
      </trkpt>
      <trkpt lat="46.92773" lon="2.9566">
        <ele>208.43359375</ele>
        <time>2016-02-03T14:06:34.000Z</time>
      </trkpt>
      <trkpt lat="46.92775" lon="2.95664">
        <ele>208.494140625</ele>
        <time>2016-02-03T14:06:37.000Z</time>
      </trkpt>
      <trkpt lat="46.92778" lon="2.95666">
        <ele>208.552734375</ele>
        <time>2016-02-03T14:06:39.000Z</time>
      </trkpt>
      <trkpt lat="46.9278" lon="2.95669">
        <ele>208.61616516113</ele>
        <time>2016-02-03T14:06:41.000Z</time>
      </trkpt>
      <trkpt lat="46.92782" lon="2.95672">
        <ele>208.6870880127</ele>
        <time>2016-02-03T14:06:44.000Z</time>
      </trkpt>
      <trkpt lat="46.92784" lon="2.95674">
        <ele>208.76354980469</ele>
        <time>2016-02-03T14:06:46.000Z</time>
      </trkpt>
      <trkpt lat="46.92787" lon="2.95679">
        <ele>208.86054992676</ele>
        <time>2016-02-03T14:06:49.000Z</time>
      </trkpt>
      <trkpt lat="46.92789" lon="2.95681">
        <ele>208.96496582031</ele>
        <time>2016-02-03T14:06:52.000Z</time>
      </trkpt>
      <trkpt lat="46.92792" lon="2.95685">
        <ele>209.08154296875</ele>
        <time>2016-02-03T14:06:55.000Z</time>
      </trkpt>
      <trkpt lat="46.92793" lon="2.95686">
        <ele>209.18936157227</ele>
        <time>2016-02-03T14:06:57.000Z</time>
      </trkpt>
      <trkpt lat="46.92796" lon="2.95691">
        <ele>209.31372070312</ele>
        <time>2016-02-03T14:07:00.000Z</time>
      </trkpt>
      <trkpt lat="46.92797" lon="2.95693">
        <ele>209.42074584961</ele>
        <time>2016-02-03T14:07:02.000Z</time>
      </trkpt>
      <trkpt lat="46.928" lon="2.95697">
        <ele>209.54037475586</ele>
        <time>2016-02-03T14:07:05.000Z</time>
      </trkpt>
      <trkpt lat="46.92802" lon="2.95699">
        <ele>209.65036010742</ele>
        <time>2016-02-03T14:07:07.000Z</time>
      </trkpt>
      <trkpt lat="46.92803" lon="2.95702">
        <ele>209.76420593262</ele>
        <time>2016-02-03T14:07:09.000Z</time>
      </trkpt>
      <trkpt lat="46.92806" lon="2.95704">
        <ele>209.87365722656</ele>
        <time>2016-02-03T14:07:12.000Z</time>
      </trkpt>
      <trkpt lat="46.92808" lon="2.95706">
        <ele>209.98286437988</ele>
        <time>2016-02-03T14:07:14.000Z</time>
      </trkpt>
      <trkpt lat="46.9281" lon="2.95709">
        <ele>210.08857727051</ele>
        <time>2016-02-03T14:07:17.000Z</time>
      </trkpt>
      <trkpt lat="46.92813" lon="2.95712">
        <ele>210.2064666748</ele>
        <time>2016-02-03T14:07:20.000Z</time>
      </trkpt>
      <trkpt lat="46.92816" lon="2.95715">
        <ele>210.33833312988</ele>
        <time>2016-02-03T14:07:23.000Z</time>
      </trkpt>
      <trkpt lat="46.92818" lon="2.95717">
        <ele>210.46655273438</ele>
        <time>2016-02-03T14:07:25.000Z</time>
      </trkpt>
      <trkpt lat="46.92823" lon="2.9572">
        <ele>210.62295532227</ele>
        <time>2016-02-03T14:07:28.000Z</time>
      </trkpt>
      <trkpt lat="46.92827" lon="2.95725">
        <ele>210.79875183105</ele>
        <time>2016-02-03T14:07:31.000Z</time>
      </trkpt>
      <trkpt lat="46.9283" lon="2.95727">
        <ele>210.97009277344</ele>
        <time>2016-02-03T14:07:33.000Z</time>
      </trkpt>
      <trkpt lat="46.92833" lon="2.95731">
        <ele>211.150390625</ele>
        <time>2016-02-03T14:07:36.000Z</time>
      </trkpt>
      <trkpt lat="46.92834" lon="2.95732">
        <ele>211.31669616699</ele>
        <time>2016-02-03T14:07:38.000Z</time>
      </trkpt>
      <trkpt lat="46.92835" lon="2.95734">
        <ele>211.45947265625</ele>
        <time>2016-02-03T14:07:41.000Z</time>
      </trkpt>
      <trkpt lat="46.92837" lon="2.95738">
        <ele>211.58525085449</ele>
        <time>2016-02-03T14:07:44.000Z</time>
      </trkpt>
      <trkpt lat="46.92838" lon="2.95741">
        <ele>211.69673156738</ele>
        <time>2016-02-03T14:07:46.000Z</time>
      </trkpt>
      <trkpt lat="46.9284" lon="2.95744">
        <ele>211.79223632812</ele>
        <time>2016-02-03T14:07:49.000Z</time>
      </trkpt>
      <trkpt lat="46.92842" lon="2.95746">
        <ele>211.89929199219</ele>
        <time>2016-02-03T14:07:51.000Z</time>
      </trkpt>
      <trkpt lat="46.92844" lon="2.95748">
        <ele>212.0029296875</ele>
        <time>2016-02-03T14:07:53.000Z</time>
      </trkpt>
      <trkpt lat="46.92847" lon="2.95751">
        <ele>212.10713195801</ele>
        <time>2016-02-03T14:07:56.000Z</time>
      </trkpt>
      <trkpt lat="46.9285" lon="2.95755">
        <ele>212.21646118164</ele>
        <time>2016-02-03T14:07:59.000Z</time>
      </trkpt>
      <trkpt lat="46.92852" lon="2.95757">
        <ele>212.31550598145</ele>
        <time>2016-02-03T14:08:01.000Z</time>
      </trkpt>
      <trkpt lat="46.92853" lon="2.95758">
        <ele>212.40176391602</ele>
        <time>2016-02-03T14:08:04.000Z</time>
      </trkpt>
      <trkpt lat="46.92854" lon="2.95759">
        <ele>212.4782409668</ele>
        <time>2016-02-03T14:08:07.000Z</time>
      </trkpt>
      <trkpt lat="46.92855" lon="2.95757">
        <ele>212.52755737305</ele>
        <time>2016-02-03T14:08:17.000Z</time>
      </trkpt>
      <trkpt lat="46.92855" lon="2.95757">
        <ele>212.52755737305</ele>
        <time>2016-02-03T14:08:37.000Z</time>
      </trkpt>
      <trkpt lat="46.92856" lon="2.95757">
        <ele>212.56181335449</ele>
        <time>2016-02-03T14:08:53.000Z</time>
      </trkpt>
      <trkpt lat="46.92856" lon="2.95757">
        <ele>212.56181335449</ele>
        <time>2016-02-03T14:09:13.000Z</time>
      </trkpt>
      <trkpt lat="46.92853" lon="2.95763">
        <ele>212.57998657227</ele>
        <time>2016-02-03T14:09:23.000Z</time>
      </trkpt>
      <trkpt lat="46.92854" lon="2.95765">
        <ele>212.59432983398</ele>
        <time>2016-02-03T14:09:39.000Z</time>
      </trkpt>
      <trkpt lat="46.92855" lon="2.95765">
        <ele>212.61054992676</ele>
        <time>2016-02-03T14:09:43.000Z</time>
      </trkpt>
      <trkpt lat="46.92859" lon="2.95764">
        <ele>212.64807128906</ele>
        <time>2016-02-03T14:09:56.000Z</time>
      </trkpt>
      <trkpt lat="46.92859" lon="2.95764">
        <ele>212.64807128906</ele>
        <time>2016-02-03T14:10:16.000Z</time>
      </trkpt>
      <trkpt lat="46.92858" lon="2.95765">
        <ele>212.67749023438</ele>
        <time>2016-02-03T14:10:58.000Z</time>
      </trkpt>
      <trkpt lat="46.92857" lon="2.95764">
        <ele>212.70039367676</ele>
        <time>2016-02-03T14:11:01.000Z</time>
      </trkpt>
      <trkpt lat="46.92856" lon="2.95761">
        <ele>212.7053527832</ele>
        <time>2016-02-03T14:11:11.000Z</time>
      </trkpt>
      <trkpt lat="46.92857" lon="2.95761">
        <ele>212.70983886719</ele>
        <time>2016-02-03T14:11:27.000Z</time>
      </trkpt>
      <trkpt lat="46.92861" lon="2.95763">
        <ele>212.71850585938</ele>
        <time>2016-02-03T14:11:30.000Z</time>
      </trkpt>
      <trkpt lat="46.92863" lon="2.95764">
        <ele>212.74263000488</ele>
        <time>2016-02-03T14:11:32.000Z</time>
      </trkpt>
      <trkpt lat="46.92864" lon="2.95763">
        <ele>212.78305053711</ele>
        <time>2016-02-03T14:11:34.000Z</time>
      </trkpt>
      <trkpt lat="46.92866" lon="2.95763">
        <ele>212.84660339355</ele>
        <time>2016-02-03T14:11:37.000Z</time>
      </trkpt>
      <trkpt lat="46.9287" lon="2.95763">
        <ele>212.93156433105</ele>
        <time>2016-02-03T14:11:40.000Z</time>
      </trkpt>
      <trkpt lat="46.92872" lon="2.95765">
        <ele>213.00280761719</ele>
        <time>2016-02-03T14:11:42.000Z</time>
      </trkpt>
      <trkpt lat="46.92874" lon="2.95767">
        <ele>213.08100891113</ele>
        <time>2016-02-03T14:11:45.000Z</time>
      </trkpt>
      <trkpt lat="46.92875" lon="2.95766">
        <ele>213.15707397461</ele>
        <time>2016-02-03T14:11:48.000Z</time>
      </trkpt>
      <trkpt lat="46.92878" lon="2.95764">
        <ele>213.236328125</ele>
        <time>2016-02-03T14:11:51.000Z</time>
      </trkpt>
      <trkpt lat="46.9288" lon="2.95763">
        <ele>213.29336547852</ele>
        <time>2016-02-03T14:11:53.000Z</time>
      </trkpt>
      <trkpt lat="46.92883" lon="2.95762">
        <ele>213.3501739502</ele>
        <time>2016-02-03T14:11:56.000Z</time>
      </trkpt>
      <trkpt lat="46.92886" lon="2.9576">
        <ele>213.39826965332</ele>
        <time>2016-02-03T14:11:59.000Z</time>
      </trkpt>
      <trkpt lat="46.92887" lon="2.95759">
        <ele>213.44174194336</ele>
        <time>2016-02-03T14:12:01.000Z</time>
      </trkpt>
      <trkpt lat="46.92891" lon="2.95759">
        <ele>213.49264526367</ele>
        <time>2016-02-03T14:12:04.000Z</time>
      </trkpt>
      <trkpt lat="46.92894" lon="2.95759">
        <ele>213.54940795898</ele>
        <time>2016-02-03T14:12:07.000Z</time>
      </trkpt>
      <trkpt lat="46.92897" lon="2.95758">
        <ele>213.60690307617</ele>
        <time>2016-02-03T14:12:10.000Z</time>
      </trkpt>
      <trkpt lat="46.92898" lon="2.95758">
        <ele>213.65995788574</ele>
        <time>2016-02-03T14:12:12.000Z</time>
      </trkpt>
      <trkpt lat="46.92901" lon="2.95757">
        <ele>213.72055053711</ele>
        <time>2016-02-03T14:12:15.000Z</time>
      </trkpt>
      <trkpt lat="46.92903" lon="2.95756">
        <ele>213.77111816406</ele>
        <time>2016-02-03T14:12:17.000Z</time>
      </trkpt>
      <trkpt lat="46.92906" lon="2.95756">
        <ele>213.82348632812</ele>
        <time>2016-02-03T14:12:20.000Z</time>
      </trkpt>
      <trkpt lat="46.9291" lon="2.95756">
        <ele>213.88186645508</ele>
        <time>2016-02-03T14:12:23.000Z</time>
      </trkpt>
      <trkpt lat="46.92913" lon="2.95757">
        <ele>213.96281433105</ele>
        <time>2016-02-03T14:12:26.000Z</time>
      </trkpt>
      <trkpt lat="46.92916" lon="2.95758">
        <ele>214.0544128418</ele>
        <time>2016-02-03T14:12:28.000Z</time>
      </trkpt>
      <trkpt lat="46.92918" lon="2.95759">
        <ele>214.13891601562</ele>
        <time>2016-02-03T14:12:30.000Z</time>
      </trkpt>
      <trkpt lat="46.92924" lon="2.9576">
        <ele>214.1879119873</ele>
        <time>2016-02-03T14:12:33.000Z</time>
      </trkpt>
      <trkpt lat="46.92927" lon="2.9576">
        <ele>214.19839477539</ele>
        <time>2016-02-03T14:12:36.000Z</time>
      </trkpt>
      <trkpt lat="46.9293" lon="2.95761">
        <ele>214.16647338867</ele>
        <time>2016-02-03T14:12:38.000Z</time>
      </trkpt>
      <trkpt lat="46.92934" lon="2.95762">
        <ele>214.10021972656</ele>
        <time>2016-02-03T14:12:41.000Z</time>
      </trkpt>
      <trkpt lat="46.92936" lon="2.95762">
        <ele>214.01786804199</ele>
        <time>2016-02-03T14:12:44.000Z</time>
      </trkpt>
      <trkpt lat="46.9294" lon="2.95761">
        <ele>213.93061828613</ele>
        <time>2016-02-03T14:12:47.000Z</time>
      </trkpt>
      <trkpt lat="46.92942" lon="2.95761">
        <ele>213.84378051758</ele>
        <time>2016-02-03T14:12:50.000Z</time>
      </trkpt>
      <trkpt lat="46.92944" lon="2.95761">
        <ele>213.76119995117</ele>
        <time>2016-02-03T14:12:52.000Z</time>
      </trkpt>
      <trkpt lat="46.92946" lon="2.95761">
        <ele>213.68423461914</ele>
        <time>2016-02-03T14:12:55.000Z</time>
      </trkpt>
      <trkpt lat="46.92949" lon="2.95762">
        <ele>213.60717773438</ele>
        <time>2016-02-03T14:12:57.000Z</time>
      </trkpt>
      <trkpt lat="46.92952" lon="2.95761">
        <ele>213.53530883789</ele>
        <time>2016-02-03T14:13:00.000Z</time>
      </trkpt>
      <trkpt lat="46.92953" lon="2.95762">
        <ele>213.47573852539</ele>
        <time>2016-02-03T14:13:02.000Z</time>
      </trkpt>
      <trkpt lat="46.92957" lon="2.95763">
        <ele>213.4104309082</ele>
        <time>2016-02-03T14:13:05.000Z</time>
      </trkpt>
      <trkpt lat="46.92961" lon="2.95764">
        <ele>213.3356628418</ele>
        <time>2016-02-03T14:13:08.000Z</time>
      </trkpt>
      <trkpt lat="46.92963" lon="2.95764">
        <ele>213.25886535645</ele>
        <time>2016-02-03T14:13:10.000Z</time>
      </trkpt>
      <trkpt lat="46.92966" lon="2.95765">
        <ele>213.18655395508</ele>
        <time>2016-02-03T14:13:13.000Z</time>
      </trkpt>
      <trkpt lat="46.92971" lon="2.95765">
        <ele>213.08837890625</ele>
        <time>2016-02-03T14:13:16.000Z</time>
      </trkpt>
      <trkpt lat="46.92974" lon="2.95764">
        <ele>212.99189758301</ele>
        <time>2016-02-03T14:13:18.000Z</time>
      </trkpt>
      <trkpt lat="46.92976" lon="2.95764">
        <ele>212.89712524414</ele>
        <time>2016-02-03T14:13:20.000Z</time>
      </trkpt>
      <trkpt lat="46.9298" lon="2.95763">
        <ele>212.79447937012</ele>
        <time>2016-02-03T14:13:23.000Z</time>
      </trkpt>
      <trkpt lat="46.92984" lon="2.95764">
        <ele>212.68713378906</ele>
        <time>2016-02-03T14:13:26.000Z</time>
      </trkpt>
      <trkpt lat="46.92989" lon="2.95764">
        <ele>212.58193969727</ele>
        <time>2016-02-03T14:13:29.000Z</time>
      </trkpt>
      <trkpt lat="46.92991" lon="2.95764">
        <ele>212.47856140137</ele>
        <time>2016-02-03T14:13:31.000Z</time>
      </trkpt>
      <trkpt lat="46.92995" lon="2.95763">
        <ele>212.36408996582</ele>
        <time>2016-02-03T14:13:34.000Z</time>
      </trkpt>
      <trkpt lat="46.93" lon="2.95764">
        <ele>212.24597167969</ele>
        <time>2016-02-03T14:13:36.000Z</time>
      </trkpt>
      <trkpt lat="46.93005" lon="2.95764">
        <ele>212.1344909668</ele>
        <time>2016-02-03T14:13:39.000Z</time>
      </trkpt>
      <trkpt lat="46.93008" lon="2.95765">
        <ele>212.04133605957</ele>
        <time>2016-02-03T14:13:42.000Z</time>
      </trkpt>
      <trkpt lat="46.93011" lon="2.95765">
        <ele>211.9494934082</ele>
        <time>2016-02-03T14:13:45.000Z</time>
      </trkpt>
      <trkpt lat="46.93014" lon="2.95766">
        <ele>211.87702941895</ele>
        <time>2016-02-03T14:13:47.000Z</time>
      </trkpt>
      <trkpt lat="46.93017" lon="2.95767">
        <ele>211.81881713867</ele>
        <time>2016-02-03T14:13:50.000Z</time>
      </trkpt>
      <trkpt lat="46.9302" lon="2.95767">
        <ele>211.76528930664</ele>
        <time>2016-02-03T14:13:52.000Z</time>
      </trkpt>
      <trkpt lat="46.93024" lon="2.95767">
        <ele>211.70886230469</ele>
        <time>2016-02-03T14:13:55.000Z</time>
      </trkpt>
      <trkpt lat="46.93026" lon="2.95768">
        <ele>211.65608215332</ele>
        <time>2016-02-03T14:13:57.000Z</time>
      </trkpt>
      <trkpt lat="46.93028" lon="2.95768">
        <ele>211.60627746582</ele>
        <time>2016-02-03T14:13:59.000Z</time>
      </trkpt>
      <trkpt lat="46.93033" lon="2.95769">
        <ele>211.55014038086</ele>
        <time>2016-02-03T14:14:02.000Z</time>
      </trkpt>
      <trkpt lat="46.93036" lon="2.95768">
        <ele>211.4938659668</ele>
        <time>2016-02-03T14:14:04.000Z</time>
      </trkpt>
      <trkpt lat="46.93039" lon="2.95768">
        <ele>211.44296264648</ele>
        <time>2016-02-03T14:14:06.000Z</time>
      </trkpt>
      <trkpt lat="46.93042" lon="2.95767">
        <ele>211.39047241211</ele>
        <time>2016-02-03T14:14:08.000Z</time>
      </trkpt>
      <trkpt lat="46.93045" lon="2.95767">
        <ele>211.33419799805</ele>
        <time>2016-02-03T14:14:11.000Z</time>
      </trkpt>
      <trkpt lat="46.93048" lon="2.95766">
        <ele>211.2894744873</ele>
        <time>2016-02-03T14:14:13.000Z</time>
      </trkpt>
      <trkpt lat="46.93051" lon="2.95766">
        <ele>211.24319458008</ele>
        <time>2016-02-03T14:14:15.000Z</time>
      </trkpt>
      <trkpt lat="46.93056" lon="2.95766">
        <ele>211.18864440918</ele>
        <time>2016-02-03T14:14:18.000Z</time>
      </trkpt>
      <trkpt lat="46.93059" lon="2.95766">
        <ele>211.1337890625</ele>
        <time>2016-02-03T14:14:20.000Z</time>
      </trkpt>
      <trkpt lat="46.93063" lon="2.95767">
        <ele>211.07250976562</ele>
        <time>2016-02-03T14:14:23.000Z</time>
      </trkpt>
      <trkpt lat="46.93066" lon="2.95768">
        <ele>211.00772094727</ele>
        <time>2016-02-03T14:14:25.000Z</time>
      </trkpt>
      <trkpt lat="46.93068" lon="2.95768">
        <ele>210.9426574707</ele>
        <time>2016-02-03T14:14:28.000Z</time>
      </trkpt>
      <trkpt lat="46.93072" lon="2.95769">
        <ele>210.87870788574</ele>
        <time>2016-02-03T14:14:31.000Z</time>
      </trkpt>
      <trkpt lat="46.93077" lon="2.9577">
        <ele>210.80282592773</ele>
        <time>2016-02-03T14:14:33.000Z</time>
      </trkpt>
      <trkpt lat="46.93081" lon="2.95771">
        <ele>210.72695922852</ele>
        <time>2016-02-03T14:14:36.000Z</time>
      </trkpt>
      <trkpt lat="46.93084" lon="2.95771">
        <ele>210.64448547363</ele>
        <time>2016-02-03T14:14:39.000Z</time>
      </trkpt>
      <trkpt lat="46.93085" lon="2.95771">
        <ele>210.56047058105</ele>
        <time>2016-02-03T14:14:41.000Z</time>
      </trkpt>
      <trkpt lat="46.9309" lon="2.95772">
        <ele>210.4506072998</ele>
        <time>2016-02-03T14:14:44.000Z</time>
      </trkpt>
      <trkpt lat="46.93093" lon="2.95773">
        <ele>210.33480834961</ele>
        <time>2016-02-03T14:14:46.000Z</time>
      </trkpt>
      <trkpt lat="46.93097" lon="2.95772">
        <ele>210.20712280273</ele>
        <time>2016-02-03T14:14:49.000Z</time>
      </trkpt>
      <trkpt lat="46.931" lon="2.95771">
        <ele>210.07356262207</ele>
        <time>2016-02-03T14:14:52.000Z</time>
      </trkpt>
      <trkpt lat="46.93103" lon="2.95771">
        <ele>209.93075561523</ele>
        <time>2016-02-03T14:14:54.000Z</time>
      </trkpt>
      <trkpt lat="46.93107" lon="2.95772">
        <ele>209.79296875</ele>
        <time>2016-02-03T14:14:57.000Z</time>
      </trkpt>
      <trkpt lat="46.93111" lon="2.95771">
        <ele>209.6457824707</ele>
        <time>2016-02-03T14:15:00.000Z</time>
      </trkpt>
      <trkpt lat="46.93113" lon="2.95772">
        <ele>209.51330566406</ele>
        <time>2016-02-03T14:15:02.000Z</time>
      </trkpt>
      <trkpt lat="46.93118" lon="2.95772">
        <ele>209.35542297363</ele>
        <time>2016-02-03T14:15:05.000Z</time>
      </trkpt>
      <trkpt lat="46.93121" lon="2.95772">
        <ele>209.19844055176</ele>
        <time>2016-02-03T14:15:07.000Z</time>
      </trkpt>
      <trkpt lat="46.93124" lon="2.95772">
        <ele>209.05122375488</ele>
        <time>2016-02-03T14:15:10.000Z</time>
      </trkpt>
      <trkpt lat="46.93126" lon="2.95772">
        <ele>208.92324829102</ele>
        <time>2016-02-03T14:15:12.000Z</time>
      </trkpt>
      <trkpt lat="46.93129" lon="2.95772">
        <ele>208.78646850586</ele>
        <time>2016-02-03T14:15:14.000Z</time>
      </trkpt>
      <trkpt lat="46.9313" lon="2.95772">
        <ele>208.68376159668</ele>
        <time>2016-02-03T14:15:16.000Z</time>
      </trkpt>
      <trkpt lat="46.93134" lon="2.95772">
        <ele>208.57914733887</ele>
        <time>2016-02-03T14:15:19.000Z</time>
      </trkpt>
      <trkpt lat="46.93135" lon="2.95773">
        <ele>208.48332214355</ele>
        <time>2016-02-03T14:15:21.000Z</time>
      </trkpt>
      <trkpt lat="46.93138" lon="2.95773">
        <ele>208.38362121582</ele>
        <time>2016-02-03T14:15:23.000Z</time>
      </trkpt>
      <trkpt lat="46.93142" lon="2.95774">
        <ele>208.27160644531</ele>
        <time>2016-02-03T14:15:26.000Z</time>
      </trkpt>
      <trkpt lat="46.93146" lon="2.95775">
        <ele>208.1429901123</ele>
        <time>2016-02-03T14:15:28.000Z</time>
      </trkpt>
      <trkpt lat="46.9315" lon="2.95775">
        <ele>208.00810241699</ele>
        <time>2016-02-03T14:15:31.000Z</time>
      </trkpt>
      <trkpt lat="46.93152" lon="2.95775">
        <ele>207.86796569824</ele>
        <time>2016-02-03T14:15:33.000Z</time>
      </trkpt>
      <trkpt lat="46.93155" lon="2.95774">
        <ele>207.72924804688</ele>
        <time>2016-02-03T14:15:35.000Z</time>
      </trkpt>
      <trkpt lat="46.93157" lon="2.95774">
        <ele>207.60624694824</ele>
        <time>2016-02-03T14:15:38.000Z</time>
      </trkpt>
      <trkpt lat="46.93161" lon="2.95774">
        <ele>207.48022460938</ele>
        <time>2016-02-03T14:15:41.000Z</time>
      </trkpt>
      <trkpt lat="46.93163" lon="2.95775">
        <ele>207.36711120605</ele>
        <time>2016-02-03T14:15:43.000Z</time>
      </trkpt>
      <trkpt lat="46.93167" lon="2.95777">
        <ele>207.24751281738</ele>
        <time>2016-02-03T14:15:46.000Z</time>
      </trkpt>
      <trkpt lat="46.9317" lon="2.95777">
        <ele>207.12393188477</ele>
        <time>2016-02-03T14:15:49.000Z</time>
      </trkpt>
      <trkpt lat="46.93174" lon="2.95775">
        <ele>206.99691772461</ele>
        <time>2016-02-03T14:15:52.000Z</time>
      </trkpt>
      <trkpt lat="46.93176" lon="2.95775">
        <ele>206.88896179199</ele>
        <time>2016-02-03T14:15:54.000Z</time>
      </trkpt>
      <trkpt lat="46.9318" lon="2.95775">
        <ele>206.7685546875</ele>
        <time>2016-02-03T14:15:57.000Z</time>
      </trkpt>
      <trkpt lat="46.93182" lon="2.95776">
        <ele>206.6572265625</ele>
        <time>2016-02-03T14:15:59.000Z</time>
      </trkpt>
      <trkpt lat="46.93185" lon="2.95777">
        <ele>206.548828125</ele>
        <time>2016-02-03T14:16:01.000Z</time>
      </trkpt>
      <trkpt lat="46.93188" lon="2.95778">
        <ele>206.4404296875</ele>
        <time>2016-02-03T14:16:04.000Z</time>
      </trkpt>
      <trkpt lat="46.93191" lon="2.95778">
        <ele>206.326171875</ele>
        <time>2016-02-03T14:16:06.000Z</time>
      </trkpt>
      <trkpt lat="46.93195" lon="2.95779">
        <ele>206.21484375</ele>
        <time>2016-02-03T14:16:09.000Z</time>
      </trkpt>
      <trkpt lat="46.93198" lon="2.9578">
        <ele>206.1005859375</ele>
        <time>2016-02-03T14:16:12.000Z</time>
      </trkpt>
      <trkpt lat="46.93202" lon="2.9578">
        <ele>205.9775390625</ele>
        <time>2016-02-03T14:16:15.000Z</time>
      </trkpt>
      <trkpt lat="46.93207" lon="2.9578">
        <ele>205.845703125</ele>
        <time>2016-02-03T14:16:18.000Z</time>
      </trkpt>
      <trkpt lat="46.93211" lon="2.9578">
        <ele>205.7080078125</ele>
        <time>2016-02-03T14:16:21.000Z</time>
      </trkpt>
      <trkpt lat="46.93213" lon="2.9578">
        <ele>205.5791015625</ele>
        <time>2016-02-03T14:16:23.000Z</time>
      </trkpt>
      <trkpt lat="46.93216" lon="2.9578">
        <ele>205.4501953125</ele>
        <time>2016-02-03T14:16:26.000Z</time>
      </trkpt>
      <trkpt lat="46.93219" lon="2.95779">
        <ele>205.330078125</ele>
        <time>2016-02-03T14:16:28.000Z</time>
      </trkpt>
      <trkpt lat="46.93222" lon="2.9578">
        <ele>205.21875</ele>
        <time>2016-02-03T14:16:31.000Z</time>
      </trkpt>
      <trkpt lat="46.93225" lon="2.9578">
        <ele>205.11328125</ele>
        <time>2016-02-03T14:16:33.000Z</time>
      </trkpt>
      <trkpt lat="46.93228" lon="2.9578">
        <ele>205.0048828125</ele>
        <time>2016-02-03T14:16:35.000Z</time>
      </trkpt>
      <trkpt lat="46.93232" lon="2.95779">
        <ele>204.8935546875</ele>
        <time>2016-02-03T14:16:38.000Z</time>
      </trkpt>
      <trkpt lat="46.93235" lon="2.9578">
        <ele>204.779296875</ele>
        <time>2016-02-03T14:16:41.000Z</time>
      </trkpt>
      <trkpt lat="46.93239" lon="2.9578">
        <ele>204.6591796875</ele>
        <time>2016-02-03T14:16:44.000Z</time>
      </trkpt>
      <trkpt lat="46.93242" lon="2.95779">
        <ele>204.5419921875</ele>
        <time>2016-02-03T14:16:46.000Z</time>
      </trkpt>
      <trkpt lat="46.93245" lon="2.95778">
        <ele>204.421875</ele>
        <time>2016-02-03T14:16:49.000Z</time>
      </trkpt>
      <trkpt lat="46.93246" lon="2.95777">
        <ele>204.31640625</ele>
        <time>2016-02-03T14:16:52.000Z</time>
      </trkpt>
      <trkpt lat="46.93247" lon="2.95777">
        <ele>204.228515625</ele>
        <time>2016-02-03T14:17:00.000Z</time>
      </trkpt>
      <trkpt lat="46.93248" lon="2.95778">
        <ele>204.1611328125</ele>
        <time>2016-02-03T14:17:02.000Z</time>
      </trkpt>
      <trkpt lat="46.93251" lon="2.95781">
        <ele>204.09880065918</ele>
        <time>2016-02-03T14:17:05.000Z</time>
      </trkpt>
      <trkpt lat="46.93253" lon="2.95783">
        <ele>204.05894470215</ele>
        <time>2016-02-03T14:17:07.000Z</time>
      </trkpt>
      <trkpt lat="46.93256" lon="2.95783">
        <ele>204.02900695801</ele>
        <time>2016-02-03T14:17:10.000Z</time>
      </trkpt>
      <trkpt lat="46.93259" lon="2.95783">
        <ele>204.00375366211</ele>
        <time>2016-02-03T14:17:12.000Z</time>
      </trkpt>
      <trkpt lat="46.93262" lon="2.95785">
        <ele>203.98402404785</ele>
        <time>2016-02-03T14:17:15.000Z</time>
      </trkpt>
      <trkpt lat="46.93264" lon="2.95785">
        <ele>203.97514343262</ele>
        <time>2016-02-03T14:17:17.000Z</time>
      </trkpt>
      <trkpt lat="46.93269" lon="2.95786">
        <ele>203.96347045898</ele>
        <time>2016-02-03T14:17:20.000Z</time>
      </trkpt>
      <trkpt lat="46.93272" lon="2.95786">
        <ele>203.9518737793</ele>
        <time>2016-02-03T14:17:23.000Z</time>
      </trkpt>
      <trkpt lat="46.93276" lon="2.95785">
        <ele>203.93899536133</ele>
        <time>2016-02-03T14:17:26.000Z</time>
      </trkpt>
      <trkpt lat="46.93279" lon="2.95785">
        <ele>203.92767333984</ele>
        <time>2016-02-03T14:17:28.000Z</time>
      </trkpt>
      <trkpt lat="46.93281" lon="2.95785">
        <ele>203.91667175293</ele>
        <time>2016-02-03T14:17:30.000Z</time>
      </trkpt>
      <trkpt lat="46.93285" lon="2.95784">
        <ele>203.90969848633</ele>
        <time>2016-02-03T14:17:33.000Z</time>
      </trkpt>
      <trkpt lat="46.93288" lon="2.95784">
        <ele>203.90324401855</ele>
        <time>2016-02-03T14:17:36.000Z</time>
      </trkpt>
      <trkpt lat="46.93291" lon="2.95785">
        <ele>203.89645385742</ele>
        <time>2016-02-03T14:17:39.000Z</time>
      </trkpt>
      <trkpt lat="46.93293" lon="2.95785">
        <ele>203.88912963867</ele>
        <time>2016-02-03T14:17:41.000Z</time>
      </trkpt>
      <trkpt lat="46.93295" lon="2.95786">
        <ele>203.87777709961</ele>
        <time>2016-02-03T14:17:44.000Z</time>
      </trkpt>
      <trkpt lat="46.93297" lon="2.95788">
        <ele>203.85778808594</ele>
        <time>2016-02-03T14:17:46.000Z</time>
      </trkpt>
      <trkpt lat="46.93299" lon="2.95788">
        <ele>203.83665466309</ele>
        <time>2016-02-03T14:17:48.000Z</time>
      </trkpt>
      <trkpt lat="46.93303" lon="2.95788">
        <ele>203.81278991699</ele>
        <time>2016-02-03T14:17:51.000Z</time>
      </trkpt>
      <trkpt lat="46.93306" lon="2.95788">
        <ele>203.79122924805</ele>
        <time>2016-02-03T14:17:53.000Z</time>
      </trkpt>
      <trkpt lat="46.93309" lon="2.95788">
        <ele>203.77201843262</ele>
        <time>2016-02-03T14:17:56.000Z</time>
      </trkpt>
      <trkpt lat="46.93311" lon="2.95788">
        <ele>203.75970458984</ele>
        <time>2016-02-03T14:17:58.000Z</time>
      </trkpt>
      <trkpt lat="46.93314" lon="2.95787">
        <ele>203.74879455566</ele>
        <time>2016-02-03T14:18:01.000Z</time>
      </trkpt>
      <trkpt lat="46.93319" lon="2.95788">
        <ele>203.7370300293</ele>
        <time>2016-02-03T14:18:04.000Z</time>
      </trkpt>
      <trkpt lat="46.93321" lon="2.95789">
        <ele>203.71871948242</ele>
        <time>2016-02-03T14:18:06.000Z</time>
      </trkpt>
      <trkpt lat="46.93323" lon="2.9579">
        <ele>203.69360351562</ele>
        <time>2016-02-03T14:18:08.000Z</time>
      </trkpt>
      <trkpt lat="46.93327" lon="2.95791">
        <ele>203.65921020508</ele>
        <time>2016-02-03T14:18:11.000Z</time>
      </trkpt>
      <trkpt lat="46.93329" lon="2.95791">
        <ele>203.62005615234</ele>
        <time>2016-02-03T14:18:13.000Z</time>
      </trkpt>
      <trkpt lat="46.93332" lon="2.95792">
        <ele>203.57722473145</ele>
        <time>2016-02-03T14:18:16.000Z</time>
      </trkpt>
      <trkpt lat="46.93335" lon="2.95792">
        <ele>203.5461730957</ele>
        <time>2016-02-03T14:18:18.000Z</time>
      </trkpt>
      <trkpt lat="46.93339" lon="2.95793">
        <ele>203.54106140137</ele>
        <time>2016-02-03T14:18:21.000Z</time>
      </trkpt>
      <trkpt lat="46.93341" lon="2.95793">
        <ele>203.55870056152</ele>
        <time>2016-02-03T14:18:23.000Z</time>
      </trkpt>
      <trkpt lat="46.93343" lon="2.95794">
        <ele>203.58378601074</ele>
        <time>2016-02-03T14:18:25.000Z</time>
      </trkpt>
      <trkpt lat="46.93347" lon="2.95796">
        <ele>203.62451171875</ele>
        <time>2016-02-03T14:18:28.000Z</time>
      </trkpt>
      <trkpt lat="46.9335" lon="2.95796">
        <ele>203.6708984375</ele>
        <time>2016-02-03T14:18:30.000Z</time>
      </trkpt>
      <trkpt lat="46.93353" lon="2.95798">
        <ele>203.70404052734</ele>
        <time>2016-02-03T14:18:33.000Z</time>
      </trkpt>
      <trkpt lat="46.93355" lon="2.95799">
        <ele>203.7236328125</ele>
        <time>2016-02-03T14:18:35.000Z</time>
      </trkpt>
      <trkpt lat="46.93357" lon="2.958">
        <ele>203.74438476562</ele>
        <time>2016-02-03T14:18:37.000Z</time>
      </trkpt>
      <trkpt lat="46.9336" lon="2.958">
        <ele>203.77362060547</ele>
        <time>2016-02-03T14:18:39.000Z</time>
      </trkpt>
      <trkpt lat="46.93364" lon="2.958">
        <ele>203.80718994141</ele>
        <time>2016-02-03T14:18:42.000Z</time>
      </trkpt>
      <trkpt lat="46.93367" lon="2.958">
        <ele>203.85345458984</ele>
        <time>2016-02-03T14:18:45.000Z</time>
      </trkpt>
      <trkpt lat="46.93372" lon="2.958">
        <ele>203.92620849609</ele>
        <time>2016-02-03T14:18:48.000Z</time>
      </trkpt>
      <trkpt lat="46.93373" lon="2.958">
        <ele>204.00720214844</ele>
        <time>2016-02-03T14:18:50.000Z</time>
      </trkpt>
      <trkpt lat="46.93376" lon="2.95799">
        <ele>204.09466552734</ele>
        <time>2016-02-03T14:18:52.000Z</time>
      </trkpt>
      <trkpt lat="46.93382" lon="2.95798">
        <ele>204.19525146484</ele>
        <time>2016-02-03T14:18:55.000Z</time>
      </trkpt>
      <trkpt lat="46.93386" lon="2.95798">
        <ele>204.30334472656</ele>
        <time>2016-02-03T14:18:58.000Z</time>
      </trkpt>
      <trkpt lat="46.9339" lon="2.95798">
        <ele>204.40240478516</ele>
        <time>2016-02-03T14:19:01.000Z</time>
      </trkpt>
      <trkpt lat="46.93393" lon="2.95799">
        <ele>204.50158691406</ele>
        <time>2016-02-03T14:19:04.000Z</time>
      </trkpt>
      <trkpt lat="46.93398" lon="2.95799">
        <ele>204.59887695312</ele>
        <time>2016-02-03T14:19:07.000Z</time>
      </trkpt>
      <trkpt lat="46.934" lon="2.958">
        <ele>204.67028808594</ele>
        <time>2016-02-03T14:19:09.000Z</time>
      </trkpt>
      <trkpt lat="46.93404" lon="2.95801">
        <ele>204.73229980469</ele>
        <time>2016-02-03T14:19:12.000Z</time>
      </trkpt>
      <trkpt lat="46.93408" lon="2.95803">
        <ele>204.78637695312</ele>
        <time>2016-02-03T14:19:15.000Z</time>
      </trkpt>
      <trkpt lat="46.93412" lon="2.95803">
        <ele>204.84696960449</ele>
        <time>2016-02-03T14:19:18.000Z</time>
      </trkpt>
      <trkpt lat="46.93414" lon="2.95802">
        <ele>204.90840148926</ele>
        <time>2016-02-03T14:19:20.000Z</time>
      </trkpt>
      <trkpt lat="46.93419" lon="2.95802">
        <ele>204.98197937012</ele>
        <time>2016-02-03T14:19:23.000Z</time>
      </trkpt>
      <trkpt lat="46.93421" lon="2.95801">
        <ele>205.04409790039</ele>
        <time>2016-02-03T14:19:25.000Z</time>
      </trkpt>
      <trkpt lat="46.93424" lon="2.958">
        <ele>205.10385131836</ele>
        <time>2016-02-03T14:19:28.000Z</time>
      </trkpt>
      <trkpt lat="46.93426" lon="2.958">
        <ele>205.14663696289</ele>
        <time>2016-02-03T14:19:30.000Z</time>
      </trkpt>
      <trkpt lat="46.9343" lon="2.95801">
        <ele>205.16621398926</ele>
        <time>2016-02-03T14:19:33.000Z</time>
      </trkpt>
      <trkpt lat="46.93432" lon="2.95801">
        <ele>205.17021179199</ele>
        <time>2016-02-03T14:19:35.000Z</time>
      </trkpt>
      <trkpt lat="46.93436" lon="2.95802">
        <ele>205.16401672363</ele>
        <time>2016-02-03T14:19:38.000Z</time>
      </trkpt>
      <trkpt lat="46.93439" lon="2.95803">
        <ele>205.14237976074</ele>
        <time>2016-02-03T14:19:41.000Z</time>
      </trkpt>
      <trkpt lat="46.93441" lon="2.95804">
        <ele>205.11494445801</ele>
        <time>2016-02-03T14:19:43.000Z</time>
      </trkpt>
      <trkpt lat="46.93444" lon="2.95804">
        <ele>205.09204101562</ele>
        <time>2016-02-03T14:19:46.000Z</time>
      </trkpt>
      <trkpt lat="46.93447" lon="2.95803">
        <ele>205.07466125488</ele>
        <time>2016-02-03T14:19:49.000Z</time>
      </trkpt>
      <trkpt lat="46.93448" lon="2.95803">
        <ele>205.06513977051</ele>
        <time>2016-02-03T14:19:53.000Z</time>
      </trkpt>
      <trkpt lat="46.9345" lon="2.95802">
        <ele>205.07392883301</ele>
        <time>2016-02-03T14:19:55.000Z</time>
      </trkpt>
      <trkpt lat="46.93452" lon="2.95802">
        <ele>205.09111022949</ele>
        <time>2016-02-03T14:19:58.000Z</time>
      </trkpt>
      <trkpt lat="46.93453" lon="2.95801">
        <ele>205.11547851562</ele>
        <time>2016-02-03T14:20:01.000Z</time>
      </trkpt>
      <trkpt lat="46.93454" lon="2.958">
        <ele>205.13945007324</ele>
        <time>2016-02-03T14:20:05.000Z</time>
      </trkpt>
      <trkpt lat="46.93456" lon="2.95799">
        <ele>205.16914367676</ele>
        <time>2016-02-03T14:20:23.000Z</time>
      </trkpt>
      <trkpt lat="46.93458" lon="2.958">
        <ele>205.18212890625</ele>
        <time>2016-02-03T14:20:26.000Z</time>
      </trkpt>
      <trkpt lat="46.93458" lon="2.958">
        <ele>205.18212890625</ele>
        <time>2016-02-03T14:20:46.000Z</time>
      </trkpt>
      <trkpt lat="46.93457" lon="2.958">
        <ele>205.19731140137</ele>
        <time>2016-02-03T14:20:52.000Z</time>
      </trkpt>
      <trkpt lat="46.93452" lon="2.95803">
        <ele>205.18176269531</ele>
        <time>2016-02-03T14:21:06.000Z</time>
      </trkpt>
      <trkpt lat="46.93454" lon="2.95805">
        <ele>205.15026855469</ele>
        <time>2016-02-03T14:21:15.000Z</time>
      </trkpt>
      <trkpt lat="46.93456" lon="2.95807">
        <ele>205.09826660156</ele>
        <time>2016-02-03T14:21:22.000Z</time>
      </trkpt>
      <trkpt lat="46.93457" lon="2.95806">
        <ele>205.05781555176</ele>
        <time>2016-02-03T14:21:33.000Z</time>
      </trkpt>
      <trkpt lat="46.93459" lon="2.95806">
        <ele>205.01313781738</ele>
        <time>2016-02-03T14:21:36.000Z</time>
      </trkpt>
      <trkpt lat="46.9346" lon="2.95806">
        <ele>204.99116516113</ele>
        <time>2016-02-03T14:21:40.000Z</time>
      </trkpt>
      <trkpt lat="46.93461" lon="2.95807">
        <ele>204.97245788574</ele>
        <time>2016-02-03T14:21:43.000Z</time>
      </trkpt>
      <trkpt lat="46.93462" lon="2.95808">
        <ele>204.96020507812</ele>
        <time>2016-02-03T14:21:48.000Z</time>
      </trkpt>
      <trkpt lat="46.93462" lon="2.9581">
        <ele>204.93363952637</ele>
        <time>2016-02-03T14:21:51.000Z</time>
      </trkpt>
      <trkpt lat="46.93462" lon="2.95812">
        <ele>204.88879394531</ele>
        <time>2016-02-03T14:21:54.000Z</time>
      </trkpt>
      <trkpt lat="46.93462" lon="2.95815">
        <ele>204.81994628906</ele>
        <time>2016-02-03T14:21:57.000Z</time>
      </trkpt>
      <trkpt lat="46.93462" lon="2.9582">
        <ele>204.72894287109</ele>
        <time>2016-02-03T14:21:59.000Z</time>
      </trkpt>
      <trkpt lat="46.93462" lon="2.95823">
        <ele>204.62127685547</ele>
        <time>2016-02-03T14:22:02.000Z</time>
      </trkpt>
      <trkpt lat="46.93462" lon="2.95826">
        <ele>204.50646972656</ele>
        <time>2016-02-03T14:22:04.000Z</time>
      </trkpt>
      <trkpt lat="46.93463" lon="2.95831">
        <ele>204.37097167969</ele>
        <time>2016-02-03T14:22:07.000Z</time>
      </trkpt>
      <trkpt lat="46.93463" lon="2.95835">
        <ele>204.22766113281</ele>
        <time>2016-02-03T14:22:10.000Z</time>
      </trkpt>
      <trkpt lat="46.93463" lon="2.95842">
        <ele>204.05978393555</ele>
        <time>2016-02-03T14:22:13.000Z</time>
      </trkpt>
      <trkpt lat="46.93464" lon="2.95846">
        <ele>203.88046264648</ele>
        <time>2016-02-03T14:22:16.000Z</time>
      </trkpt>
      <trkpt lat="46.93465" lon="2.95848">
        <ele>203.69778442383</ele>
        <time>2016-02-03T14:22:18.000Z</time>
      </trkpt>
      <trkpt lat="46.93465" lon="2.95854">
        <ele>203.50364685059</ele>
        <time>2016-02-03T14:22:21.000Z</time>
      </trkpt>
      <trkpt lat="46.93466" lon="2.95857">
        <ele>203.31210327148</ele>
        <time>2016-02-03T14:22:23.000Z</time>
      </trkpt>
      <trkpt lat="46.93467" lon="2.95863">
        <ele>203.1300201416</ele>
        <time>2016-02-03T14:22:26.000Z</time>
      </trkpt>
      <trkpt lat="46.93467" lon="2.95865">
        <ele>202.96258544922</ele>
        <time>2016-02-03T14:22:28.000Z</time>
      </trkpt>
      <trkpt lat="46.93469" lon="2.9587">
        <ele>202.77072143555</ele>
        <time>2016-02-03T14:22:31.000Z</time>
      </trkpt>
      <trkpt lat="46.93469" lon="2.95876">
        <ele>202.57577514648</ele>
        <time>2016-02-03T14:22:34.000Z</time>
      </trkpt>
      <trkpt lat="46.9347" lon="2.95881">
        <ele>202.36386108398</ele>
        <time>2016-02-03T14:22:37.000Z</time>
      </trkpt>
      <trkpt lat="46.9347" lon="2.95884">
        <ele>202.17109680176</ele>
        <time>2016-02-03T14:22:39.000Z</time>
      </trkpt>
      <trkpt lat="46.93471" lon="2.95886">
        <ele>201.98550415039</ele>
        <time>2016-02-03T14:22:42.000Z</time>
      </trkpt>
      <trkpt lat="46.93472" lon="2.9589">
        <ele>201.80824279785</ele>
        <time>2016-02-03T14:22:44.000Z</time>
      </trkpt>
      <trkpt lat="46.93472" lon="2.95895">
        <ele>201.63693237305</ele>
        <time>2016-02-03T14:22:46.000Z</time>
      </trkpt>
      <trkpt lat="46.93473" lon="2.959">
        <ele>201.47183227539</ele>
        <time>2016-02-03T14:22:49.000Z</time>
      </trkpt>
      <trkpt lat="46.93473" lon="2.95904">
        <ele>201.29322814941</ele>
        <time>2016-02-03T14:22:52.000Z</time>
      </trkpt>
      <trkpt lat="46.93472" lon="2.9591">
        <ele>201.08157348633</ele>
        <time>2016-02-03T14:22:55.000Z</time>
      </trkpt>
      <trkpt lat="46.93472" lon="2.95914">
        <ele>200.86428833008</ele>
        <time>2016-02-03T14:22:58.000Z</time>
      </trkpt>
      <trkpt lat="46.93473" lon="2.9592">
        <ele>200.66799926758</ele>
        <time>2016-02-03T14:23:01.000Z</time>
      </trkpt>
      <trkpt lat="46.93473" lon="2.95925">
        <ele>200.50254821777</ele>
        <time>2016-02-03T14:23:04.000Z</time>
      </trkpt>
      <trkpt lat="46.93474" lon="2.95929">
        <ele>200.36990356445</ele>
        <time>2016-02-03T14:23:06.000Z</time>
      </trkpt>
      <trkpt lat="46.93474" lon="2.95932">
        <ele>200.28071594238</ele>
        <time>2016-02-03T14:23:08.000Z</time>
      </trkpt>
      <trkpt lat="46.93474" lon="2.95935">
        <ele>200.22906494141</ele>
        <time>2016-02-03T14:23:11.000Z</time>
      </trkpt>
      <trkpt lat="46.93476" lon="2.95942">
        <ele>200.19125366211</ele>
        <time>2016-02-03T14:23:14.000Z</time>
      </trkpt>
      <trkpt lat="46.93477" lon="2.95947">
        <ele>200.15463256836</ele>
        <time>2016-02-03T14:23:17.000Z</time>
      </trkpt>
      <trkpt lat="46.93477" lon="2.95952">
        <ele>200.11904907227</ele>
        <time>2016-02-03T14:23:20.000Z</time>
      </trkpt>
      <trkpt lat="46.93477" lon="2.95958">
        <ele>200.08045959473</ele>
        <time>2016-02-03T14:23:23.000Z</time>
      </trkpt>
      <trkpt lat="46.93477" lon="2.95962">
        <ele>200.04202270508</ele>
        <time>2016-02-03T14:23:25.000Z</time>
      </trkpt>
      <trkpt lat="46.93477" lon="2.95967">
        <ele>200.00769042969</ele>
        <time>2016-02-03T14:23:28.000Z</time>
      </trkpt>
      <trkpt lat="46.93477" lon="2.95972">
        <ele>199.97465515137</ele>
        <time>2016-02-03T14:23:31.000Z</time>
      </trkpt>
      <trkpt lat="46.93478" lon="2.95978">
        <ele>199.94149780273</ele>
        <time>2016-02-03T14:23:34.000Z</time>
      </trkpt>
      <trkpt lat="46.93477" lon="2.95981">
        <ele>199.91052246094</ele>
        <time>2016-02-03T14:23:37.000Z</time>
      </trkpt>
      <trkpt lat="46.93477" lon="2.95984">
        <ele>199.88143920898</ele>
        <time>2016-02-03T14:23:39.000Z</time>
      </trkpt>
      <trkpt lat="46.93476" lon="2.95986">
        <ele>199.8560333252</ele>
        <time>2016-02-03T14:23:41.000Z</time>
      </trkpt>
      <trkpt lat="46.93476" lon="2.9599">
        <ele>199.83047485352</ele>
        <time>2016-02-03T14:23:44.000Z</time>
      </trkpt>
      <trkpt lat="46.93475" lon="2.95993">
        <ele>199.80476379395</ele>
        <time>2016-02-03T14:23:46.000Z</time>
      </trkpt>
      <trkpt lat="46.93474" lon="2.95999">
        <ele>199.77325439453</ele>
        <time>2016-02-03T14:23:49.000Z</time>
      </trkpt>
      <trkpt lat="46.93473" lon="2.96002">
        <ele>199.72677612305</ele>
        <time>2016-02-03T14:23:51.000Z</time>
      </trkpt>
      <trkpt lat="46.93471" lon="2.96006">
        <ele>199.65379333496</ele>
        <time>2016-02-03T14:23:54.000Z</time>
      </trkpt>
      <trkpt lat="46.9347" lon="2.96009">
        <ele>199.56594848633</ele>
        <time>2016-02-03T14:23:56.000Z</time>
      </trkpt>
      <trkpt lat="46.93468" lon="2.96013">
        <ele>199.45593261719</ele>
        <time>2016-02-03T14:23:59.000Z</time>
      </trkpt>
      <trkpt lat="46.93466" lon="2.96017">
        <ele>199.33169555664</ele>
        <time>2016-02-03T14:24:02.000Z</time>
      </trkpt>
      <trkpt lat="46.93464" lon="2.96022">
        <ele>199.18716430664</ele>
        <time>2016-02-03T14:24:05.000Z</time>
      </trkpt>
      <trkpt lat="46.93462" lon="2.96028">
        <ele>199.03524780273</ele>
        <time>2016-02-03T14:24:08.000Z</time>
      </trkpt>
      <trkpt lat="46.93462" lon="2.96032">
        <ele>198.87841796875</ele>
        <time>2016-02-03T14:24:10.000Z</time>
      </trkpt>
      <trkpt lat="46.93461" lon="2.96036">
        <ele>198.72355651855</ele>
        <time>2016-02-03T14:24:13.000Z</time>
      </trkpt>
      <trkpt lat="46.9346" lon="2.96041">
        <ele>198.56535339355</ele>
        <time>2016-02-03T14:24:16.000Z</time>
      </trkpt>
      <trkpt lat="46.93457" lon="2.96045">
        <ele>198.4161529541</ele>
        <time>2016-02-03T14:24:19.000Z</time>
      </trkpt>
      <trkpt lat="46.93454" lon="2.96049">
        <ele>198.27926635742</ele>
        <time>2016-02-03T14:24:22.000Z</time>
      </trkpt>
      <trkpt lat="46.93453" lon="2.96052">
        <ele>198.15255737305</ele>
        <time>2016-02-03T14:24:24.000Z</time>
      </trkpt>
      <trkpt lat="46.9345" lon="2.96055">
        <ele>198.02963256836</ele>
        <time>2016-02-03T14:24:27.000Z</time>
      </trkpt>
      <trkpt lat="46.93447" lon="2.96059">
        <ele>197.91311645508</ele>
        <time>2016-02-03T14:24:30.000Z</time>
      </trkpt>
      <trkpt lat="46.93444" lon="2.96063">
        <ele>197.7995300293</ele>
        <time>2016-02-03T14:24:33.000Z</time>
      </trkpt>
      <trkpt lat="46.93443" lon="2.96066">
        <ele>197.69538879395</ele>
        <time>2016-02-03T14:24:35.000Z</time>
      </trkpt>
      <trkpt lat="46.93442" lon="2.96069">
        <ele>197.58766174316</ele>
        <time>2016-02-03T14:24:38.000Z</time>
      </trkpt>
      <trkpt lat="46.9344" lon="2.96074">
        <ele>197.47958374023</ele>
        <time>2016-02-03T14:24:41.000Z</time>
      </trkpt>
      <trkpt lat="46.93438" lon="2.96076">
        <ele>197.38111877441</ele>
        <time>2016-02-03T14:24:43.000Z</time>
      </trkpt>
      <trkpt lat="46.93436" lon="2.96078">
        <ele>197.29559326172</ele>
        <time>2016-02-03T14:24:45.000Z</time>
      </trkpt>
      <trkpt lat="46.93434" lon="2.96083">
        <ele>197.19940185547</ele>
        <time>2016-02-03T14:24:48.000Z</time>
      </trkpt>
      <trkpt lat="46.93431" lon="2.96087">
        <ele>197.13708496094</ele>
        <time>2016-02-03T14:24:51.000Z</time>
      </trkpt>
      <trkpt lat="46.93429" lon="2.96091">
        <ele>197.11122131348</ele>
        <time>2016-02-03T14:24:53.000Z</time>
      </trkpt>
      <trkpt lat="46.93428" lon="2.96094">
        <ele>197.11071777344</ele>
        <time>2016-02-03T14:24:55.000Z</time>
      </trkpt>
      <trkpt lat="46.93426" lon="2.96099">
        <ele>197.14517211914</ele>
        <time>2016-02-03T14:24:58.000Z</time>
      </trkpt>
      <trkpt lat="46.93424" lon="2.96101">
        <ele>197.21829223633</ele>
        <time>2016-02-03T14:25:01.000Z</time>
      </trkpt>
      <trkpt lat="46.93423" lon="2.96103">
        <ele>197.28733825684</ele>
        <time>2016-02-03T14:25:03.000Z</time>
      </trkpt>
      <trkpt lat="46.9342" lon="2.96107">
        <ele>197.36502075195</ele>
        <time>2016-02-03T14:25:06.000Z</time>
      </trkpt>
      <trkpt lat="46.93419" lon="2.9611">
        <ele>197.44711303711</ele>
        <time>2016-02-03T14:25:09.000Z</time>
      </trkpt>
      <trkpt lat="46.93416" lon="2.96112">
        <ele>197.52833557129</ele>
        <time>2016-02-03T14:25:11.000Z</time>
      </trkpt>
      <trkpt lat="46.93412" lon="2.96117">
        <ele>197.66177368164</ele>
        <time>2016-02-03T14:25:14.000Z</time>
      </trkpt>
      <trkpt lat="46.9341" lon="2.9612">
        <ele>197.81771850586</ele>
        <time>2016-02-03T14:25:16.000Z</time>
      </trkpt>
      <trkpt lat="46.93408" lon="2.96124">
        <ele>198.00375366211</ele>
        <time>2016-02-03T14:25:19.000Z</time>
      </trkpt>
      <trkpt lat="46.93406" lon="2.96126">
        <ele>198.20022583008</ele>
        <time>2016-02-03T14:25:21.000Z</time>
      </trkpt>
      <trkpt lat="46.93404" lon="2.96129">
        <ele>198.41426086426</ele>
        <time>2016-02-03T14:25:24.000Z</time>
      </trkpt>
      <trkpt lat="46.93402" lon="2.96133">
        <ele>198.61169433594</ele>
        <time>2016-02-03T14:25:27.000Z</time>
      </trkpt>
      <trkpt lat="46.93401" lon="2.96135">
        <ele>198.7989654541</ele>
        <time>2016-02-03T14:25:29.000Z</time>
      </trkpt>
      <trkpt lat="46.93399" lon="2.96138">
        <ele>198.96809387207</ele>
        <time>2016-02-03T14:25:32.000Z</time>
      </trkpt>
      <trkpt lat="46.93395" lon="2.96142">
        <ele>199.17391967773</ele>
        <time>2016-02-03T14:25:35.000Z</time>
      </trkpt>
      <trkpt lat="46.93393" lon="2.96145">
        <ele>199.38754272461</ele>
        <time>2016-02-03T14:25:38.000Z</time>
      </trkpt>
      <trkpt lat="46.9339" lon="2.96149">
        <ele>199.59838867188</ele>
        <time>2016-02-03T14:25:41.000Z</time>
      </trkpt>
      <trkpt lat="46.93388" lon="2.96153">
        <ele>199.84457397461</ele>
        <time>2016-02-03T14:25:44.000Z</time>
      </trkpt>
      <trkpt lat="46.93385" lon="2.96155">
        <ele>200.09341430664</ele>
        <time>2016-02-03T14:25:47.000Z</time>
      </trkpt>
      <trkpt lat="46.93383" lon="2.96157">
        <ele>200.31295776367</ele>
        <time>2016-02-03T14:25:49.000Z</time>
      </trkpt>
      <trkpt lat="46.93381" lon="2.96159">
        <ele>200.52708435059</ele>
        <time>2016-02-03T14:25:52.000Z</time>
      </trkpt>
      <trkpt lat="46.9338" lon="2.9616">
        <ele>200.71244812012</ele>
        <time>2016-02-03T14:25:54.000Z</time>
      </trkpt>
      <trkpt lat="46.93379" lon="2.96162">
        <ele>200.86535644531</ele>
        <time>2016-02-03T14:25:57.000Z</time>
      </trkpt>
      <trkpt lat="46.93378" lon="2.96164">
        <ele>200.99588012695</ele>
        <time>2016-02-03T14:26:00.000Z</time>
      </trkpt>
      <trkpt lat="46.93378" lon="2.96165">
        <ele>201.10665893555</ele>
        <time>2016-02-03T14:26:03.000Z</time>
      </trkpt>
      <trkpt lat="46.93377" lon="2.96165">
        <ele>201.19165039062</ele>
        <time>2016-02-03T14:26:05.000Z</time>
      </trkpt>
      <trkpt lat="46.93375" lon="2.96168">
        <ele>201.2926940918</ele>
        <time>2016-02-03T14:26:08.000Z</time>
      </trkpt>
      <trkpt lat="46.93374" lon="2.9617">
        <ele>201.38864135742</ele>
        <time>2016-02-03T14:26:11.000Z</time>
      </trkpt>
      <trkpt lat="46.93372" lon="2.96173">
        <ele>201.5022277832</ele>
        <time>2016-02-03T14:26:14.000Z</time>
      </trkpt>
      <trkpt lat="46.9337" lon="2.96177">
        <ele>201.64195251465</ele>
        <time>2016-02-03T14:26:17.000Z</time>
      </trkpt>
      <trkpt lat="46.93368" lon="2.96178">
        <ele>201.79740905762</ele>
        <time>2016-02-03T14:26:20.000Z</time>
      </trkpt>
      <trkpt lat="46.93365" lon="2.96181">
        <ele>201.96350097656</ele>
        <time>2016-02-03T14:26:23.000Z</time>
      </trkpt>
      <trkpt lat="46.93362" lon="2.96184">
        <ele>202.14558410645</ele>
        <time>2016-02-03T14:26:26.000Z</time>
      </trkpt>
      <trkpt lat="46.93359" lon="2.96185">
        <ele>202.33798217773</ele>
        <time>2016-02-03T14:26:29.000Z</time>
      </trkpt>
      <trkpt lat="46.93357" lon="2.96188">
        <ele>202.52944946289</ele>
        <time>2016-02-03T14:26:32.000Z</time>
      </trkpt>
      <trkpt lat="46.93354" lon="2.96189">
        <ele>202.72830200195</ele>
        <time>2016-02-03T14:26:35.000Z</time>
      </trkpt>
      <trkpt lat="46.93351" lon="2.9619">
        <ele>202.9146270752</ele>
        <time>2016-02-03T14:26:37.000Z</time>
      </trkpt>
      <trkpt lat="46.93349" lon="2.96193">
        <ele>203.09579467773</ele>
        <time>2016-02-03T14:26:40.000Z</time>
      </trkpt>
      <trkpt lat="46.93346" lon="2.96197">
        <ele>203.28665161133</ele>
        <time>2016-02-03T14:26:43.000Z</time>
      </trkpt>
      <trkpt lat="46.93343" lon="2.962">
        <ele>203.47169494629</ele>
        <time>2016-02-03T14:26:46.000Z</time>
      </trkpt>
      <trkpt lat="46.93341" lon="2.96206">
        <ele>203.66268920898</ele>
        <time>2016-02-03T14:26:49.000Z</time>
      </trkpt>
      <trkpt lat="46.93338" lon="2.9621">
        <ele>203.85972595215</ele>
        <time>2016-02-03T14:26:52.000Z</time>
      </trkpt>
      <trkpt lat="46.93337" lon="2.96213">
        <ele>204.04214477539</ele>
        <time>2016-02-03T14:26:54.000Z</time>
      </trkpt>
      <trkpt lat="46.93335" lon="2.96218">
        <ele>204.20822143555</ele>
        <time>2016-02-03T14:26:57.000Z</time>
      </trkpt>
      <trkpt lat="46.93332" lon="2.96223">
        <ele>204.36959838867</ele>
        <time>2016-02-03T14:27:00.000Z</time>
      </trkpt>
      <trkpt lat="46.93331" lon="2.96228">
        <ele>204.49526977539</ele>
        <time>2016-02-03T14:27:02.000Z</time>
      </trkpt>
      <trkpt lat="46.9333" lon="2.96231">
        <ele>204.58770751953</ele>
        <time>2016-02-03T14:27:04.000Z</time>
      </trkpt>
      <trkpt lat="46.93327" lon="2.96236">
        <ele>204.66394042969</ele>
        <time>2016-02-03T14:27:07.000Z</time>
      </trkpt>
      <trkpt lat="46.93326" lon="2.96239">
        <ele>204.70576477051</ele>
        <time>2016-02-03T14:27:09.000Z</time>
      </trkpt>
      <trkpt lat="46.93324" lon="2.96243">
        <ele>204.71542358398</ele>
        <time>2016-02-03T14:27:12.000Z</time>
      </trkpt>
      <trkpt lat="46.93323" lon="2.96246">
        <ele>204.71739196777</ele>
        <time>2016-02-03T14:27:14.000Z</time>
      </trkpt>
      <trkpt lat="46.93321" lon="2.96249">
        <ele>204.71136474609</ele>
        <time>2016-02-03T14:27:16.000Z</time>
      </trkpt>
      <trkpt lat="46.93319" lon="2.96252">
        <ele>204.69125366211</ele>
        <time>2016-02-03T14:27:19.000Z</time>
      </trkpt>
      <trkpt lat="46.93318" lon="2.96256">
        <ele>204.65243530273</ele>
        <time>2016-02-03T14:27:21.000Z</time>
      </trkpt>
      <trkpt lat="46.93316" lon="2.96261">
        <ele>204.58435058594</ele>
        <time>2016-02-03T14:27:24.000Z</time>
      </trkpt>
      <trkpt lat="46.93315" lon="2.96265">
        <ele>204.49751281738</ele>
        <time>2016-02-03T14:27:26.000Z</time>
      </trkpt>
      <trkpt lat="46.93314" lon="2.96268">
        <ele>204.39894104004</ele>
        <time>2016-02-03T14:27:29.000Z</time>
      </trkpt>
      <trkpt lat="46.93312" lon="2.9627">
        <ele>204.3014831543</ele>
        <time>2016-02-03T14:27:31.000Z</time>
      </trkpt>
      <trkpt lat="46.93311" lon="2.96273">
        <ele>204.20637512207</ele>
        <time>2016-02-03T14:27:34.000Z</time>
      </trkpt>
      <trkpt lat="46.93308" lon="2.96277">
        <ele>204.1205291748</ele>
        <time>2016-02-03T14:27:37.000Z</time>
      </trkpt>
      <trkpt lat="46.93306" lon="2.96279">
        <ele>204.04147338867</ele>
        <time>2016-02-03T14:27:40.000Z</time>
      </trkpt>
      <trkpt lat="46.93304" lon="2.9628">
        <ele>203.96908569336</ele>
        <time>2016-02-03T14:27:42.000Z</time>
      </trkpt>
      <trkpt lat="46.93301" lon="2.96282">
        <ele>203.89505004883</ele>
        <time>2016-02-03T14:27:44.000Z</time>
      </trkpt>
      <trkpt lat="46.93299" lon="2.96285">
        <ele>203.81890869141</ele>
        <time>2016-02-03T14:27:47.000Z</time>
      </trkpt>
      <trkpt lat="46.93297" lon="2.96286">
        <ele>203.75761413574</ele>
        <time>2016-02-03T14:27:49.000Z</time>
      </trkpt>
      <trkpt lat="46.93295" lon="2.9629">
        <ele>203.69421386719</ele>
        <time>2016-02-03T14:27:52.000Z</time>
      </trkpt>
      <trkpt lat="46.93293" lon="2.96292">
        <ele>203.62933349609</ele>
        <time>2016-02-03T14:27:54.000Z</time>
      </trkpt>
      <trkpt lat="46.9329" lon="2.96295">
        <ele>203.56327819824</ele>
        <time>2016-02-03T14:27:57.000Z</time>
      </trkpt>
      <trkpt lat="46.93287" lon="2.963">
        <ele>203.50051879883</ele>
        <time>2016-02-03T14:28:00.000Z</time>
      </trkpt>
      <trkpt lat="46.93285" lon="2.96303">
        <ele>203.43449401855</ele>
        <time>2016-02-03T14:28:02.000Z</time>
      </trkpt>
      <trkpt lat="46.93283" lon="2.96306">
        <ele>203.37295532227</ele>
        <time>2016-02-03T14:28:04.000Z</time>
      </trkpt>
      <trkpt lat="46.9328" lon="2.96309">
        <ele>203.31401062012</ele>
        <time>2016-02-03T14:28:07.000Z</time>
      </trkpt>
      <trkpt lat="46.93278" lon="2.96312">
        <ele>203.26190185547</ele>
        <time>2016-02-03T14:28:10.000Z</time>
      </trkpt>
      <trkpt lat="46.93274" lon="2.96315">
        <ele>203.21514892578</ele>
        <time>2016-02-03T14:28:13.000Z</time>
      </trkpt>
      <trkpt lat="46.9327" lon="2.96319">
        <ele>203.17068481445</ele>
        <time>2016-02-03T14:28:16.000Z</time>
      </trkpt>
      <trkpt lat="46.93267" lon="2.96321">
        <ele>203.13101196289</ele>
        <time>2016-02-03T14:28:19.000Z</time>
      </trkpt>
      <trkpt lat="46.93265" lon="2.96322">
        <ele>203.09748840332</ele>
        <time>2016-02-03T14:28:21.000Z</time>
      </trkpt>
      <trkpt lat="46.93262" lon="2.96327">
        <ele>203.06784057617</ele>
        <time>2016-02-03T14:28:24.000Z</time>
      </trkpt>
      <trkpt lat="46.9326" lon="2.9633">
        <ele>203.04446411133</ele>
        <time>2016-02-03T14:28:27.000Z</time>
      </trkpt>
      <trkpt lat="46.93256" lon="2.96333">
        <ele>203.02774047852</ele>
        <time>2016-02-03T14:28:31.000Z</time>
      </trkpt>
      <trkpt lat="46.93254" lon="2.96336">
        <ele>203.0150604248</ele>
        <time>2016-02-03T14:28:33.000Z</time>
      </trkpt>
      <trkpt lat="46.93251" lon="2.96337">
        <ele>203.00540161133</ele>
        <time>2016-02-03T14:28:36.000Z</time>
      </trkpt>
      <trkpt lat="46.93247" lon="2.96339">
        <ele>203.00137329102</ele>
        <time>2016-02-03T14:28:39.000Z</time>
      </trkpt>
      <trkpt lat="46.93246" lon="2.96342">
        <ele>203.00048828125</ele>
        <time>2016-02-03T14:28:41.000Z</time>
      </trkpt>
      <trkpt lat="46.93245" lon="2.96347">
        <ele>203.0026550293</ele>
        <time>2016-02-03T14:28:44.000Z</time>
      </trkpt>
      <trkpt lat="46.93243" lon="2.96349">
        <ele>203.0062713623</ele>
        <time>2016-02-03T14:28:46.000Z</time>
      </trkpt>
      <trkpt lat="46.9324" lon="2.96352">
        <ele>203.01174926758</ele>
        <time>2016-02-03T14:28:49.000Z</time>
      </trkpt>
      <trkpt lat="46.93236" lon="2.96353">
        <ele>203.01922607422</ele>
        <time>2016-02-03T14:28:52.000Z</time>
      </trkpt>
      <trkpt lat="46.93233" lon="2.96358">
        <ele>203.03062438965</ele>
        <time>2016-02-03T14:28:55.000Z</time>
      </trkpt>
      <trkpt lat="46.93231" lon="2.96363">
        <ele>203.04472351074</ele>
        <time>2016-02-03T14:28:57.000Z</time>
      </trkpt>
      <trkpt lat="46.93229" lon="2.96369">
        <ele>203.06338500977</ele>
        <time>2016-02-03T14:29:00.000Z</time>
      </trkpt>
      <trkpt lat="46.93229" lon="2.96374">
        <ele>203.08337402344</ele>
        <time>2016-02-03T14:29:02.000Z</time>
      </trkpt>
      <trkpt lat="46.93227" lon="2.9638">
        <ele>203.10650634766</ele>
        <time>2016-02-03T14:29:05.000Z</time>
      </trkpt>
      <trkpt lat="46.93226" lon="2.96383">
        <ele>203.12857055664</ele>
        <time>2016-02-03T14:29:07.000Z</time>
      </trkpt>
      <trkpt lat="46.93225" lon="2.96388">
        <ele>203.15173339844</ele>
        <time>2016-02-03T14:29:10.000Z</time>
      </trkpt>
      <trkpt lat="46.93225" lon="2.9639">
        <ele>203.17144775391</ele>
        <time>2016-02-03T14:29:12.000Z</time>
      </trkpt>
      <trkpt lat="46.93224" lon="2.96395">
        <ele>203.1923828125</ele>
        <time>2016-02-03T14:29:15.000Z</time>
      </trkpt>
      <trkpt lat="46.93224" lon="2.964">
        <ele>203.21159362793</ele>
        <time>2016-02-03T14:29:18.000Z</time>
      </trkpt>
      <trkpt lat="46.93225" lon="2.96407">
        <ele>203.22985839844</ele>
        <time>2016-02-03T14:29:21.000Z</time>
      </trkpt>
      <trkpt lat="46.93225" lon="2.96413">
        <ele>203.24746704102</ele>
        <time>2016-02-03T14:29:24.000Z</time>
      </trkpt>
      <trkpt lat="46.93225" lon="2.96416">
        <ele>203.26667785645</ele>
        <time>2016-02-03T14:29:26.000Z</time>
      </trkpt>
      <trkpt lat="46.93225" lon="2.96423">
        <ele>203.28681945801</ele>
        <time>2016-02-03T14:29:29.000Z</time>
      </trkpt>
      <trkpt lat="46.93225" lon="2.96426">
        <ele>203.30635070801</ele>
        <time>2016-02-03T14:29:32.000Z</time>
      </trkpt>
      <trkpt lat="46.93225" lon="2.96431">
        <ele>203.32800292969</ele>
        <time>2016-02-03T14:29:35.000Z</time>
      </trkpt>
      <trkpt lat="46.93225" lon="2.96434">
        <ele>203.3479309082</ele>
        <time>2016-02-03T14:29:37.000Z</time>
      </trkpt>
      <trkpt lat="46.93225" lon="2.96437">
        <ele>203.36669921875</ele>
        <time>2016-02-03T14:29:40.000Z</time>
      </trkpt>
      <trkpt lat="46.93225" lon="2.9644">
        <ele>203.38208007812</ele>
        <time>2016-02-03T14:29:42.000Z</time>
      </trkpt>
      <trkpt lat="46.93226" lon="2.96443">
        <ele>203.39624023438</ele>
        <time>2016-02-03T14:29:45.000Z</time>
      </trkpt>
      <trkpt lat="46.93226" lon="2.96444">
        <ele>203.4075012207</ele>
        <time>2016-02-03T14:29:47.000Z</time>
      </trkpt>
      <trkpt lat="46.93227" lon="2.96448">
        <ele>203.41987609863</ele>
        <time>2016-02-03T14:29:50.000Z</time>
      </trkpt>
      <trkpt lat="46.93227" lon="2.96451">
        <ele>203.43238830566</ele>
        <time>2016-02-03T14:29:52.000Z</time>
      </trkpt>
      <trkpt lat="46.93229" lon="2.96455">
        <ele>203.44731140137</ele>
        <time>2016-02-03T14:29:55.000Z</time>
      </trkpt>
      <trkpt lat="46.9323" lon="2.96459">
        <ele>203.46415710449</ele>
        <time>2016-02-03T14:29:57.000Z</time>
      </trkpt>
      <trkpt lat="46.9323" lon="2.96462">
        <ele>203.48275756836</ele>
        <time>2016-02-03T14:29:59.000Z</time>
      </trkpt>
      <trkpt lat="46.93231" lon="2.96466">
        <ele>203.50337219238</ele>
        <time>2016-02-03T14:30:01.000Z</time>
      </trkpt>
      <trkpt lat="46.93233" lon="2.9647">
        <ele>203.52807617188</ele>
        <time>2016-02-03T14:30:04.000Z</time>
      </trkpt>
      <trkpt lat="46.93233" lon="2.96473">
        <ele>203.55271911621</ele>
        <time>2016-02-03T14:30:06.000Z</time>
      </trkpt>
      <trkpt lat="46.93235" lon="2.96478">
        <ele>203.58264160156</ele>
        <time>2016-02-03T14:30:09.000Z</time>
      </trkpt>
      <trkpt lat="46.93236" lon="2.96483">
        <ele>203.61770629883</ele>
        <time>2016-02-03T14:30:11.000Z</time>
      </trkpt>
      <trkpt lat="46.93238" lon="2.96488">
        <ele>203.65730285645</ele>
        <time>2016-02-03T14:30:14.000Z</time>
      </trkpt>
      <trkpt lat="46.93239" lon="2.96492">
        <ele>203.69985961914</ele>
        <time>2016-02-03T14:30:17.000Z</time>
      </trkpt>
      <trkpt lat="46.9324" lon="2.96496">
        <ele>203.74919128418</ele>
        <time>2016-02-03T14:30:20.000Z</time>
      </trkpt>
      <trkpt lat="46.93241" lon="2.96499">
        <ele>203.79446411133</ele>
        <time>2016-02-03T14:30:22.000Z</time>
      </trkpt>
      <trkpt lat="46.93242" lon="2.96503">
        <ele>203.85075378418</ele>
        <time>2016-02-03T14:30:25.000Z</time>
      </trkpt>
      <trkpt lat="46.93242" lon="2.96506">
        <ele>203.90951538086</ele>
        <time>2016-02-03T14:30:27.000Z</time>
      </trkpt>
      <trkpt lat="46.93241" lon="2.9651">
        <ele>203.978515625</ele>
        <time>2016-02-03T14:30:30.000Z</time>
      </trkpt>
      <trkpt lat="46.93241" lon="2.96515">
        <ele>204.06002807617</ele>
        <time>2016-02-03T14:30:32.000Z</time>
      </trkpt>
      <trkpt lat="46.93242" lon="2.9652">
        <ele>204.15954589844</ele>
        <time>2016-02-03T14:30:34.000Z</time>
      </trkpt>
      <trkpt lat="46.93243" lon="2.96524">
        <ele>204.263671875</ele>
        <time>2016-02-03T14:30:36.000Z</time>
      </trkpt>
      <trkpt lat="46.93244" lon="2.9653">
        <ele>204.38452148438</ele>
        <time>2016-02-03T14:30:39.000Z</time>
      </trkpt>
      <trkpt lat="46.93245" lon="2.96535">
        <ele>204.51391601562</ele>
        <time>2016-02-03T14:30:42.000Z</time>
      </trkpt>
      <trkpt lat="46.93247" lon="2.9654">
        <ele>204.6474609375</ele>
        <time>2016-02-03T14:30:45.000Z</time>
      </trkpt>
      <trkpt lat="46.93247" lon="2.96544">
        <ele>204.77709960938</ele>
        <time>2016-02-03T14:30:48.000Z</time>
      </trkpt>
      <trkpt lat="46.93248" lon="2.96547">
        <ele>204.89660644531</ele>
        <time>2016-02-03T14:30:50.000Z</time>
      </trkpt>
      <trkpt lat="46.93249" lon="2.96552">
        <ele>205.01501464844</ele>
        <time>2016-02-03T14:30:53.000Z</time>
      </trkpt>
      <trkpt lat="46.9325" lon="2.96555">
        <ele>205.12036132812</ele>
        <time>2016-02-03T14:30:55.000Z</time>
      </trkpt>
      <trkpt lat="46.9325" lon="2.96557">
        <ele>205.208984375</ele>
        <time>2016-02-03T14:30:57.000Z</time>
      </trkpt>
      <trkpt lat="46.93251" lon="2.96561">
        <ele>205.29838562012</ele>
        <time>2016-02-03T14:31:00.000Z</time>
      </trkpt>
      <trkpt lat="46.93251" lon="2.96565">
        <ele>205.39208984375</ele>
        <time>2016-02-03T14:31:02.000Z</time>
      </trkpt>
      <trkpt lat="46.93251" lon="2.9657">
        <ele>205.47952270508</ele>
        <time>2016-02-03T14:31:05.000Z</time>
      </trkpt>
      <trkpt lat="46.9325" lon="2.96574">
        <ele>205.57150268555</ele>
        <time>2016-02-03T14:31:08.000Z</time>
      </trkpt>
      <trkpt lat="46.93251" lon="2.96578">
        <ele>205.67231750488</ele>
        <time>2016-02-03T14:31:11.000Z</time>
      </trkpt>
      <trkpt lat="46.93251" lon="2.96581">
        <ele>205.76847839355</ele>
        <time>2016-02-03T14:31:13.000Z</time>
      </trkpt>
      <trkpt lat="46.93252" lon="2.96582">
        <ele>205.85339355469</ele>
        <time>2016-02-03T14:31:16.000Z</time>
      </trkpt>
      <trkpt lat="46.93253" lon="2.96583">
        <ele>205.9232635498</ele>
        <time>2016-02-03T14:31:24.000Z</time>
      </trkpt>
      <trkpt lat="46.93253" lon="2.96584">
        <ele>205.97846984863</ele>
        <time>2016-02-03T14:31:27.000Z</time>
      </trkpt>
      <trkpt lat="46.93255" lon="2.96586">
        <ele>206.02694702148</ele>
        <time>2016-02-03T14:31:29.000Z</time>
      </trkpt>
      <trkpt lat="46.93257" lon="2.96591">
        <ele>206.0885925293</ele>
        <time>2016-02-03T14:31:32.000Z</time>
      </trkpt>
      <trkpt lat="46.93259" lon="2.96593">
        <ele>206.15922546387</ele>
        <time>2016-02-03T14:31:34.000Z</time>
      </trkpt>
      <trkpt lat="46.93259" lon="2.96596">
        <ele>206.23706054688</ele>
        <time>2016-02-03T14:31:36.000Z</time>
      </trkpt>
      <trkpt lat="46.9326" lon="2.96598">
        <ele>206.31958007812</ele>
        <time>2016-02-03T14:31:38.000Z</time>
      </trkpt>
      <trkpt lat="46.93262" lon="2.96602">
        <ele>206.41442871094</ele>
        <time>2016-02-03T14:31:41.000Z</time>
      </trkpt>
      <trkpt lat="46.93264" lon="2.96605">
        <ele>206.50146484375</ele>
        <time>2016-02-03T14:31:44.000Z</time>
      </trkpt>
      <trkpt lat="46.93266" lon="2.96607">
        <ele>206.58776855469</ele>
        <time>2016-02-03T14:31:47.000Z</time>
      </trkpt>
      <trkpt lat="46.93268" lon="2.9661">
        <ele>206.67614746094</ele>
        <time>2016-02-03T14:31:50.000Z</time>
      </trkpt>
      <trkpt lat="46.9327" lon="2.96613">
        <ele>206.77709960938</ele>
        <time>2016-02-03T14:31:53.000Z</time>
      </trkpt>
      <trkpt lat="46.93271" lon="2.96615">
        <ele>206.86352539062</ele>
        <time>2016-02-03T14:31:55.000Z</time>
      </trkpt>
      <trkpt lat="46.93273" lon="2.96618">
        <ele>206.947265625</ele>
        <time>2016-02-03T14:31:58.000Z</time>
      </trkpt>
      <trkpt lat="46.93274" lon="2.96622">
        <ele>207.03259277344</ele>
        <time>2016-02-03T14:32:01.000Z</time>
      </trkpt>
      <trkpt lat="46.93275" lon="2.96625">
        <ele>207.119140625</ele>
        <time>2016-02-03T14:32:04.000Z</time>
      </trkpt>
      <trkpt lat="46.93276" lon="2.96627">
        <ele>207.19885253906</ele>
        <time>2016-02-03T14:32:06.000Z</time>
      </trkpt>
      <trkpt lat="46.93277" lon="2.9663">
        <ele>207.28173828125</ele>
        <time>2016-02-03T14:32:08.000Z</time>
      </trkpt>
      <trkpt lat="46.93279" lon="2.96634">
        <ele>207.36791992188</ele>
        <time>2016-02-03T14:32:11.000Z</time>
      </trkpt>
      <trkpt lat="46.93279" lon="2.96635">
        <ele>207.44567871094</ele>
        <time>2016-02-03T14:32:14.000Z</time>
      </trkpt>
      <trkpt lat="46.9328" lon="2.96639">
        <ele>207.52502441406</ele>
        <time>2016-02-03T14:32:17.000Z</time>
      </trkpt>
      <trkpt lat="46.9328" lon="2.96641">
        <ele>207.60180664062</ele>
        <time>2016-02-03T14:32:19.000Z</time>
      </trkpt>
      <trkpt lat="46.93281" lon="2.96646">
        <ele>207.69189453125</ele>
        <time>2016-02-03T14:32:22.000Z</time>
      </trkpt>
      <trkpt lat="46.93281" lon="2.96649">
        <ele>207.7724609375</ele>
        <time>2016-02-03T14:32:24.000Z</time>
      </trkpt>
      <trkpt lat="46.93281" lon="2.96652">
        <ele>207.8564453125</ele>
        <time>2016-02-03T14:32:26.000Z</time>
      </trkpt>
      <trkpt lat="46.93282" lon="2.96654">
        <ele>207.93432617188</ele>
        <time>2016-02-03T14:32:29.000Z</time>
      </trkpt>
      <trkpt lat="46.93284" lon="2.96662">
        <ele>208.04113769531</ele>
        <time>2016-02-03T14:32:32.000Z</time>
      </trkpt>
      <trkpt lat="46.93286" lon="2.96667">
        <ele>208.1484375</ele>
        <time>2016-02-03T14:32:35.000Z</time>
      </trkpt>
      <trkpt lat="46.93287" lon="2.96669">
        <ele>208.24978637695</ele>
        <time>2016-02-03T14:32:38.000Z</time>
      </trkpt>
      <trkpt lat="46.93287" lon="2.96671">
        <ele>208.34216308594</ele>
        <time>2016-02-03T14:32:41.000Z</time>
      </trkpt>
      <trkpt lat="46.93287" lon="2.96674">
        <ele>208.42538452148</ele>
        <time>2016-02-03T14:32:43.000Z</time>
      </trkpt>
      <trkpt lat="46.93288" lon="2.9668">
        <ele>208.47827148438</ele>
        <time>2016-02-03T14:32:47.000Z</time>
      </trkpt>
      <trkpt lat="46.9329" lon="2.96685">
        <ele>208.51274108887</ele>
        <time>2016-02-03T14:32:57.000Z</time>
      </trkpt>
      <trkpt lat="46.93293" lon="2.96692">
        <ele>208.55435180664</ele>
        <time>2016-02-03T14:32:58.000Z</time>
      </trkpt>
      <trkpt lat="46.93295" lon="2.96697">
        <ele>208.6018371582</ele>
        <time>2016-02-03T14:32:59.000Z</time>
      </trkpt>
      <trkpt lat="46.93296" lon="2.967">
        <ele>208.64981079102</ele>
        <time>2016-02-03T14:33:00.000Z</time>
      </trkpt>
      <trkpt lat="46.93298" lon="2.96703">
        <ele>208.69128417969</ele>
        <time>2016-02-03T14:33:01.000Z</time>
      </trkpt>
      <trkpt lat="46.93299" lon="2.96708">
        <ele>208.7307434082</ele>
        <time>2016-02-03T14:33:03.000Z</time>
      </trkpt>
      <trkpt lat="46.93301" lon="2.96711">
        <ele>208.76208496094</ele>
        <time>2016-02-03T14:33:06.000Z</time>
      </trkpt>
      <trkpt lat="46.93302" lon="2.96714">
        <ele>208.78804016113</ele>
        <time>2016-02-03T14:33:18.000Z</time>
      </trkpt>
      <trkpt lat="46.93303" lon="2.96716">
        <ele>208.8127746582</ele>
        <time>2016-02-03T14:33:24.000Z</time>
      </trkpt>
      <trkpt lat="46.93304" lon="2.96719">
        <ele>208.83467102051</ele>
        <time>2016-02-03T14:33:26.000Z</time>
      </trkpt>
      <trkpt lat="46.93304" lon="2.96721">
        <ele>208.85192871094</ele>
        <time>2016-02-03T14:33:26.000Z</time>
      </trkpt>
      <trkpt lat="46.93306" lon="2.96726">
        <ele>208.86894226074</ele>
        <time>2016-02-03T14:33:26.000Z</time>
      </trkpt>
      <trkpt lat="46.93307" lon="2.96732">
        <ele>208.88735961914</ele>
        <time>2016-02-03T14:33:26.000Z</time>
      </trkpt>
      <trkpt lat="46.93309" lon="2.96736">
        <ele>208.90649414062</ele>
        <time>2016-02-03T14:33:27.000Z</time>
      </trkpt>
      <trkpt lat="46.93311" lon="2.96739">
        <ele>208.92626953125</ele>
        <time>2016-02-03T14:33:27.000Z</time>
      </trkpt>
      <trkpt lat="46.93312" lon="2.96741">
        <ele>208.94473266602</ele>
        <time>2016-02-03T14:33:29.000Z</time>
      </trkpt>
      <trkpt lat="46.93314" lon="2.96746">
        <ele>208.96122741699</ele>
        <time>2016-02-03T14:33:32.000Z</time>
      </trkpt>
      <trkpt lat="46.93318" lon="2.96751">
        <ele>208.97213745117</ele>
        <time>2016-02-03T14:33:35.000Z</time>
      </trkpt>
      <trkpt lat="46.9332" lon="2.96755">
        <ele>208.96878051758</ele>
        <time>2016-02-03T14:33:37.000Z</time>
      </trkpt>
      <trkpt lat="46.93322" lon="2.96761">
        <ele>208.94682312012</ele>
        <time>2016-02-03T14:33:40.000Z</time>
      </trkpt>
      <trkpt lat="46.93323" lon="2.96763">
        <ele>208.91694641113</ele>
        <time>2016-02-03T14:33:42.000Z</time>
      </trkpt>
      <trkpt lat="46.93324" lon="2.96767">
        <ele>208.87326049805</ele>
        <time>2016-02-03T14:33:45.000Z</time>
      </trkpt>
      <trkpt lat="46.93325" lon="2.96769">
        <ele>208.82499694824</ele>
        <time>2016-02-03T14:33:47.000Z</time>
      </trkpt>
      <trkpt lat="46.93327" lon="2.96772">
        <ele>208.78157043457</ele>
        <time>2016-02-03T14:33:50.000Z</time>
      </trkpt>
      <trkpt lat="46.93328" lon="2.96774">
        <ele>208.74967956543</ele>
        <time>2016-02-03T14:33:52.000Z</time>
      </trkpt>
      <trkpt lat="46.9333" lon="2.96778">
        <ele>208.71391296387</ele>
        <time>2016-02-03T14:33:55.000Z</time>
      </trkpt>
      <trkpt lat="46.93331" lon="2.96781">
        <ele>208.68254089355</ele>
        <time>2016-02-03T14:33:57.000Z</time>
      </trkpt>
      <trkpt lat="46.93333" lon="2.96786">
        <ele>208.6468963623</ele>
        <time>2016-02-03T14:34:00.000Z</time>
      </trkpt>
      <trkpt lat="46.93334" lon="2.96788">
        <ele>208.61555480957</ele>
        <time>2016-02-03T14:34:02.000Z</time>
      </trkpt>
      <trkpt lat="46.93335" lon="2.9679">
        <ele>208.5874786377</ele>
        <time>2016-02-03T14:34:04.000Z</time>
      </trkpt>
      <trkpt lat="46.93336" lon="2.96794">
        <ele>208.56802368164</ele>
        <time>2016-02-03T14:34:07.000Z</time>
      </trkpt>
      <trkpt lat="46.93339" lon="2.968">
        <ele>208.55807495117</ele>
        <time>2016-02-03T14:34:10.000Z</time>
      </trkpt>
      <trkpt lat="46.93341" lon="2.96806">
        <ele>208.56954956055</ele>
        <time>2016-02-03T14:34:13.000Z</time>
      </trkpt>
      <trkpt lat="46.93343" lon="2.96811">
        <ele>208.58723449707</ele>
        <time>2016-02-03T14:34:16.000Z</time>
      </trkpt>
      <trkpt lat="46.93343" lon="2.96814">
        <ele>208.61056518555</ele>
        <time>2016-02-03T14:34:19.000Z</time>
      </trkpt>
      <trkpt lat="46.93344" lon="2.96816">
        <ele>208.63772583008</ele>
        <time>2016-02-03T14:34:21.000Z</time>
      </trkpt>
      <trkpt lat="46.93345" lon="2.96819">
        <ele>208.66775512695</ele>
        <time>2016-02-03T14:34:24.000Z</time>
      </trkpt>
      <trkpt lat="46.93348" lon="2.96825">
        <ele>208.72229003906</ele>
        <time>2016-02-03T14:34:38.000Z</time>
      </trkpt>
      <trkpt lat="46.93354" lon="2.96833">
        <ele>208.83662414551</ele>
        <time>2016-02-03T14:34:42.000Z</time>
      </trkpt>
      <trkpt lat="46.93355" lon="2.96835">
        <ele>208.96325683594</ele>
        <time>2016-02-03T14:34:44.000Z</time>
      </trkpt>
      <trkpt lat="46.93356" lon="2.96838">
        <ele>209.10629272461</ele>
        <time>2016-02-03T14:34:52.000Z</time>
      </trkpt>
      <trkpt lat="46.93357" lon="2.96841">
        <ele>209.25210571289</ele>
        <time>2016-02-03T14:34:55.000Z</time>
      </trkpt>
      <trkpt lat="46.93357" lon="2.96845">
        <ele>209.37670898438</ele>
        <time>2016-02-03T14:34:58.000Z</time>
      </trkpt>
      <trkpt lat="46.93359" lon="2.96849">
        <ele>209.46420288086</ele>
        <time>2016-02-03T14:35:01.000Z</time>
      </trkpt>
      <trkpt lat="46.9336" lon="2.96853">
        <ele>209.55603027344</ele>
        <time>2016-02-03T14:35:03.000Z</time>
      </trkpt>
      <trkpt lat="46.93362" lon="2.96857">
        <ele>209.65698242188</ele>
        <time>2016-02-03T14:35:05.000Z</time>
      </trkpt>
      <trkpt lat="46.93364" lon="2.96863">
        <ele>209.78039550781</ele>
        <time>2016-02-03T14:35:08.000Z</time>
      </trkpt>
      <trkpt lat="46.93365" lon="2.96866">
        <ele>209.91665649414</ele>
        <time>2016-02-03T14:35:10.000Z</time>
      </trkpt>
      <trkpt lat="46.93368" lon="2.9687">
        <ele>210.07405090332</ele>
        <time>2016-02-03T14:35:13.000Z</time>
      </trkpt>
      <trkpt lat="46.93369" lon="2.96874">
        <ele>210.22966003418</ele>
        <time>2016-02-03T14:35:15.000Z</time>
      </trkpt>
      <trkpt lat="46.9337" lon="2.96879">
        <ele>210.3857421875</ele>
        <time>2016-02-03T14:35:18.000Z</time>
      </trkpt>
      <trkpt lat="46.93371" lon="2.96886">
        <ele>210.53720092773</ele>
        <time>2016-02-03T14:35:21.000Z</time>
      </trkpt>
      <trkpt lat="46.93372" lon="2.9689">
        <ele>210.68057250977</ele>
        <time>2016-02-03T14:35:23.000Z</time>
      </trkpt>
      <trkpt lat="46.93373" lon="2.96894">
        <ele>210.81034851074</ele>
        <time>2016-02-03T14:35:26.000Z</time>
      </trkpt>
      <trkpt lat="46.93374" lon="2.96897">
        <ele>210.94511413574</ele>
        <time>2016-02-03T14:35:28.000Z</time>
      </trkpt>
      <trkpt lat="46.93376" lon="2.969">
        <ele>211.07890319824</ele>
        <time>2016-02-03T14:35:30.000Z</time>
      </trkpt>
      <trkpt lat="46.93377" lon="2.96907">
        <ele>211.22958374023</ele>
        <time>2016-02-03T14:35:33.000Z</time>
      </trkpt>
      <trkpt lat="46.93378" lon="2.96912">
        <ele>211.38662719727</ele>
        <time>2016-02-03T14:35:36.000Z</time>
      </trkpt>
      <trkpt lat="46.93378" lon="2.96914">
        <ele>211.52095031738</ele>
        <time>2016-02-03T14:35:38.000Z</time>
      </trkpt>
      <trkpt lat="46.93378" lon="2.96919">
        <ele>211.63159179688</ele>
        <time>2016-02-03T14:35:40.000Z</time>
      </trkpt>
      <trkpt lat="46.93378" lon="2.96922">
        <ele>211.69807434082</ele>
        <time>2016-02-03T14:35:43.000Z</time>
      </trkpt>
      <trkpt lat="46.93378" lon="2.96926">
        <ele>211.71728515625</ele>
        <time>2016-02-03T14:35:46.000Z</time>
      </trkpt>
      <trkpt lat="46.93378" lon="2.96933">
        <ele>211.69404602051</ele>
        <time>2016-02-03T14:35:49.000Z</time>
      </trkpt>
      <trkpt lat="46.93378" lon="2.96936">
        <ele>211.64944458008</ele>
        <time>2016-02-03T14:35:52.000Z</time>
      </trkpt>
      <trkpt lat="46.93378" lon="2.9694">
        <ele>211.59379577637</ele>
        <time>2016-02-03T14:35:54.000Z</time>
      </trkpt>
      <trkpt lat="46.93378" lon="2.96943">
        <ele>211.53544616699</ele>
        <time>2016-02-03T14:35:56.000Z</time>
      </trkpt>
      <trkpt lat="46.93376" lon="2.96948">
        <ele>211.43681335449</ele>
        <time>2016-02-03T14:35:59.000Z</time>
      </trkpt>
      <trkpt lat="46.93375" lon="2.96953">
        <ele>211.33125305176</ele>
        <time>2016-02-03T14:36:02.000Z</time>
      </trkpt>
      <trkpt lat="46.93374" lon="2.96958">
        <ele>211.20883178711</ele>
        <time>2016-02-03T14:36:05.000Z</time>
      </trkpt>
      <trkpt lat="46.93373" lon="2.96965">
        <ele>211.06372070312</ele>
        <time>2016-02-03T14:36:08.000Z</time>
      </trkpt>
      <trkpt lat="46.93372" lon="2.9697">
        <ele>210.91128540039</ele>
        <time>2016-02-03T14:36:11.000Z</time>
      </trkpt>
      <trkpt lat="46.9337" lon="2.96973">
        <ele>210.77746582031</ele>
        <time>2016-02-03T14:36:13.000Z</time>
      </trkpt>
      <trkpt lat="46.9337" lon="2.96979">
        <ele>210.65051269531</ele>
        <time>2016-02-03T14:36:15.000Z</time>
      </trkpt>
      <trkpt lat="46.93369" lon="2.96984">
        <ele>210.51770019531</ele>
        <time>2016-02-03T14:36:18.000Z</time>
      </trkpt>
      <trkpt lat="46.93367" lon="2.96984">
        <ele>210.40536499023</ele>
        <time>2016-02-03T14:36:20.000Z</time>
      </trkpt>
      <trkpt lat="46.93365" lon="2.96988">
        <ele>210.28694152832</ele>
        <time>2016-02-03T14:36:23.000Z</time>
      </trkpt>
      <trkpt lat="46.93364" lon="2.96993">
        <ele>210.16470336914</ele>
        <time>2016-02-03T14:36:25.000Z</time>
      </trkpt>
      <trkpt lat="46.93363" lon="2.96997">
        <ele>210.03756713867</ele>
        <time>2016-02-03T14:36:28.000Z</time>
      </trkpt>
      <trkpt lat="46.93361" lon="2.97001">
        <ele>209.90922546387</ele>
        <time>2016-02-03T14:36:31.000Z</time>
      </trkpt>
      <trkpt lat="46.93359" lon="2.97003">
        <ele>209.77310180664</ele>
        <time>2016-02-03T14:36:33.000Z</time>
      </trkpt>
      <trkpt lat="46.93358" lon="2.97006">
        <ele>209.64779663086</ele>
        <time>2016-02-03T14:36:35.000Z</time>
      </trkpt>
      <trkpt lat="46.93357" lon="2.97013">
        <ele>209.52542114258</ele>
        <time>2016-02-03T14:36:38.000Z</time>
      </trkpt>
      <trkpt lat="46.93357" lon="2.9702">
        <ele>209.39912414551</ele>
        <time>2016-02-03T14:36:41.000Z</time>
      </trkpt>
      <trkpt lat="46.93356" lon="2.97027">
        <ele>209.28405761719</ele>
        <time>2016-02-03T14:36:44.000Z</time>
      </trkpt>
      <trkpt lat="46.93356" lon="2.97029">
        <ele>209.18330383301</ele>
        <time>2016-02-03T14:36:46.000Z</time>
      </trkpt>
      <trkpt lat="46.93356" lon="2.97032">
        <ele>209.09704589844</ele>
        <time>2016-02-03T14:36:48.000Z</time>
      </trkpt>
      <trkpt lat="46.93355" lon="2.97038">
        <ele>209.00898742676</ele>
        <time>2016-02-03T14:36:51.000Z</time>
      </trkpt>
      <trkpt lat="46.93354" lon="2.97043">
        <ele>208.92427062988</ele>
        <time>2016-02-03T14:36:54.000Z</time>
      </trkpt>
      <trkpt lat="46.93353" lon="2.97049">
        <ele>208.83557128906</ele>
        <time>2016-02-03T14:36:57.000Z</time>
      </trkpt>
      <trkpt lat="46.93353" lon="2.97054">
        <ele>208.74194335938</ele>
        <time>2016-02-03T14:36:59.000Z</time>
      </trkpt>
      <trkpt lat="46.93354" lon="2.97058">
        <ele>208.65063476562</ele>
        <time>2016-02-03T14:37:02.000Z</time>
      </trkpt>
      <trkpt lat="46.93354" lon="2.97061">
        <ele>208.58613586426</ele>
        <time>2016-02-03T14:37:04.000Z</time>
      </trkpt>
      <trkpt lat="46.93354" lon="2.97063">
        <ele>208.54179382324</ele>
        <time>2016-02-03T14:37:06.000Z</time>
      </trkpt>
      <trkpt lat="46.93356" lon="2.97074">
        <ele>208.51123046875</ele>
        <time>2016-02-03T14:37:09.000Z</time>
      </trkpt>
      <trkpt lat="46.93356" lon="2.97079">
        <ele>208.48457336426</ele>
        <time>2016-02-03T14:37:12.000Z</time>
      </trkpt>
      <trkpt lat="46.93356" lon="2.97083">
        <ele>208.45381164551</ele>
        <time>2016-02-03T14:37:15.000Z</time>
      </trkpt>
      <trkpt lat="46.93355" lon="2.97088">
        <ele>208.41098022461</ele>
        <time>2016-02-03T14:37:18.000Z</time>
      </trkpt>
      <trkpt lat="46.93355" lon="2.97092">
        <ele>208.36735534668</ele>
        <time>2016-02-03T14:37:21.000Z</time>
      </trkpt>
      <trkpt lat="46.93354" lon="2.97097">
        <ele>208.31315612793</ele>
        <time>2016-02-03T14:37:25.000Z</time>
      </trkpt>
      <trkpt lat="46.93353" lon="2.97099">
        <ele>208.25045776367</ele>
        <time>2016-02-03T14:37:26.000Z</time>
      </trkpt>
      <trkpt lat="46.93351" lon="2.97102">
        <ele>208.18168640137</ele>
        <time>2016-02-03T14:37:28.000Z</time>
      </trkpt>
      <trkpt lat="46.9335" lon="2.97108">
        <ele>208.10922241211</ele>
        <time>2016-02-03T14:37:31.000Z</time>
      </trkpt>
      <trkpt lat="46.93349" lon="2.97111">
        <ele>208.02880859375</ele>
        <time>2016-02-03T14:37:33.000Z</time>
      </trkpt>
      <trkpt lat="46.93348" lon="2.97112">
        <ele>207.95610046387</ele>
        <time>2016-02-03T14:37:35.000Z</time>
      </trkpt>
      <trkpt lat="46.93347" lon="2.97116">
        <ele>207.88374328613</ele>
        <time>2016-02-03T14:37:37.000Z</time>
      </trkpt>
      <trkpt lat="46.93345" lon="2.97122">
        <ele>207.80258178711</ele>
        <time>2016-02-03T14:37:40.000Z</time>
      </trkpt>
      <trkpt lat="46.93343" lon="2.97126">
        <ele>207.72370910645</ele>
        <time>2016-02-03T14:37:43.000Z</time>
      </trkpt>
      <trkpt lat="46.93343" lon="2.9713">
        <ele>207.64566040039</ele>
        <time>2016-02-03T14:37:45.000Z</time>
      </trkpt>
      <trkpt lat="46.93341" lon="2.97133">
        <ele>207.56381225586</ele>
        <time>2016-02-03T14:37:48.000Z</time>
      </trkpt>
      <trkpt lat="46.9334" lon="2.97136">
        <ele>207.48776245117</ele>
        <time>2016-02-03T14:37:50.000Z</time>
      </trkpt>
      <trkpt lat="46.93339" lon="2.97144">
        <ele>207.42196655273</ele>
        <time>2016-02-03T14:37:53.000Z</time>
      </trkpt>
      <trkpt lat="46.93338" lon="2.97147">
        <ele>207.36196899414</ele>
        <time>2016-02-03T14:37:55.000Z</time>
      </trkpt>
      <trkpt lat="46.93336" lon="2.9715">
        <ele>207.29489135742</ele>
        <time>2016-02-03T14:37:57.000Z</time>
      </trkpt>
      <trkpt lat="46.93336" lon="2.97154">
        <ele>207.23751831055</ele>
        <time>2016-02-03T14:38:00.000Z</time>
      </trkpt>
      <trkpt lat="46.93335" lon="2.97159">
        <ele>207.17707824707</ele>
        <time>2016-02-03T14:38:03.000Z</time>
      </trkpt>
      <trkpt lat="46.93332" lon="2.97163">
        <ele>207.11018371582</ele>
        <time>2016-02-03T14:38:06.000Z</time>
      </trkpt>
      <trkpt lat="46.93331" lon="2.97169">
        <ele>207.041015625</ele>
        <time>2016-02-03T14:38:09.000Z</time>
      </trkpt>
      <trkpt lat="46.9333" lon="2.97173">
        <ele>206.97358703613</ele>
        <time>2016-02-03T14:38:11.000Z</time>
      </trkpt>
      <trkpt lat="46.93328" lon="2.97177">
        <ele>206.89057922363</ele>
        <time>2016-02-03T14:38:13.000Z</time>
      </trkpt>
      <trkpt lat="46.93328" lon="2.9718">
        <ele>206.80879211426</ele>
        <time>2016-02-03T14:38:15.000Z</time>
      </trkpt>
      <trkpt lat="46.93327" lon="2.97182">
        <ele>206.73481750488</ele>
        <time>2016-02-03T14:38:18.000Z</time>
      </trkpt>
      <trkpt lat="46.93326" lon="2.97184">
        <ele>206.66325378418</ele>
        <time>2016-02-03T14:38:20.000Z</time>
      </trkpt>
      <trkpt lat="46.93325" lon="2.97188">
        <ele>206.59126281738</ele>
        <time>2016-02-03T14:38:23.000Z</time>
      </trkpt>
      <trkpt lat="46.93324" lon="2.9719">
        <ele>206.53096008301</ele>
        <time>2016-02-03T14:38:26.000Z</time>
      </trkpt>
      <trkpt lat="46.93321" lon="2.97193">
        <ele>206.45950317383</ele>
        <time>2016-02-03T14:38:29.000Z</time>
      </trkpt>
      <trkpt lat="46.9332" lon="2.97195">
        <ele>206.38586425781</ele>
        <time>2016-02-03T14:38:31.000Z</time>
      </trkpt>
      <trkpt lat="46.93319" lon="2.97198">
        <ele>206.30932617188</ele>
        <time>2016-02-03T14:38:34.000Z</time>
      </trkpt>
      <trkpt lat="46.93316" lon="2.97201">
        <ele>206.22494506836</ele>
        <time>2016-02-03T14:38:37.000Z</time>
      </trkpt>
      <trkpt lat="46.93313" lon="2.97206">
        <ele>206.12658691406</ele>
        <time>2016-02-03T14:38:40.000Z</time>
      </trkpt>
      <trkpt lat="46.93312" lon="2.97208">
        <ele>206.03848266602</ele>
        <time>2016-02-03T14:38:42.000Z</time>
      </trkpt>
      <trkpt lat="46.9331" lon="2.97213">
        <ele>205.9475402832</ele>
        <time>2016-02-03T14:38:45.000Z</time>
      </trkpt>
      <trkpt lat="46.93309" lon="2.97216">
        <ele>205.85517883301</ele>
        <time>2016-02-03T14:38:47.000Z</time>
      </trkpt>
      <trkpt lat="46.93308" lon="2.97221">
        <ele>205.77143859863</ele>
        <time>2016-02-03T14:38:50.000Z</time>
      </trkpt>
      <trkpt lat="46.93307" lon="2.97224">
        <ele>205.70491027832</ele>
        <time>2016-02-03T14:38:52.000Z</time>
      </trkpt>
      <trkpt lat="46.93306" lon="2.97228">
        <ele>205.63693237305</ele>
        <time>2016-02-03T14:38:54.000Z</time>
      </trkpt>
      <trkpt lat="46.93304" lon="2.97234">
        <ele>205.57109069824</ele>
        <time>2016-02-03T14:38:57.000Z</time>
      </trkpt>
      <trkpt lat="46.93303" lon="2.97237">
        <ele>205.50509643555</ele>
        <time>2016-02-03T14:38:59.000Z</time>
      </trkpt>
      <trkpt lat="46.93301" lon="2.97242">
        <ele>205.43774414062</ele>
        <time>2016-02-03T14:39:02.000Z</time>
      </trkpt>
      <trkpt lat="46.93301" lon="2.97243">
        <ele>205.37519836426</ele>
        <time>2016-02-03T14:39:04.000Z</time>
      </trkpt>
      <trkpt lat="46.93298" lon="2.97248">
        <ele>205.3070526123</ele>
        <time>2016-02-03T14:39:07.000Z</time>
      </trkpt>
      <trkpt lat="46.93297" lon="2.97251">
        <ele>205.25024414062</ele>
        <time>2016-02-03T14:39:09.000Z</time>
      </trkpt>
      <trkpt lat="46.93295" lon="2.97257">
        <ele>205.2261505127</ele>
        <time>2016-02-03T14:39:12.000Z</time>
      </trkpt>
      <trkpt lat="46.93295" lon="2.97261">
        <ele>205.23648071289</ele>
        <time>2016-02-03T14:39:15.000Z</time>
      </trkpt>
      <trkpt lat="46.93294" lon="2.97266">
        <ele>205.2689666748</ele>
        <time>2016-02-03T14:39:18.000Z</time>
      </trkpt>
      <trkpt lat="46.93293" lon="2.97269">
        <ele>205.333984375</ele>
        <time>2016-02-03T14:39:20.000Z</time>
      </trkpt>
      <trkpt lat="46.93293" lon="2.97276">
        <ele>205.43615722656</ele>
        <time>2016-02-03T14:39:23.000Z</time>
      </trkpt>
      <trkpt lat="46.93293" lon="2.97279">
        <ele>205.53125</ele>
        <time>2016-02-03T14:39:26.000Z</time>
      </trkpt>
      <trkpt lat="46.93292" lon="2.9728">
        <ele>205.60961914062</ele>
        <time>2016-02-03T14:39:29.000Z</time>
      </trkpt>
      <trkpt lat="46.93291" lon="2.97282">
        <ele>205.67700195312</ele>
        <time>2016-02-03T14:39:31.000Z</time>
      </trkpt>
      <trkpt lat="46.93291" lon="2.97284">
        <ele>205.73559570312</ele>
        <time>2016-02-03T14:39:33.000Z</time>
      </trkpt>
      <trkpt lat="46.9329" lon="2.97288">
        <ele>205.77648925781</ele>
        <time>2016-02-03T14:39:36.000Z</time>
      </trkpt>
      <trkpt lat="46.93291" lon="2.97291">
        <ele>205.822265625</ele>
        <time>2016-02-03T14:39:38.000Z</time>
      </trkpt>
      <trkpt lat="46.93291" lon="2.97293">
        <ele>205.876953125</ele>
        <time>2016-02-03T14:39:40.000Z</time>
      </trkpt>
      <trkpt lat="46.9329" lon="2.97295">
        <ele>205.93237304688</ele>
        <time>2016-02-03T14:39:43.000Z</time>
      </trkpt>
      <trkpt lat="46.93289" lon="2.97297">
        <ele>205.98767089844</ele>
        <time>2016-02-03T14:39:45.000Z</time>
      </trkpt>
      <trkpt lat="46.93287" lon="2.97301">
        <ele>206.037109375</ele>
        <time>2016-02-03T14:39:48.000Z</time>
      </trkpt>
      <trkpt lat="46.93286" lon="2.97304">
        <ele>206.0771484375</ele>
        <time>2016-02-03T14:39:50.000Z</time>
      </trkpt>
      <trkpt lat="46.93285" lon="2.97307">
        <ele>206.11572265625</ele>
        <time>2016-02-03T14:39:52.000Z</time>
      </trkpt>
      <trkpt lat="46.93284" lon="2.97312">
        <ele>206.16796875</ele>
        <time>2016-02-03T14:39:55.000Z</time>
      </trkpt>
      <trkpt lat="46.93283" lon="2.97317">
        <ele>206.23400878906</ele>
        <time>2016-02-03T14:39:58.000Z</time>
      </trkpt>
      <trkpt lat="46.93282" lon="2.97319">
        <ele>206.29724121094</ele>
        <time>2016-02-03T14:40:00.000Z</time>
      </trkpt>
      <trkpt lat="46.93282" lon="2.97325">
        <ele>206.37951660156</ele>
        <time>2016-02-03T14:40:03.000Z</time>
      </trkpt>
      <trkpt lat="46.93282" lon="2.97329">
        <ele>206.47351074219</ele>
        <time>2016-02-03T14:40:05.000Z</time>
      </trkpt>
      <trkpt lat="46.93283" lon="2.97334">
        <ele>206.57255554199</ele>
        <time>2016-02-03T14:40:08.000Z</time>
      </trkpt>
      <trkpt lat="46.93283" lon="2.97336">
        <ele>206.66511535645</ele>
        <time>2016-02-03T14:40:10.000Z</time>
      </trkpt>
      <trkpt lat="46.93283" lon="2.97339">
        <ele>206.77502441406</ele>
        <time>2016-02-03T14:40:13.000Z</time>
      </trkpt>
      <trkpt lat="46.93283" lon="2.97342">
        <ele>206.87704467773</ele>
        <time>2016-02-03T14:40:15.000Z</time>
      </trkpt>
      <trkpt lat="46.93284" lon="2.97347">
        <ele>206.99252319336</ele>
        <time>2016-02-03T14:40:18.000Z</time>
      </trkpt>
      <trkpt lat="46.93285" lon="2.97351">
        <ele>207.11112976074</ele>
        <time>2016-02-03T14:40:21.000Z</time>
      </trkpt>
      <trkpt lat="46.9329" lon="2.97357">
        <ele>207.27153015137</ele>
        <time>2016-02-03T14:40:24.000Z</time>
      </trkpt>
      <trkpt lat="46.93292" lon="2.97361">
        <ele>207.4430847168</ele>
        <time>2016-02-03T14:40:27.000Z</time>
      </trkpt>
      <trkpt lat="46.93294" lon="2.97364">
        <ele>207.6201171875</ele>
        <time>2016-02-03T14:40:29.000Z</time>
      </trkpt>
      <trkpt lat="46.93295" lon="2.97366">
        <ele>207.78076171875</ele>
        <time>2016-02-03T14:40:32.000Z</time>
      </trkpt>
      <trkpt lat="46.93296" lon="2.97369">
        <ele>207.92819213867</ele>
        <time>2016-02-03T14:40:34.000Z</time>
      </trkpt>
      <trkpt lat="46.93298" lon="2.97372">
        <ele>208.04983520508</ele>
        <time>2016-02-03T14:40:37.000Z</time>
      </trkpt>
      <trkpt lat="46.93302" lon="2.97377">
        <ele>208.17697143555</ele>
        <time>2016-02-03T14:40:39.000Z</time>
      </trkpt>
      <trkpt lat="46.93305" lon="2.9738">
        <ele>208.31448364258</ele>
        <time>2016-02-03T14:40:42.000Z</time>
      </trkpt>
      <trkpt lat="46.93308" lon="2.97383">
        <ele>208.45930480957</ele>
        <time>2016-02-03T14:40:45.000Z</time>
      </trkpt>
      <trkpt lat="46.93311" lon="2.97387">
        <ele>208.61422729492</ele>
        <time>2016-02-03T14:40:48.000Z</time>
      </trkpt>
      <trkpt lat="46.93311" lon="2.97388">
        <ele>208.7516784668</ele>
        <time>2016-02-03T14:40:51.000Z</time>
      </trkpt>
      <trkpt lat="46.93312" lon="2.9739">
        <ele>208.86190795898</ele>
        <time>2016-02-03T14:40:54.000Z</time>
      </trkpt>
      <trkpt lat="46.93313" lon="2.97393">
        <ele>208.95840454102</ele>
        <time>2016-02-03T14:40:57.000Z</time>
      </trkpt>
      <trkpt lat="46.93314" lon="2.97394">
        <ele>209.03833007812</ele>
        <time>2016-02-03T14:40:59.000Z</time>
      </trkpt>
      <trkpt lat="46.93317" lon="2.97395">
        <ele>209.10786437988</ele>
        <time>2016-02-03T14:41:02.000Z</time>
      </trkpt>
      <trkpt lat="46.93319" lon="2.97396">
        <ele>209.17761230469</ele>
        <time>2016-02-03T14:41:05.000Z</time>
      </trkpt>
      <trkpt lat="46.9332" lon="2.97396">
        <ele>209.23661804199</ele>
        <time>2016-02-03T14:41:07.000Z</time>
      </trkpt>
      <trkpt lat="46.93322" lon="2.97396">
        <ele>209.27917480469</ele>
        <time>2016-02-03T14:41:10.000Z</time>
      </trkpt>
      <trkpt lat="46.93324" lon="2.97396">
        <ele>209.31823730469</ele>
        <time>2016-02-03T14:41:13.000Z</time>
      </trkpt>
      <trkpt lat="46.93326" lon="2.97397">
        <ele>209.35098266602</ele>
        <time>2016-02-03T14:41:15.000Z</time>
      </trkpt>
      <trkpt lat="46.93328" lon="2.97399">
        <ele>209.38957214355</ele>
        <time>2016-02-03T14:41:18.000Z</time>
      </trkpt>
      <trkpt lat="46.9333" lon="2.974">
        <ele>209.43978881836</ele>
        <time>2016-02-03T14:41:21.000Z</time>
      </trkpt>
      <trkpt lat="46.93333" lon="2.97402">
        <ele>209.49894714355</ele>
        <time>2016-02-03T14:41:24.000Z</time>
      </trkpt>
      <trkpt lat="46.93338" lon="2.97405">
        <ele>209.56924438477</ele>
        <time>2016-02-03T14:41:27.000Z</time>
      </trkpt>
      <trkpt lat="46.93341" lon="2.97406">
        <ele>209.63369750977</ele>
        <time>2016-02-03T14:41:30.000Z</time>
      </trkpt>
      <trkpt lat="46.93344" lon="2.97408">
        <ele>209.69291687012</ele>
        <time>2016-02-03T14:41:33.000Z</time>
      </trkpt>
      <trkpt lat="46.93348" lon="2.97411">
        <ele>209.75381469727</ele>
        <time>2016-02-03T14:41:36.000Z</time>
      </trkpt>
      <trkpt lat="46.93349" lon="2.97412">
        <ele>209.80249023438</ele>
        <time>2016-02-03T14:41:39.000Z</time>
      </trkpt>
      <trkpt lat="46.9335" lon="2.97412">
        <ele>209.83520507812</ele>
        <time>2016-02-03T14:41:42.000Z</time>
      </trkpt>
      <trkpt lat="46.93353" lon="2.97414">
        <ele>209.87475585938</ele>
        <time>2016-02-03T14:41:45.000Z</time>
      </trkpt>
      <trkpt lat="46.93354" lon="2.97416">
        <ele>209.912109375</ele>
        <time>2016-02-03T14:41:47.000Z</time>
      </trkpt>
      <trkpt lat="46.93356" lon="2.97418">
        <ele>209.94506835938</ele>
        <time>2016-02-03T14:41:49.000Z</time>
      </trkpt>
      <trkpt lat="46.93357" lon="2.97422">
        <ele>209.99243164062</ele>
        <time>2016-02-03T14:41:52.000Z</time>
      </trkpt>
      <trkpt lat="46.93358" lon="2.97424">
        <ele>210.05126953125</ele>
        <time>2016-02-03T14:41:54.000Z</time>
      </trkpt>
      <trkpt lat="46.93359" lon="2.97428">
        <ele>210.11950683594</ele>
        <time>2016-02-03T14:41:57.000Z</time>
      </trkpt>
      <trkpt lat="46.9336" lon="2.97432">
        <ele>210.19738769531</ele>
        <time>2016-02-03T14:41:59.000Z</time>
      </trkpt>
      <trkpt lat="46.93361" lon="2.97435">
        <ele>210.27844238281</ele>
        <time>2016-02-03T14:42:01.000Z</time>
      </trkpt>
      <trkpt lat="46.93361" lon="2.97437">
        <ele>210.35241699219</ele>
        <time>2016-02-03T14:42:03.000Z</time>
      </trkpt>
      <trkpt lat="46.93362" lon="2.97438">
        <ele>210.42126464844</ele>
        <time>2016-02-03T14:42:05.000Z</time>
      </trkpt>
      <trkpt lat="46.93363" lon="2.97442">
        <ele>210.48901367188</ele>
        <time>2016-02-03T14:42:08.000Z</time>
      </trkpt>
      <trkpt lat="46.93364" lon="2.97448">
        <ele>210.5634765625</ele>
        <time>2016-02-03T14:42:11.000Z</time>
      </trkpt>
      <trkpt lat="46.93365" lon="2.97451">
        <ele>210.6416015625</ele>
        <time>2016-02-03T14:42:14.000Z</time>
      </trkpt>
      <trkpt lat="46.93366" lon="2.97455">
        <ele>210.72888183594</ele>
        <time>2016-02-03T14:42:17.000Z</time>
      </trkpt>
      <trkpt lat="46.93367" lon="2.97459">
        <ele>210.82690429688</ele>
        <time>2016-02-03T14:42:20.000Z</time>
      </trkpt>
      <trkpt lat="46.93367" lon="2.97462">
        <ele>210.92016601562</ele>
        <time>2016-02-03T14:42:22.000Z</time>
      </trkpt>
      <trkpt lat="46.93367" lon="2.97466">
        <ele>211.0087890625</ele>
        <time>2016-02-03T14:42:25.000Z</time>
      </trkpt>
      <trkpt lat="46.93367" lon="2.9747">
        <ele>211.09582519531</ele>
        <time>2016-02-03T14:42:27.000Z</time>
      </trkpt>
      <trkpt lat="46.93367" lon="2.97473">
        <ele>211.18176269531</ele>
        <time>2016-02-03T14:42:30.000Z</time>
      </trkpt>
      <trkpt lat="46.93367" lon="2.97475">
        <ele>211.26147460938</ele>
        <time>2016-02-03T14:42:32.000Z</time>
      </trkpt>
      <trkpt lat="46.93367" lon="2.97481">
        <ele>211.35571289062</ele>
        <time>2016-02-03T14:42:35.000Z</time>
      </trkpt>
      <trkpt lat="46.93367" lon="2.97486">
        <ele>211.44909667969</ele>
        <time>2016-02-03T14:42:37.000Z</time>
      </trkpt>
      <trkpt lat="46.93369" lon="2.97493">
        <ele>211.55969238281</ele>
        <time>2016-02-03T14:42:40.000Z</time>
      </trkpt>
      <trkpt lat="46.93372" lon="2.97503">
        <ele>211.71102905273</ele>
        <time>2016-02-03T14:42:43.000Z</time>
      </trkpt>
      <trkpt lat="46.93373" lon="2.97507">
        <ele>211.87939453125</ele>
        <time>2016-02-03T14:42:46.000Z</time>
      </trkpt>
      <trkpt lat="46.93373" lon="2.97509">
        <ele>212.03295898438</ele>
        <time>2016-02-03T14:42:48.000Z</time>
      </trkpt>
      <trkpt lat="46.93375" lon="2.97512">
        <ele>212.18830871582</ele>
        <time>2016-02-03T14:42:51.000Z</time>
      </trkpt>
      <trkpt lat="46.93377" lon="2.97515">
        <ele>212.3334197998</ele>
        <time>2016-02-03T14:42:54.000Z</time>
      </trkpt>
      <trkpt lat="46.93378" lon="2.97517">
        <ele>212.4365234375</ele>
        <time>2016-02-03T14:42:56.000Z</time>
      </trkpt>
      <trkpt lat="46.9338" lon="2.97519">
        <ele>212.52908325195</ele>
        <time>2016-02-03T14:42:59.000Z</time>
      </trkpt>
      <trkpt lat="46.93383" lon="2.97523">
        <ele>212.6374206543</ele>
        <time>2016-02-03T14:43:02.000Z</time>
      </trkpt>
      <trkpt lat="46.93386" lon="2.97525">
        <ele>212.74584960938</ele>
        <time>2016-02-03T14:43:05.000Z</time>
      </trkpt>
      <trkpt lat="46.93391" lon="2.97527">
        <ele>212.85615539551</ele>
        <time>2016-02-03T14:43:08.000Z</time>
      </trkpt>
      <trkpt lat="46.93394" lon="2.97528">
        <ele>212.96430969238</ele>
        <time>2016-02-03T14:43:11.000Z</time>
      </trkpt>
      <trkpt lat="46.93399" lon="2.97528">
        <ele>213.06257629395</ele>
        <time>2016-02-03T14:43:14.000Z</time>
      </trkpt>
      <trkpt lat="46.93403" lon="2.97529">
        <ele>213.1439666748</ele>
        <time>2016-02-03T14:43:16.000Z</time>
      </trkpt>
      <trkpt lat="46.93406" lon="2.97529">
        <ele>213.21318054199</ele>
        <time>2016-02-03T14:43:19.000Z</time>
      </trkpt>
      <trkpt lat="46.93408" lon="2.97531">
        <ele>213.27346801758</ele>
        <time>2016-02-03T14:43:22.000Z</time>
      </trkpt>
      <trkpt lat="46.9341" lon="2.97532">
        <ele>213.3392791748</ele>
        <time>2016-02-03T14:43:25.000Z</time>
      </trkpt>
      <trkpt lat="46.93411" lon="2.97533">
        <ele>213.40719604492</ele>
        <time>2016-02-03T14:43:27.000Z</time>
      </trkpt>
      <trkpt lat="46.93411" lon="2.97533">
        <ele>213.40719604492</ele>
        <time>2016-02-03T14:43:47.000Z</time>
      </trkpt>
      <trkpt lat="46.93412" lon="2.97532">
        <ele>213.44741821289</ele>
        <time>2016-02-03T14:43:53.000Z</time>
      </trkpt>
      <trkpt lat="46.93412" lon="2.9753">
        <ele>213.46157836914</ele>
        <time>2016-02-03T14:43:55.000Z</time>
      </trkpt>
      <trkpt lat="46.93419" lon="2.97538">
        <ele>213.56745910645</ele>
        <time>2016-02-03T14:44:07.000Z</time>
      </trkpt>
      <trkpt lat="46.9342" lon="2.97538">
        <ele>213.66342163086</ele>
        <time>2016-02-03T14:44:09.000Z</time>
      </trkpt>
      <trkpt lat="46.9342" lon="2.97537">
        <ele>213.73727416992</ele>
        <time>2016-02-03T14:44:12.000Z</time>
      </trkpt>
      <trkpt lat="46.93421" lon="2.97538">
        <ele>213.84994506836</ele>
        <time>2016-02-03T14:44:17.000Z</time>
      </trkpt>
      <trkpt lat="46.93423" lon="2.97539">
        <ele>214.00997924805</ele>
        <time>2016-02-03T14:44:19.000Z</time>
      </trkpt>
      <trkpt lat="46.93426" lon="2.9754">
        <ele>214.10690307617</ele>
        <time>2016-02-03T14:44:22.000Z</time>
      </trkpt>
      <trkpt lat="46.93427" lon="2.97541">
        <ele>214.21748352051</ele>
        <time>2016-02-03T14:44:24.000Z</time>
      </trkpt>
      <trkpt lat="46.9343" lon="2.97542">
        <ele>214.37161254883</ele>
        <time>2016-02-03T14:44:26.000Z</time>
      </trkpt>
      <trkpt lat="46.93433" lon="2.97543">
        <ele>214.55130004883</ele>
        <time>2016-02-03T14:44:29.000Z</time>
      </trkpt>
      <trkpt lat="46.93434" lon="2.97544">
        <ele>214.72207641602</ele>
        <time>2016-02-03T14:44:31.000Z</time>
      </trkpt>
      <trkpt lat="46.93436" lon="2.97546">
        <ele>214.8857421875</ele>
        <time>2016-02-03T14:44:33.000Z</time>
      </trkpt>
      <trkpt lat="46.9344" lon="2.97548">
        <ele>215.08410644531</ele>
        <time>2016-02-03T14:44:36.000Z</time>
      </trkpt>
      <trkpt lat="46.93444" lon="2.97548">
        <ele>215.2919921875</ele>
        <time>2016-02-03T14:44:39.000Z</time>
      </trkpt>
      <trkpt lat="46.93446" lon="2.97548">
        <ele>215.47647094727</ele>
        <time>2016-02-03T14:44:41.000Z</time>
      </trkpt>
      <trkpt lat="46.93449" lon="2.97547">
        <ele>215.65803527832</ele>
        <time>2016-02-03T14:44:44.000Z</time>
      </trkpt>
      <trkpt lat="46.93453" lon="2.97543">
        <ele>215.81806945801</ele>
        <time>2016-02-03T14:44:46.000Z</time>
      </trkpt>
      <trkpt lat="46.93456" lon="2.97541">
        <ele>215.9294128418</ele>
        <time>2016-02-03T14:44:49.000Z</time>
      </trkpt>
      <trkpt lat="46.93457" lon="2.97535">
        <ele>215.9694519043</ele>
        <time>2016-02-03T14:44:51.000Z</time>
      </trkpt>
      <trkpt lat="46.93459" lon="2.97529">
        <ele>215.95101928711</ele>
        <time>2016-02-03T14:44:54.000Z</time>
      </trkpt>
      <trkpt lat="46.93461" lon="2.97524">
        <ele>215.89138793945</ele>
        <time>2016-02-03T14:44:56.000Z</time>
      </trkpt>
      <trkpt lat="46.93461" lon="2.9752">
        <ele>215.78524780273</ele>
        <time>2016-02-03T14:44:58.000Z</time>
      </trkpt>
      <trkpt lat="46.93465" lon="2.97513">
        <ele>215.65254211426</ele>
        <time>2016-02-03T14:45:01.000Z</time>
      </trkpt>
      <trkpt lat="46.93466" lon="2.97508">
        <ele>215.5276184082</ele>
        <time>2016-02-03T14:45:03.000Z</time>
      </trkpt>
      <trkpt lat="46.93466" lon="2.97504">
        <ele>215.40173339844</ele>
        <time>2016-02-03T14:45:06.000Z</time>
      </trkpt>
      <trkpt lat="46.93467" lon="2.97502">
        <ele>215.28755187988</ele>
        <time>2016-02-03T14:45:08.000Z</time>
      </trkpt>
      <trkpt lat="46.93468" lon="2.97498">
        <ele>215.18354797363</ele>
        <time>2016-02-03T14:45:10.000Z</time>
      </trkpt>
      <trkpt lat="46.93468" lon="2.97492">
        <ele>215.06021118164</ele>
        <time>2016-02-03T14:45:13.000Z</time>
      </trkpt>
      <trkpt lat="46.9347" lon="2.97488">
        <ele>214.94267272949</ele>
        <time>2016-02-03T14:45:16.000Z</time>
      </trkpt>
      <trkpt lat="46.9347" lon="2.97485">
        <ele>214.82986450195</ele>
        <time>2016-02-03T14:45:18.000Z</time>
      </trkpt>
      <trkpt lat="46.9347" lon="2.97481">
        <ele>214.70678710938</ele>
        <time>2016-02-03T14:45:20.000Z</time>
      </trkpt>
      <trkpt lat="46.93471" lon="2.97473">
        <ele>214.54704284668</ele>
        <time>2016-02-03T14:45:23.000Z</time>
      </trkpt>
      <trkpt lat="46.93471" lon="2.97469">
        <ele>214.39889526367</ele>
        <time>2016-02-03T14:45:25.000Z</time>
      </trkpt>
      <trkpt lat="46.93473" lon="2.97462">
        <ele>214.22074890137</ele>
        <time>2016-02-03T14:45:28.000Z</time>
      </trkpt>
      <trkpt lat="46.93474" lon="2.97459">
        <ele>214.05949401855</ele>
        <time>2016-02-03T14:45:30.000Z</time>
      </trkpt>
      <trkpt lat="46.93475" lon="2.97453">
        <ele>213.88278198242</ele>
        <time>2016-02-03T14:45:33.000Z</time>
      </trkpt>
      <trkpt lat="46.93475" lon="2.97448">
        <ele>213.71919250488</ele>
        <time>2016-02-03T14:45:36.000Z</time>
      </trkpt>
      <trkpt lat="46.93474" lon="2.97444">
        <ele>213.54223632812</ele>
        <time>2016-02-03T14:45:38.000Z</time>
      </trkpt>
      <trkpt lat="46.93474" lon="2.97438">
        <ele>213.357421875</ele>
        <time>2016-02-03T14:45:41.000Z</time>
      </trkpt>
      <trkpt lat="46.93474" lon="2.97435">
        <ele>213.16206359863</ele>
        <time>2016-02-03T14:45:43.000Z</time>
      </trkpt>
      <trkpt lat="46.93475" lon="2.9743">
        <ele>212.97172546387</ele>
        <time>2016-02-03T14:45:46.000Z</time>
      </trkpt>
      <trkpt lat="46.93475" lon="2.97425">
        <ele>212.78479003906</ele>
        <time>2016-02-03T14:45:49.000Z</time>
      </trkpt>
      <trkpt lat="46.93475" lon="2.97419">
        <ele>212.58834838867</ele>
        <time>2016-02-03T14:45:52.000Z</time>
      </trkpt>
      <trkpt lat="46.93475" lon="2.97415">
        <ele>212.41133117676</ele>
        <time>2016-02-03T14:45:54.000Z</time>
      </trkpt>
      <trkpt lat="46.93475" lon="2.97409">
        <ele>212.19242858887</ele>
        <time>2016-02-03T14:45:57.000Z</time>
      </trkpt>
      <trkpt lat="46.93476" lon="2.97406">
        <ele>211.9748840332</ele>
        <time>2016-02-03T14:45:59.000Z</time>
      </trkpt>
      <trkpt lat="46.93477" lon="2.97403">
        <ele>211.75936889648</ele>
        <time>2016-02-03T14:46:01.000Z</time>
      </trkpt>
      <trkpt lat="46.93478" lon="2.97396">
        <ele>211.51679992676</ele>
        <time>2016-02-03T14:46:04.000Z</time>
      </trkpt>
      <trkpt lat="46.9348" lon="2.97389">
        <ele>211.22897338867</ele>
        <time>2016-02-03T14:46:07.000Z</time>
      </trkpt>
      <trkpt lat="46.93481" lon="2.97385">
        <ele>210.96203613281</ele>
        <time>2016-02-03T14:46:09.000Z</time>
      </trkpt>
      <trkpt lat="46.93482" lon="2.97382">
        <ele>210.69644165039</ele>
        <time>2016-02-03T14:46:11.000Z</time>
      </trkpt>
      <trkpt lat="46.93483" lon="2.97378">
        <ele>210.41889953613</ele>
        <time>2016-02-03T14:46:14.000Z</time>
      </trkpt>
      <trkpt lat="46.93484" lon="2.97375">
        <ele>210.18405151367</ele>
        <time>2016-02-03T14:46:16.000Z</time>
      </trkpt>
      <trkpt lat="46.93484" lon="2.97373">
        <ele>210.00900268555</ele>
        <time>2016-02-03T14:46:18.000Z</time>
      </trkpt>
      <trkpt lat="46.93486" lon="2.97371">
        <ele>209.85343933105</ele>
        <time>2016-02-03T14:46:21.000Z</time>
      </trkpt>
      <trkpt lat="46.93487" lon="2.97369">
        <ele>209.70681762695</ele>
        <time>2016-02-03T14:46:23.000Z</time>
      </trkpt>
      <trkpt lat="46.93489" lon="2.97367">
        <ele>209.58178710938</ele>
        <time>2016-02-03T14:46:26.000Z</time>
      </trkpt>
      <trkpt lat="46.93489" lon="2.97365">
        <ele>209.46919250488</ele>
        <time>2016-02-03T14:46:30.000Z</time>
      </trkpt>
      <trkpt lat="46.93493" lon="2.97365">
        <ele>209.37031555176</ele>
        <time>2016-02-03T14:46:33.000Z</time>
      </trkpt>
      <trkpt lat="46.93495" lon="2.97365">
        <ele>209.30448913574</ele>
        <time>2016-02-03T14:46:35.000Z</time>
      </trkpt>
      <trkpt lat="46.93497" lon="2.97366">
        <ele>209.2785949707</ele>
        <time>2016-02-03T14:46:38.000Z</time>
      </trkpt>
      <trkpt lat="46.935" lon="2.97366">
        <ele>209.27328491211</ele>
        <time>2016-02-03T14:46:41.000Z</time>
      </trkpt>
      <trkpt lat="46.93502" lon="2.97365">
        <ele>209.29536437988</ele>
        <time>2016-02-03T14:46:43.000Z</time>
      </trkpt>
      <trkpt lat="46.93505" lon="2.97362">
        <ele>209.31423950195</ele>
        <time>2016-02-03T14:46:46.000Z</time>
      </trkpt>
      <trkpt lat="46.93508" lon="2.9736">
        <ele>209.31660461426</ele>
        <time>2016-02-03T14:46:49.000Z</time>
      </trkpt>
      <trkpt lat="46.93512" lon="2.97361">
        <ele>209.34671020508</ele>
        <time>2016-02-03T14:46:52.000Z</time>
      </trkpt>
      <trkpt lat="46.93517" lon="2.97363">
        <ele>209.43913269043</ele>
        <time>2016-02-03T14:46:55.000Z</time>
      </trkpt>
      <trkpt lat="46.9352" lon="2.97363">
        <ele>209.56045532227</ele>
        <time>2016-02-03T14:46:58.000Z</time>
      </trkpt>
      <trkpt lat="46.93524" lon="2.97364">
        <ele>209.7219543457</ele>
        <time>2016-02-03T14:47:01.000Z</time>
      </trkpt>
      <trkpt lat="46.93526" lon="2.97363">
        <ele>209.90946960449</ele>
        <time>2016-02-03T14:47:03.000Z</time>
      </trkpt>
      <trkpt lat="46.9353" lon="2.97362">
        <ele>210.06156921387</ele>
        <time>2016-02-03T14:47:06.000Z</time>
      </trkpt>
      <trkpt lat="46.93531" lon="2.97363">
        <ele>210.17692565918</ele>
        <time>2016-02-03T14:47:08.000Z</time>
      </trkpt>
      <trkpt lat="46.93533" lon="2.97364">
        <ele>210.28286743164</ele>
        <time>2016-02-03T14:47:11.000Z</time>
      </trkpt>
      <trkpt lat="46.93534" lon="2.97365">
        <ele>210.38879394531</ele>
        <time>2016-02-03T14:47:13.000Z</time>
      </trkpt>
      <trkpt lat="46.93539" lon="2.97366">
        <ele>210.52021789551</ele>
        <time>2016-02-03T14:47:15.000Z</time>
      </trkpt>
      <trkpt lat="46.93542" lon="2.97366">
        <ele>210.66653442383</ele>
        <time>2016-02-03T14:47:18.000Z</time>
      </trkpt>
      <trkpt lat="46.93544" lon="2.97366">
        <ele>210.80749511719</ele>
        <time>2016-02-03T14:47:20.000Z</time>
      </trkpt>
      <trkpt lat="46.93547" lon="2.97365">
        <ele>210.93542480469</ele>
        <time>2016-02-03T14:47:23.000Z</time>
      </trkpt>
      <trkpt lat="46.93551" lon="2.97366">
        <ele>211.07612609863</ele>
        <time>2016-02-03T14:47:26.000Z</time>
      </trkpt>
      <trkpt lat="46.93553" lon="2.97366">
        <ele>211.18478393555</ele>
        <time>2016-02-03T14:47:29.000Z</time>
      </trkpt>
      <trkpt lat="46.93555" lon="2.97366">
        <ele>211.2763671875</ele>
        <time>2016-02-03T14:47:31.000Z</time>
      </trkpt>
      <trkpt lat="46.93558" lon="2.97366">
        <ele>211.37930297852</ele>
        <time>2016-02-03T14:47:34.000Z</time>
      </trkpt>
      <trkpt lat="46.93559" lon="2.97366">
        <ele>211.47277832031</ele>
        <time>2016-02-03T14:47:36.000Z</time>
      </trkpt>
      <trkpt lat="46.9356" lon="2.97364">
        <ele>211.52407836914</ele>
        <time>2016-02-03T14:47:39.000Z</time>
      </trkpt>
      <trkpt lat="46.93562" lon="2.97364">
        <ele>211.57348632812</ele>
        <time>2016-02-03T14:47:41.000Z</time>
      </trkpt>
      <trkpt lat="46.93565" lon="2.97362">
        <ele>211.61489868164</ele>
        <time>2016-02-03T14:47:44.000Z</time>
      </trkpt>
      <trkpt lat="46.93568" lon="2.97361">
        <ele>211.64213562012</ele>
        <time>2016-02-03T14:47:46.000Z</time>
      </trkpt>
      <trkpt lat="46.93571" lon="2.97359">
        <ele>211.67294311523</ele>
        <time>2016-02-03T14:47:49.000Z</time>
      </trkpt>
      <trkpt lat="46.93573" lon="2.97358">
        <ele>211.70254516602</ele>
        <time>2016-02-03T14:47:52.000Z</time>
      </trkpt>
      <trkpt lat="46.93574" lon="2.97357">
        <ele>211.72756958008</ele>
        <time>2016-02-03T14:47:54.000Z</time>
      </trkpt>
      <trkpt lat="46.93577" lon="2.97356">
        <ele>211.75715637207</ele>
        <time>2016-02-03T14:47:56.000Z</time>
      </trkpt>
      <trkpt lat="46.9358" lon="2.97354">
        <ele>211.79061889648</ele>
        <time>2016-02-03T14:47:59.000Z</time>
      </trkpt>
      <trkpt lat="46.93585" lon="2.97353">
        <ele>211.83012390137</ele>
        <time>2016-02-03T14:48:02.000Z</time>
      </trkpt>
      <trkpt lat="46.93587" lon="2.97351">
        <ele>211.86022949219</ele>
        <time>2016-02-03T14:48:04.000Z</time>
      </trkpt>
      <trkpt lat="46.93592" lon="2.97347">
        <ele>211.85470581055</ele>
        <time>2016-02-03T14:48:07.000Z</time>
      </trkpt>
      <trkpt lat="46.93595" lon="2.97344">
        <ele>211.8251953125</ele>
        <time>2016-02-03T14:48:09.000Z</time>
      </trkpt>
      <trkpt lat="46.93599" lon="2.97341">
        <ele>211.76391601562</ele>
        <time>2016-02-03T14:48:12.000Z</time>
      </trkpt>
      <trkpt lat="46.936" lon="2.9734">
        <ele>211.68212890625</ele>
        <time>2016-02-03T14:48:14.000Z</time>
      </trkpt>
      <trkpt lat="46.93604" lon="2.97338">
        <ele>211.59301757812</ele>
        <time>2016-02-03T14:48:17.000Z</time>
      </trkpt>
      <trkpt lat="46.93605" lon="2.97337">
        <ele>211.52783203125</ele>
        <time>2016-02-03T14:48:20.000Z</time>
      </trkpt>
      <trkpt lat="46.93608" lon="2.97335">
        <ele>211.4736328125</ele>
        <time>2016-02-03T14:48:23.000Z</time>
      </trkpt>
      <trkpt lat="46.9361" lon="2.97334">
        <ele>211.4296875</ele>
        <time>2016-02-03T14:48:25.000Z</time>
      </trkpt>
      <trkpt lat="46.93613" lon="2.97331">
        <ele>211.36819458008</ele>
        <time>2016-02-03T14:48:28.000Z</time>
      </trkpt>
      <trkpt lat="46.93616" lon="2.9733">
        <ele>211.31929016113</ele>
        <time>2016-02-03T14:48:31.000Z</time>
      </trkpt>
      <trkpt lat="46.93619" lon="2.9733">
        <ele>211.28073120117</ele>
        <time>2016-02-03T14:48:34.000Z</time>
      </trkpt>
      <trkpt lat="46.93623" lon="2.9733">
        <ele>211.263671875</ele>
        <time>2016-02-03T14:48:37.000Z</time>
      </trkpt>
      <trkpt lat="46.93625" lon="2.97331">
        <ele>211.27310180664</ele>
        <time>2016-02-03T14:48:39.000Z</time>
      </trkpt>
      <trkpt lat="46.93628" lon="2.97331">
        <ele>211.30297851562</ele>
        <time>2016-02-03T14:48:42.000Z</time>
      </trkpt>
      <trkpt lat="46.9363" lon="2.97329">
        <ele>211.32934570312</ele>
        <time>2016-02-03T14:48:44.000Z</time>
      </trkpt>
      <trkpt lat="46.93634" lon="2.97328">
        <ele>211.34268188477</ele>
        <time>2016-02-03T14:48:47.000Z</time>
      </trkpt>
      <trkpt lat="46.93634" lon="2.97327">
        <ele>211.33517456055</ele>
        <time>2016-02-03T14:48:49.000Z</time>
      </trkpt>
      <trkpt lat="46.93637" lon="2.97327">
        <ele>211.30874633789</ele>
        <time>2016-02-03T14:48:52.000Z</time>
      </trkpt>
      <trkpt lat="46.93639" lon="2.97325">
        <ele>211.27705383301</ele>
        <time>2016-02-03T14:48:54.000Z</time>
      </trkpt>
      <trkpt lat="46.93644" lon="2.97324">
        <ele>211.24401855469</ele>
        <time>2016-02-03T14:48:57.000Z</time>
      </trkpt>
      <trkpt lat="46.93647" lon="2.97322">
        <ele>211.20976257324</ele>
        <time>2016-02-03T14:48:59.000Z</time>
      </trkpt>
      <trkpt lat="46.93649" lon="2.97321">
        <ele>211.17419433594</ele>
        <time>2016-02-03T14:49:02.000Z</time>
      </trkpt>
      <trkpt lat="46.93651" lon="2.97321">
        <ele>211.13925170898</ele>
        <time>2016-02-03T14:49:04.000Z</time>
      </trkpt>
      <trkpt lat="46.93655" lon="2.97322">
        <ele>211.13481140137</ele>
        <time>2016-02-03T14:49:07.000Z</time>
      </trkpt>
      <trkpt lat="46.93659" lon="2.97322">
        <ele>211.15054321289</ele>
        <time>2016-02-03T14:49:10.000Z</time>
      </trkpt>
      <trkpt lat="46.93663" lon="2.97323">
        <ele>211.19979858398</ele>
        <time>2016-02-03T14:49:13.000Z</time>
      </trkpt>
      <trkpt lat="46.93666" lon="2.97324">
        <ele>211.26684570312</ele>
        <time>2016-02-03T14:49:15.000Z</time>
      </trkpt>
      <trkpt lat="46.93668" lon="2.97324">
        <ele>211.32754516602</ele>
        <time>2016-02-03T14:49:17.000Z</time>
      </trkpt>
      <trkpt lat="46.93671" lon="2.97324">
        <ele>211.3512878418</ele>
        <time>2016-02-03T14:49:19.000Z</time>
      </trkpt>
      <trkpt lat="46.93674" lon="2.97324">
        <ele>211.3404083252</ele>
        <time>2016-02-03T14:49:21.000Z</time>
      </trkpt>
      <trkpt lat="46.93677" lon="2.97325">
        <ele>211.29525756836</ele>
        <time>2016-02-03T14:49:23.000Z</time>
      </trkpt>
      <trkpt lat="46.93679" lon="2.97325">
        <ele>211.22192382812</ele>
        <time>2016-02-03T14:49:25.000Z</time>
      </trkpt>
      <trkpt lat="46.93682" lon="2.97324">
        <ele>211.12109375</ele>
        <time>2016-02-03T14:49:28.000Z</time>
      </trkpt>
      <trkpt lat="46.93684" lon="2.97323">
        <ele>211.00810241699</ele>
        <time>2016-02-03T14:49:32.000Z</time>
      </trkpt>
      <trkpt lat="46.93686" lon="2.9732">
        <ele>210.87414550781</ele>
        <time>2016-02-03T14:49:34.000Z</time>
      </trkpt>
      <trkpt lat="46.9369" lon="2.97317">
        <ele>210.68208312988</ele>
        <time>2016-02-03T14:49:37.000Z</time>
      </trkpt>
      <trkpt lat="46.93694" lon="2.97317">
        <ele>210.48156738281</ele>
        <time>2016-02-03T14:49:39.000Z</time>
      </trkpt>
      <trkpt lat="46.93699" lon="2.97317">
        <ele>210.28422546387</ele>
        <time>2016-02-03T14:49:42.000Z</time>
      </trkpt>
      <trkpt lat="46.93701" lon="2.97318">
        <ele>210.10200500488</ele>
        <time>2016-02-03T14:49:44.000Z</time>
      </trkpt>
      <trkpt lat="46.93704" lon="2.97317">
        <ele>209.93232727051</ele>
        <time>2016-02-03T14:49:47.000Z</time>
      </trkpt>
      <trkpt lat="46.9371" lon="2.97315">
        <ele>209.76989746094</ele>
        <time>2016-02-03T14:49:50.000Z</time>
      </trkpt>
      <trkpt lat="46.93711" lon="2.97314">
        <ele>209.60835266113</ele>
        <time>2016-02-03T14:49:52.000Z</time>
      </trkpt>
      <trkpt lat="46.93715" lon="2.97314">
        <ele>209.44274902344</ele>
        <time>2016-02-03T14:49:55.000Z</time>
      </trkpt>
      <trkpt lat="46.93717" lon="2.97314">
        <ele>209.27490234375</ele>
        <time>2016-02-03T14:49:58.000Z</time>
      </trkpt>
      <trkpt lat="46.9372" lon="2.97312">
        <ele>209.10176086426</ele>
        <time>2016-02-03T14:50:01.000Z</time>
      </trkpt>
      <trkpt lat="46.93724" lon="2.97311">
        <ele>208.95007324219</ele>
        <time>2016-02-03T14:50:04.000Z</time>
      </trkpt>
      <trkpt lat="46.93728" lon="2.9731">
        <ele>208.78002929688</ele>
        <time>2016-02-03T14:50:06.000Z</time>
      </trkpt>
      <trkpt lat="46.93731" lon="2.9731">
        <ele>208.62243652344</ele>
        <time>2016-02-03T14:50:08.000Z</time>
      </trkpt>
      <trkpt lat="46.93733" lon="2.97309">
        <ele>208.44848632812</ele>
        <time>2016-02-03T14:50:11.000Z</time>
      </trkpt>
      <trkpt lat="46.93735" lon="2.97308">
        <ele>208.29130554199</ele>
        <time>2016-02-03T14:50:13.000Z</time>
      </trkpt>
      <trkpt lat="46.93737" lon="2.97307">
        <ele>208.14888000488</ele>
        <time>2016-02-03T14:50:16.000Z</time>
      </trkpt>
      <trkpt lat="46.93739" lon="2.97307">
        <ele>208.03373718262</ele>
        <time>2016-02-03T14:50:18.000Z</time>
      </trkpt>
      <trkpt lat="46.93742" lon="2.97308">
        <ele>207.93623352051</ele>
        <time>2016-02-03T14:50:21.000Z</time>
      </trkpt>
      <trkpt lat="46.93744" lon="2.97309">
        <ele>207.86145019531</ele>
        <time>2016-02-03T14:50:23.000Z</time>
      </trkpt>
      <trkpt lat="46.93747" lon="2.97308">
        <ele>207.77079772949</ele>
        <time>2016-02-03T14:50:26.000Z</time>
      </trkpt>
      <trkpt lat="46.9375" lon="2.97307">
        <ele>207.67358398438</ele>
        <time>2016-02-03T14:50:29.000Z</time>
      </trkpt>
      <trkpt lat="46.93755" lon="2.97307">
        <ele>207.54125976562</ele>
        <time>2016-02-03T14:50:32.000Z</time>
      </trkpt>
      <trkpt lat="46.93759" lon="2.97306">
        <ele>207.3551940918</ele>
        <time>2016-02-03T14:50:35.000Z</time>
      </trkpt>
      <trkpt lat="46.93763" lon="2.97304">
        <ele>207.10029602051</ele>
        <time>2016-02-03T14:50:38.000Z</time>
      </trkpt>
      <trkpt lat="46.93766" lon="2.97302">
        <ele>206.83596801758</ele>
        <time>2016-02-03T14:50:41.000Z</time>
      </trkpt>
      <trkpt lat="46.93768" lon="2.97301">
        <ele>206.56132507324</ele>
        <time>2016-02-03T14:50:44.000Z</time>
      </trkpt>
      <trkpt lat="46.9377" lon="2.97301">
        <ele>206.31364440918</ele>
        <time>2016-02-03T14:50:46.000Z</time>
      </trkpt>
      <trkpt lat="46.93772" lon="2.973">
        <ele>206.10050964355</ele>
        <time>2016-02-03T14:50:48.000Z</time>
      </trkpt>
      <trkpt lat="46.93779" lon="2.97297">
        <ele>205.85205078125</ele>
        <time>2016-02-03T14:50:51.000Z</time>
      </trkpt>
      <trkpt lat="46.93784" lon="2.97297">
        <ele>205.59103393555</ele>
        <time>2016-02-03T14:50:54.000Z</time>
      </trkpt>
      <trkpt lat="46.9379" lon="2.97297">
        <ele>205.30075073242</ele>
        <time>2016-02-03T14:50:57.000Z</time>
      </trkpt>
      <trkpt lat="46.93793" lon="2.97296">
        <ele>205.00024414062</ele>
        <time>2016-02-03T14:50:59.000Z</time>
      </trkpt>
      <trkpt lat="46.93798" lon="2.97295">
        <ele>204.65687561035</ele>
        <time>2016-02-03T14:51:02.000Z</time>
      </trkpt>
      <trkpt lat="46.93801" lon="2.97295">
        <ele>204.38737487793</ele>
        <time>2016-02-03T14:51:04.000Z</time>
      </trkpt>
      <trkpt lat="46.93805" lon="2.97295">
        <ele>204.13130187988</ele>
        <time>2016-02-03T14:51:06.000Z</time>
      </trkpt>
      <trkpt lat="46.9381" lon="2.97294">
        <ele>203.89851379395</ele>
        <time>2016-02-03T14:51:09.000Z</time>
      </trkpt>
      <trkpt lat="46.93812" lon="2.97294">
        <ele>203.66218566895</ele>
        <time>2016-02-03T14:51:11.000Z</time>
      </trkpt>
      <trkpt lat="46.93816" lon="2.97292">
        <ele>203.43701171875</ele>
        <time>2016-02-03T14:51:14.000Z</time>
      </trkpt>
      <trkpt lat="46.93819" lon="2.97291">
        <ele>203.21298217773</ele>
        <time>2016-02-03T14:51:16.000Z</time>
      </trkpt>
      <trkpt lat="46.93821" lon="2.97291">
        <ele>203.00566101074</ele>
        <time>2016-02-03T14:51:18.000Z</time>
      </trkpt>
      <trkpt lat="46.93826" lon="2.9729">
        <ele>202.78695678711</ele>
        <time>2016-02-03T14:51:21.000Z</time>
      </trkpt>
      <trkpt lat="46.9383" lon="2.97289">
        <ele>202.55331420898</ele>
        <time>2016-02-03T14:51:24.000Z</time>
      </trkpt>
      <trkpt lat="46.93832" lon="2.97289">
        <ele>202.34747314453</ele>
        <time>2016-02-03T14:51:26.000Z</time>
      </trkpt>
      <trkpt lat="46.93835" lon="2.97289">
        <ele>202.1716003418</ele>
        <time>2016-02-03T14:51:28.000Z</time>
      </trkpt>
      <trkpt lat="46.93838" lon="2.97288">
        <ele>202.03126525879</ele>
        <time>2016-02-03T14:51:31.000Z</time>
      </trkpt>
      <trkpt lat="46.93841" lon="2.97287">
        <ele>201.95199584961</ele>
        <time>2016-02-03T14:51:33.000Z</time>
      </trkpt>
      <trkpt lat="46.93845" lon="2.97287">
        <ele>201.93322753906</ele>
        <time>2016-02-03T14:51:36.000Z</time>
      </trkpt>
      <trkpt lat="46.93848" lon="2.97287">
        <ele>201.95275878906</ele>
        <time>2016-02-03T14:51:38.000Z</time>
      </trkpt>
      <trkpt lat="46.93853" lon="2.97286">
        <ele>201.994140625</ele>
        <time>2016-02-03T14:51:41.000Z</time>
      </trkpt>
      <trkpt lat="46.93855" lon="2.97285">
        <ele>202.0306854248</ele>
        <time>2016-02-03T14:51:43.000Z</time>
      </trkpt>
      <trkpt lat="46.93858" lon="2.97285">
        <ele>202.06820678711</ele>
        <time>2016-02-03T14:51:45.000Z</time>
      </trkpt>
      <trkpt lat="46.93861" lon="2.97284">
        <ele>202.10800170898</ele>
        <time>2016-02-03T14:51:48.000Z</time>
      </trkpt>
      <trkpt lat="46.93864" lon="2.97284">
        <ele>202.14108276367</ele>
        <time>2016-02-03T14:51:50.000Z</time>
      </trkpt>
      <trkpt lat="46.93866" lon="2.97283">
        <ele>202.16007995605</ele>
        <time>2016-02-03T14:51:52.000Z</time>
      </trkpt>
      <trkpt lat="46.93867" lon="2.97281">
        <ele>202.17102050781</ele>
        <time>2016-02-03T14:51:54.000Z</time>
      </trkpt>
      <trkpt lat="46.93871" lon="2.97279">
        <ele>202.17526245117</ele>
        <time>2016-02-03T14:51:56.000Z</time>
      </trkpt>
      <trkpt lat="46.93875" lon="2.97278">
        <ele>202.17179870605</ele>
        <time>2016-02-03T14:51:58.000Z</time>
      </trkpt>
      <trkpt lat="46.9388" lon="2.97275">
        <ele>202.16098022461</ele>
        <time>2016-02-03T14:52:01.000Z</time>
      </trkpt>
      <trkpt lat="46.93883" lon="2.97273">
        <ele>202.15051269531</ele>
        <time>2016-02-03T14:52:03.000Z</time>
      </trkpt>
      <trkpt lat="46.93888" lon="2.97272">
        <ele>202.1547088623</ele>
        <time>2016-02-03T14:52:06.000Z</time>
      </trkpt>
      <trkpt lat="46.93892" lon="2.97271">
        <ele>202.17440795898</ele>
        <time>2016-02-03T14:52:09.000Z</time>
      </trkpt>
      <trkpt lat="46.93895" lon="2.9727">
        <ele>202.19062805176</ele>
        <time>2016-02-03T14:52:12.000Z</time>
      </trkpt>
      <trkpt lat="46.93897" lon="2.97269">
        <ele>202.2140045166</ele>
        <time>2016-02-03T14:52:14.000Z</time>
      </trkpt>
      <trkpt lat="46.939" lon="2.97267">
        <ele>202.23835754395</ele>
        <time>2016-02-03T14:52:17.000Z</time>
      </trkpt>
      <trkpt lat="46.93903" lon="2.97267">
        <ele>202.26626586914</ele>
        <time>2016-02-03T14:52:19.000Z</time>
      </trkpt>
      <trkpt lat="46.93907" lon="2.97267">
        <ele>202.29385375977</ele>
        <time>2016-02-03T14:52:22.000Z</time>
      </trkpt>
      <trkpt lat="46.93911" lon="2.97266">
        <ele>202.3337097168</ele>
        <time>2016-02-03T14:52:25.000Z</time>
      </trkpt>
      <trkpt lat="46.93913" lon="2.97265">
        <ele>202.37174987793</ele>
        <time>2016-02-03T14:52:27.000Z</time>
      </trkpt>
      <trkpt lat="46.93916" lon="2.97264">
        <ele>202.4153137207</ele>
        <time>2016-02-03T14:52:30.000Z</time>
      </trkpt>
      <trkpt lat="46.9392" lon="2.97263">
        <ele>202.45797729492</ele>
        <time>2016-02-03T14:52:33.000Z</time>
      </trkpt>
      <trkpt lat="46.93922" lon="2.97262">
        <ele>202.49687194824</ele>
        <time>2016-02-03T14:52:35.000Z</time>
      </trkpt>
      <trkpt lat="46.93925" lon="2.97262">
        <ele>202.52828979492</ele>
        <time>2016-02-03T14:52:37.000Z</time>
      </trkpt>
      <trkpt lat="46.93929" lon="2.9726">
        <ele>202.56942749023</ele>
        <time>2016-02-03T14:52:40.000Z</time>
      </trkpt>
      <trkpt lat="46.93931" lon="2.97259">
        <ele>202.60615539551</ele>
        <time>2016-02-03T14:52:42.000Z</time>
      </trkpt>
      <trkpt lat="46.93935" lon="2.97258">
        <ele>202.64096069336</ele>
        <time>2016-02-03T14:52:45.000Z</time>
      </trkpt>
      <trkpt lat="46.93938" lon="2.97257">
        <ele>202.67332458496</ele>
        <time>2016-02-03T14:52:47.000Z</time>
      </trkpt>
      <trkpt lat="46.93943" lon="2.97256">
        <ele>202.71615600586</ele>
        <time>2016-02-03T14:52:50.000Z</time>
      </trkpt>
      <trkpt lat="46.93945" lon="2.97256">
        <ele>202.75610351562</ele>
        <time>2016-02-03T14:52:52.000Z</time>
      </trkpt>
      <trkpt lat="46.93946" lon="2.97256">
        <ele>202.80128479004</ele>
        <time>2016-02-03T14:52:54.000Z</time>
      </trkpt>
      <trkpt lat="46.93951" lon="2.97254">
        <ele>202.84548950195</ele>
        <time>2016-02-03T14:52:57.000Z</time>
      </trkpt>
      <trkpt lat="46.93954" lon="2.97253">
        <ele>202.89535522461</ele>
        <time>2016-02-03T14:53:00.000Z</time>
      </trkpt>
      <trkpt lat="46.93958" lon="2.97251">
        <ele>202.93835449219</ele>
        <time>2016-02-03T14:53:03.000Z</time>
      </trkpt>
      <trkpt lat="46.93963" lon="2.9725">
        <ele>202.98860168457</ele>
        <time>2016-02-03T14:53:06.000Z</time>
      </trkpt>
      <trkpt lat="46.93965" lon="2.9725">
        <ele>203.04229736328</ele>
        <time>2016-02-03T14:53:08.000Z</time>
      </trkpt>
      <trkpt lat="46.93967" lon="2.9725">
        <ele>203.09619140625</ele>
        <time>2016-02-03T14:53:10.000Z</time>
      </trkpt>
      <trkpt lat="46.9397" lon="2.9725">
        <ele>203.15518188477</ele>
        <time>2016-02-03T14:53:13.000Z</time>
      </trkpt>
      <trkpt lat="46.93972" lon="2.9725">
        <ele>203.22018432617</ele>
        <time>2016-02-03T14:53:15.000Z</time>
      </trkpt>
      <trkpt lat="46.93974" lon="2.9725">
        <ele>203.27749633789</ele>
        <time>2016-02-03T14:53:17.000Z</time>
      </trkpt>
      <trkpt lat="46.93978" lon="2.9725">
        <ele>203.3415222168</ele>
        <time>2016-02-03T14:53:20.000Z</time>
      </trkpt>
      <trkpt lat="46.93981" lon="2.97251">
        <ele>203.41377258301</ele>
        <time>2016-02-03T14:53:23.000Z</time>
      </trkpt>
      <trkpt lat="46.93983" lon="2.97251">
        <ele>203.48208618164</ele>
        <time>2016-02-03T14:53:25.000Z</time>
      </trkpt>
      <trkpt lat="46.93987" lon="2.9725">
        <ele>203.54957580566</ele>
        <time>2016-02-03T14:53:27.000Z</time>
      </trkpt>
      <trkpt lat="46.93991" lon="2.97249">
        <ele>203.62310791016</ele>
        <time>2016-02-03T14:53:30.000Z</time>
      </trkpt>
      <trkpt lat="46.93993" lon="2.97248">
        <ele>203.68641662598</ele>
        <time>2016-02-03T14:53:32.000Z</time>
      </trkpt>
      <trkpt lat="46.93997" lon="2.97248">
        <ele>203.74917602539</ele>
        <time>2016-02-03T14:53:35.000Z</time>
      </trkpt>
      <trkpt lat="46.93999" lon="2.97247">
        <ele>203.80598449707</ele>
        <time>2016-02-03T14:53:37.000Z</time>
      </trkpt>
      <trkpt lat="46.94003" lon="2.97247">
        <ele>203.85209655762</ele>
        <time>2016-02-03T14:53:40.000Z</time>
      </trkpt>
      <trkpt lat="46.94007" lon="2.97247">
        <ele>203.88497924805</ele>
        <time>2016-02-03T14:53:43.000Z</time>
      </trkpt>
      <trkpt lat="46.94011" lon="2.97247">
        <ele>203.91165161133</ele>
        <time>2016-02-03T14:53:46.000Z</time>
      </trkpt>
      <trkpt lat="46.94015" lon="2.97247">
        <ele>203.92256164551</ele>
        <time>2016-02-03T14:53:49.000Z</time>
      </trkpt>
      <trkpt lat="46.9402" lon="2.97247">
        <ele>203.9267578125</ele>
        <time>2016-02-03T14:53:52.000Z</time>
      </trkpt>
      <trkpt lat="46.94024" lon="2.97247">
        <ele>203.92907714844</ele>
        <time>2016-02-03T14:53:55.000Z</time>
      </trkpt>
      <trkpt lat="46.94027" lon="2.97247">
        <ele>203.93151855469</ele>
        <time>2016-02-03T14:53:58.000Z</time>
      </trkpt>
      <trkpt lat="46.94029" lon="2.97248">
        <ele>203.93371582031</ele>
        <time>2016-02-03T14:54:01.000Z</time>
      </trkpt>
      <trkpt lat="46.94033" lon="2.97248">
        <ele>203.93640136719</ele>
        <time>2016-02-03T14:54:04.000Z</time>
      </trkpt>
      <trkpt lat="46.94036" lon="2.97247">
        <ele>203.93725585938</ele>
        <time>2016-02-03T14:54:07.000Z</time>
      </trkpt>
      <trkpt lat="46.94038" lon="2.97247">
        <ele>203.93701171875</ele>
        <time>2016-02-03T14:54:09.000Z</time>
      </trkpt>
      <trkpt lat="46.94041" lon="2.97246">
        <ele>203.93212890625</ele>
        <time>2016-02-03T14:54:12.000Z</time>
      </trkpt>
      <trkpt lat="46.94044" lon="2.97246">
        <ele>203.92224121094</ele>
        <time>2016-02-03T14:54:15.000Z</time>
      </trkpt>
      <trkpt lat="46.94049" lon="2.97244">
        <ele>203.90649414062</ele>
        <time>2016-02-03T14:54:18.000Z</time>
      </trkpt>
      <trkpt lat="46.94051" lon="2.97244">
        <ele>203.89343261719</ele>
        <time>2016-02-03T14:54:20.000Z</time>
      </trkpt>
      <trkpt lat="46.94054" lon="2.97244">
        <ele>203.87841796875</ele>
        <time>2016-02-03T14:54:23.000Z</time>
      </trkpt>
      <trkpt lat="46.94057" lon="2.97245">
        <ele>203.86987304688</ele>
        <time>2016-02-03T14:54:25.000Z</time>
      </trkpt>
      <trkpt lat="46.94059" lon="2.97246">
        <ele>203.87194824219</ele>
        <time>2016-02-03T14:54:27.000Z</time>
      </trkpt>
      <trkpt lat="46.94062" lon="2.97247">
        <ele>203.88220214844</ele>
        <time>2016-02-03T14:54:30.000Z</time>
      </trkpt>
      <trkpt lat="46.94065" lon="2.97248">
        <ele>203.89855957031</ele>
        <time>2016-02-03T14:54:33.000Z</time>
      </trkpt>
      <trkpt lat="46.94067" lon="2.97248">
        <ele>203.91931152344</ele>
        <time>2016-02-03T14:54:36.000Z</time>
      </trkpt>
      <trkpt lat="46.9407" lon="2.97249">
        <ele>203.94250488281</ele>
        <time>2016-02-03T14:54:39.000Z</time>
      </trkpt>
      <trkpt lat="46.94073" lon="2.97249">
        <ele>203.95788574219</ele>
        <time>2016-02-03T14:54:42.000Z</time>
      </trkpt>
      <trkpt lat="46.94077" lon="2.9725">
        <ele>203.97515869141</ele>
        <time>2016-02-03T14:54:45.000Z</time>
      </trkpt>
      <trkpt lat="46.94078" lon="2.9725">
        <ele>203.98616027832</ele>
        <time>2016-02-03T14:54:47.000Z</time>
      </trkpt>
      <trkpt lat="46.94084" lon="2.9725">
        <ele>203.99723815918</ele>
        <time>2016-02-03T14:54:50.000Z</time>
      </trkpt>
      <trkpt lat="46.94088" lon="2.9725">
        <ele>204.02505493164</ele>
        <time>2016-02-03T14:54:53.000Z</time>
      </trkpt>
      <trkpt lat="46.94091" lon="2.97249">
        <ele>204.06274414062</ele>
        <time>2016-02-03T14:54:56.000Z</time>
      </trkpt>
      <trkpt lat="46.94093" lon="2.97249">
        <ele>204.09980773926</ele>
        <time>2016-02-03T14:54:58.000Z</time>
      </trkpt>
      <trkpt lat="46.94098" lon="2.97248">
        <ele>204.16047668457</ele>
        <time>2016-02-03T14:55:01.000Z</time>
      </trkpt>
      <trkpt lat="46.941" lon="2.97248">
        <ele>204.22961425781</ele>
        <time>2016-02-03T14:55:03.000Z</time>
      </trkpt>
      <trkpt lat="46.94103" lon="2.97247">
        <ele>204.28639221191</ele>
        <time>2016-02-03T14:55:06.000Z</time>
      </trkpt>
      <trkpt lat="46.94107" lon="2.97247">
        <ele>204.35385131836</ele>
        <time>2016-02-03T14:55:09.000Z</time>
      </trkpt>
      <trkpt lat="46.94112" lon="2.97247">
        <ele>204.44497680664</ele>
        <time>2016-02-03T14:55:12.000Z</time>
      </trkpt>
      <trkpt lat="46.94117" lon="2.97247">
        <ele>204.53564453125</ele>
        <time>2016-02-03T14:55:15.000Z</time>
      </trkpt>
      <trkpt lat="46.94121" lon="2.97246">
        <ele>204.63143920898</ele>
        <time>2016-02-03T14:55:18.000Z</time>
      </trkpt>
      <trkpt lat="46.94123" lon="2.97246">
        <ele>204.72747802734</ele>
        <time>2016-02-03T14:55:20.000Z</time>
      </trkpt>
      <trkpt lat="46.94127" lon="2.97245">
        <ele>204.81852722168</ele>
        <time>2016-02-03T14:55:23.000Z</time>
      </trkpt>
      <trkpt lat="46.94131" lon="2.97245">
        <ele>204.89933776855</ele>
        <time>2016-02-03T14:55:26.000Z</time>
      </trkpt>
      <trkpt lat="46.94134" lon="2.97244">
        <ele>204.97146606445</ele>
        <time>2016-02-03T14:55:29.000Z</time>
      </trkpt>
      <trkpt lat="46.94135" lon="2.97244">
        <ele>205.03312683105</ele>
        <time>2016-02-03T14:55:31.000Z</time>
      </trkpt>
      <trkpt lat="46.94141" lon="2.97246">
        <ele>205.11791992188</ele>
        <time>2016-02-03T14:55:34.000Z</time>
      </trkpt>
      <trkpt lat="46.94144" lon="2.97247">
        <ele>205.20878601074</ele>
        <time>2016-02-03T14:55:37.000Z</time>
      </trkpt>
      <trkpt lat="46.94147" lon="2.97247">
        <ele>205.29806518555</ele>
        <time>2016-02-03T14:55:40.000Z</time>
      </trkpt>
      <trkpt lat="46.94152" lon="2.97249">
        <ele>205.39840698242</ele>
        <time>2016-02-03T14:55:43.000Z</time>
      </trkpt>
      <trkpt lat="46.94155" lon="2.97249">
        <ele>205.51216125488</ele>
        <time>2016-02-03T14:55:46.000Z</time>
      </trkpt>
      <trkpt lat="46.94158" lon="2.97248">
        <ele>205.60404968262</ele>
        <time>2016-02-03T14:55:49.000Z</time>
      </trkpt>
      <trkpt lat="46.94161" lon="2.97248">
        <ele>205.68803405762</ele>
        <time>2016-02-03T14:55:52.000Z</time>
      </trkpt>
      <trkpt lat="46.94163" lon="2.97247">
        <ele>205.76443481445</ele>
        <time>2016-02-03T14:55:55.000Z</time>
      </trkpt>
      <trkpt lat="46.94167" lon="2.97247">
        <ele>205.8359375</ele>
        <time>2016-02-03T14:55:57.000Z</time>
      </trkpt>
      <trkpt lat="46.94171" lon="2.97246">
        <ele>205.91569519043</ele>
        <time>2016-02-03T14:56:00.000Z</time>
      </trkpt>
      <trkpt lat="46.94175" lon="2.97246">
        <ele>206.00769042969</ele>
        <time>2016-02-03T14:56:02.000Z</time>
      </trkpt>
      <trkpt lat="46.94179" lon="2.97248">
        <ele>206.12329101562</ele>
        <time>2016-02-03T14:56:05.000Z</time>
      </trkpt>
      <trkpt lat="46.94181" lon="2.97248">
        <ele>206.24287414551</ele>
        <time>2016-02-03T14:56:07.000Z</time>
      </trkpt>
      <trkpt lat="46.94185" lon="2.97248">
        <ele>206.37173461914</ele>
        <time>2016-02-03T14:56:10.000Z</time>
      </trkpt>
      <trkpt lat="46.94188" lon="2.97246">
        <ele>206.4937286377</ele>
        <time>2016-02-03T14:56:12.000Z</time>
      </trkpt>
      <trkpt lat="46.94192" lon="2.97247">
        <ele>206.62145996094</ele>
        <time>2016-02-03T14:56:15.000Z</time>
      </trkpt>
      <trkpt lat="46.94195" lon="2.97246">
        <ele>206.73226928711</ele>
        <time>2016-02-03T14:56:18.000Z</time>
      </trkpt>
      <trkpt lat="46.94198" lon="2.97246">
        <ele>206.85140991211</ele>
        <time>2016-02-03T14:56:20.000Z</time>
      </trkpt>
      <trkpt lat="46.94202" lon="2.97246">
        <ele>206.9633026123</ele>
        <time>2016-02-03T14:56:23.000Z</time>
      </trkpt>
      <trkpt lat="46.94205" lon="2.97245">
        <ele>207.0795135498</ele>
        <time>2016-02-03T14:56:26.000Z</time>
      </trkpt>
      <trkpt lat="46.94208" lon="2.97245">
        <ele>207.18435668945</ele>
        <time>2016-02-03T14:56:28.000Z</time>
      </trkpt>
      <trkpt lat="46.94212" lon="2.97245">
        <ele>207.29626464844</ele>
        <time>2016-02-03T14:56:31.000Z</time>
      </trkpt>
      <trkpt lat="46.94215" lon="2.97247">
        <ele>207.42012023926</ele>
        <time>2016-02-03T14:56:34.000Z</time>
      </trkpt>
      <trkpt lat="46.94218" lon="2.97247">
        <ele>207.53787231445</ele>
        <time>2016-02-03T14:56:36.000Z</time>
      </trkpt>
      <trkpt lat="46.94221" lon="2.97247">
        <ele>207.65768432617</ele>
        <time>2016-02-03T14:56:39.000Z</time>
      </trkpt>
      <trkpt lat="46.94224" lon="2.97247">
        <ele>207.77627563477</ele>
        <time>2016-02-03T14:56:41.000Z</time>
      </trkpt>
      <trkpt lat="46.94227" lon="2.97248">
        <ele>207.89460754395</ele>
        <time>2016-02-03T14:56:44.000Z</time>
      </trkpt>
      <trkpt lat="46.94229" lon="2.97248">
        <ele>207.99882507324</ele>
        <time>2016-02-03T14:56:46.000Z</time>
      </trkpt>
      <trkpt lat="46.94232" lon="2.97248">
        <ele>208.10856628418</ele>
        <time>2016-02-03T14:56:48.000Z</time>
      </trkpt>
      <trkpt lat="46.94236" lon="2.97248">
        <ele>208.21878051758</ele>
        <time>2016-02-03T14:56:51.000Z</time>
      </trkpt>
      <trkpt lat="46.94239" lon="2.97248">
        <ele>208.33305358887</ele>
        <time>2016-02-03T14:56:53.000Z</time>
      </trkpt>
      <trkpt lat="46.94243" lon="2.97247">
        <ele>208.44448852539</ele>
        <time>2016-02-03T14:56:56.000Z</time>
      </trkpt>
      <trkpt lat="46.94245" lon="2.97248">
        <ele>208.55612182617</ele>
        <time>2016-02-03T14:56:58.000Z</time>
      </trkpt>
      <trkpt lat="46.94248" lon="2.97247">
        <ele>208.6614074707</ele>
        <time>2016-02-03T14:57:01.000Z</time>
      </trkpt>
      <trkpt lat="46.94251" lon="2.97245">
        <ele>208.75305175781</ele>
        <time>2016-02-03T14:57:03.000Z</time>
      </trkpt>
      <trkpt lat="46.94255" lon="2.97244">
        <ele>208.837890625</ele>
        <time>2016-02-03T14:57:06.000Z</time>
      </trkpt>
      <trkpt lat="46.94258" lon="2.97244">
        <ele>208.91361999512</ele>
        <time>2016-02-03T14:57:08.000Z</time>
      </trkpt>
      <trkpt lat="46.9426" lon="2.97245">
        <ele>208.97915649414</ele>
        <time>2016-02-03T14:57:10.000Z</time>
      </trkpt>
      <trkpt lat="46.94263" lon="2.97245">
        <ele>209.0517578125</ele>
        <time>2016-02-03T14:57:13.000Z</time>
      </trkpt>
      <trkpt lat="46.94266" lon="2.97245">
        <ele>209.12316894531</ele>
        <time>2016-02-03T14:57:15.000Z</time>
      </trkpt>
      <trkpt lat="46.94268" lon="2.97246">
        <ele>209.19323730469</ele>
        <time>2016-02-03T14:57:17.000Z</time>
      </trkpt>
      <trkpt lat="46.94271" lon="2.97246">
        <ele>209.26867675781</ele>
        <time>2016-02-03T14:57:20.000Z</time>
      </trkpt>
      <trkpt lat="46.94275" lon="2.97247">
        <ele>209.35583496094</ele>
        <time>2016-02-03T14:57:23.000Z</time>
      </trkpt>
      <trkpt lat="46.94278" lon="2.97247">
        <ele>209.431640625</ele>
        <time>2016-02-03T14:57:25.000Z</time>
      </trkpt>
      <trkpt lat="46.94281" lon="2.97247">
        <ele>209.51611328125</ele>
        <time>2016-02-03T14:57:28.000Z</time>
      </trkpt>
      <trkpt lat="46.94283" lon="2.97248">
        <ele>209.59594726562</ele>
        <time>2016-02-03T14:57:30.000Z</time>
      </trkpt>
      <trkpt lat="46.94286" lon="2.97249">
        <ele>209.67492675781</ele>
        <time>2016-02-03T14:57:33.000Z</time>
      </trkpt>
      <trkpt lat="46.94289" lon="2.97249">
        <ele>209.75317382812</ele>
        <time>2016-02-03T14:57:36.000Z</time>
      </trkpt>
      <trkpt lat="46.94292" lon="2.97249">
        <ele>209.82873535156</ele>
        <time>2016-02-03T14:57:38.000Z</time>
      </trkpt>
      <trkpt lat="46.94296" lon="2.9725">
        <ele>209.91076660156</ele>
        <time>2016-02-03T14:57:41.000Z</time>
      </trkpt>
      <trkpt lat="46.94299" lon="2.9725">
        <ele>210.00151062012</ele>
        <time>2016-02-03T14:57:43.000Z</time>
      </trkpt>
      <trkpt lat="46.94302" lon="2.97251">
        <ele>210.08857727051</ele>
        <time>2016-02-03T14:57:45.000Z</time>
      </trkpt>
      <trkpt lat="46.94305" lon="2.97252">
        <ele>210.17196655273</ele>
        <time>2016-02-03T14:57:48.000Z</time>
      </trkpt>
      <trkpt lat="46.94307" lon="2.97252">
        <ele>210.25991821289</ele>
        <time>2016-02-03T14:57:50.000Z</time>
      </trkpt>
      <trkpt lat="46.94311" lon="2.97253">
        <ele>210.3408203125</ele>
        <time>2016-02-03T14:57:53.000Z</time>
      </trkpt>
      <trkpt lat="46.94314" lon="2.97254">
        <ele>210.42012023926</ele>
        <time>2016-02-03T14:57:55.000Z</time>
      </trkpt>
      <trkpt lat="46.94318" lon="2.97256">
        <ele>210.50646972656</ele>
        <time>2016-02-03T14:57:58.000Z</time>
      </trkpt>
      <trkpt lat="46.94321" lon="2.97257">
        <ele>210.59362792969</ele>
        <time>2016-02-03T14:58:01.000Z</time>
      </trkpt>
      <trkpt lat="46.94324" lon="2.97259">
        <ele>210.68876647949</ele>
        <time>2016-02-03T14:58:04.000Z</time>
      </trkpt>
      <trkpt lat="46.94325" lon="2.9726">
        <ele>210.77388000488</ele>
        <time>2016-02-03T14:58:06.000Z</time>
      </trkpt>
      <trkpt lat="46.94329" lon="2.97262">
        <ele>210.86650085449</ele>
        <time>2016-02-03T14:58:09.000Z</time>
      </trkpt>
      <trkpt lat="46.94331" lon="2.97263">
        <ele>210.94877624512</ele>
        <time>2016-02-03T14:58:11.000Z</time>
      </trkpt>
      <trkpt lat="46.94334" lon="2.97264">
        <ele>211.03254699707</ele>
        <time>2016-02-03T14:58:14.000Z</time>
      </trkpt>
      <trkpt lat="46.94337" lon="2.97264">
        <ele>211.13407897949</ele>
        <time>2016-02-03T14:58:17.000Z</time>
      </trkpt>
      <trkpt lat="46.94341" lon="2.97265">
        <ele>211.26126098633</ele>
        <time>2016-02-03T14:58:20.000Z</time>
      </trkpt>
      <trkpt lat="46.94345" lon="2.97264">
        <ele>211.4066619873</ele>
        <time>2016-02-03T14:58:23.000Z</time>
      </trkpt>
      <trkpt lat="46.94348" lon="2.97264">
        <ele>211.57356262207</ele>
        <time>2016-02-03T14:58:26.000Z</time>
      </trkpt>
      <trkpt lat="46.9435" lon="2.97264">
        <ele>211.73828125</ele>
        <time>2016-02-03T14:58:28.000Z</time>
      </trkpt>
      <trkpt lat="46.94354" lon="2.97263">
        <ele>211.90786743164</ele>
        <time>2016-02-03T14:58:31.000Z</time>
      </trkpt>
      <trkpt lat="46.94357" lon="2.97262">
        <ele>212.06887817383</ele>
        <time>2016-02-03T14:58:34.000Z</time>
      </trkpt>
      <trkpt lat="46.94359" lon="2.97261">
        <ele>212.20544433594</ele>
        <time>2016-02-03T14:58:36.000Z</time>
      </trkpt>
      <trkpt lat="46.94363" lon="2.97259">
        <ele>212.34233093262</ele>
        <time>2016-02-03T14:58:39.000Z</time>
      </trkpt>
      <trkpt lat="46.94366" lon="2.97257">
        <ele>212.48442077637</ele>
        <time>2016-02-03T14:58:42.000Z</time>
      </trkpt>
      <trkpt lat="46.9437" lon="2.97256">
        <ele>212.61730957031</ele>
        <time>2016-02-03T14:58:45.000Z</time>
      </trkpt>
      <trkpt lat="46.94374" lon="2.97254">
        <ele>212.75019836426</ele>
        <time>2016-02-03T14:58:48.000Z</time>
      </trkpt>
      <trkpt lat="46.94377" lon="2.97252">
        <ele>212.88996887207</ele>
        <time>2016-02-03T14:58:51.000Z</time>
      </trkpt>
      <trkpt lat="46.9438" lon="2.97251">
        <ele>213.0198059082</ele>
        <time>2016-02-03T14:58:54.000Z</time>
      </trkpt>
      <trkpt lat="46.94381" lon="2.97249">
        <ele>213.12850952148</ele>
        <time>2016-02-03T14:59:00.000Z</time>
      </trkpt>
      <trkpt lat="46.94382" lon="2.97248">
        <ele>213.19766235352</ele>
        <time>2016-02-03T14:59:03.000Z</time>
      </trkpt>
      <trkpt lat="46.94383" lon="2.97248">
        <ele>213.24746704102</ele>
        <time>2016-02-03T14:59:11.000Z</time>
      </trkpt>
      <trkpt lat="46.94383" lon="2.97248">
        <ele>213.24746704102</ele>
        <time>2016-02-03T14:59:31.000Z</time>
      </trkpt>
      <trkpt lat="46.94384" lon="2.97247">
        <ele>213.2724609375</ele>
        <time>2016-02-03T14:59:35.000Z</time>
      </trkpt>
      <trkpt lat="46.94385" lon="2.97246">
        <ele>213.27819824219</ele>
        <time>2016-02-03T14:59:47.000Z</time>
      </trkpt>
      <trkpt lat="46.94387" lon="2.97244">
        <ele>213.2865447998</ele>
        <time>2016-02-03T14:59:50.000Z</time>
      </trkpt>
      <trkpt lat="46.94389" lon="2.97243">
        <ele>213.30155944824</ele>
        <time>2016-02-03T14:59:52.000Z</time>
      </trkpt>
      <trkpt lat="46.9439" lon="2.97241">
        <ele>213.30429077148</ele>
        <time>2016-02-03T14:59:55.000Z</time>
      </trkpt>
      <trkpt lat="46.94392" lon="2.97238">
        <ele>213.30024719238</ele>
        <time>2016-02-03T14:59:58.000Z</time>
      </trkpt>
      <trkpt lat="46.94394" lon="2.97237">
        <ele>213.28759765625</ele>
        <time>2016-02-03T15:00:01.000Z</time>
      </trkpt>
      <trkpt lat="46.94394" lon="2.97236">
        <ele>213.26623535156</ele>
        <time>2016-02-03T15:00:04.000Z</time>
      </trkpt>
      <trkpt lat="46.94396" lon="2.97235">
        <ele>213.24752807617</ele>
        <time>2016-02-03T15:00:06.000Z</time>
      </trkpt>
      <trkpt lat="46.94398" lon="2.97233">
        <ele>213.2307434082</ele>
        <time>2016-02-03T15:00:09.000Z</time>
      </trkpt>
      <trkpt lat="46.944" lon="2.9723">
        <ele>213.20434570312</ele>
        <time>2016-02-03T15:00:12.000Z</time>
      </trkpt>
      <trkpt lat="46.94401" lon="2.97228">
        <ele>213.17353820801</ele>
        <time>2016-02-03T15:00:14.000Z</time>
      </trkpt>
      <trkpt lat="46.94404" lon="2.97226">
        <ele>213.14619445801</ele>
        <time>2016-02-03T15:00:17.000Z</time>
      </trkpt>
      <trkpt lat="46.94407" lon="2.97223">
        <ele>213.09912109375</ele>
        <time>2016-02-03T15:00:19.000Z</time>
      </trkpt>
      <trkpt lat="46.94409" lon="2.9722">
        <ele>213.03894042969</ele>
        <time>2016-02-03T15:00:21.000Z</time>
      </trkpt>
      <trkpt lat="46.94411" lon="2.97217">
        <ele>212.98371887207</ele>
        <time>2016-02-03T15:00:24.000Z</time>
      </trkpt>
      <trkpt lat="46.94413" lon="2.97215">
        <ele>212.92056274414</ele>
        <time>2016-02-03T15:00:26.000Z</time>
      </trkpt>
      <trkpt lat="46.94417" lon="2.97212">
        <ele>212.84199523926</ele>
        <time>2016-02-03T15:00:29.000Z</time>
      </trkpt>
      <trkpt lat="46.94419" lon="2.97211">
        <ele>212.75346374512</ele>
        <time>2016-02-03T15:00:31.000Z</time>
      </trkpt>
      <trkpt lat="46.94422" lon="2.97211">
        <ele>212.63635253906</ele>
        <time>2016-02-03T15:00:34.000Z</time>
      </trkpt>
      <trkpt lat="46.94423" lon="2.9721">
        <ele>212.50955200195</ele>
        <time>2016-02-03T15:00:36.000Z</time>
      </trkpt>
      <trkpt lat="46.94425" lon="2.97209">
        <ele>212.36299133301</ele>
        <time>2016-02-03T15:00:39.000Z</time>
      </trkpt>
      <trkpt lat="46.94427" lon="2.97208">
        <ele>212.20040893555</ele>
        <time>2016-02-03T15:00:41.000Z</time>
      </trkpt>
      <trkpt lat="46.94429" lon="2.97207">
        <ele>212.02059936523</ele>
        <time>2016-02-03T15:00:43.000Z</time>
      </trkpt>
      <trkpt lat="46.94432" lon="2.97206">
        <ele>211.84725952148</ele>
        <time>2016-02-03T15:00:46.000Z</time>
      </trkpt>
      <trkpt lat="46.94435" lon="2.97204">
        <ele>211.62423706055</ele>
        <time>2016-02-03T15:00:49.000Z</time>
      </trkpt>
      <trkpt lat="46.94437" lon="2.97203">
        <ele>211.41011047363</ele>
        <time>2016-02-03T15:00:51.000Z</time>
      </trkpt>
      <trkpt lat="46.9444" lon="2.97202">
        <ele>211.17831420898</ele>
        <time>2016-02-03T15:00:54.000Z</time>
      </trkpt>
      <trkpt lat="46.94443" lon="2.972">
        <ele>210.92280578613</ele>
        <time>2016-02-03T15:00:57.000Z</time>
      </trkpt>
      <trkpt lat="46.94444" lon="2.97199">
        <ele>210.67964172363</ele>
        <time>2016-02-03T15:00:59.000Z</time>
      </trkpt>
      <trkpt lat="46.94447" lon="2.97197">
        <ele>210.44241333008</ele>
        <time>2016-02-03T15:01:02.000Z</time>
      </trkpt>
      <trkpt lat="46.94448" lon="2.97196">
        <ele>210.2008972168</ele>
        <time>2016-02-03T15:01:04.000Z</time>
      </trkpt>
      <trkpt lat="46.9445" lon="2.97194">
        <ele>209.95608520508</ele>
        <time>2016-02-03T15:01:07.000Z</time>
      </trkpt>
      <trkpt lat="46.94452" lon="2.97192">
        <ele>209.72424316406</ele>
        <time>2016-02-03T15:01:09.000Z</time>
      </trkpt>
      <trkpt lat="46.94456" lon="2.97185">
        <ele>209.37348937988</ele>
        <time>2016-02-03T15:01:12.000Z</time>
      </trkpt>
      <trkpt lat="46.94456" lon="2.97183">
        <ele>209.0466003418</ele>
        <time>2016-02-03T15:01:14.000Z</time>
      </trkpt>
      <trkpt lat="46.94458" lon="2.9718">
        <ele>208.69577026367</ele>
        <time>2016-02-03T15:01:16.000Z</time>
      </trkpt>
      <trkpt lat="46.94461" lon="2.97178">
        <ele>208.32070922852</ele>
        <time>2016-02-03T15:01:19.000Z</time>
      </trkpt>
      <trkpt lat="46.94463" lon="2.97176">
        <ele>207.94596862793</ele>
        <time>2016-02-03T15:01:21.000Z</time>
      </trkpt>
      <trkpt lat="46.94468" lon="2.97172">
        <ele>207.58645629883</ele>
        <time>2016-02-03T15:01:24.000Z</time>
      </trkpt>
      <trkpt lat="46.9447" lon="2.9717">
        <ele>207.22196960449</ele>
        <time>2016-02-03T15:01:26.000Z</time>
      </trkpt>
      <trkpt lat="46.94472" lon="2.97169">
        <ele>206.8583984375</ele>
        <time>2016-02-03T15:01:28.000Z</time>
      </trkpt>
      <trkpt lat="46.94475" lon="2.97167">
        <ele>206.49736022949</ele>
        <time>2016-02-03T15:01:31.000Z</time>
      </trkpt>
      <trkpt lat="46.94479" lon="2.97164">
        <ele>206.11645507812</ele>
        <time>2016-02-03T15:01:34.000Z</time>
      </trkpt>
      <trkpt lat="46.94482" lon="2.97162">
        <ele>205.81538391113</ele>
        <time>2016-02-03T15:01:37.000Z</time>
      </trkpt>
      <trkpt lat="46.94483" lon="2.97161">
        <ele>205.53918457031</ele>
        <time>2016-02-03T15:01:39.000Z</time>
      </trkpt>
      <trkpt lat="46.94485" lon="2.9716">
        <ele>205.28439331055</ele>
        <time>2016-02-03T15:01:43.000Z</time>
      </trkpt>
      <trkpt lat="46.94486" lon="2.97159">
        <ele>205.09802246094</ele>
        <time>2016-02-03T15:01:46.000Z</time>
      </trkpt>
      <trkpt lat="46.94487" lon="2.97158">
        <ele>204.95613098145</ele>
        <time>2016-02-03T15:01:48.000Z</time>
      </trkpt>
      <trkpt lat="46.9449" lon="2.97157">
        <ele>204.82182312012</ele>
        <time>2016-02-03T15:01:51.000Z</time>
      </trkpt>
      <trkpt lat="46.94491" lon="2.97155">
        <ele>204.67858886719</ele>
        <time>2016-02-03T15:01:53.000Z</time>
      </trkpt>
      <trkpt lat="46.94494" lon="2.97153">
        <ele>204.52131652832</ele>
        <time>2016-02-03T15:01:56.000Z</time>
      </trkpt>
      <trkpt lat="46.94495" lon="2.97152">
        <ele>204.34350585938</ele>
        <time>2016-02-03T15:02:00.000Z</time>
      </trkpt>
      <trkpt lat="46.94498" lon="2.9715">
        <ele>204.14399719238</ele>
        <time>2016-02-03T15:02:02.000Z</time>
      </trkpt>
      <trkpt lat="46.94501" lon="2.97149">
        <ele>203.94633483887</ele>
        <time>2016-02-03T15:02:05.000Z</time>
      </trkpt>
      <trkpt lat="46.94502" lon="2.97149">
        <ele>203.77165222168</ele>
        <time>2016-02-03T15:02:08.000Z</time>
      </trkpt>
      <trkpt lat="46.94504" lon="2.97148">
        <ele>203.62837219238</ele>
        <time>2016-02-03T15:02:10.000Z</time>
      </trkpt>
      <trkpt lat="46.94508" lon="2.97145">
        <ele>203.4747467041</ele>
        <time>2016-02-03T15:02:13.000Z</time>
      </trkpt>
      <trkpt lat="46.94511" lon="2.97143">
        <ele>203.34509277344</ele>
        <time>2016-02-03T15:02:15.000Z</time>
      </trkpt>
      <trkpt lat="46.94513" lon="2.9714">
        <ele>203.23245239258</ele>
        <time>2016-02-03T15:02:17.000Z</time>
      </trkpt>
      <trkpt lat="46.94514" lon="2.97138">
        <ele>203.1070098877</ele>
        <time>2016-02-03T15:02:20.000Z</time>
      </trkpt>
      <trkpt lat="46.94516" lon="2.97136">
        <ele>202.97482299805</ele>
        <time>2016-02-03T15:02:22.000Z</time>
      </trkpt>
      <trkpt lat="46.94519" lon="2.97134">
        <ele>202.85688781738</ele>
        <time>2016-02-03T15:02:24.000Z</time>
      </trkpt>
      <trkpt lat="46.94521" lon="2.9713">
        <ele>202.73870849609</ele>
        <time>2016-02-03T15:02:27.000Z</time>
      </trkpt>
      <trkpt lat="46.94524" lon="2.97127">
        <ele>202.6145324707</ele>
        <time>2016-02-03T15:02:30.000Z</time>
      </trkpt>
      <trkpt lat="46.94526" lon="2.97125">
        <ele>202.48928833008</ele>
        <time>2016-02-03T15:02:32.000Z</time>
      </trkpt>
      <trkpt lat="46.94528" lon="2.97122">
        <ele>202.35774230957</ele>
        <time>2016-02-03T15:02:34.000Z</time>
      </trkpt>
      <trkpt lat="46.94529" lon="2.97119">
        <ele>202.23461914062</ele>
        <time>2016-02-03T15:02:37.000Z</time>
      </trkpt>
      <trkpt lat="46.94531" lon="2.97116">
        <ele>202.1157989502</ele>
        <time>2016-02-03T15:02:39.000Z</time>
      </trkpt>
      <trkpt lat="46.94532" lon="2.97114">
        <ele>202.00944519043</ele>
        <time>2016-02-03T15:02:42.000Z</time>
      </trkpt>
      <trkpt lat="46.94535" lon="2.97111">
        <ele>201.89916992188</ele>
        <time>2016-02-03T15:02:45.000Z</time>
      </trkpt>
      <trkpt lat="46.9454" lon="2.97108">
        <ele>201.77926635742</ele>
        <time>2016-02-03T15:02:48.000Z</time>
      </trkpt>
      <trkpt lat="46.94543" lon="2.97104">
        <ele>201.64228820801</ele>
        <time>2016-02-03T15:02:51.000Z</time>
      </trkpt>
      <trkpt lat="46.94545" lon="2.97102">
        <ele>201.51048278809</ele>
        <time>2016-02-03T15:02:54.000Z</time>
      </trkpt>
      <trkpt lat="46.94548" lon="2.97098">
        <ele>201.36930847168</ele>
        <time>2016-02-03T15:02:57.000Z</time>
      </trkpt>
      <trkpt lat="46.9455" lon="2.97094">
        <ele>201.2279510498</ele>
        <time>2016-02-03T15:03:00.000Z</time>
      </trkpt>
      <trkpt lat="46.94553" lon="2.97093">
        <ele>201.10868835449</ele>
        <time>2016-02-03T15:03:02.000Z</time>
      </trkpt>
      <trkpt lat="46.94557" lon="2.97088">
        <ele>200.98439025879</ele>
        <time>2016-02-03T15:03:05.000Z</time>
      </trkpt>
      <trkpt lat="46.94559" lon="2.97085">
        <ele>200.85943603516</ele>
        <time>2016-02-03T15:03:08.000Z</time>
      </trkpt>
      <trkpt lat="46.9456" lon="2.97083">
        <ele>200.75134277344</ele>
        <time>2016-02-03T15:03:10.000Z</time>
      </trkpt>
      <trkpt lat="46.94562" lon="2.9708">
        <ele>200.66793823242</ele>
        <time>2016-02-03T15:03:13.000Z</time>
      </trkpt>
      <trkpt lat="46.94564" lon="2.97077">
        <ele>200.59623718262</ele>
        <time>2016-02-03T15:03:16.000Z</time>
      </trkpt>
      <trkpt lat="46.94566" lon="2.97075">
        <ele>200.5609588623</ele>
        <time>2016-02-03T15:03:18.000Z</time>
      </trkpt>
      <trkpt lat="46.9457" lon="2.9707">
        <ele>200.53932189941</ele>
        <time>2016-02-03T15:03:21.000Z</time>
      </trkpt>
      <trkpt lat="46.94571" lon="2.97068">
        <ele>200.52688598633</ele>
        <time>2016-02-03T15:03:23.000Z</time>
      </trkpt>
      <trkpt lat="46.94575" lon="2.97064">
        <ele>200.50747680664</ele>
        <time>2016-02-03T15:03:26.000Z</time>
      </trkpt>
      <trkpt lat="46.94576" lon="2.97062">
        <ele>200.4884185791</ele>
        <time>2016-02-03T15:03:28.000Z</time>
      </trkpt>
      <trkpt lat="46.9458" lon="2.97059">
        <ele>200.46286010742</ele>
        <time>2016-02-03T15:03:31.000Z</time>
      </trkpt>
      <trkpt lat="46.94581" lon="2.97056">
        <ele>200.43807983398</ele>
        <time>2016-02-03T15:03:33.000Z</time>
      </trkpt>
      <trkpt lat="46.94584" lon="2.97054">
        <ele>200.40817260742</ele>
        <time>2016-02-03T15:03:36.000Z</time>
      </trkpt>
      <trkpt lat="46.94585" lon="2.97051">
        <ele>200.3929901123</ele>
        <time>2016-02-03T15:03:38.000Z</time>
      </trkpt>
      <trkpt lat="46.94587" lon="2.9705">
        <ele>200.38584899902</ele>
        <time>2016-02-03T15:03:40.000Z</time>
      </trkpt>
      <trkpt lat="46.94588" lon="2.97046">
        <ele>200.39520263672</ele>
        <time>2016-02-03T15:03:43.000Z</time>
      </trkpt>
      <trkpt lat="46.9459" lon="2.97045">
        <ele>200.41180419922</ele>
        <time>2016-02-03T15:03:45.000Z</time>
      </trkpt>
      <trkpt lat="46.94592" lon="2.97043">
        <ele>200.43786621094</ele>
        <time>2016-02-03T15:03:47.000Z</time>
      </trkpt>
      <trkpt lat="46.94595" lon="2.97039">
        <ele>200.46563720703</ele>
        <time>2016-02-03T15:03:50.000Z</time>
      </trkpt>
      <trkpt lat="46.94596" lon="2.97037">
        <ele>200.49505615234</ele>
        <time>2016-02-03T15:03:52.000Z</time>
      </trkpt>
      <trkpt lat="46.94599" lon="2.97034">
        <ele>200.52386474609</ele>
        <time>2016-02-03T15:03:55.000Z</time>
      </trkpt>
      <trkpt lat="46.94602" lon="2.97032">
        <ele>200.55334472656</ele>
        <time>2016-02-03T15:03:57.000Z</time>
      </trkpt>
      <trkpt lat="46.94606" lon="2.97029">
        <ele>200.58746337891</ele>
        <time>2016-02-03T15:04:00.000Z</time>
      </trkpt>
      <trkpt lat="46.94609" lon="2.97026">
        <ele>200.62072753906</ele>
        <time>2016-02-03T15:04:02.000Z</time>
      </trkpt>
      <trkpt lat="46.94613" lon="2.97022">
        <ele>200.65698242188</ele>
        <time>2016-02-03T15:04:05.000Z</time>
      </trkpt>
      <trkpt lat="46.94616" lon="2.97019">
        <ele>200.69293212891</ele>
        <time>2016-02-03T15:04:08.000Z</time>
      </trkpt>
      <trkpt lat="46.94619" lon="2.97017">
        <ele>200.73010253906</ele>
        <time>2016-02-03T15:04:11.000Z</time>
      </trkpt>
      <trkpt lat="46.94621" lon="2.97015">
        <ele>200.76379394531</ele>
        <time>2016-02-03T15:04:13.000Z</time>
      </trkpt>
      <trkpt lat="46.94624" lon="2.97012">
        <ele>200.7958984375</ele>
        <time>2016-02-03T15:04:16.000Z</time>
      </trkpt>
      <trkpt lat="46.94626" lon="2.97011">
        <ele>200.82250976562</ele>
        <time>2016-02-03T15:04:18.000Z</time>
      </trkpt>
      <trkpt lat="46.9463" lon="2.97009">
        <ele>200.84680175781</ele>
        <time>2016-02-03T15:04:21.000Z</time>
      </trkpt>
      <trkpt lat="46.94633" lon="2.97009">
        <ele>200.86602783203</ele>
        <time>2016-02-03T15:04:23.000Z</time>
      </trkpt>
      <trkpt lat="46.94636" lon="2.97007">
        <ele>200.88372802734</ele>
        <time>2016-02-03T15:04:26.000Z</time>
      </trkpt>
      <trkpt lat="46.94638" lon="2.97005">
        <ele>200.90203857422</ele>
        <time>2016-02-03T15:04:29.000Z</time>
      </trkpt>
      <trkpt lat="46.9464" lon="2.97003">
        <ele>200.92211914062</ele>
        <time>2016-02-03T15:04:31.000Z</time>
      </trkpt>
      <trkpt lat="46.94644" lon="2.97001">
        <ele>200.94183349609</ele>
        <time>2016-02-03T15:04:34.000Z</time>
      </trkpt>
      <trkpt lat="46.94646" lon="2.97">
        <ele>200.96301269531</ele>
        <time>2016-02-03T15:04:36.000Z</time>
      </trkpt>
      <trkpt lat="46.94648" lon="2.96999">
        <ele>200.982421875</ele>
        <time>2016-02-03T15:04:38.000Z</time>
      </trkpt>
      <trkpt lat="46.94651" lon="2.96998">
        <ele>200.99865722656</ele>
        <time>2016-02-03T15:04:41.000Z</time>
      </trkpt>
      <trkpt lat="46.94653" lon="2.96997">
        <ele>201.01251220703</ele>
        <time>2016-02-03T15:04:44.000Z</time>
      </trkpt>
      <trkpt lat="46.94654" lon="2.96996">
        <ele>201.02355957031</ele>
        <time>2016-02-03T15:04:46.000Z</time>
      </trkpt>
      <trkpt lat="46.94657" lon="2.96993">
        <ele>201.03918457031</ele>
        <time>2016-02-03T15:04:49.000Z</time>
      </trkpt>
      <trkpt lat="46.94661" lon="2.96991">
        <ele>201.05920410156</ele>
        <time>2016-02-03T15:04:52.000Z</time>
      </trkpt>
      <trkpt lat="46.94663" lon="2.96989">
        <ele>201.08074951172</ele>
        <time>2016-02-03T15:04:54.000Z</time>
      </trkpt>
      <trkpt lat="46.94667" lon="2.96986">
        <ele>201.09883117676</ele>
        <time>2016-02-03T15:04:57.000Z</time>
      </trkpt>
      <trkpt lat="46.94672" lon="2.96983">
        <ele>201.07783508301</ele>
        <time>2016-02-03T15:05:00.000Z</time>
      </trkpt>
      <trkpt lat="46.94674" lon="2.96982">
        <ele>201.03684997559</ele>
        <time>2016-02-03T15:05:03.000Z</time>
      </trkpt>
      <trkpt lat="46.94678" lon="2.96979">
        <ele>200.96528625488</ele>
        <time>2016-02-03T15:05:05.000Z</time>
      </trkpt>
      <trkpt lat="46.94683" lon="2.96974">
        <ele>200.85311889648</ele>
        <time>2016-02-03T15:05:08.000Z</time>
      </trkpt>
      <trkpt lat="46.94688" lon="2.96967">
        <ele>200.72077941895</ele>
        <time>2016-02-03T15:05:11.000Z</time>
      </trkpt>
      <trkpt lat="46.9469" lon="2.96964">
        <ele>200.61637878418</ele>
        <time>2016-02-03T15:05:13.000Z</time>
      </trkpt>
      <trkpt lat="46.94693" lon="2.9696">
        <ele>200.51432800293</ele>
        <time>2016-02-03T15:05:16.000Z</time>
      </trkpt>
      <trkpt lat="46.94697" lon="2.96956">
        <ele>200.41757202148</ele>
        <time>2016-02-03T15:05:19.000Z</time>
      </trkpt>
      <trkpt lat="46.94699" lon="2.96955">
        <ele>200.34370422363</ele>
        <time>2016-02-03T15:05:21.000Z</time>
      </trkpt>
      <trkpt lat="46.94701" lon="2.96954">
        <ele>200.27871704102</ele>
        <time>2016-02-03T15:05:23.000Z</time>
      </trkpt>
      <trkpt lat="46.94703" lon="2.96952">
        <ele>200.20913696289</ele>
        <time>2016-02-03T15:05:25.000Z</time>
      </trkpt>
      <trkpt lat="46.94707" lon="2.96949">
        <ele>200.13229370117</ele>
        <time>2016-02-03T15:05:28.000Z</time>
      </trkpt>
      <trkpt lat="46.9471" lon="2.96946">
        <ele>200.0563659668</ele>
        <time>2016-02-03T15:05:31.000Z</time>
      </trkpt>
      <trkpt lat="46.94715" lon="2.96943">
        <ele>199.97006225586</ele>
        <time>2016-02-03T15:05:34.000Z</time>
      </trkpt>
      <trkpt lat="46.94717" lon="2.9694">
        <ele>199.88388061523</ele>
        <time>2016-02-03T15:05:36.000Z</time>
      </trkpt>
      <trkpt lat="46.94722" lon="2.96937">
        <ele>199.7935333252</ele>
        <time>2016-02-03T15:05:39.000Z</time>
      </trkpt>
      <trkpt lat="46.94725" lon="2.96934">
        <ele>199.70791625977</ele>
        <time>2016-02-03T15:05:42.000Z</time>
      </trkpt>
      <trkpt lat="46.9473" lon="2.9693">
        <ele>199.61880493164</ele>
        <time>2016-02-03T15:05:45.000Z</time>
      </trkpt>
      <trkpt lat="46.94732" lon="2.96929">
        <ele>199.54440307617</ele>
        <time>2016-02-03T15:05:47.000Z</time>
      </trkpt>
      <trkpt lat="46.94734" lon="2.96927">
        <ele>199.47163391113</ele>
        <time>2016-02-03T15:05:49.000Z</time>
      </trkpt>
      <trkpt lat="46.94738" lon="2.96923">
        <ele>199.40823364258</ele>
        <time>2016-02-03T15:05:52.000Z</time>
      </trkpt>
      <trkpt lat="46.9474" lon="2.96921">
        <ele>199.35089111328</ele>
        <time>2016-02-03T15:05:55.000Z</time>
      </trkpt>
      <trkpt lat="46.94743" lon="2.96918">
        <ele>199.30844116211</ele>
        <time>2016-02-03T15:05:57.000Z</time>
      </trkpt>
      <trkpt lat="46.94746" lon="2.96915">
        <ele>199.25088500977</ele>
        <time>2016-02-03T15:06:00.000Z</time>
      </trkpt>
      <trkpt lat="46.9475" lon="2.96914">
        <ele>199.17001342773</ele>
        <time>2016-02-03T15:06:03.000Z</time>
      </trkpt>
      <trkpt lat="46.94752" lon="2.96912">
        <ele>199.08392333984</ele>
        <time>2016-02-03T15:06:06.000Z</time>
      </trkpt>
      <trkpt lat="46.94756" lon="2.96909">
        <ele>198.9839630127</ele>
        <time>2016-02-03T15:06:09.000Z</time>
      </trkpt>
      <trkpt lat="46.94759" lon="2.96906">
        <ele>198.86831665039</ele>
        <time>2016-02-03T15:06:12.000Z</time>
      </trkpt>
      <trkpt lat="46.94762" lon="2.96905">
        <ele>198.76795959473</ele>
        <time>2016-02-03T15:06:14.000Z</time>
      </trkpt>
      <trkpt lat="46.94766" lon="2.96901">
        <ele>198.6812286377</ele>
        <time>2016-02-03T15:06:17.000Z</time>
      </trkpt>
      <trkpt lat="46.94769" lon="2.96899">
        <ele>198.59419250488</ele>
        <time>2016-02-03T15:06:19.000Z</time>
      </trkpt>
      <trkpt lat="46.94773" lon="2.96894">
        <ele>198.5075378418</ele>
        <time>2016-02-03T15:06:22.000Z</time>
      </trkpt>
      <trkpt lat="46.94775" lon="2.96892">
        <ele>198.43267822266</ele>
        <time>2016-02-03T15:06:24.000Z</time>
      </trkpt>
      <trkpt lat="46.94779" lon="2.96888">
        <ele>198.35270690918</ele>
        <time>2016-02-03T15:06:27.000Z</time>
      </trkpt>
      <trkpt lat="46.94782" lon="2.96885">
        <ele>198.28080749512</ele>
        <time>2016-02-03T15:06:30.000Z</time>
      </trkpt>
      <trkpt lat="46.94786" lon="2.96882">
        <ele>198.21304321289</ele>
        <time>2016-02-03T15:06:33.000Z</time>
      </trkpt>
      <trkpt lat="46.9479" lon="2.96881">
        <ele>198.16047668457</ele>
        <time>2016-02-03T15:06:35.000Z</time>
      </trkpt>
      <trkpt lat="46.94792" lon="2.96879">
        <ele>198.11386108398</ele>
        <time>2016-02-03T15:06:37.000Z</time>
      </trkpt>
      <trkpt lat="46.94794" lon="2.96878">
        <ele>198.07849121094</ele>
        <time>2016-02-03T15:06:40.000Z</time>
      </trkpt>
      <trkpt lat="46.94796" lon="2.96877">
        <ele>198.05274963379</ele>
        <time>2016-02-03T15:06:43.000Z</time>
      </trkpt>
      <trkpt lat="46.948" lon="2.96875">
        <ele>198.03317260742</ele>
        <time>2016-02-03T15:06:46.000Z</time>
      </trkpt>
      <trkpt lat="46.94802" lon="2.96874">
        <ele>198.01681518555</ele>
        <time>2016-02-03T15:06:48.000Z</time>
      </trkpt>
      <trkpt lat="46.94805" lon="2.96872">
        <ele>198.00244140625</ele>
        <time>2016-02-03T15:06:51.000Z</time>
      </trkpt>
      <trkpt lat="46.94807" lon="2.9687">
        <ele>197.98831176758</ele>
        <time>2016-02-03T15:06:53.000Z</time>
      </trkpt>
      <trkpt lat="46.94812" lon="2.96864">
        <ele>197.97119140625</ele>
        <time>2016-02-03T15:06:56.000Z</time>
      </trkpt>
      <trkpt lat="46.94814" lon="2.96861">
        <ele>197.95649719238</ele>
        <time>2016-02-03T15:06:58.000Z</time>
      </trkpt>
      <trkpt lat="46.94819" lon="2.96857">
        <ele>197.94436645508</ele>
        <time>2016-02-03T15:07:01.000Z</time>
      </trkpt>
      <trkpt lat="46.94825" lon="2.96851">
        <ele>197.93746948242</ele>
        <time>2016-02-03T15:07:04.000Z</time>
      </trkpt>
      <trkpt lat="46.94828" lon="2.96848">
        <ele>197.93646240234</ele>
        <time>2016-02-03T15:07:07.000Z</time>
      </trkpt>
      <trkpt lat="46.9483" lon="2.96847">
        <ele>197.94369506836</ele>
        <time>2016-02-03T15:07:09.000Z</time>
      </trkpt>
      <trkpt lat="46.94831" lon="2.96846">
        <ele>197.95516967773</ele>
        <time>2016-02-03T15:07:11.000Z</time>
      </trkpt>
      <trkpt lat="46.94832" lon="2.96846">
        <ele>197.96821594238</ele>
        <time>2016-02-03T15:07:13.000Z</time>
      </trkpt>
      <trkpt lat="46.94835" lon="2.96842">
        <ele>197.97709655762</ele>
        <time>2016-02-03T15:07:16.000Z</time>
      </trkpt>
      <trkpt lat="46.94839" lon="2.96838">
        <ele>197.97113037109</ele>
        <time>2016-02-03T15:07:19.000Z</time>
      </trkpt>
      <trkpt lat="46.94842" lon="2.96836">
        <ele>197.95674133301</ele>
        <time>2016-02-03T15:07:22.000Z</time>
      </trkpt>
      <trkpt lat="46.94843" lon="2.96834">
        <ele>197.93641662598</ele>
        <time>2016-02-03T15:07:25.000Z</time>
      </trkpt>
      <trkpt lat="46.94845" lon="2.96833">
        <ele>197.90672302246</ele>
        <time>2016-02-03T15:07:27.000Z</time>
      </trkpt>
      <trkpt lat="46.94847" lon="2.96832">
        <ele>197.87109375</ele>
        <time>2016-02-03T15:07:30.000Z</time>
      </trkpt>
      <trkpt lat="46.94847" lon="2.96831">
        <ele>197.83547973633</ele>
        <time>2016-02-03T15:07:32.000Z</time>
      </trkpt>
      <trkpt lat="46.94849" lon="2.96825">
        <ele>197.76406860352</ele>
        <time>2016-02-03T15:07:35.000Z</time>
      </trkpt>
      <trkpt lat="46.9485" lon="2.96822">
        <ele>197.67837524414</ele>
        <time>2016-02-03T15:07:38.000Z</time>
      </trkpt>
      <trkpt lat="46.94851" lon="2.96821">
        <ele>197.5884552002</ele>
        <time>2016-02-03T15:07:49.000Z</time>
      </trkpt>
      <trkpt lat="46.94851" lon="2.9682">
        <ele>197.4986114502</ele>
        <time>2016-02-03T15:07:52.000Z</time>
      </trkpt>
      <trkpt lat="46.94853" lon="2.96819">
        <ele>197.41659545898</ele>
        <time>2016-02-03T15:08:06.000Z</time>
      </trkpt>
      <trkpt lat="46.94854" lon="2.96818">
        <ele>197.3688659668</ele>
        <time>2016-02-03T15:08:23.000Z</time>
      </trkpt>
      <trkpt lat="46.94854" lon="2.96818">
        <ele>197.3688659668</ele>
        <time>2016-02-03T15:08:43.000Z</time>
      </trkpt>
      <trkpt lat="46.94856" lon="2.96812">
        <ele>197.29983520508</ele>
        <time>2016-02-03T15:09:57.000Z</time>
      </trkpt>
      <trkpt lat="46.94859" lon="2.9681">
        <ele>197.22673034668</ele>
        <time>2016-02-03T15:10:00.000Z</time>
      </trkpt>
      <trkpt lat="46.9486" lon="2.96809">
        <ele>197.15338134766</ele>
        <time>2016-02-03T15:10:02.000Z</time>
      </trkpt>
      <trkpt lat="46.9486" lon="2.96807">
        <ele>197.07194519043</ele>
        <time>2016-02-03T15:10:04.000Z</time>
      </trkpt>
      <trkpt lat="46.94861" lon="2.96801">
        <ele>196.96565246582</ele>
        <time>2016-02-03T15:10:07.000Z</time>
      </trkpt>
      <trkpt lat="46.94862" lon="2.96798">
        <ele>196.87733459473</ele>
        <time>2016-02-03T15:10:10.000Z</time>
      </trkpt>
      <trkpt lat="46.94863" lon="2.96795">
        <ele>196.78918457031</ele>
        <time>2016-02-03T15:10:12.000Z</time>
      </trkpt>
      <trkpt lat="46.94864" lon="2.9679">
        <ele>196.68244934082</ele>
        <time>2016-02-03T15:10:15.000Z</time>
      </trkpt>
      <trkpt lat="46.94864" lon="2.96785">
        <ele>196.56216430664</ele>
        <time>2016-02-03T15:10:18.000Z</time>
      </trkpt>
      <trkpt lat="46.94865" lon="2.96783">
        <ele>196.46212768555</ele>
        <time>2016-02-03T15:10:21.000Z</time>
      </trkpt>
      <trkpt lat="46.94865" lon="2.96777">
        <ele>196.34843444824</ele>
        <time>2016-02-03T15:10:23.000Z</time>
      </trkpt>
      <trkpt lat="46.94864" lon="2.9677">
        <ele>196.21479797363</ele>
        <time>2016-02-03T15:10:26.000Z</time>
      </trkpt>
      <trkpt lat="46.94864" lon="2.96767">
        <ele>196.08932495117</ele>
        <time>2016-02-03T15:10:28.000Z</time>
      </trkpt>
      <trkpt lat="46.94865" lon="2.96761">
        <ele>195.95791625977</ele>
        <time>2016-02-03T15:10:31.000Z</time>
      </trkpt>
      <trkpt lat="46.94865" lon="2.96758">
        <ele>195.82223510742</ele>
        <time>2016-02-03T15:10:33.000Z</time>
      </trkpt>
      <trkpt lat="46.94865" lon="2.96753">
        <ele>195.69297790527</ele>
        <time>2016-02-03T15:10:36.000Z</time>
      </trkpt>
      <trkpt lat="46.94865" lon="2.96746">
        <ele>195.57586669922</ele>
        <time>2016-02-03T15:10:39.000Z</time>
      </trkpt>
      <trkpt lat="46.94865" lon="2.96742">
        <ele>195.46603393555</ele>
        <time>2016-02-03T15:10:42.000Z</time>
      </trkpt>
      <trkpt lat="46.94866" lon="2.96737">
        <ele>195.37750244141</ele>
        <time>2016-02-03T15:10:45.000Z</time>
      </trkpt>
      <trkpt lat="46.94867" lon="2.96731">
        <ele>195.29257202148</ele>
        <time>2016-02-03T15:10:48.000Z</time>
      </trkpt>
      <trkpt lat="46.94867" lon="2.96727">
        <ele>195.22808837891</ele>
        <time>2016-02-03T15:10:51.000Z</time>
      </trkpt>
      <trkpt lat="46.94867" lon="2.96722">
        <ele>195.17645263672</ele>
        <time>2016-02-03T15:10:54.000Z</time>
      </trkpt>
      <trkpt lat="46.94868" lon="2.96718">
        <ele>195.12646484375</ele>
        <time>2016-02-03T15:10:56.000Z</time>
      </trkpt>
      <trkpt lat="46.94867" lon="2.96712">
        <ele>195.06939697266</ele>
        <time>2016-02-03T15:10:59.000Z</time>
      </trkpt>
      <trkpt lat="46.94868" lon="2.96705">
        <ele>195.01129150391</ele>
        <time>2016-02-03T15:11:02.000Z</time>
      </trkpt>
      <trkpt lat="46.94868" lon="2.967">
        <ele>194.9501953125</ele>
        <time>2016-02-03T15:11:05.000Z</time>
      </trkpt>
      <trkpt lat="46.94868" lon="2.96698">
        <ele>194.89453125</ele>
        <time>2016-02-03T15:11:07.000Z</time>
      </trkpt>
      <trkpt lat="46.94868" lon="2.96693">
        <ele>194.83636474609</ele>
        <time>2016-02-03T15:11:10.000Z</time>
      </trkpt>
      <trkpt lat="46.94869" lon="2.96688">
        <ele>194.78363037109</ele>
        <time>2016-02-03T15:11:13.000Z</time>
      </trkpt>
      <trkpt lat="46.94869" lon="2.96683">
        <ele>194.73352050781</ele>
        <time>2016-02-03T15:11:15.000Z</time>
      </trkpt>
      <trkpt lat="46.94868" lon="2.96678">
        <ele>194.68060302734</ele>
        <time>2016-02-03T15:11:18.000Z</time>
      </trkpt>
      <trkpt lat="46.94869" lon="2.96674">
        <ele>194.62445068359</ele>
        <time>2016-02-03T15:11:20.000Z</time>
      </trkpt>
      <trkpt lat="46.94868" lon="2.96667">
        <ele>194.56274414062</ele>
        <time>2016-02-03T15:11:23.000Z</time>
      </trkpt>
      <trkpt lat="46.94868" lon="2.96664">
        <ele>194.50274658203</ele>
        <time>2016-02-03T15:11:25.000Z</time>
      </trkpt>
      <trkpt lat="46.94868" lon="2.96658">
        <ele>194.44055175781</ele>
        <time>2016-02-03T15:11:28.000Z</time>
      </trkpt>
      <trkpt lat="46.94867" lon="2.96653">
        <ele>194.37683105469</ele>
        <time>2016-02-03T15:11:31.000Z</time>
      </trkpt>
      <trkpt lat="46.94867" lon="2.9665">
        <ele>194.31335449219</ele>
        <time>2016-02-03T15:11:33.000Z</time>
      </trkpt>
      <trkpt lat="46.94867" lon="2.96645">
        <ele>194.25396728516</ele>
        <time>2016-02-03T15:11:36.000Z</time>
      </trkpt>
      <trkpt lat="46.94867" lon="2.96641">
        <ele>194.19647216797</ele>
        <time>2016-02-03T15:11:38.000Z</time>
      </trkpt>
      <trkpt lat="46.94866" lon="2.96635">
        <ele>194.13604736328</ele>
        <time>2016-02-03T15:11:41.000Z</time>
      </trkpt>
      <trkpt lat="46.94865" lon="2.9663">
        <ele>194.07769775391</ele>
        <time>2016-02-03T15:11:43.000Z</time>
      </trkpt>
      <trkpt lat="46.94865" lon="2.96627">
        <ele>194.01904296875</ele>
        <time>2016-02-03T15:11:45.000Z</time>
      </trkpt>
      <trkpt lat="46.94865" lon="2.96625">
        <ele>193.96691894531</ele>
        <time>2016-02-03T15:11:47.000Z</time>
      </trkpt>
      <trkpt lat="46.94864" lon="2.9662">
        <ele>193.90789794922</ele>
        <time>2016-02-03T15:11:50.000Z</time>
      </trkpt>
      <trkpt lat="46.94862" lon="2.96613">
        <ele>193.84661865234</ele>
        <time>2016-02-03T15:11:53.000Z</time>
      </trkpt>
      <trkpt lat="46.94861" lon="2.96609">
        <ele>193.78552246094</ele>
        <time>2016-02-03T15:11:55.000Z</time>
      </trkpt>
      <trkpt lat="46.9486" lon="2.96603">
        <ele>193.71752929688</ele>
        <time>2016-02-03T15:11:58.000Z</time>
      </trkpt>
      <trkpt lat="46.9486" lon="2.96597">
        <ele>193.63983154297</ele>
        <time>2016-02-03T15:12:01.000Z</time>
      </trkpt>
      <trkpt lat="46.94859" lon="2.96593">
        <ele>193.56335449219</ele>
        <time>2016-02-03T15:12:04.000Z</time>
      </trkpt>
      <trkpt lat="46.94859" lon="2.96587">
        <ele>193.49176025391</ele>
        <time>2016-02-03T15:12:07.000Z</time>
      </trkpt>
      <trkpt lat="46.94857" lon="2.96582">
        <ele>193.4235534668</ele>
        <time>2016-02-03T15:12:10.000Z</time>
      </trkpt>
      <trkpt lat="46.94857" lon="2.96576">
        <ele>193.38618469238</ele>
        <time>2016-02-03T15:12:13.000Z</time>
      </trkpt>
      <trkpt lat="46.94856" lon="2.96572">
        <ele>193.37673950195</ele>
        <time>2016-02-03T15:12:15.000Z</time>
      </trkpt>
      <trkpt lat="46.94855" lon="2.96567">
        <ele>193.39250183105</ele>
        <time>2016-02-03T15:12:18.000Z</time>
      </trkpt>
      <trkpt lat="46.94855" lon="2.96562">
        <ele>193.43615722656</ele>
        <time>2016-02-03T15:12:21.000Z</time>
      </trkpt>
      <trkpt lat="46.94855" lon="2.96558">
        <ele>193.50100708008</ele>
        <time>2016-02-03T15:12:24.000Z</time>
      </trkpt>
      <trkpt lat="46.94854" lon="2.96552">
        <ele>193.5686340332</ele>
        <time>2016-02-03T15:12:27.000Z</time>
      </trkpt>
      <trkpt lat="46.94854" lon="2.96548">
        <ele>193.63801574707</ele>
        <time>2016-02-03T15:12:29.000Z</time>
      </trkpt>
      <trkpt lat="46.94854" lon="2.96542">
        <ele>193.71211242676</ele>
        <time>2016-02-03T15:12:32.000Z</time>
      </trkpt>
      <trkpt lat="46.94853" lon="2.96538">
        <ele>193.78804016113</ele>
        <time>2016-02-03T15:12:35.000Z</time>
      </trkpt>
      <trkpt lat="46.94853" lon="2.96533">
        <ele>193.86734008789</ele>
        <time>2016-02-03T15:12:37.000Z</time>
      </trkpt>
      <trkpt lat="46.94852" lon="2.96527">
        <ele>193.9479675293</ele>
        <time>2016-02-03T15:12:40.000Z</time>
      </trkpt>
      <trkpt lat="46.94851" lon="2.96521">
        <ele>194.03750610352</ele>
        <time>2016-02-03T15:12:43.000Z</time>
      </trkpt>
      <trkpt lat="46.9485" lon="2.96518">
        <ele>194.12423706055</ele>
        <time>2016-02-03T15:12:45.000Z</time>
      </trkpt>
      <trkpt lat="46.94851" lon="2.96513">
        <ele>194.20826721191</ele>
        <time>2016-02-03T15:12:48.000Z</time>
      </trkpt>
      <trkpt lat="46.94851" lon="2.96509">
        <ele>194.28799438477</ele>
        <time>2016-02-03T15:12:50.000Z</time>
      </trkpt>
      <trkpt lat="46.94851" lon="2.96503">
        <ele>194.36584472656</ele>
        <time>2016-02-03T15:12:53.000Z</time>
      </trkpt>
      <trkpt lat="46.94851" lon="2.96499">
        <ele>194.4309387207</ele>
        <time>2016-02-03T15:12:55.000Z</time>
      </trkpt>
      <trkpt lat="46.94852" lon="2.96495">
        <ele>194.47210693359</ele>
        <time>2016-02-03T15:12:58.000Z</time>
      </trkpt>
      <trkpt lat="46.94852" lon="2.96491">
        <ele>194.49227905273</ele>
        <time>2016-02-03T15:13:01.000Z</time>
      </trkpt>
      <trkpt lat="46.94851" lon="2.96487">
        <ele>194.49580383301</ele>
        <time>2016-02-03T15:13:03.000Z</time>
      </trkpt>
      <trkpt lat="46.94852" lon="2.96481">
        <ele>194.46980285645</ele>
        <time>2016-02-03T15:13:06.000Z</time>
      </trkpt>
      <trkpt lat="46.94852" lon="2.96477">
        <ele>194.42718505859</ele>
        <time>2016-02-03T15:13:08.000Z</time>
      </trkpt>
      <trkpt lat="46.94852" lon="2.96473">
        <ele>194.38592529297</ele>
        <time>2016-02-03T15:13:11.000Z</time>
      </trkpt>
      <trkpt lat="46.94853" lon="2.96469">
        <ele>194.34188842773</ele>
        <time>2016-02-03T15:13:14.000Z</time>
      </trkpt>
      <trkpt lat="46.94854" lon="2.96464">
        <ele>194.28813171387</ele>
        <time>2016-02-03T15:13:17.000Z</time>
      </trkpt>
      <trkpt lat="46.94854" lon="2.96458">
        <ele>194.23751831055</ele>
        <time>2016-02-03T15:13:20.000Z</time>
      </trkpt>
      <trkpt lat="46.94854" lon="2.96455">
        <ele>194.18757629395</ele>
        <time>2016-02-03T15:13:22.000Z</time>
      </trkpt>
      <trkpt lat="46.94855" lon="2.96453">
        <ele>194.13903808594</ele>
        <time>2016-02-03T15:13:25.000Z</time>
      </trkpt>
      <trkpt lat="46.94855" lon="2.96451">
        <ele>194.09767150879</ele>
        <time>2016-02-03T15:13:30.000Z</time>
      </trkpt>
      <trkpt lat="46.94856" lon="2.96449">
        <ele>194.06555175781</ele>
        <time>2016-02-03T15:13:33.000Z</time>
      </trkpt>
      <trkpt lat="46.94857" lon="2.96444">
        <ele>194.03047180176</ele>
        <time>2016-02-03T15:13:36.000Z</time>
      </trkpt>
      <trkpt lat="46.94857" lon="2.96441">
        <ele>193.99649047852</ele>
        <time>2016-02-03T15:13:38.000Z</time>
      </trkpt>
      <trkpt lat="46.94856" lon="2.96437">
        <ele>193.96444702148</ele>
        <time>2016-02-03T15:13:41.000Z</time>
      </trkpt>
      <trkpt lat="46.94855" lon="2.96432">
        <ele>193.93182373047</ele>
        <time>2016-02-03T15:13:44.000Z</time>
      </trkpt>
      <trkpt lat="46.94855" lon="2.96429">
        <ele>193.90077209473</ele>
        <time>2016-02-03T15:13:46.000Z</time>
      </trkpt>
      <trkpt lat="46.94855" lon="2.96423">
        <ele>193.86920166016</ele>
        <time>2016-02-03T15:13:49.000Z</time>
      </trkpt>
      <trkpt lat="46.94855" lon="2.96417">
        <ele>193.83227539062</ele>
        <time>2016-02-03T15:13:52.000Z</time>
      </trkpt>
      <trkpt lat="46.94857" lon="2.96412">
        <ele>193.78634643555</ele>
        <time>2016-02-03T15:13:55.000Z</time>
      </trkpt>
      <trkpt lat="46.94857" lon="2.96408">
        <ele>193.73348999023</ele>
        <time>2016-02-03T15:13:57.000Z</time>
      </trkpt>
      <trkpt lat="46.94858" lon="2.96401">
        <ele>193.67141723633</ele>
        <time>2016-02-03T15:14:00.000Z</time>
      </trkpt>
      <trkpt lat="46.94859" lon="2.96395">
        <ele>193.60211181641</ele>
        <time>2016-02-03T15:14:03.000Z</time>
      </trkpt>
      <trkpt lat="46.94859" lon="2.96389">
        <ele>193.53030395508</ele>
        <time>2016-02-03T15:14:06.000Z</time>
      </trkpt>
      <trkpt lat="46.94859" lon="2.96384">
        <ele>193.46087646484</ele>
        <time>2016-02-03T15:14:09.000Z</time>
      </trkpt>
      <trkpt lat="46.9486" lon="2.96381">
        <ele>193.3913269043</ele>
        <time>2016-02-03T15:14:11.000Z</time>
      </trkpt>
      <trkpt lat="46.9486" lon="2.96374">
        <ele>193.31831359863</ele>
        <time>2016-02-03T15:14:14.000Z</time>
      </trkpt>
      <trkpt lat="46.94861" lon="2.9637">
        <ele>193.25151062012</ele>
        <time>2016-02-03T15:14:17.000Z</time>
      </trkpt>
      <trkpt lat="46.94861" lon="2.96367">
        <ele>193.18774414062</ele>
        <time>2016-02-03T15:14:19.000Z</time>
      </trkpt>
      <trkpt lat="46.94861" lon="2.96361">
        <ele>193.12228393555</ele>
        <time>2016-02-03T15:14:22.000Z</time>
      </trkpt>
      <trkpt lat="46.94861" lon="2.96357">
        <ele>193.05718994141</ele>
        <time>2016-02-03T15:14:24.000Z</time>
      </trkpt>
      <trkpt lat="46.94862" lon="2.96352">
        <ele>192.98799133301</ele>
        <time>2016-02-03T15:14:27.000Z</time>
      </trkpt>
      <trkpt lat="46.94863" lon="2.9635">
        <ele>192.92184448242</ele>
        <time>2016-02-03T15:14:30.000Z</time>
      </trkpt>
      <trkpt lat="46.94864" lon="2.96349">
        <ele>192.85847473145</ele>
        <time>2016-02-03T15:14:38.000Z</time>
      </trkpt>
      <trkpt lat="46.94863" lon="2.96347">
        <ele>192.80722045898</ele>
        <time>2016-02-03T15:14:40.000Z</time>
      </trkpt>
      <trkpt lat="46.94863" lon="2.96344">
        <ele>192.75866699219</ele>
        <time>2016-02-03T15:14:43.000Z</time>
      </trkpt>
      <trkpt lat="46.94862" lon="2.96337">
        <ele>192.720703125</ele>
        <time>2016-02-03T15:14:46.000Z</time>
      </trkpt>
      <trkpt lat="46.94862" lon="2.96332">
        <ele>192.68467712402</ele>
        <time>2016-02-03T15:14:48.000Z</time>
      </trkpt>
      <trkpt lat="46.94863" lon="2.96327">
        <ele>192.65199279785</ele>
        <time>2016-02-03T15:14:51.000Z</time>
      </trkpt>
      <trkpt lat="46.94862" lon="2.96323">
        <ele>192.62875366211</ele>
        <time>2016-02-03T15:14:53.000Z</time>
      </trkpt>
      <trkpt lat="46.94862" lon="2.96318">
        <ele>192.6135559082</ele>
        <time>2016-02-03T15:14:56.000Z</time>
      </trkpt>
      <trkpt lat="46.94863" lon="2.96315">
        <ele>192.6015625</ele>
        <time>2016-02-03T15:14:59.000Z</time>
      </trkpt>
      <trkpt lat="46.94864" lon="2.96309">
        <ele>192.58984375</ele>
        <time>2016-02-03T15:15:02.000Z</time>
      </trkpt>
      <trkpt lat="46.94865" lon="2.96305">
        <ele>192.56640625</ele>
        <time>2016-02-03T15:15:04.000Z</time>
      </trkpt>
      <trkpt lat="46.94866" lon="2.96302">
        <ele>192.53125</ele>
        <time>2016-02-03T15:15:06.000Z</time>
      </trkpt>
      <trkpt lat="46.94868" lon="2.96295">
        <ele>192.4765625</ele>
        <time>2016-02-03T15:15:09.000Z</time>
      </trkpt>
      <trkpt lat="46.94869" lon="2.9629">
        <ele>192.41796875</ele>
        <time>2016-02-03T15:15:12.000Z</time>
      </trkpt>
      <trkpt lat="46.94869" lon="2.96285">
        <ele>192.36328125</ele>
        <time>2016-02-03T15:15:15.000Z</time>
      </trkpt>
      <trkpt lat="46.94869" lon="2.9628">
        <ele>192.32421875</ele>
        <time>2016-02-03T15:15:18.000Z</time>
      </trkpt>
      <trkpt lat="46.94871" lon="2.96274">
        <ele>192.27734375</ele>
        <time>2016-02-03T15:15:21.000Z</time>
      </trkpt>
      <trkpt lat="46.94873" lon="2.96268">
        <ele>192.2265625</ele>
        <time>2016-02-03T15:15:24.000Z</time>
      </trkpt>
      <trkpt lat="46.94874" lon="2.96264">
        <ele>192.1796875</ele>
        <time>2016-02-03T15:15:26.000Z</time>
      </trkpt>
      <trkpt lat="46.94874" lon="2.96262">
        <ele>192.1328125</ele>
        <time>2016-02-03T15:15:28.000Z</time>
      </trkpt>
      <trkpt lat="46.94875" lon="2.96255">
        <ele>192.08203125</ele>
        <time>2016-02-03T15:15:31.000Z</time>
      </trkpt>
      <trkpt lat="46.94876" lon="2.96253">
        <ele>192.03125</ele>
        <time>2016-02-03T15:15:33.000Z</time>
      </trkpt>
      <trkpt lat="46.94877" lon="2.96247">
        <ele>191.99822998047</ele>
        <time>2016-02-03T15:15:36.000Z</time>
      </trkpt>
      <trkpt lat="46.94878" lon="2.96243">
        <ele>191.97540283203</ele>
        <time>2016-02-03T15:15:38.000Z</time>
      </trkpt>
      <trkpt lat="46.94878" lon="2.96238">
        <ele>191.96441650391</ele>
        <time>2016-02-03T15:15:41.000Z</time>
      </trkpt>
      <trkpt lat="46.94878" lon="2.96232">
        <ele>191.97204589844</ele>
        <time>2016-02-03T15:15:44.000Z</time>
      </trkpt>
      <trkpt lat="46.94878" lon="2.96229">
        <ele>192.0029296875</ele>
        <time>2016-02-03T15:15:46.000Z</time>
      </trkpt>
      <trkpt lat="46.94878" lon="2.96222">
        <ele>192.05999755859</ele>
        <time>2016-02-03T15:15:49.000Z</time>
      </trkpt>
      <trkpt lat="46.94876" lon="2.96219">
        <ele>192.13330078125</ele>
        <time>2016-02-03T15:15:51.000Z</time>
      </trkpt>
      <trkpt lat="46.94877" lon="2.96213">
        <ele>192.20849609375</ele>
        <time>2016-02-03T15:15:54.000Z</time>
      </trkpt>
      <trkpt lat="46.94877" lon="2.96209">
        <ele>192.279296875</ele>
        <time>2016-02-03T15:15:56.000Z</time>
      </trkpt>
      <trkpt lat="46.94877" lon="2.96204">
        <ele>192.34698486328</ele>
        <time>2016-02-03T15:15:59.000Z</time>
      </trkpt>
      <trkpt lat="46.94878" lon="2.96199">
        <ele>192.39831542969</ele>
        <time>2016-02-03T15:16:01.000Z</time>
      </trkpt>
      <trkpt lat="46.94879" lon="2.96194">
        <ele>192.43511962891</ele>
        <time>2016-02-03T15:16:04.000Z</time>
      </trkpt>
      <trkpt lat="46.9488" lon="2.96191">
        <ele>192.46130371094</ele>
        <time>2016-02-03T15:16:06.000Z</time>
      </trkpt>
      <trkpt lat="46.9488" lon="2.96186">
        <ele>192.48919677734</ele>
        <time>2016-02-03T15:16:09.000Z</time>
      </trkpt>
      <trkpt lat="46.94879" lon="2.96183">
        <ele>192.52062988281</ele>
        <time>2016-02-03T15:16:11.000Z</time>
      </trkpt>
      <trkpt lat="46.94879" lon="2.9618">
        <ele>192.55523681641</ele>
        <time>2016-02-03T15:16:13.000Z</time>
      </trkpt>
      <trkpt lat="46.94879" lon="2.96176">
        <ele>192.59539794922</ele>
        <time>2016-02-03T15:16:16.000Z</time>
      </trkpt>
      <trkpt lat="46.9488" lon="2.96168">
        <ele>192.64294433594</ele>
        <time>2016-02-03T15:16:19.000Z</time>
      </trkpt>
      <trkpt lat="46.94881" lon="2.96162">
        <ele>192.68008422852</ele>
        <time>2016-02-03T15:16:22.000Z</time>
      </trkpt>
      <trkpt lat="46.94882" lon="2.96157">
        <ele>192.70556640625</ele>
        <time>2016-02-03T15:16:25.000Z</time>
      </trkpt>
      <trkpt lat="46.94883" lon="2.96151">
        <ele>192.7241973877</ele>
        <time>2016-02-03T15:16:28.000Z</time>
      </trkpt>
      <trkpt lat="46.94885" lon="2.96146">
        <ele>192.72125244141</ele>
        <time>2016-02-03T15:16:31.000Z</time>
      </trkpt>
      <trkpt lat="46.94886" lon="2.96143">
        <ele>192.70527648926</ele>
        <time>2016-02-03T15:16:33.000Z</time>
      </trkpt>
      <trkpt lat="46.94887" lon="2.96141">
        <ele>192.68110656738</ele>
        <time>2016-02-03T15:16:35.000Z</time>
      </trkpt>
      <trkpt lat="46.94889" lon="2.96134">
        <ele>192.64961242676</ele>
        <time>2016-02-03T15:16:38.000Z</time>
      </trkpt>
      <trkpt lat="46.9489" lon="2.96129">
        <ele>192.62190246582</ele>
        <time>2016-02-03T15:16:41.000Z</time>
      </trkpt>
      <trkpt lat="46.94891" lon="2.96123">
        <ele>192.60885620117</ele>
        <time>2016-02-03T15:16:44.000Z</time>
      </trkpt>
      <trkpt lat="46.94891" lon="2.96119">
        <ele>192.60520935059</ele>
        <time>2016-02-03T15:16:46.000Z</time>
      </trkpt>
      <trkpt lat="46.94891" lon="2.96116">
        <ele>192.6145324707</ele>
        <time>2016-02-03T15:16:48.000Z</time>
      </trkpt>
      <trkpt lat="46.94892" lon="2.9611">
        <ele>192.63410949707</ele>
        <time>2016-02-03T15:16:51.000Z</time>
      </trkpt>
      <trkpt lat="46.94893" lon="2.96104">
        <ele>192.64866638184</ele>
        <time>2016-02-03T15:16:54.000Z</time>
      </trkpt>
      <trkpt lat="46.94893" lon="2.96099">
        <ele>192.66677856445</ele>
        <time>2016-02-03T15:16:57.000Z</time>
      </trkpt>
      <trkpt lat="46.94894" lon="2.96096">
        <ele>192.6813659668</ele>
        <time>2016-02-03T15:16:59.000Z</time>
      </trkpt>
      <trkpt lat="46.94895" lon="2.96091">
        <ele>192.69511413574</ele>
        <time>2016-02-03T15:17:02.000Z</time>
      </trkpt>
      <trkpt lat="46.94895" lon="2.96088">
        <ele>192.70761108398</ele>
        <time>2016-02-03T15:17:04.000Z</time>
      </trkpt>
      <trkpt lat="46.94897" lon="2.96083">
        <ele>192.71839904785</ele>
        <time>2016-02-03T15:17:07.000Z</time>
      </trkpt>
      <trkpt lat="46.94898" lon="2.96078">
        <ele>192.7223815918</ele>
        <time>2016-02-03T15:17:10.000Z</time>
      </trkpt>
      <trkpt lat="46.949" lon="2.96073">
        <ele>192.72396850586</ele>
        <time>2016-02-03T15:17:13.000Z</time>
      </trkpt>
      <trkpt lat="46.94901" lon="2.9607">
        <ele>192.72639465332</ele>
        <time>2016-02-03T15:17:16.000Z</time>
      </trkpt>
      <trkpt lat="46.94902" lon="2.96067">
        <ele>192.72399902344</ele>
        <time>2016-02-03T15:17:18.000Z</time>
      </trkpt>
      <trkpt lat="46.94904" lon="2.96062">
        <ele>192.72454833984</ele>
        <time>2016-02-03T15:17:21.000Z</time>
      </trkpt>
      <trkpt lat="46.94904" lon="2.96059">
        <ele>192.72772216797</ele>
        <time>2016-02-03T15:17:23.000Z</time>
      </trkpt>
      <trkpt lat="46.94907" lon="2.96051">
        <ele>192.73754882812</ele>
        <time>2016-02-03T15:17:26.000Z</time>
      </trkpt>
      <trkpt lat="46.94908" lon="2.96046">
        <ele>192.74359130859</ele>
        <time>2016-02-03T15:17:28.000Z</time>
      </trkpt>
      <trkpt lat="46.94909" lon="2.96042">
        <ele>192.75415039062</ele>
        <time>2016-02-03T15:17:31.000Z</time>
      </trkpt>
      <trkpt lat="46.9491" lon="2.96038">
        <ele>192.76550292969</ele>
        <time>2016-02-03T15:17:33.000Z</time>
      </trkpt>
      <trkpt lat="46.94911" lon="2.96035">
        <ele>192.77337646484</ele>
        <time>2016-02-03T15:17:35.000Z</time>
      </trkpt>
      <trkpt lat="46.94913" lon="2.9603">
        <ele>192.77349853516</ele>
        <time>2016-02-03T15:17:38.000Z</time>
      </trkpt>
      <trkpt lat="46.94915" lon="2.96027">
        <ele>192.76959228516</ele>
        <time>2016-02-03T15:17:40.000Z</time>
      </trkpt>
      <trkpt lat="46.94917" lon="2.96021">
        <ele>192.76196289062</ele>
        <time>2016-02-03T15:17:43.000Z</time>
      </trkpt>
      <trkpt lat="46.94918" lon="2.96018">
        <ele>192.75881958008</ele>
        <time>2016-02-03T15:17:45.000Z</time>
      </trkpt>
      <trkpt lat="46.9492" lon="2.96013">
        <ele>192.76602172852</ele>
        <time>2016-02-03T15:17:48.000Z</time>
      </trkpt>
      <trkpt lat="46.94921" lon="2.96009">
        <ele>192.78366088867</ele>
        <time>2016-02-03T15:17:51.000Z</time>
      </trkpt>
      <trkpt lat="46.94923" lon="2.96004">
        <ele>192.8098449707</ele>
        <time>2016-02-03T15:17:54.000Z</time>
      </trkpt>
      <trkpt lat="46.94926" lon="2.95998">
        <ele>192.83999633789</ele>
        <time>2016-02-03T15:17:57.000Z</time>
      </trkpt>
      <trkpt lat="46.94928" lon="2.95993">
        <ele>192.85775756836</ele>
        <time>2016-02-03T15:18:00.000Z</time>
      </trkpt>
      <trkpt lat="46.9493" lon="2.95989">
        <ele>192.8597869873</ele>
        <time>2016-02-03T15:18:03.000Z</time>
      </trkpt>
      <trkpt lat="46.94931" lon="2.95986">
        <ele>192.85104370117</ele>
        <time>2016-02-03T15:18:05.000Z</time>
      </trkpt>
      <trkpt lat="46.94932" lon="2.95983">
        <ele>192.83171081543</ele>
        <time>2016-02-03T15:18:07.000Z</time>
      </trkpt>
      <trkpt lat="46.94935" lon="2.95979">
        <ele>192.79853820801</ele>
        <time>2016-02-03T15:18:10.000Z</time>
      </trkpt>
      <trkpt lat="46.94937" lon="2.95975">
        <ele>192.76358032227</ele>
        <time>2016-02-03T15:18:13.000Z</time>
      </trkpt>
      <trkpt lat="46.94938" lon="2.95972">
        <ele>192.73139953613</ele>
        <time>2016-02-03T15:18:15.000Z</time>
      </trkpt>
      <trkpt lat="46.94939" lon="2.9597">
        <ele>192.6979675293</ele>
        <time>2016-02-03T15:18:17.000Z</time>
      </trkpt>
      <trkpt lat="46.94942" lon="2.95963">
        <ele>192.65287780762</ele>
        <time>2016-02-03T15:18:20.000Z</time>
      </trkpt>
      <trkpt lat="46.94943" lon="2.9596">
        <ele>192.61413574219</ele>
        <time>2016-02-03T15:18:22.000Z</time>
      </trkpt>
      <trkpt lat="46.94945" lon="2.95954">
        <ele>192.57363891602</ele>
        <time>2016-02-03T15:18:25.000Z</time>
      </trkpt>
      <trkpt lat="46.94946" lon="2.95952">
        <ele>192.52893066406</ele>
        <time>2016-02-03T15:18:27.000Z</time>
      </trkpt>
      <trkpt lat="46.94949" lon="2.95949">
        <ele>192.47625732422</ele>
        <time>2016-02-03T15:18:30.000Z</time>
      </trkpt>
      <trkpt lat="46.9495" lon="2.95948">
        <ele>192.43453979492</ele>
        <time>2016-02-03T15:18:32.000Z</time>
      </trkpt>
      <trkpt lat="46.94952" lon="2.95943">
        <ele>192.38348388672</ele>
        <time>2016-02-03T15:18:35.000Z</time>
      </trkpt>
      <trkpt lat="46.94954" lon="2.95939">
        <ele>192.33036804199</ele>
        <time>2016-02-03T15:18:37.000Z</time>
      </trkpt>
      <trkpt lat="46.94957" lon="2.95933">
        <ele>192.27058410645</ele>
        <time>2016-02-03T15:18:40.000Z</time>
      </trkpt>
      <trkpt lat="46.94958" lon="2.9593">
        <ele>192.21548461914</ele>
        <time>2016-02-03T15:18:42.000Z</time>
      </trkpt>
      <trkpt lat="46.94959" lon="2.95927">
        <ele>192.15509033203</ele>
        <time>2016-02-03T15:18:44.000Z</time>
      </trkpt>
      <trkpt lat="46.94962" lon="2.95922">
        <ele>192.09065246582</ele>
        <time>2016-02-03T15:18:47.000Z</time>
      </trkpt>
      <trkpt lat="46.94963" lon="2.95918">
        <ele>192.02565002441</ele>
        <time>2016-02-03T15:18:49.000Z</time>
      </trkpt>
      <trkpt lat="46.94965" lon="2.95914">
        <ele>191.96748352051</ele>
        <time>2016-02-03T15:18:52.000Z</time>
      </trkpt>
      <trkpt lat="46.94966" lon="2.95908">
        <ele>191.9104309082</ele>
        <time>2016-02-03T15:18:55.000Z</time>
      </trkpt>
      <trkpt lat="46.94968" lon="2.95905">
        <ele>191.85699462891</ele>
        <time>2016-02-03T15:18:57.000Z</time>
      </trkpt>
      <trkpt lat="46.94969" lon="2.95901">
        <ele>191.81469726562</ele>
        <time>2016-02-03T15:19:00.000Z</time>
      </trkpt>
      <trkpt lat="46.9497" lon="2.95897">
        <ele>191.783203125</ele>
        <time>2016-02-03T15:19:02.000Z</time>
      </trkpt>
      <trkpt lat="46.94971" lon="2.95893">
        <ele>191.751953125</ele>
        <time>2016-02-03T15:19:04.000Z</time>
      </trkpt>
      <trkpt lat="46.94972" lon="2.9589">
        <ele>191.724609375</ele>
        <time>2016-02-03T15:19:06.000Z</time>
      </trkpt>
      <trkpt lat="46.94974" lon="2.95885">
        <ele>191.693359375</ele>
        <time>2016-02-03T15:19:09.000Z</time>
      </trkpt>
      <trkpt lat="46.94974" lon="2.9588">
        <ele>191.669921875</ele>
        <time>2016-02-03T15:19:12.000Z</time>
      </trkpt>
      <trkpt lat="46.94975" lon="2.95877">
        <ele>191.64453125</ele>
        <time>2016-02-03T15:19:14.000Z</time>
      </trkpt>
      <trkpt lat="46.94977" lon="2.9587">
        <ele>191.6171875</ele>
        <time>2016-02-03T15:19:17.000Z</time>
      </trkpt>
      <trkpt lat="46.94978" lon="2.95867">
        <ele>191.5859375</ele>
        <time>2016-02-03T15:19:19.000Z</time>
      </trkpt>
      <trkpt lat="46.9498" lon="2.9586">
        <ele>191.556640625</ele>
        <time>2016-02-03T15:19:22.000Z</time>
      </trkpt>
      <trkpt lat="46.94981" lon="2.95856">
        <ele>191.5234375</ele>
        <time>2016-02-03T15:19:24.000Z</time>
      </trkpt>
      <trkpt lat="46.94982" lon="2.95851">
        <ele>191.48828125</ele>
        <time>2016-02-03T15:19:27.000Z</time>
      </trkpt>
      <trkpt lat="46.94983" lon="2.95849">
        <ele>191.4609375</ele>
        <time>2016-02-03T15:19:29.000Z</time>
      </trkpt>
      <trkpt lat="46.94984" lon="2.95845">
        <ele>191.43359375</ele>
        <time>2016-02-03T15:19:31.000Z</time>
      </trkpt>
      <trkpt lat="46.94986" lon="2.95838">
        <ele>191.404296875</ele>
        <time>2016-02-03T15:19:34.000Z</time>
      </trkpt>
      <trkpt lat="46.94987" lon="2.95834">
        <ele>191.376953125</ele>
        <time>2016-02-03T15:19:36.000Z</time>
      </trkpt>
      <trkpt lat="46.94988" lon="2.95829">
        <ele>191.35888671875</ele>
        <time>2016-02-03T15:19:39.000Z</time>
      </trkpt>
      <trkpt lat="46.94989" lon="2.95826">
        <ele>191.3444519043</ele>
        <time>2016-02-03T15:19:41.000Z</time>
      </trkpt>
      <trkpt lat="46.94989" lon="2.95822">
        <ele>191.34239196777</ele>
        <time>2016-02-03T15:19:44.000Z</time>
      </trkpt>
      <trkpt lat="46.9499" lon="2.95818">
        <ele>191.35464477539</ele>
        <time>2016-02-03T15:19:46.000Z</time>
      </trkpt>
      <trkpt lat="46.94991" lon="2.95812">
        <ele>191.37966918945</ele>
        <time>2016-02-03T15:19:49.000Z</time>
      </trkpt>
      <trkpt lat="46.94992" lon="2.95809">
        <ele>191.4012298584</ele>
        <time>2016-02-03T15:19:51.000Z</time>
      </trkpt>
      <trkpt lat="46.94994" lon="2.95804">
        <ele>191.42596435547</ele>
        <time>2016-02-03T15:19:54.000Z</time>
      </trkpt>
      <trkpt lat="46.94995" lon="2.95801">
        <ele>191.44616699219</ele>
        <time>2016-02-03T15:19:56.000Z</time>
      </trkpt>
      <trkpt lat="46.94997" lon="2.95797">
        <ele>191.46774291992</ele>
        <time>2016-02-03T15:19:59.000Z</time>
      </trkpt>
      <trkpt lat="46.94998" lon="2.95793">
        <ele>191.48066711426</ele>
        <time>2016-02-03T15:20:01.000Z</time>
      </trkpt>
      <trkpt lat="46.95" lon="2.95787">
        <ele>191.50427246094</ele>
        <time>2016-02-03T15:20:04.000Z</time>
      </trkpt>
      <trkpt lat="46.95" lon="2.9578">
        <ele>191.53562927246</ele>
        <time>2016-02-03T15:20:07.000Z</time>
      </trkpt>
      <trkpt lat="46.95002" lon="2.95774">
        <ele>191.5763092041</ele>
        <time>2016-02-03T15:20:10.000Z</time>
      </trkpt>
      <trkpt lat="46.95003" lon="2.95768">
        <ele>191.61885070801</ele>
        <time>2016-02-03T15:20:13.000Z</time>
      </trkpt>
      <trkpt lat="46.95004" lon="2.95763">
        <ele>191.66839599609</ele>
        <time>2016-02-03T15:20:16.000Z</time>
      </trkpt>
      <trkpt lat="46.95005" lon="2.95757">
        <ele>191.71887207031</ele>
        <time>2016-02-03T15:20:19.000Z</time>
      </trkpt>
      <trkpt lat="46.95005" lon="2.95752">
        <ele>191.76473999023</ele>
        <time>2016-02-03T15:20:21.000Z</time>
      </trkpt>
      <trkpt lat="46.95007" lon="2.95746">
        <ele>191.79849243164</ele>
        <time>2016-02-03T15:20:24.000Z</time>
      </trkpt>
      <trkpt lat="46.95007" lon="2.9574">
        <ele>191.82054138184</ele>
        <time>2016-02-03T15:20:27.000Z</time>
      </trkpt>
      <trkpt lat="46.95008" lon="2.95737">
        <ele>191.83151245117</ele>
        <time>2016-02-03T15:20:30.000Z</time>
      </trkpt>
      <trkpt lat="46.95007" lon="2.95732">
        <ele>191.83285522461</ele>
        <time>2016-02-03T15:20:32.000Z</time>
      </trkpt>
      <trkpt lat="46.95008" lon="2.95726">
        <ele>191.82421875</ele>
        <time>2016-02-03T15:20:35.000Z</time>
      </trkpt>
      <trkpt lat="46.95008" lon="2.95723">
        <ele>191.81640625</ele>
        <time>2016-02-03T15:20:37.000Z</time>
      </trkpt>
      <trkpt lat="46.95009" lon="2.95716">
        <ele>191.80859375</ele>
        <time>2016-02-03T15:20:40.000Z</time>
      </trkpt>
      <trkpt lat="46.95008" lon="2.95714">
        <ele>191.8046875</ele>
        <time>2016-02-03T15:20:42.000Z</time>
      </trkpt>
      <trkpt lat="46.95009" lon="2.95708">
        <ele>191.794921875</ele>
        <time>2016-02-03T15:20:45.000Z</time>
      </trkpt>
      <trkpt lat="46.9501" lon="2.95702">
        <ele>191.78125</ele>
        <time>2016-02-03T15:20:48.000Z</time>
      </trkpt>
      <trkpt lat="46.9501" lon="2.95696">
        <ele>191.76953125</ele>
        <time>2016-02-03T15:20:51.000Z</time>
      </trkpt>
      <trkpt lat="46.95012" lon="2.95691">
        <ele>191.7578125</ele>
        <time>2016-02-03T15:20:54.000Z</time>
      </trkpt>
      <trkpt lat="46.95013" lon="2.95685">
        <ele>191.736328125</ele>
        <time>2016-02-03T15:20:57.000Z</time>
      </trkpt>
      <trkpt lat="46.95014" lon="2.95679">
        <ele>191.712890625</ele>
        <time>2016-02-03T15:21:00.000Z</time>
      </trkpt>
      <trkpt lat="46.95015" lon="2.95674">
        <ele>191.69140625</ele>
        <time>2016-02-03T15:21:02.000Z</time>
      </trkpt>
      <trkpt lat="46.95016" lon="2.95669">
        <ele>191.6640625</ele>
        <time>2016-02-03T15:21:04.000Z</time>
      </trkpt>
      <trkpt lat="46.95017" lon="2.95664">
        <ele>191.62785339355</ele>
        <time>2016-02-03T15:21:07.000Z</time>
      </trkpt>
      <trkpt lat="46.95017" lon="2.95661">
        <ele>191.5871887207</ele>
        <time>2016-02-03T15:21:09.000Z</time>
      </trkpt>
      <trkpt lat="46.95018" lon="2.95655">
        <ele>191.52731323242</ele>
        <time>2016-02-03T15:21:12.000Z</time>
      </trkpt>
      <trkpt lat="46.95018" lon="2.95651">
        <ele>191.4535369873</ele>
        <time>2016-02-03T15:21:14.000Z</time>
      </trkpt>
      <trkpt lat="46.95019" lon="2.95647">
        <ele>191.36636352539</ele>
        <time>2016-02-03T15:21:16.000Z</time>
      </trkpt>
      <trkpt lat="46.95019" lon="2.95641">
        <ele>191.26940917969</ele>
        <time>2016-02-03T15:21:19.000Z</time>
      </trkpt>
      <trkpt lat="46.9502" lon="2.95636">
        <ele>191.16549682617</ele>
        <time>2016-02-03T15:21:21.000Z</time>
      </trkpt>
      <trkpt lat="46.95021" lon="2.95632">
        <ele>191.06636047363</ele>
        <time>2016-02-03T15:21:24.000Z</time>
      </trkpt>
      <trkpt lat="46.95022" lon="2.95627">
        <ele>190.96572875977</ele>
        <time>2016-02-03T15:21:26.000Z</time>
      </trkpt>
      <trkpt lat="46.95024" lon="2.9562">
        <ele>190.85551452637</ele>
        <time>2016-02-03T15:21:29.000Z</time>
      </trkpt>
      <trkpt lat="46.95025" lon="2.95616">
        <ele>190.75335693359</ele>
        <time>2016-02-03T15:21:31.000Z</time>
      </trkpt>
      <trkpt lat="46.95025" lon="2.95612">
        <ele>190.65469360352</ele>
        <time>2016-02-03T15:21:33.000Z</time>
      </trkpt>
      <trkpt lat="46.95025" lon="2.95605">
        <ele>190.55471801758</ele>
        <time>2016-02-03T15:21:36.000Z</time>
      </trkpt>
      <trkpt lat="46.95025" lon="2.956">
        <ele>190.45590209961</ele>
        <time>2016-02-03T15:21:39.000Z</time>
      </trkpt>
      <trkpt lat="46.95025" lon="2.95594">
        <ele>190.36892700195</ele>
        <time>2016-02-03T15:21:42.000Z</time>
      </trkpt>
      <trkpt lat="46.95024" lon="2.95591">
        <ele>190.28588867188</ele>
        <time>2016-02-03T15:21:44.000Z</time>
      </trkpt>
      <trkpt lat="46.95024" lon="2.95586">
        <ele>190.20030212402</ele>
        <time>2016-02-03T15:21:47.000Z</time>
      </trkpt>
      <trkpt lat="46.95026" lon="2.95579">
        <ele>190.11494445801</ele>
        <time>2016-02-03T15:21:50.000Z</time>
      </trkpt>
      <trkpt lat="46.95026" lon="2.95575">
        <ele>190.03532409668</ele>
        <time>2016-02-03T15:21:52.000Z</time>
      </trkpt>
      <trkpt lat="46.95026" lon="2.95569">
        <ele>189.95317077637</ele>
        <time>2016-02-03T15:21:55.000Z</time>
      </trkpt>
      <trkpt lat="46.95026" lon="2.95564">
        <ele>189.86575317383</ele>
        <time>2016-02-03T15:21:57.000Z</time>
      </trkpt>
      <trkpt lat="46.95027" lon="2.95559">
        <ele>189.77914428711</ele>
        <time>2016-02-03T15:22:00.000Z</time>
      </trkpt>
      <trkpt lat="46.95028" lon="2.95553">
        <ele>189.69580078125</ele>
        <time>2016-02-03T15:22:03.000Z</time>
      </trkpt>
      <trkpt lat="46.95028" lon="2.95547">
        <ele>189.60273742676</ele>
        <time>2016-02-03T15:22:06.000Z</time>
      </trkpt>
      <trkpt lat="46.95029" lon="2.95543">
        <ele>189.51649475098</ele>
        <time>2016-02-03T15:22:08.000Z</time>
      </trkpt>
      <trkpt lat="46.95029" lon="2.95541">
        <ele>189.43911743164</ele>
        <time>2016-02-03T15:22:10.000Z</time>
      </trkpt>
      <trkpt lat="46.95029" lon="2.95538">
        <ele>189.37040710449</ele>
        <time>2016-02-03T15:22:12.000Z</time>
      </trkpt>
      <trkpt lat="46.95029" lon="2.95533">
        <ele>189.30491638184</ele>
        <time>2016-02-03T15:22:15.000Z</time>
      </trkpt>
      <trkpt lat="46.95029" lon="2.9553">
        <ele>189.25131225586</ele>
        <time>2016-02-03T15:22:17.000Z</time>
      </trkpt>
      <trkpt lat="46.95029" lon="2.95526">
        <ele>189.19657897949</ele>
        <time>2016-02-03T15:22:20.000Z</time>
      </trkpt>
      <trkpt lat="46.9503" lon="2.95521">
        <ele>189.12985229492</ele>
        <time>2016-02-03T15:22:22.000Z</time>
      </trkpt>
      <trkpt lat="46.9503" lon="2.95514">
        <ele>189.0492401123</ele>
        <time>2016-02-03T15:22:25.000Z</time>
      </trkpt>
      <trkpt lat="46.95031" lon="2.95511">
        <ele>188.9720916748</ele>
        <time>2016-02-03T15:22:27.000Z</time>
      </trkpt>
      <trkpt lat="46.95029" lon="2.95506">
        <ele>188.89364624023</ele>
        <time>2016-02-03T15:22:30.000Z</time>
      </trkpt>
      <trkpt lat="46.95028" lon="2.95501">
        <ele>188.81680297852</ele>
        <time>2016-02-03T15:22:32.000Z</time>
      </trkpt>
      <trkpt lat="46.95026" lon="2.95498">
        <ele>188.75532531738</ele>
        <time>2016-02-03T15:22:34.000Z</time>
      </trkpt>
      <trkpt lat="46.95023" lon="2.95494">
        <ele>188.7183380127</ele>
        <time>2016-02-03T15:22:37.000Z</time>
      </trkpt>
      <trkpt lat="46.95021" lon="2.95493">
        <ele>188.69430541992</ele>
        <time>2016-02-03T15:22:39.000Z</time>
      </trkpt>
      <trkpt lat="46.95017" lon="2.9549">
        <ele>188.68508911133</ele>
        <time>2016-02-03T15:22:41.000Z</time>
      </trkpt>
      <trkpt lat="46.95013" lon="2.95485">
        <ele>188.6865234375</ele>
        <time>2016-02-03T15:22:44.000Z</time>
      </trkpt>
      <trkpt lat="46.95012" lon="2.95481">
        <ele>188.68655395508</ele>
        <time>2016-02-03T15:22:47.000Z</time>
      </trkpt>
      <trkpt lat="46.95011" lon="2.95478">
        <ele>188.68008422852</ele>
        <time>2016-02-03T15:22:49.000Z</time>
      </trkpt>
      <trkpt lat="46.95011" lon="2.95475">
        <ele>188.66464233398</ele>
        <time>2016-02-03T15:22:52.000Z</time>
      </trkpt>
      <trkpt lat="46.95011" lon="2.95468">
        <ele>188.63122558594</ele>
        <time>2016-02-03T15:22:55.000Z</time>
      </trkpt>
      <trkpt lat="46.95011" lon="2.95465">
        <ele>188.59201049805</ele>
        <time>2016-02-03T15:22:57.000Z</time>
      </trkpt>
      <trkpt lat="46.95011" lon="2.95462">
        <ele>188.55291748047</ele>
        <time>2016-02-03T15:22:59.000Z</time>
      </trkpt>
      <trkpt lat="46.95012" lon="2.9546">
        <ele>188.51303100586</ele>
        <time>2016-02-03T15:23:01.000Z</time>
      </trkpt>
      <trkpt lat="46.95012" lon="2.95453">
        <ele>188.46627807617</ele>
        <time>2016-02-03T15:23:04.000Z</time>
      </trkpt>
      <trkpt lat="46.95013" lon="2.9545">
        <ele>188.42616271973</ele>
        <time>2016-02-03T15:23:06.000Z</time>
      </trkpt>
      <trkpt lat="46.95013" lon="2.95445">
        <ele>188.38345336914</ele>
        <time>2016-02-03T15:23:09.000Z</time>
      </trkpt>
      <trkpt lat="46.95012" lon="2.95438">
        <ele>188.33267211914</ele>
        <time>2016-02-03T15:23:12.000Z</time>
      </trkpt>
      <trkpt lat="46.95012" lon="2.95436">
        <ele>188.2819519043</ele>
        <time>2016-02-03T15:23:14.000Z</time>
      </trkpt>
      <trkpt lat="46.95013" lon="2.95429">
        <ele>188.23133850098</ele>
        <time>2016-02-03T15:23:17.000Z</time>
      </trkpt>
      <trkpt lat="46.95013" lon="2.95421">
        <ele>188.17362976074</ele>
        <time>2016-02-03T15:23:20.000Z</time>
      </trkpt>
      <trkpt lat="46.95013" lon="2.95416">
        <ele>188.11813354492</ele>
        <time>2016-02-03T15:23:23.000Z</time>
      </trkpt>
      <trkpt lat="46.95013" lon="2.95411">
        <ele>188.08755493164</ele>
        <time>2016-02-03T15:23:26.000Z</time>
      </trkpt>
      <trkpt lat="46.95014" lon="2.95407">
        <ele>188.07258605957</ele>
        <time>2016-02-03T15:23:29.000Z</time>
      </trkpt>
      <trkpt lat="46.95014" lon="2.95404">
        <ele>188.07888793945</ele>
        <time>2016-02-03T15:23:31.000Z</time>
      </trkpt>
      <trkpt lat="46.95015" lon="2.95397">
        <ele>188.11560058594</ele>
        <time>2016-02-03T15:23:34.000Z</time>
      </trkpt>
      <trkpt lat="46.95015" lon="2.95391">
        <ele>188.17498779297</ele>
        <time>2016-02-03T15:23:37.000Z</time>
      </trkpt>
      <trkpt lat="46.95015" lon="2.95389">
        <ele>188.228515625</ele>
        <time>2016-02-03T15:23:39.000Z</time>
      </trkpt>
      <trkpt lat="46.95015" lon="2.95384">
        <ele>188.28356933594</ele>
        <time>2016-02-03T15:23:42.000Z</time>
      </trkpt>
      <trkpt lat="46.95016" lon="2.95381">
        <ele>188.33917236328</ele>
        <time>2016-02-03T15:23:44.000Z</time>
      </trkpt>
      <trkpt lat="46.95016" lon="2.95376">
        <ele>188.3916015625</ele>
        <time>2016-02-03T15:23:47.000Z</time>
      </trkpt>
      <trkpt lat="46.95016" lon="2.95371">
        <ele>188.44104003906</ele>
        <time>2016-02-03T15:23:49.000Z</time>
      </trkpt>
      <trkpt lat="46.95016" lon="2.95367">
        <ele>188.49328613281</ele>
        <time>2016-02-03T15:23:51.000Z</time>
      </trkpt>
      <trkpt lat="46.95017" lon="2.95364">
        <ele>188.54028320312</ele>
        <time>2016-02-03T15:23:53.000Z</time>
      </trkpt>
      <trkpt lat="46.95017" lon="2.9536">
        <ele>188.59033203125</ele>
        <time>2016-02-03T15:23:55.000Z</time>
      </trkpt>
      <trkpt lat="46.95018" lon="2.95355">
        <ele>188.64013671875</ele>
        <time>2016-02-03T15:23:58.000Z</time>
      </trkpt>
      <trkpt lat="46.95018" lon="2.9535">
        <ele>188.68908691406</ele>
        <time>2016-02-03T15:24:00.000Z</time>
      </trkpt>
      <trkpt lat="46.95018" lon="2.95347">
        <ele>188.73791503906</ele>
        <time>2016-02-03T15:24:02.000Z</time>
      </trkpt>
      <trkpt lat="46.95018" lon="2.95342">
        <ele>188.79040527344</ele>
        <time>2016-02-03T15:24:04.000Z</time>
      </trkpt>
      <trkpt lat="46.95019" lon="2.95336">
        <ele>188.84796142578</ele>
        <time>2016-02-03T15:24:07.000Z</time>
      </trkpt>
      <trkpt lat="46.95019" lon="2.95331">
        <ele>188.89663696289</ele>
        <time>2016-02-03T15:24:10.000Z</time>
      </trkpt>
      <trkpt lat="46.95019" lon="2.95327">
        <ele>188.93026733398</ele>
        <time>2016-02-03T15:24:12.000Z</time>
      </trkpt>
      <trkpt lat="46.9502" lon="2.95321">
        <ele>188.94815063477</ele>
        <time>2016-02-03T15:24:15.000Z</time>
      </trkpt>
      <trkpt lat="46.9502" lon="2.95318">
        <ele>188.95236206055</ele>
        <time>2016-02-03T15:24:17.000Z</time>
      </trkpt>
      <trkpt lat="46.95019" lon="2.95312">
        <ele>188.93574523926</ele>
        <time>2016-02-03T15:24:20.000Z</time>
      </trkpt>
      <trkpt lat="46.95019" lon="2.95305">
        <ele>188.90800476074</ele>
        <time>2016-02-03T15:24:23.000Z</time>
      </trkpt>
      <trkpt lat="46.9502" lon="2.95302">
        <ele>188.87936401367</ele>
        <time>2016-02-03T15:24:25.000Z</time>
      </trkpt>
      <trkpt lat="46.95021" lon="2.95298">
        <ele>188.84896850586</ele>
        <time>2016-02-03T15:24:28.000Z</time>
      </trkpt>
      <trkpt lat="46.95023" lon="2.95292">
        <ele>188.81140136719</ele>
        <time>2016-02-03T15:24:31.000Z</time>
      </trkpt>
      <trkpt lat="46.95024" lon="2.95287">
        <ele>188.77116394043</ele>
        <time>2016-02-03T15:24:34.000Z</time>
      </trkpt>
      <trkpt lat="46.95024" lon="2.95284">
        <ele>188.73220825195</ele>
        <time>2016-02-03T15:24:37.000Z</time>
      </trkpt>
      <trkpt lat="46.95025" lon="2.95278">
        <ele>188.68728637695</ele>
        <time>2016-02-03T15:24:40.000Z</time>
      </trkpt>
      <trkpt lat="46.95025" lon="2.95274">
        <ele>188.64613342285</ele>
        <time>2016-02-03T15:24:42.000Z</time>
      </trkpt>
      <trkpt lat="46.95026" lon="2.95267">
        <ele>188.60165405273</ele>
        <time>2016-02-03T15:24:45.000Z</time>
      </trkpt>
      <trkpt lat="46.95026" lon="2.95264">
        <ele>188.56008911133</ele>
        <time>2016-02-03T15:24:47.000Z</time>
      </trkpt>
      <trkpt lat="46.95026" lon="2.95258">
        <ele>188.51699829102</ele>
        <time>2016-02-03T15:24:50.000Z</time>
      </trkpt>
      <trkpt lat="46.95027" lon="2.95254">
        <ele>188.47489929199</ele>
        <time>2016-02-03T15:24:52.000Z</time>
      </trkpt>
      <trkpt lat="46.95028" lon="2.95249">
        <ele>188.42639160156</ele>
        <time>2016-02-03T15:24:55.000Z</time>
      </trkpt>
      <trkpt lat="46.95028" lon="2.95243">
        <ele>188.38374328613</ele>
        <time>2016-02-03T15:24:58.000Z</time>
      </trkpt>
      <trkpt lat="46.95029" lon="2.95238">
        <ele>188.33987426758</ele>
        <time>2016-02-03T15:25:01.000Z</time>
      </trkpt>
      <trkpt lat="46.9503" lon="2.95233">
        <ele>188.29350280762</ele>
        <time>2016-02-03T15:25:04.000Z</time>
      </trkpt>
      <trkpt lat="46.95032" lon="2.95227">
        <ele>188.24301147461</ele>
        <time>2016-02-03T15:25:07.000Z</time>
      </trkpt>
      <trkpt lat="46.95033" lon="2.95223">
        <ele>188.1955871582</ele>
        <time>2016-02-03T15:25:10.000Z</time>
      </trkpt>
      <trkpt lat="46.95033" lon="2.95216">
        <ele>188.14767456055</ele>
        <time>2016-02-03T15:25:13.000Z</time>
      </trkpt>
      <trkpt lat="46.95034" lon="2.95211">
        <ele>188.09555053711</ele>
        <time>2016-02-03T15:25:16.000Z</time>
      </trkpt>
      <trkpt lat="46.95036" lon="2.95204">
        <ele>188.03787231445</ele>
        <time>2016-02-03T15:25:19.000Z</time>
      </trkpt>
      <trkpt lat="46.95036" lon="2.952">
        <ele>187.98776245117</ele>
        <time>2016-02-03T15:25:21.000Z</time>
      </trkpt>
      <trkpt lat="46.95037" lon="2.95194">
        <ele>187.93466186523</ele>
        <time>2016-02-03T15:25:24.000Z</time>
      </trkpt>
      <trkpt lat="46.95037" lon="2.9519">
        <ele>187.88037109375</ele>
        <time>2016-02-03T15:25:27.000Z</time>
      </trkpt>
      <trkpt lat="46.95039" lon="2.95184">
        <ele>187.81867980957</ele>
        <time>2016-02-03T15:25:30.000Z</time>
      </trkpt>
      <trkpt lat="46.9504" lon="2.9518">
        <ele>187.76054382324</ele>
        <time>2016-02-03T15:25:32.000Z</time>
      </trkpt>
      <trkpt lat="46.95041" lon="2.95175">
        <ele>187.70018005371</ele>
        <time>2016-02-03T15:25:35.000Z</time>
      </trkpt>
      <trkpt lat="46.95042" lon="2.95168">
        <ele>187.63752746582</ele>
        <time>2016-02-03T15:25:38.000Z</time>
      </trkpt>
      <trkpt lat="46.95042" lon="2.95165">
        <ele>187.57809448242</ele>
        <time>2016-02-03T15:25:40.000Z</time>
      </trkpt>
      <trkpt lat="46.95042" lon="2.95162">
        <ele>187.53286743164</ele>
        <time>2016-02-03T15:25:42.000Z</time>
      </trkpt>
      <trkpt lat="46.95043" lon="2.95156">
        <ele>187.48887634277</ele>
        <time>2016-02-03T15:25:45.000Z</time>
      </trkpt>
      <trkpt lat="46.95044" lon="2.95152">
        <ele>187.44380187988</ele>
        <time>2016-02-03T15:25:47.000Z</time>
      </trkpt>
      <trkpt lat="46.95045" lon="2.95146">
        <ele>187.39758300781</ele>
        <time>2016-02-03T15:25:50.000Z</time>
      </trkpt>
      <trkpt lat="46.95046" lon="2.95143">
        <ele>187.35092163086</ele>
        <time>2016-02-03T15:25:52.000Z</time>
      </trkpt>
      <trkpt lat="46.95047" lon="2.95138">
        <ele>187.29934692383</ele>
        <time>2016-02-03T15:25:55.000Z</time>
      </trkpt>
      <trkpt lat="46.95048" lon="2.95132">
        <ele>187.24984741211</ele>
        <time>2016-02-03T15:25:58.000Z</time>
      </trkpt>
      <trkpt lat="46.9505" lon="2.95128">
        <ele>187.20141601562</ele>
        <time>2016-02-03T15:26:01.000Z</time>
      </trkpt>
      <trkpt lat="46.95052" lon="2.95124">
        <ele>187.15850830078</ele>
        <time>2016-02-03T15:26:04.000Z</time>
      </trkpt>
      <trkpt lat="46.95053" lon="2.9512">
        <ele>187.11755371094</ele>
        <time>2016-02-03T15:26:06.000Z</time>
      </trkpt>
      <trkpt lat="46.95054" lon="2.95116">
        <ele>187.08059692383</ele>
        <time>2016-02-03T15:26:08.000Z</time>
      </trkpt>
      <trkpt lat="46.95057" lon="2.95112">
        <ele>187.0466003418</ele>
        <time>2016-02-03T15:26:11.000Z</time>
      </trkpt>
      <trkpt lat="46.95058" lon="2.95106">
        <ele>187.0177154541</ele>
        <time>2016-02-03T15:26:14.000Z</time>
      </trkpt>
      <trkpt lat="46.95061" lon="2.95101">
        <ele>186.99624633789</ele>
        <time>2016-02-03T15:26:17.000Z</time>
      </trkpt>
      <trkpt lat="46.95062" lon="2.95097">
        <ele>186.98008728027</ele>
        <time>2016-02-03T15:26:19.000Z</time>
      </trkpt>
      <trkpt lat="46.95064" lon="2.95092">
        <ele>186.96981811523</ele>
        <time>2016-02-03T15:26:22.000Z</time>
      </trkpt>
      <trkpt lat="46.95065" lon="2.95089">
        <ele>186.96745300293</ele>
        <time>2016-02-03T15:26:25.000Z</time>
      </trkpt>
      <trkpt lat="46.95068" lon="2.95084">
        <ele>186.97286987305</ele>
        <time>2016-02-03T15:26:28.000Z</time>
      </trkpt>
      <trkpt lat="46.95068" lon="2.9508">
        <ele>186.97940063477</ele>
        <time>2016-02-03T15:26:30.000Z</time>
      </trkpt>
      <trkpt lat="46.9507" lon="2.95075">
        <ele>186.98387145996</ele>
        <time>2016-02-03T15:26:33.000Z</time>
      </trkpt>
      <trkpt lat="46.95072" lon="2.95072">
        <ele>186.98623657227</ele>
        <time>2016-02-03T15:26:35.000Z</time>
      </trkpt>
      <trkpt lat="46.95074" lon="2.95066">
        <ele>186.98652648926</ele>
        <time>2016-02-03T15:26:38.000Z</time>
      </trkpt>
      <trkpt lat="46.95076" lon="2.95063">
        <ele>186.98263549805</ele>
        <time>2016-02-03T15:26:40.000Z</time>
      </trkpt>
      <trkpt lat="46.95078" lon="2.95058">
        <ele>186.97984313965</ele>
        <time>2016-02-03T15:26:43.000Z</time>
      </trkpt>
      <trkpt lat="46.95081" lon="2.95053">
        <ele>186.9806060791</ele>
        <time>2016-02-03T15:26:46.000Z</time>
      </trkpt>
      <trkpt lat="46.95082" lon="2.95049">
        <ele>186.98284912109</ele>
        <time>2016-02-03T15:26:49.000Z</time>
      </trkpt>
      <trkpt lat="46.95082" lon="2.95046">
        <ele>186.98657226562</ele>
        <time>2016-02-03T15:26:51.000Z</time>
      </trkpt>
      <trkpt lat="46.95084" lon="2.95041">
        <ele>186.99053955078</ele>
        <time>2016-02-03T15:26:54.000Z</time>
      </trkpt>
      <trkpt lat="46.95085" lon="2.95037">
        <ele>186.99192810059</ele>
        <time>2016-02-03T15:26:57.000Z</time>
      </trkpt>
      <trkpt lat="46.95087" lon="2.95034">
        <ele>186.98806762695</ele>
        <time>2016-02-03T15:27:00.000Z</time>
      </trkpt>
      <trkpt lat="46.95088" lon="2.9503">
        <ele>186.97970581055</ele>
        <time>2016-02-03T15:27:02.000Z</time>
      </trkpt>
      <trkpt lat="46.95089" lon="2.95027">
        <ele>186.96545410156</ele>
        <time>2016-02-03T15:27:04.000Z</time>
      </trkpt>
      <trkpt lat="46.95092" lon="2.95022">
        <ele>186.94096374512</ele>
        <time>2016-02-03T15:27:07.000Z</time>
      </trkpt>
      <trkpt lat="46.95093" lon="2.95018">
        <ele>186.91134643555</ele>
        <time>2016-02-03T15:27:09.000Z</time>
      </trkpt>
      <trkpt lat="46.95095" lon="2.95013">
        <ele>186.87417602539</ele>
        <time>2016-02-03T15:27:12.000Z</time>
      </trkpt>
      <trkpt lat="46.95097" lon="2.95008">
        <ele>186.83052062988</ele>
        <time>2016-02-03T15:27:15.000Z</time>
      </trkpt>
      <trkpt lat="46.95099" lon="2.95004">
        <ele>186.77674865723</ele>
        <time>2016-02-03T15:27:18.000Z</time>
      </trkpt>
      <trkpt lat="46.95101" lon="2.95002">
        <ele>186.72076416016</ele>
        <time>2016-02-03T15:27:20.000Z</time>
      </trkpt>
      <trkpt lat="46.95102" lon="2.95">
        <ele>186.66455078125</ele>
        <time>2016-02-03T15:27:22.000Z</time>
      </trkpt>
      <trkpt lat="46.95103" lon="2.94996">
        <ele>186.57983398438</ele>
        <time>2016-02-03T15:27:25.000Z</time>
      </trkpt>
      <trkpt lat="46.95105" lon="2.94993">
        <ele>186.46760559082</ele>
        <time>2016-02-03T15:27:27.000Z</time>
      </trkpt>
      <trkpt lat="46.95107" lon="2.94989">
        <ele>186.3225402832</ele>
        <time>2016-02-03T15:27:30.000Z</time>
      </trkpt>
      <trkpt lat="46.95107" lon="2.94985">
        <ele>186.15591430664</ele>
        <time>2016-02-03T15:27:32.000Z</time>
      </trkpt>
      <trkpt lat="46.95108" lon="2.94983">
        <ele>185.97509765625</ele>
        <time>2016-02-03T15:27:34.000Z</time>
      </trkpt>
      <trkpt lat="46.9511" lon="2.94979">
        <ele>185.78903198242</ele>
        <time>2016-02-03T15:27:37.000Z</time>
      </trkpt>
      <trkpt lat="46.95111" lon="2.94976">
        <ele>185.61064147949</ele>
        <time>2016-02-03T15:27:40.000Z</time>
      </trkpt>
      <trkpt lat="46.95109" lon="2.94973">
        <ele>185.46189880371</ele>
        <time>2016-02-03T15:27:42.000Z</time>
      </trkpt>
      <trkpt lat="46.95105" lon="2.9497">
        <ele>185.34017944336</ele>
        <time>2016-02-03T15:27:45.000Z</time>
      </trkpt>
      <trkpt lat="46.95102" lon="2.94968">
        <ele>185.22827148438</ele>
        <time>2016-02-03T15:27:47.000Z</time>
      </trkpt>
      <trkpt lat="46.951" lon="2.94964">
        <ele>185.13726806641</ele>
        <time>2016-02-03T15:27:50.000Z</time>
      </trkpt>
      <trkpt lat="46.95099" lon="2.94963">
        <ele>185.06607055664</ele>
        <time>2016-02-03T15:27:52.000Z</time>
      </trkpt>
      <trkpt lat="46.95097" lon="2.94959">
        <ele>184.98910522461</ele>
        <time>2016-02-03T15:27:54.000Z</time>
      </trkpt>
      <trkpt lat="46.95093" lon="2.94955">
        <ele>184.89234924316</ele>
        <time>2016-02-03T15:27:57.000Z</time>
      </trkpt>
      <trkpt lat="46.9509" lon="2.94952">
        <ele>184.79248046875</ele>
        <time>2016-02-03T15:28:00.000Z</time>
      </trkpt>
      <trkpt lat="46.95088" lon="2.94951">
        <ele>184.7142791748</ele>
        <time>2016-02-03T15:28:03.000Z</time>
      </trkpt>
      <trkpt lat="46.95086" lon="2.94951">
        <ele>184.64984130859</ele>
        <time>2016-02-03T15:28:05.000Z</time>
      </trkpt>
      <trkpt lat="46.95084" lon="2.94951">
        <ele>184.62199401855</ele>
        <time>2016-02-03T15:28:07.000Z</time>
      </trkpt>
      <trkpt lat="46.95084" lon="2.94951">
        <ele>184.62199401855</ele>
        <time>2016-02-03T15:28:27.000Z</time>
      </trkpt>
      <trkpt lat="46.95083" lon="2.94955">
        <ele>184.65133666992</ele>
        <time>2016-02-03T15:28:32.000Z</time>
      </trkpt>
      <trkpt lat="46.95081" lon="2.94954">
        <ele>184.69702148438</ele>
        <time>2016-02-03T15:28:32.000Z</time>
      </trkpt>
      <trkpt lat="46.95078" lon="2.94953">
        <ele>184.7430267334</ele>
        <time>2016-02-03T15:28:34.000Z</time>
      </trkpt>
      <trkpt lat="46.95075" lon="2.94955">
        <ele>184.80136108398</ele>
        <time>2016-02-03T15:28:37.000Z</time>
      </trkpt>
      <trkpt lat="46.95073" lon="2.94956">
        <ele>184.86441040039</ele>
        <time>2016-02-03T15:28:39.000Z</time>
      </trkpt>
      <trkpt lat="46.95072" lon="2.94957">
        <ele>184.90399169922</ele>
        <time>2016-02-03T15:28:42.000Z</time>
      </trkpt>
      <trkpt lat="46.95073" lon="2.94955">
        <ele>184.92671203613</ele>
        <time>2016-02-03T15:28:48.000Z</time>
      </trkpt>
      <trkpt lat="46.95075" lon="2.94953">
        <ele>184.92208862305</ele>
        <time>2016-02-03T15:28:50.000Z</time>
      </trkpt>
      <trkpt lat="46.9508" lon="2.94948">
        <ele>184.85015869141</ele>
        <time>2016-02-03T15:28:53.000Z</time>
      </trkpt>
      <trkpt lat="46.95082" lon="2.94943">
        <ele>184.7142791748</ele>
        <time>2016-02-03T15:28:55.000Z</time>
      </trkpt>
      <trkpt lat="46.95083" lon="2.94939">
        <ele>184.5297088623</ele>
        <time>2016-02-03T15:28:57.000Z</time>
      </trkpt>
      <trkpt lat="46.95085" lon="2.94937">
        <ele>184.3283996582</ele>
        <time>2016-02-03T15:29:00.000Z</time>
      </trkpt>
      <trkpt lat="46.95086" lon="2.94934">
        <ele>184.13325500488</ele>
        <time>2016-02-03T15:29:02.000Z</time>
      </trkpt>
      <trkpt lat="46.95087" lon="2.94929">
        <ele>183.93948364258</ele>
        <time>2016-02-03T15:29:05.000Z</time>
      </trkpt>
      <trkpt lat="46.95087" lon="2.94923">
        <ele>183.73458862305</ele>
        <time>2016-02-03T15:29:08.000Z</time>
      </trkpt>
      <trkpt lat="46.95087" lon="2.9492">
        <ele>183.53890991211</ele>
        <time>2016-02-03T15:29:11.000Z</time>
      </trkpt>
      <trkpt lat="46.95088" lon="2.94917">
        <ele>183.3486328125</ele>
        <time>2016-02-03T15:29:13.000Z</time>
      </trkpt>
      <trkpt lat="46.95087" lon="2.94912">
        <ele>183.1438293457</ele>
        <time>2016-02-03T15:29:16.000Z</time>
      </trkpt>
      <trkpt lat="46.95087" lon="2.9491">
        <ele>182.97709655762</ele>
        <time>2016-02-03T15:29:18.000Z</time>
      </trkpt>
      <trkpt lat="46.95083" lon="2.94905">
        <ele>182.83531188965</ele>
        <time>2016-02-03T15:29:21.000Z</time>
      </trkpt>
      <trkpt lat="46.95081" lon="2.94899">
        <ele>182.6950378418</ele>
        <time>2016-02-03T15:29:24.000Z</time>
      </trkpt>
      <trkpt lat="46.9508" lon="2.94897">
        <ele>182.57295227051</ele>
        <time>2016-02-03T15:29:27.000Z</time>
      </trkpt>
      <trkpt lat="46.95079" lon="2.94895">
        <ele>182.48028564453</ele>
        <time>2016-02-03T15:29:31.000Z</time>
      </trkpt>
      <trkpt lat="46.95079" lon="2.9489">
        <ele>182.3625793457</ele>
        <time>2016-02-03T15:29:34.000Z</time>
      </trkpt>
      <trkpt lat="46.95077" lon="2.94885">
        <ele>182.25305175781</ele>
        <time>2016-02-03T15:29:36.000Z</time>
      </trkpt>
      <trkpt lat="46.95074" lon="2.94881">
        <ele>182.15863037109</ele>
        <time>2016-02-03T15:29:39.000Z</time>
      </trkpt>
      <trkpt lat="46.95072" lon="2.94877">
        <ele>182.05627441406</ele>
        <time>2016-02-03T15:29:42.000Z</time>
      </trkpt>
      <trkpt lat="46.95071" lon="2.94875">
        <ele>181.94720458984</ele>
        <time>2016-02-03T15:29:44.000Z</time>
      </trkpt>
      <trkpt lat="46.95069" lon="2.9487">
        <ele>181.85205078125</ele>
        <time>2016-02-03T15:29:47.000Z</time>
      </trkpt>
      <trkpt lat="46.95066" lon="2.94865">
        <ele>181.75463867188</ele>
        <time>2016-02-03T15:29:50.000Z</time>
      </trkpt>
      <trkpt lat="46.95064" lon="2.9486">
        <ele>181.65142822266</ele>
        <time>2016-02-03T15:29:53.000Z</time>
      </trkpt>
      <trkpt lat="46.95063" lon="2.94857">
        <ele>181.54901123047</ele>
        <time>2016-02-03T15:29:55.000Z</time>
      </trkpt>
      <trkpt lat="46.95062" lon="2.94854">
        <ele>181.44323730469</ele>
        <time>2016-02-03T15:29:57.000Z</time>
      </trkpt>
      <trkpt lat="46.95061" lon="2.94851">
        <ele>181.34564208984</ele>
        <time>2016-02-03T15:30:00.000Z</time>
      </trkpt>
      <trkpt lat="46.95058" lon="2.94848">
        <ele>181.26116943359</ele>
        <time>2016-02-03T15:30:02.000Z</time>
      </trkpt>
      <trkpt lat="46.95056" lon="2.94843">
        <ele>181.17303466797</ele>
        <time>2016-02-03T15:30:05.000Z</time>
      </trkpt>
      <trkpt lat="46.95055" lon="2.9484">
        <ele>181.08898925781</ele>
        <time>2016-02-03T15:30:07.000Z</time>
      </trkpt>
      <trkpt lat="46.95055" lon="2.94837">
        <ele>181.00604248047</ele>
        <time>2016-02-03T15:30:09.000Z</time>
      </trkpt>
      <trkpt lat="46.95053" lon="2.94834">
        <ele>180.91937255859</ele>
        <time>2016-02-03T15:30:12.000Z</time>
      </trkpt>
      <trkpt lat="46.95052" lon="2.94829">
        <ele>180.83505249023</ele>
        <time>2016-02-03T15:30:15.000Z</time>
      </trkpt>
      <trkpt lat="46.9505" lon="2.94825">
        <ele>180.77281188965</ele>
        <time>2016-02-03T15:30:17.000Z</time>
      </trkpt>
      <trkpt lat="46.95047" lon="2.94821">
        <ele>180.71884155273</ele>
        <time>2016-02-03T15:30:20.000Z</time>
      </trkpt>
      <trkpt lat="46.95045" lon="2.94818">
        <ele>180.67988586426</ele>
        <time>2016-02-03T15:30:22.000Z</time>
      </trkpt>
      <trkpt lat="46.95044" lon="2.94816">
        <ele>180.65811157227</ele>
        <time>2016-02-03T15:30:25.000Z</time>
      </trkpt>
      <trkpt lat="46.9504" lon="2.94814">
        <ele>180.65646362305</ele>
        <time>2016-02-03T15:30:28.000Z</time>
      </trkpt>
      <trkpt lat="46.95038" lon="2.94811">
        <ele>180.65843200684</ele>
        <time>2016-02-03T15:30:30.000Z</time>
      </trkpt>
      <trkpt lat="46.95036" lon="2.94805">
        <ele>180.64859008789</ele>
        <time>2016-02-03T15:30:33.000Z</time>
      </trkpt>
      <trkpt lat="46.95036" lon="2.94801">
        <ele>180.62712097168</ele>
        <time>2016-02-03T15:30:35.000Z</time>
      </trkpt>
      <trkpt lat="46.95035" lon="2.94794">
        <ele>180.58419799805</ele>
        <time>2016-02-03T15:30:38.000Z</time>
      </trkpt>
      <trkpt lat="46.95033" lon="2.9479">
        <ele>180.52180480957</ele>
        <time>2016-02-03T15:30:41.000Z</time>
      </trkpt>
      <trkpt lat="46.95031" lon="2.94784">
        <ele>180.44421386719</ele>
        <time>2016-02-03T15:30:44.000Z</time>
      </trkpt>
      <trkpt lat="46.95029" lon="2.9478">
        <ele>180.3742980957</ele>
        <time>2016-02-03T15:30:47.000Z</time>
      </trkpt>
      <trkpt lat="46.95028" lon="2.94777">
        <ele>180.3108215332</ele>
        <time>2016-02-03T15:30:49.000Z</time>
      </trkpt>
      <trkpt lat="46.95025" lon="2.94773">
        <ele>180.26156616211</ele>
        <time>2016-02-03T15:30:52.000Z</time>
      </trkpt>
      <trkpt lat="46.95024" lon="2.94768">
        <ele>180.20594787598</ele>
        <time>2016-02-03T15:30:55.000Z</time>
      </trkpt>
      <trkpt lat="46.95022" lon="2.94766">
        <ele>180.15914916992</ele>
        <time>2016-02-03T15:30:57.000Z</time>
      </trkpt>
      <trkpt lat="46.9502" lon="2.94761">
        <ele>180.10688781738</ele>
        <time>2016-02-03T15:31:00.000Z</time>
      </trkpt>
      <trkpt lat="46.95018" lon="2.9476">
        <ele>180.06112670898</ele>
        <time>2016-02-03T15:31:02.000Z</time>
      </trkpt>
      <trkpt lat="46.95015" lon="2.94757">
        <ele>180.02001953125</ele>
        <time>2016-02-03T15:31:05.000Z</time>
      </trkpt>
      <trkpt lat="46.95013" lon="2.94752">
        <ele>179.9775390625</ele>
        <time>2016-02-03T15:31:08.000Z</time>
      </trkpt>
      <trkpt lat="46.95011" lon="2.94747">
        <ele>179.9402923584</ele>
        <time>2016-02-03T15:31:11.000Z</time>
      </trkpt>
      <trkpt lat="46.95008" lon="2.94744">
        <ele>179.92190551758</ele>
        <time>2016-02-03T15:31:14.000Z</time>
      </trkpt>
      <trkpt lat="46.95008" lon="2.94743">
        <ele>179.90553283691</ele>
        <time>2016-02-03T15:31:16.000Z</time>
      </trkpt>
      <trkpt lat="46.95005" lon="2.94738">
        <ele>179.89991760254</ele>
        <time>2016-02-03T15:31:19.000Z</time>
      </trkpt>
      <trkpt lat="46.95004" lon="2.94733">
        <ele>179.916015625</ele>
        <time>2016-02-03T15:31:22.000Z</time>
      </trkpt>
      <trkpt lat="46.95002" lon="2.94728">
        <ele>179.9365234375</ele>
        <time>2016-02-03T15:31:25.000Z</time>
      </trkpt>
      <trkpt lat="46.95001" lon="2.94723">
        <ele>179.9541015625</ele>
        <time>2016-02-03T15:31:28.000Z</time>
      </trkpt>
      <trkpt lat="46.94999" lon="2.9472">
        <ele>179.98100280762</ele>
        <time>2016-02-03T15:31:31.000Z</time>
      </trkpt>
      <trkpt lat="46.94999" lon="2.94715">
        <ele>180.00086975098</ele>
        <time>2016-02-03T15:31:34.000Z</time>
      </trkpt>
      <trkpt lat="46.95" lon="2.94713">
        <ele>180.013671875</ele>
        <time>2016-02-03T15:31:36.000Z</time>
      </trkpt>
      <trkpt lat="46.95" lon="2.94709">
        <ele>180.0185546875</ele>
        <time>2016-02-03T15:31:39.000Z</time>
      </trkpt>
      <trkpt lat="46.95" lon="2.94706">
        <ele>180.0205078125</ele>
        <time>2016-02-03T15:31:41.000Z</time>
      </trkpt>
      <trkpt lat="46.95001" lon="2.94703">
        <ele>180.01020812988</ele>
        <time>2016-02-03T15:31:44.000Z</time>
      </trkpt>
      <trkpt lat="46.95001" lon="2.94701">
        <ele>179.99913024902</ele>
        <time>2016-02-03T15:31:46.000Z</time>
      </trkpt>
      <trkpt lat="46.95002" lon="2.94697">
        <ele>179.9892578125</ele>
        <time>2016-02-03T15:31:48.000Z</time>
      </trkpt>
      <trkpt lat="46.95004" lon="2.94693">
        <ele>179.98046875</ele>
        <time>2016-02-03T15:31:51.000Z</time>
      </trkpt>
      <trkpt lat="46.95005" lon="2.9469">
        <ele>179.9697265625</ele>
        <time>2016-02-03T15:31:53.000Z</time>
      </trkpt>
      <trkpt lat="46.95006" lon="2.94685">
        <ele>179.95703125</ele>
        <time>2016-02-03T15:31:56.000Z</time>
      </trkpt>
      <trkpt lat="46.95007" lon="2.9468">
        <ele>179.943359375</ele>
        <time>2016-02-03T15:31:58.000Z</time>
      </trkpt>
      <trkpt lat="46.95009" lon="2.94674">
        <ele>179.9267578125</ele>
        <time>2016-02-03T15:32:02.000Z</time>
      </trkpt>
      <trkpt lat="46.95011" lon="2.9467">
        <ele>179.91015625</ele>
        <time>2016-02-03T15:32:04.000Z</time>
      </trkpt>
      <trkpt lat="46.95012" lon="2.94665">
        <ele>179.88815307617</ele>
        <time>2016-02-03T15:32:07.000Z</time>
      </trkpt>
      <trkpt lat="46.95014" lon="2.9466">
        <ele>179.85913085938</ele>
        <time>2016-02-03T15:32:10.000Z</time>
      </trkpt>
      <trkpt lat="46.95015" lon="2.94656">
        <ele>179.82339477539</ele>
        <time>2016-02-03T15:32:13.000Z</time>
      </trkpt>
      <trkpt lat="46.95016" lon="2.94651">
        <ele>179.78421020508</ele>
        <time>2016-02-03T15:32:16.000Z</time>
      </trkpt>
      <trkpt lat="46.95018" lon="2.94648">
        <ele>179.7412109375</ele>
        <time>2016-02-03T15:32:23.000Z</time>
      </trkpt>
      <trkpt lat="46.95019" lon="2.94643">
        <ele>179.69784545898</ele>
        <time>2016-02-03T15:32:24.000Z</time>
      </trkpt>
      <trkpt lat="46.9502" lon="2.94639">
        <ele>179.65921020508</ele>
        <time>2016-02-03T15:32:24.000Z</time>
      </trkpt>
      <trkpt lat="46.95021" lon="2.94637">
        <ele>179.62651062012</ele>
        <time>2016-02-03T15:32:29.000Z</time>
      </trkpt>
      <trkpt lat="46.95022" lon="2.94634">
        <ele>179.59860229492</ele>
        <time>2016-02-03T15:32:32.000Z</time>
      </trkpt>
      <trkpt lat="46.95023" lon="2.9463">
        <ele>179.57218933105</ele>
        <time>2016-02-03T15:32:33.000Z</time>
      </trkpt>
      <trkpt lat="46.95024" lon="2.94626">
        <ele>179.54905700684</ele>
        <time>2016-02-03T15:32:34.000Z</time>
      </trkpt>
      <trkpt lat="46.95025" lon="2.94623">
        <ele>179.52964782715</ele>
        <time>2016-02-03T15:32:51.000Z</time>
      </trkpt>
      <trkpt lat="46.95026" lon="2.9462">
        <ele>179.51037597656</ele>
        <time>2016-02-03T15:33:12.000Z</time>
      </trkpt>
      <trkpt lat="46.95029" lon="2.94615">
        <ele>179.49215698242</ele>
        <time>2016-02-03T15:33:13.000Z</time>
      </trkpt>
      <trkpt lat="46.9503" lon="2.94611">
        <ele>179.47714233398</ele>
        <time>2016-02-03T15:33:13.000Z</time>
      </trkpt>
      <trkpt lat="46.95031" lon="2.94608">
        <ele>179.46617126465</ele>
        <time>2016-02-03T15:33:13.000Z</time>
      </trkpt>
      <trkpt lat="46.95032" lon="2.94604">
        <ele>179.45651245117</ele>
        <time>2016-02-03T15:33:14.000Z</time>
      </trkpt>
      <trkpt lat="46.95035" lon="2.946">
        <ele>179.45111083984</ele>
        <time>2016-02-03T15:33:14.000Z</time>
      </trkpt>
      <trkpt lat="46.95036" lon="2.94596">
        <ele>179.44970703125</ele>
        <time>2016-02-03T15:33:14.000Z</time>
      </trkpt>
      <trkpt lat="46.95036" lon="2.94593">
        <ele>179.44938659668</ele>
        <time>2016-02-03T15:33:14.000Z</time>
      </trkpt>
      <trkpt lat="46.95037" lon="2.94588">
        <ele>179.44888305664</ele>
        <time>2016-02-03T15:33:15.000Z</time>
      </trkpt>
      <trkpt lat="46.95037" lon="2.94586">
        <ele>179.4507598877</ele>
        <time>2016-02-03T15:33:15.000Z</time>
      </trkpt>
      <trkpt lat="46.95037" lon="2.94585">
        <ele>179.44879150391</ele>
        <time>2016-02-03T15:33:27.000Z</time>
      </trkpt>
      <trkpt lat="46.95039" lon="2.94584">
        <ele>179.45085144043</ele>
        <time>2016-02-03T15:33:27.000Z</time>
      </trkpt>
      <trkpt lat="46.9504" lon="2.94584">
        <ele>179.45771789551</ele>
        <time>2016-02-03T15:33:30.000Z</time>
      </trkpt>
      <trkpt lat="46.95045" lon="2.94586">
        <ele>179.47541809082</ele>
        <time>2016-02-03T15:33:31.000Z</time>
      </trkpt>
      <trkpt lat="46.95046" lon="2.94586">
        <ele>179.49559020996</ele>
        <time>2016-02-03T15:33:31.000Z</time>
      </trkpt>
      <trkpt lat="46.95051" lon="2.94586">
        <ele>179.52867126465</ele>
        <time>2016-02-03T15:33:32.000Z</time>
      </trkpt>
      <trkpt lat="46.95055" lon="2.94587">
        <ele>179.56555175781</ele>
        <time>2016-02-03T15:33:36.000Z</time>
      </trkpt>
      <trkpt lat="46.95059" lon="2.94589">
        <ele>179.60475158691</ele>
        <time>2016-02-03T15:33:50.000Z</time>
      </trkpt>
      <trkpt lat="46.95062" lon="2.94588">
        <ele>179.64079284668</ele>
        <time>2016-02-03T15:33:50.000Z</time>
      </trkpt>
      <trkpt lat="46.9507" lon="2.94585">
        <ele>179.69706726074</ele>
        <time>2016-02-03T15:33:51.000Z</time>
      </trkpt>
      <trkpt lat="46.95076" lon="2.94581">
        <ele>179.76831054688</ele>
        <time>2016-02-03T15:33:51.000Z</time>
      </trkpt>
      <trkpt lat="46.95079" lon="2.94578">
        <ele>179.85220336914</ele>
        <time>2016-02-03T15:33:51.000Z</time>
      </trkpt>
      <trkpt lat="46.95082" lon="2.94577">
        <ele>179.94374084473</ele>
        <time>2016-02-03T15:33:51.000Z</time>
      </trkpt>
      <trkpt lat="46.95085" lon="2.94574">
        <ele>180.03828430176</ele>
        <time>2016-02-03T15:33:52.000Z</time>
      </trkpt>
      <trkpt lat="46.95088" lon="2.94571">
        <ele>180.10406494141</ele>
        <time>2016-02-03T15:33:52.000Z</time>
      </trkpt>
      <trkpt lat="46.95091" lon="2.94569">
        <ele>180.1382598877</ele>
        <time>2016-02-03T15:33:52.000Z</time>
      </trkpt>
      <trkpt lat="46.95094" lon="2.94566">
        <ele>180.1439666748</ele>
        <time>2016-02-03T15:33:52.000Z</time>
      </trkpt>
      <trkpt lat="46.95097" lon="2.94562">
        <ele>180.13903808594</ele>
        <time>2016-02-03T15:33:53.000Z</time>
      </trkpt>
      <trkpt lat="46.95098" lon="2.9456">
        <ele>180.12548828125</ele>
        <time>2016-02-03T15:33:53.000Z</time>
      </trkpt>
      <trkpt lat="46.95099" lon="2.94558">
        <ele>180.11758422852</ele>
        <time>2016-02-03T15:33:55.000Z</time>
      </trkpt>
      <trkpt lat="46.95101" lon="2.94554">
        <ele>180.11553955078</ele>
        <time>2016-02-03T15:33:58.000Z</time>
      </trkpt>
      <trkpt lat="46.95102" lon="2.9455">
        <ele>180.13137817383</ele>
        <time>2016-02-03T15:34:01.000Z</time>
      </trkpt>
      <trkpt lat="46.95103" lon="2.94547">
        <ele>180.15090942383</ele>
        <time>2016-02-03T15:34:03.000Z</time>
      </trkpt>
      <trkpt lat="46.95103" lon="2.94545">
        <ele>180.1695098877</ele>
        <time>2016-02-03T15:34:05.000Z</time>
      </trkpt>
      <trkpt lat="46.95105" lon="2.94544">
        <ele>180.1764831543</ele>
        <time>2016-02-03T15:34:08.000Z</time>
      </trkpt>
      <trkpt lat="46.95107" lon="2.94545">
        <ele>180.16690063477</ele>
        <time>2016-02-03T15:34:13.000Z</time>
      </trkpt>
      <trkpt lat="46.95108" lon="2.94544">
        <ele>180.14604187012</ele>
        <time>2016-02-03T15:34:20.000Z</time>
      </trkpt>
      <trkpt lat="46.95108" lon="2.94541">
        <ele>180.12797546387</ele>
        <time>2016-02-03T15:34:30.000Z</time>
      </trkpt>
      <trkpt lat="46.95109" lon="2.94536">
        <ele>180.12329101562</ele>
        <time>2016-02-03T15:34:31.000Z</time>
      </trkpt>
      <trkpt lat="46.95109" lon="2.94533">
        <ele>180.13598632812</ele>
        <time>2016-02-03T15:34:31.000Z</time>
      </trkpt>
      <trkpt lat="46.9511" lon="2.94532">
        <ele>180.16198730469</ele>
        <time>2016-02-03T15:34:34.000Z</time>
      </trkpt>
      <trkpt lat="46.95112" lon="2.94529">
        <ele>180.18270874023</ele>
        <time>2016-02-03T15:34:34.000Z</time>
      </trkpt>
      <trkpt lat="46.95113" lon="2.94525">
        <ele>180.19621276855</ele>
        <time>2016-02-03T15:34:35.000Z</time>
      </trkpt>
      <trkpt lat="46.95115" lon="2.94522">
        <ele>180.19137573242</ele>
        <time>2016-02-03T15:34:37.000Z</time>
      </trkpt>
      <trkpt lat="46.95117" lon="2.94517">
        <ele>180.17208862305</ele>
        <time>2016-02-03T15:34:40.000Z</time>
      </trkpt>
      <trkpt lat="46.95118" lon="2.94512">
        <ele>180.16012573242</ele>
        <time>2016-02-03T15:34:43.000Z</time>
      </trkpt>
      <trkpt lat="46.95119" lon="2.94509">
        <ele>180.15469360352</ele>
        <time>2016-02-03T15:34:45.000Z</time>
      </trkpt>
      <trkpt lat="46.9512" lon="2.94508">
        <ele>180.14450073242</ele>
        <time>2016-02-03T15:34:48.000Z</time>
      </trkpt>
      <trkpt lat="46.95122" lon="2.94506">
        <ele>180.12362670898</ele>
        <time>2016-02-03T15:35:03.000Z</time>
      </trkpt>
      <trkpt lat="46.95124" lon="2.94502">
        <ele>180.09786987305</ele>
        <time>2016-02-03T15:35:06.000Z</time>
      </trkpt>
      <trkpt lat="46.95126" lon="2.94501">
        <ele>180.05941772461</ele>
        <time>2016-02-03T15:35:08.000Z</time>
      </trkpt>
      <trkpt lat="46.95127" lon="2.94501">
        <ele>180.00871276855</ele>
        <time>2016-02-03T15:35:10.000Z</time>
      </trkpt>
      <trkpt lat="46.95129" lon="2.94502">
        <ele>179.93975830078</ele>
        <time>2016-02-03T15:35:13.000Z</time>
      </trkpt>
      <trkpt lat="46.95131" lon="2.945">
        <ele>179.86569213867</ele>
        <time>2016-02-03T15:35:16.000Z</time>
      </trkpt>
      <trkpt lat="46.95134" lon="2.94498">
        <ele>179.76818847656</ele>
        <time>2016-02-03T15:35:19.000Z</time>
      </trkpt>
      <trkpt lat="46.95135" lon="2.94497">
        <ele>179.65676879883</ele>
        <time>2016-02-03T15:35:21.000Z</time>
      </trkpt>
      <trkpt lat="46.95137" lon="2.94494">
        <ele>179.52075195312</ele>
        <time>2016-02-03T15:35:24.000Z</time>
      </trkpt>
      <trkpt lat="46.9514" lon="2.94493">
        <ele>179.37753295898</ele>
        <time>2016-02-03T15:35:26.000Z</time>
      </trkpt>
      <trkpt lat="46.95141" lon="2.94491">
        <ele>179.23014831543</ele>
        <time>2016-02-03T15:35:29.000Z</time>
      </trkpt>
      <trkpt lat="46.95144" lon="2.94489">
        <ele>179.07426452637</ele>
        <time>2016-02-03T15:35:31.000Z</time>
      </trkpt>
      <trkpt lat="46.95147" lon="2.94487">
        <ele>178.90628051758</ele>
        <time>2016-02-03T15:35:34.000Z</time>
      </trkpt>
      <trkpt lat="46.95148" lon="2.94486">
        <ele>178.75952148438</ele>
        <time>2016-02-03T15:35:36.000Z</time>
      </trkpt>
      <trkpt lat="46.95149" lon="2.94485">
        <ele>178.62551879883</ele>
        <time>2016-02-03T15:35:39.000Z</time>
      </trkpt>
      <trkpt lat="46.9515" lon="2.94483">
        <ele>178.49760437012</ele>
        <time>2016-02-03T15:35:42.000Z</time>
      </trkpt>
      <trkpt lat="46.9515" lon="2.9448">
        <ele>178.39739990234</ele>
        <time>2016-02-03T15:35:44.000Z</time>
      </trkpt>
      <trkpt lat="46.95151" lon="2.94478">
        <ele>178.31492614746</ele>
        <time>2016-02-03T15:35:46.000Z</time>
      </trkpt>
      <trkpt lat="46.95152" lon="2.94473">
        <ele>178.2067565918</ele>
        <time>2016-02-03T15:35:49.000Z</time>
      </trkpt>
      <trkpt lat="46.95155" lon="2.94467">
        <ele>178.0583190918</ele>
        <time>2016-02-03T15:35:52.000Z</time>
      </trkpt>
      <trkpt lat="46.95157" lon="2.94462">
        <ele>177.88542175293</ele>
        <time>2016-02-03T15:35:55.000Z</time>
      </trkpt>
      <trkpt lat="46.95158" lon="2.94458">
        <ele>177.69798278809</ele>
        <time>2016-02-03T15:35:57.000Z</time>
      </trkpt>
      <trkpt lat="46.95157" lon="2.94453">
        <ele>177.51071166992</ele>
        <time>2016-02-03T15:36:00.000Z</time>
      </trkpt>
      <trkpt lat="46.95156" lon="2.94449">
        <ele>177.35006713867</ele>
        <time>2016-02-03T15:36:03.000Z</time>
      </trkpt>
      <trkpt lat="46.95153" lon="2.94444">
        <ele>177.23783874512</ele>
        <time>2016-02-03T15:36:06.000Z</time>
      </trkpt>
      <trkpt lat="46.9515" lon="2.94443">
        <ele>177.17735290527</ele>
        <time>2016-02-03T15:36:08.000Z</time>
      </trkpt>
      <trkpt lat="46.95148" lon="2.94442">
        <ele>177.15933227539</ele>
        <time>2016-02-03T15:36:10.000Z</time>
      </trkpt>
      <trkpt lat="46.95144" lon="2.9444">
        <ele>177.16511535645</ele>
        <time>2016-02-03T15:36:13.000Z</time>
      </trkpt>
      <trkpt lat="46.95142" lon="2.94438">
        <ele>177.18649291992</ele>
        <time>2016-02-03T15:36:15.000Z</time>
      </trkpt>
      <trkpt lat="46.9514" lon="2.94435">
        <ele>177.21249389648</ele>
        <time>2016-02-03T15:36:18.000Z</time>
      </trkpt>
      <trkpt lat="46.95139" lon="2.94433">
        <ele>177.22221374512</ele>
        <time>2016-02-03T15:36:20.000Z</time>
      </trkpt>
      <trkpt lat="46.95136" lon="2.9443">
        <ele>177.21295166016</ele>
        <time>2016-02-03T15:36:23.000Z</time>
      </trkpt>
      <trkpt lat="46.95134" lon="2.94428">
        <ele>177.19873046875</ele>
        <time>2016-02-03T15:36:25.000Z</time>
      </trkpt>
      <trkpt lat="46.95132" lon="2.94427">
        <ele>177.18505859375</ele>
        <time>2016-02-03T15:36:28.000Z</time>
      </trkpt>
      <trkpt lat="46.95131" lon="2.94427">
        <ele>177.18132019043</ele>
        <time>2016-02-03T15:36:31.000Z</time>
      </trkpt>
      <trkpt lat="46.9513" lon="2.94426">
        <ele>177.18235778809</ele>
        <time>2016-02-03T15:36:33.000Z</time>
      </trkpt>
      <trkpt lat="46.95128" lon="2.94426">
        <ele>177.20277404785</ele>
        <time>2016-02-03T15:36:36.000Z</time>
      </trkpt>
      <trkpt lat="46.95127" lon="2.94428">
        <ele>177.23965454102</ele>
        <time>2016-02-03T15:36:48.000Z</time>
      </trkpt>
      <trkpt lat="46.95127" lon="2.94428">
        <ele>177.23965454102</ele>
        <time>2016-02-03T15:37:11.000Z</time>
      </trkpt>
      <trkpt lat="46.95127" lon="2.9443">
        <ele>177.28671264648</ele>
        <time>2016-02-03T15:37:15.000Z</time>
      </trkpt>
      <trkpt lat="46.95127" lon="2.9443">
        <ele>177.28671264648</ele>
        <time>2016-02-03T15:37:20.000Z</time>
      </trkpt>
    </trkseg>
  </trk>
</gpx>